﻿<?xml version="1.0" encoding="utf-8"?><gpx creator="Garmin Desktop App" version="1.1" xsi:schemaLocation="http://www.topografix.com/GPX/1/1 http://www.topografix.com/GPX/1/1/gpx.xsd http://www.garmin.com/xmlschemas/WaypointExtension/v1 http://www8.garmin.com/xmlschemas/WaypointExtensionv1.xsd http://www.garmin.com/xmlschemas/TrackPointExtension/v1 http://www.garmin.com/xmlschemas/TrackPointExtensionv1.xsd http://www.garmin.com/xmlschemas/GpxExtensions/v3 http://www8.garmin.com/xmlschemas/GpxExtensionsv3.xsd http://www.garmin.com/xmlschemas/ActivityExtension/v1 http://www8.garmin.com/xmlschemas/ActivityExtensionv1.xsd http://www.garmin.com/xmlschemas/AdventuresExtensions/v1 http://www8.garmin.com/xmlschemas/AdventuresExtensionv1.xsd http://www.garmin.com/xmlschemas/PressureExtension/v1 http://www.garmin.com/xmlschemas/PressureExtensionv1.xsd http://www.garmin.com/xmlschemas/TripExtensions/v1 http://www.garmin.com/xmlschemas/TripExtensionsv1.xsd http://www.garmin.com/xmlschemas/TripMetaDataExtensions/v1 http://www.garmin.com/xmlschemas/TripMetaDataExtensionsv1.xsd http://www.garmin.com/xmlschemas/ViaPointTransportationModeExtensions/v1 http://www.garmin.com/xmlschemas/ViaPointTransportationModeExtensionsv1.xsd http://www.garmin.com/xmlschemas/CreationTimeExtension/v1 http://www.garmin.com/xmlschemas/CreationTimeExtensionsv1.xsd http://www.garmin.com/xmlschemas/AccelerationExtension/v1 http://www.garmin.com/xmlschemas/AccelerationExtensionv1.xsd http://www.garmin.com/xmlschemas/PowerExtension/v1 http://www.garmin.com/xmlschemas/PowerExtensionv1.xsd http://www.garmin.com/xmlschemas/VideoExtension/v1 http://www.garmin.com/xmlschemas/VideoExtensionv1.xsd" xmlns="http://www.topografix.com/GPX/1/1" xmlns:xsi="http://www.w3.org/2001/XMLSchema-instance" xmlns:wptx1="http://www.garmin.com/xmlschemas/WaypointExtension/v1" xmlns:gpxtrx="http://www.garmin.com/xmlschemas/GpxExtensions/v3" xmlns:gpxtpx="http://www.garmin.com/xmlschemas/TrackPointExtension/v1" xmlns:gpxx="http://www.garmin.com/xmlschemas/GpxExtensions/v3" xmlns:trp="http://www.garmin.com/xmlschemas/TripExtensions/v1" xmlns:adv="http://www.garmin.com/xmlschemas/AdventuresExtensions/v1" xmlns:prs="http://www.garmin.com/xmlschemas/PressureExtension/v1" xmlns:tmd="http://www.garmin.com/xmlschemas/TripMetaDataExtensions/v1" xmlns:vptm="http://www.garmin.com/xmlschemas/ViaPointTransportationModeExtensions/v1" xmlns:ctx="http://www.garmin.com/xmlschemas/CreationTimeExtension/v1" xmlns:gpxacc="http://www.garmin.com/xmlschemas/AccelerationExtension/v1" xmlns:gpxpx="http://www.garmin.com/xmlschemas/PowerExtension/v1" xmlns:vidx1="http://www.garmin.com/xmlschemas/VideoExtension/v1">

  <metadata>
    <link href="http://www.garmin.com">
      <text>Garmin International</text>
    </link>
    <time>2019-08-31T19:49:36Z</time>
    <bounds maxlat="52.463579010218382" maxlon="8.478610971942544" minlat="50.055195959284902" minlon="4.58692098967731" />
  </metadata>

  <trk>
    <name>Track 003</name>
    <extensions>
      <gpxx:TrackExtension>
        <gpxx:DisplayColor>DarkGray</gpxx:DisplayColor>
      </gpxx:TrackExtension>
    </extensions>
    <trkseg>
      <trkpt lat="50.068408017978072" lon="8.478189026936889">
        <ele>111.65000000000001</ele>
        <time>2019-08-30T04:25:10Z</time>
      </trkpt>
      <trkpt lat="50.068408017978072" lon="8.478189026936889">
        <ele>111.65000000000001</ele>
        <time>2019-08-30T04:25:16Z</time>
      </trkpt>
      <trkpt lat="50.068431990221143" lon="8.478226996958256">
        <ele>112.13</ele>
        <time>2019-08-30T04:25:23Z</time>
      </trkpt>
      <trkpt lat="50.068428972736001" lon="8.47823403775692">
        <ele>112.13</ele>
        <time>2019-08-30T04:25:25Z</time>
      </trkpt>
      <trkpt lat="50.068415980786085" lon="8.478255998343229">
        <ele>112.13</ele>
        <time>2019-08-30T04:25:26Z</time>
      </trkpt>
      <trkpt lat="50.068366024643183" lon="8.478335039690137">
        <ele>111.65000000000001</ele>
        <time>2019-08-30T04:25:27Z</time>
      </trkpt>
      <trkpt lat="50.068337023258209" lon="8.478382984176278">
        <ele>111.65000000000001</ele>
        <time>2019-08-30T04:25:28Z</time>
      </trkpt>
      <trkpt lat="50.068306010216475" lon="8.478432018309832">
        <ele>111.65000000000001</ele>
        <time>2019-08-30T04:25:29Z</time>
      </trkpt>
      <trkpt lat="50.068224035203457" lon="8.478562021628022">
        <ele>111.17</ele>
        <time>2019-08-30T04:25:33Z</time>
      </trkpt>
      <trkpt lat="50.068124961107969" lon="8.478610971942544">
        <ele>111.17</ele>
        <time>2019-08-30T04:25:34Z</time>
      </trkpt>
      <trkpt lat="50.068087996914983" lon="8.478519022464752">
        <ele>110.69</ele>
        <time>2019-08-30T04:25:36Z</time>
      </trkpt>
      <trkpt lat="50.068058995530009" lon="8.478446016088128">
        <ele>110.20999999999999</ele>
        <time>2019-08-30T04:25:37Z</time>
      </trkpt>
      <trkpt lat="50.068024965003133" lon="8.47836404107511">
        <ele>110.20999999999999</ele>
        <time>2019-08-30T04:25:38Z</time>
      </trkpt>
      <trkpt lat="50.067860009148717" lon="8.477957015857101">
        <ele>111.17</ele>
        <time>2019-08-30T04:25:42Z</time>
      </trkpt>
      <trkpt lat="50.067601008340716" lon="8.477316973730922">
        <ele>113.56999999999999</ele>
        <time>2019-08-30T04:25:48Z</time>
      </trkpt>
      <trkpt lat="50.06745901890099" lon="8.476949008181691">
        <ele>114.53</ele>
        <time>2019-08-30T04:25:51Z</time>
      </trkpt>
      <trkpt lat="50.066898018121719" lon="8.475776966661215">
        <ele>115.01000000000001</ele>
        <time>2019-08-30T04:26:01Z</time>
      </trkpt>
      <trkpt lat="50.066630970686674" lon="8.475307999178767">
        <ele>115.01000000000001</ele>
        <time>2019-08-30T04:26:05Z</time>
      </trkpt>
      <trkpt lat="50.066570034250617" lon="8.475200962275267">
        <ele>115.01000000000001</ele>
        <time>2019-08-30T04:26:06Z</time>
      </trkpt>
      <trkpt lat="50.066547989845276" lon="8.474899968132377">
        <ele>115.01000000000001</ele>
        <time>2019-08-30T04:26:08Z</time>
      </trkpt>
      <trkpt lat="50.066388985142112" lon="8.474840959534049">
        <ele>115.01000000000001</ele>
        <time>2019-08-30T04:26:09Z</time>
      </trkpt>
      <trkpt lat="50.066350009292364" lon="8.474665023386478">
        <ele>114.53</ele>
        <time>2019-08-30T04:26:10Z</time>
      </trkpt>
      <trkpt lat="50.066155968233943" lon="8.474044008180499">
        <ele>113.56999999999999</ele>
        <time>2019-08-30T04:26:14Z</time>
      </trkpt>
      <trkpt lat="50.066099977120757" lon="8.473871005699039">
        <ele>113.56999999999999</ele>
        <time>2019-08-30T04:26:15Z</time>
      </trkpt>
      <trkpt lat="50.066039962694049" lon="8.473690962418914">
        <ele>113.09</ele>
        <time>2019-08-30T04:26:16Z</time>
      </trkpt>
      <trkpt lat="50.065509974956512" lon="8.471879968419671">
        <ele>112.13</ele>
        <time>2019-08-30T04:26:26Z</time>
      </trkpt>
      <trkpt lat="50.065465969964862" lon="8.471291977912188">
        <ele>111.65000000000001</ele>
        <time>2019-08-30T04:26:30Z</time>
      </trkpt>
      <trkpt lat="50.065486002713442" lon="8.471176978200674">
        <ele>111.65000000000001</ele>
        <time>2019-08-30T04:26:31Z</time>
      </trkpt>
      <trkpt lat="50.065520033240318" lon="8.471062984317541">
        <ele>112.13</ele>
        <time>2019-08-30T04:26:32Z</time>
      </trkpt>
      <trkpt lat="50.065578036010265" lon="8.470867015421391">
        <ele>112.61</ele>
        <time>2019-08-30T04:26:33Z</time>
      </trkpt>
      <trkpt lat="50.065624974668026" lon="8.470824016258121">
        <ele>112.61</ele>
        <time>2019-08-30T04:26:34Z</time>
      </trkpt>
      <trkpt lat="50.065722037106752" lon="8.4707370121032">
        <ele>113.09</ele>
        <time>2019-08-30T04:26:35Z</time>
      </trkpt>
      <trkpt lat="50.065835025161505" lon="8.470641961321235">
        <ele>113.09</ele>
        <time>2019-08-30T04:26:36Z</time>
      </trkpt>
      <trkpt lat="50.067344019189477" lon="8.469462040811777">
        <ele>117.90000000000001</ele>
        <time>2019-08-30T04:26:48Z</time>
      </trkpt>
      <trkpt lat="50.068627959117293" lon="8.468662993982434">
        <ele>123.67</ele>
        <time>2019-08-30T04:26:59Z</time>
      </trkpt>
      <trkpt lat="50.06874899379909" lon="8.468618988990784">
        <ele>124.15000000000001</ele>
        <time>2019-08-30T04:27:00Z</time>
      </trkpt>
      <trkpt lat="50.068874973803759" lon="8.468600967898965">
        <ele>124.15000000000001</ele>
        <time>2019-08-30T04:27:01Z</time>
      </trkpt>
      <trkpt lat="50.069003971293569" lon="8.468599040061235">
        <ele>124.15000000000001</ele>
        <time>2019-08-30T04:27:02Z</time>
      </trkpt>
      <trkpt lat="50.069117965176702" lon="8.468613959848881">
        <ele>124.63</ele>
        <time>2019-08-30T04:27:03Z</time>
      </trkpt>
      <trkpt lat="50.069249980151653" lon="8.468663999810815">
        <ele>124.63</ele>
        <time>2019-08-30T04:27:04Z</time>
      </trkpt>
      <trkpt lat="50.069361040368676" lon="8.468706998974085">
        <ele>125.11</ele>
        <time>2019-08-30T04:27:05Z</time>
      </trkpt>
      <trkpt lat="50.069676032289863" lon="8.468871032819152">
        <ele>125.11</ele>
        <time>2019-08-30T04:27:09Z</time>
      </trkpt>
      <trkpt lat="50.069722970947623" lon="8.468893999233842">
        <ele>124.63</ele>
        <time>2019-08-30T04:27:10Z</time>
      </trkpt>
      <trkpt lat="50.069795977324247" lon="8.468784028664231">
        <ele>124.63</ele>
        <time>2019-08-30T04:27:11Z</time>
      </trkpt>
      <trkpt lat="50.06982003338635" lon="8.468698030337691">
        <ele>124.63</ele>
        <time>2019-08-30T04:27:12Z</time>
      </trkpt>
      <trkpt lat="50.069848028942943" lon="8.468591999262571">
        <ele>124.63</ele>
        <time>2019-08-30T04:27:13Z</time>
      </trkpt>
      <trkpt lat="50.069840988144279" lon="8.46848102286458">
        <ele>124.63</ele>
        <time>2019-08-30T04:27:14Z</time>
      </trkpt>
      <trkpt lat="50.069834031164646" lon="8.468360994011164">
        <ele>124.63</ele>
        <time>2019-08-30T04:27:15Z</time>
      </trkpt>
      <trkpt lat="50.069825984537601" lon="8.468229984864593">
        <ele>124.63</ele>
        <time>2019-08-30T04:27:16Z</time>
      </trkpt>
      <trkpt lat="50.06980000063777" lon="8.46809696406126">
        <ele>124.63</ele>
        <time>2019-08-30T04:27:17Z</time>
      </trkpt>
      <trkpt lat="50.069773010909557" lon="8.467958997935057">
        <ele>124.63</ele>
        <time>2019-08-30T04:27:18Z</time>
      </trkpt>
      <trkpt lat="50.069724982604384" lon="8.467824971303344">
        <ele>124.63</ele>
        <time>2019-08-30T04:27:19Z</time>
      </trkpt>
      <trkpt lat="50.069662034511566" lon="8.467690022662282">
        <ele>124.63</ele>
        <time>2019-08-30T04:27:20Z</time>
      </trkpt>
      <trkpt lat="50.069588022306561" lon="8.467563958838582">
        <ele>124.15000000000001</ele>
        <time>2019-08-30T04:27:21Z</time>
      </trkpt>
      <trkpt lat="50.069501018151641" lon="8.467445019632578">
        <ele>123.19</ele>
        <time>2019-08-30T04:27:23Z</time>
      </trkpt>
      <trkpt lat="50.069302031770349" lon="8.467348041012883">
        <ele>123.19</ele>
        <time>2019-08-30T04:27:24Z</time>
      </trkpt>
      <trkpt lat="50.069204969331622" lon="8.46732197329402">
        <ele>122.70999999999999</ele>
        <time>2019-08-30T04:27:25Z</time>
      </trkpt>
      <trkpt lat="50.069110002368689" lon="8.467318033799529">
        <ele>122.22</ele>
        <time>2019-08-30T04:27:26Z</time>
      </trkpt>
      <trkpt lat="50.069010006263852" lon="8.467363966628909">
        <ele>121.73999999999999</ele>
        <time>2019-08-30T04:27:27Z</time>
      </trkpt>
      <trkpt lat="50.068805990740657" lon="8.467455999925733">
        <ele>120.3</ele>
        <time>2019-08-30T04:27:30Z</time>
      </trkpt>
      <trkpt lat="50.068609016016126" lon="8.467492964118719">
        <ele>119.34</ele>
        <time>2019-08-30T04:27:31Z</time>
      </trkpt>
      <trkpt lat="50.068512037396431" lon="8.467448959127069">
        <ele>118.86</ele>
        <time>2019-08-30T04:27:32Z</time>
      </trkpt>
      <trkpt lat="50.068416986614466" lon="8.467395985499024">
        <ele>118.86</ele>
        <time>2019-08-30T04:27:33Z</time>
      </trkpt>
      <trkpt lat="50.068332999944687" lon="8.467302024364471">
        <ele>118.38</ele>
        <time>2019-08-30T04:27:34Z</time>
      </trkpt>
      <trkpt lat="50.068245995789766" lon="8.467203034088016">
        <ele>118.38</ele>
        <time>2019-08-30T04:27:35Z</time>
      </trkpt>
      <trkpt lat="50.068153040483594" lon="8.467099014669657">
        <ele>118.38</ele>
        <time>2019-08-30T04:27:36Z</time>
      </trkpt>
      <trkpt lat="50.067411996424198" lon="8.465927978977561">
        <ele>118.86</ele>
        <time>2019-08-30T04:27:43Z</time>
      </trkpt>
      <trkpt lat="50.066478000953794" lon="8.464333992451429">
        <ele>119.81999999999999</ele>
        <time>2019-08-30T04:27:49Z</time>
      </trkpt>
      <trkpt lat="50.064497021958232" lon="8.460849970579147">
        <ele>123.19</ele>
        <time>2019-08-30T04:28:00Z</time>
      </trkpt>
      <trkpt lat="50.062329964712262" lon="8.457496035844088">
        <ele>124.63</ele>
        <time>2019-08-30T04:28:11Z</time>
      </trkpt>
      <trkpt lat="50.05882197059691" lon="8.452552976086736">
        <ele>124.15000000000001</ele>
        <time>2019-08-30T04:28:28Z</time>
      </trkpt>
      <trkpt lat="50.056590037420392" lon="8.449264001101255">
        <ele>126.06999999999999</ele>
        <time>2019-08-30T04:28:39Z</time>
      </trkpt>
      <trkpt lat="50.055699963122606" lon="8.447107002139092">
        <ele>126.06999999999999</ele>
        <time>2019-08-30T04:28:45Z</time>
      </trkpt>
      <trkpt lat="50.05521297454834" lon="8.444662000983954">
        <ele>126.06999999999999</ele>
        <time>2019-08-30T04:28:51Z</time>
      </trkpt>
      <trkpt lat="50.055195959284902" lon="8.442094959318638">
        <ele>127.03</ele>
        <time>2019-08-30T04:28:57Z</time>
      </trkpt>
      <trkpt lat="50.055481027811766" lon="8.437801999971271">
        <ele>130.40000000000001</ele>
        <time>2019-08-30T04:29:07Z</time>
      </trkpt>
      <trkpt lat="50.05551396869123" lon="8.431780021637678">
        <ele>134.24000000000001</ele>
        <time>2019-08-30T04:29:21Z</time>
      </trkpt>
      <trkpt lat="50.05553500726819" lon="8.426706036552787">
        <ele>138.56999999999999</ele>
        <time>2019-08-30T04:29:33Z</time>
      </trkpt>
      <trkpt lat="50.055555962026119" lon="8.421261990442872">
        <ele>147.69999999999999</ele>
        <time>2019-08-30T04:29:46Z</time>
      </trkpt>
      <trkpt lat="50.05557700060308" lon="8.416276015341282">
        <ele>155.38999999999999</ele>
        <time>2019-08-30T04:29:58Z</time>
      </trkpt>
      <trkpt lat="50.05559996701777" lon="8.41059903614223">
        <ele>158.27000000000001</ele>
        <time>2019-08-30T04:30:11Z</time>
      </trkpt>
      <trkpt lat="50.05562100559473" lon="8.404358038678765">
        <ele>157.31</ele>
        <time>2019-08-30T04:30:25Z</time>
      </trkpt>
      <trkpt lat="50.055638020858169" lon="8.40011796914041">
        <ele>152.99000000000001</ele>
        <time>2019-08-30T04:30:35Z</time>
      </trkpt>
      <trkpt lat="50.055671967566013" lon="8.39566801674664">
        <ele>152.50999999999999</ele>
        <time>2019-08-30T04:30:47Z</time>
      </trkpt>
      <trkpt lat="50.05581496283412" lon="8.391901021823287">
        <ele>155.87</ele>
        <time>2019-08-30T04:30:58Z</time>
      </trkpt>
      <trkpt lat="50.05587900057435" lon="8.391366004943848">
        <ele>155.87</ele>
        <time>2019-08-30T04:31:00Z</time>
      </trkpt>
      <trkpt lat="50.055935997515917" lon="8.391115972772241">
        <ele>156.34999999999999</ele>
        <time>2019-08-30T04:31:01Z</time>
      </trkpt>
      <trkpt lat="50.056026019155979" lon="8.390871975570917">
        <ele>156.34999999999999</ele>
        <time>2019-08-30T04:31:02Z</time>
      </trkpt>
      <trkpt lat="50.057091023772955" lon="8.388128997758031">
        <ele>159.24000000000001</ele>
        <time>2019-08-30T04:31:12Z</time>
      </trkpt>
      <trkpt lat="50.057652024552226" lon="8.386832987889648">
        <ele>162.12</ele>
        <time>2019-08-30T04:31:17Z</time>
      </trkpt>
      <trkpt lat="50.057784961536527" lon="8.386597959324718">
        <ele>162.12</ele>
        <time>2019-08-30T04:31:18Z</time>
      </trkpt>
      <trkpt lat="50.05793902091682" lon="8.386387992650271">
        <ele>162.12</ele>
        <time>2019-08-30T04:31:19Z</time>
      </trkpt>
      <trkpt lat="50.058120992034674" lon="8.386195963248611">
        <ele>162.59999999999999</ele>
        <time>2019-08-30T04:31:20Z</time>
      </trkpt>
      <trkpt lat="50.058317966759205" lon="8.386024972423911">
        <ele>162.59999999999999</ele>
        <time>2019-08-30T04:31:21Z</time>
      </trkpt>
      <trkpt lat="50.060259969905019" lon="8.384189000353217">
        <ele>164.52000000000001</ele>
        <time>2019-08-30T04:31:30Z</time>
      </trkpt>
      <trkpt lat="50.063407039269805" lon="8.381576025858522">
        <ele>166.93000000000001</ele>
        <time>2019-08-30T04:31:43Z</time>
      </trkpt>
      <trkpt lat="50.067125000059605" lon="8.378334995359182">
        <ele>173.16999999999999</ele>
        <time>2019-08-30T04:31:57Z</time>
      </trkpt>
      <trkpt lat="50.068866005167365" lon="8.376455018296838">
        <ele>172.21000000000001</ele>
        <time>2019-08-30T04:32:04Z</time>
      </trkpt>
      <trkpt lat="50.07147403433919" lon="8.373095970600843">
        <ele>158.75</ele>
        <time>2019-08-30T04:32:15Z</time>
      </trkpt>
      <trkpt lat="50.075311018154025" lon="8.368173027411103">
        <ele>165.96000000000001</ele>
        <time>2019-08-30T04:32:31Z</time>
      </trkpt>
      <trkpt lat="50.078103030100465" lon="8.365022018551827">
        <ele>164.52000000000001</ele>
        <time>2019-08-30T04:32:42Z</time>
      </trkpt>
      <trkpt lat="50.080895964056253" lon="8.362777009606361">
        <ele>162.59999999999999</ele>
        <time>2019-08-30T04:32:52Z</time>
      </trkpt>
      <trkpt lat="50.085406014695764" lon="8.359409999102354">
        <ele>171.25</ele>
        <time>2019-08-30T04:33:08Z</time>
      </trkpt>
      <trkpt lat="50.08881501853466" lon="8.356920992955566">
        <ele>187.59</ele>
        <time>2019-08-30T04:33:20Z</time>
      </trkpt>
      <trkpt lat="50.091474009677768" lon="8.355304962024093">
        <ele>204.90000000000001</ele>
        <time>2019-08-30T04:33:29Z</time>
      </trkpt>
      <trkpt lat="50.094998013228178" lon="8.353350972756743">
        <ele>220.28</ele>
        <time>2019-08-30T04:33:41Z</time>
      </trkpt>
      <trkpt lat="50.098249018192291" lon="8.351532015949488">
        <ele>225.09</ele>
        <time>2019-08-30T04:33:52Z</time>
      </trkpt>
      <trkpt lat="50.102992001920938" lon="8.348881993442774">
        <ele>226.53</ele>
        <time>2019-08-30T04:34:08Z</time>
      </trkpt>
      <trkpt lat="50.107095027342439" lon="8.346571018919349">
        <ele>231.33000000000001</ele>
        <time>2019-08-30T04:34:22Z</time>
      </trkpt>
      <trkpt lat="50.110662030056119" lon="8.344572018831968">
        <ele>230.84999999999999</ele>
        <time>2019-08-30T04:34:34Z</time>
      </trkpt>
      <trkpt lat="50.114450985565782" lon="8.34257997572422">
        <ele>240.47</ele>
        <time>2019-08-30T04:34:47Z</time>
      </trkpt>
      <trkpt lat="50.116556016728282" lon="8.341967007145286">
        <ele>252.47999999999999</ele>
        <time>2019-08-30T04:34:54Z</time>
      </trkpt>
      <trkpt lat="50.119383987039328" lon="8.34163399413228">
        <ele>262.10000000000002</ele>
        <time>2019-08-30T04:35:03Z</time>
      </trkpt>
      <trkpt lat="50.123133966699243" lon="8.341227974742651">
        <ele>262.57999999999998</ele>
        <time>2019-08-30T04:35:15Z</time>
      </trkpt>
      <trkpt lat="50.125873005017638" lon="8.340521967038512">
        <ele>265.45999999999998</ele>
        <time>2019-08-30T04:35:24Z</time>
      </trkpt>
      <trkpt lat="50.128533001989126" lon="8.339129984378815">
        <ele>273.14999999999998</ele>
        <time>2019-08-30T04:35:33Z</time>
      </trkpt>
      <trkpt lat="50.131732039153576" lon="8.33692797459662">
        <ele>276.04000000000002</ele>
        <time>2019-08-30T04:35:44Z</time>
      </trkpt>
      <trkpt lat="50.134302014485002" lon="8.335111029446125">
        <ele>279.39999999999998</ele>
        <time>2019-08-30T04:35:53Z</time>
      </trkpt>
      <trkpt lat="50.13741304166615" lon="8.332951012998819">
        <ele>285.17000000000002</ele>
        <time>2019-08-30T04:36:04Z</time>
      </trkpt>
      <trkpt lat="50.139679005369544" lon="8.331393990665674">
        <ele>295.74000000000001</ele>
        <time>2019-08-30T04:36:12Z</time>
      </trkpt>
      <trkpt lat="50.142748961225152" lon="8.328989977017045">
        <ele>312.08999999999997</ele>
        <time>2019-08-30T04:36:23Z</time>
      </trkpt>
      <trkpt lat="50.145598975941539" lon="8.325874004513025">
        <ele>318.32999999999998</ele>
        <time>2019-08-30T04:36:34Z</time>
      </trkpt>
      <trkpt lat="50.148042971268296" lon="8.322932962328196">
        <ele>326.01999999999998</ele>
        <time>2019-08-30T04:36:44Z</time>
      </trkpt>
      <trkpt lat="50.149100013077259" lon="8.320549987256527">
        <ele>333.23000000000002</ele>
        <time>2019-08-30T04:36:50Z</time>
      </trkpt>
      <trkpt lat="50.149558000266552" lon="8.318218979984522">
        <ele>338.04000000000002</ele>
        <time>2019-08-30T04:36:55Z</time>
      </trkpt>
      <trkpt lat="50.150309018790722" lon="8.313963990658522">
        <ele>338.04000000000002</ele>
        <time>2019-08-30T04:37:04Z</time>
      </trkpt>
      <trkpt lat="50.151192974299192" lon="8.31198200583458">
        <ele>335.63999999999999</ele>
        <time>2019-08-30T04:37:09Z</time>
      </trkpt>
      <trkpt lat="50.152906989678741" lon="8.309885021299124">
        <ele>331.79000000000002</ele>
        <time>2019-08-30T04:37:16Z</time>
      </trkpt>
      <trkpt lat="50.156656969338655" lon="8.306362023577094">
        <ele>327.47000000000003</ele>
        <time>2019-08-30T04:37:30Z</time>
      </trkpt>
      <trkpt lat="50.160379959270358" lon="8.302747998386622">
        <ele>327.94999999999999</ele>
        <time>2019-08-30T04:37:44Z</time>
      </trkpt>
      <trkpt lat="50.162491025403142" lon="8.29986403696239">
        <ele>329.87</ele>
        <time>2019-08-30T04:37:53Z</time>
      </trkpt>
      <trkpt lat="50.164813986048102" lon="8.296658964827657">
        <ele>338.51999999999998</ele>
        <time>2019-08-30T04:38:03Z</time>
      </trkpt>
      <trkpt lat="50.167239038273692" lon="8.294463995844126">
        <ele>350.54000000000002</ele>
        <time>2019-08-30T04:38:12Z</time>
      </trkpt>
      <trkpt lat="50.169626958668232" lon="8.29210901632905">
        <ele>360.14999999999998</ele>
        <time>2019-08-30T04:38:21Z</time>
      </trkpt>
      <trkpt lat="50.171453040093184" lon="8.289393028244376">
        <ele>366.39999999999998</ele>
        <time>2019-08-30T04:38:29Z</time>
      </trkpt>
      <trkpt lat="50.173064041882753" lon="8.285774979740381">
        <ele>368.31999999999999</ele>
        <time>2019-08-30T04:38:38Z</time>
      </trkpt>
      <trkpt lat="50.174355022609234" lon="8.282219041138887">
        <ele>369.27999999999997</ele>
        <time>2019-08-30T04:38:47Z</time>
      </trkpt>
      <trkpt lat="50.175994019955397" lon="8.277789959684014">
        <ele>365.92000000000002</ele>
        <time>2019-08-30T04:38:58Z</time>
      </trkpt>
      <trkpt lat="50.177810965105891" lon="8.273221990093589">
        <ele>353.42000000000002</ele>
        <time>2019-08-30T04:39:09Z</time>
      </trkpt>
      <trkpt lat="50.179544007405639" lon="8.270509019494057">
        <ele>355.33999999999997</ele>
        <time>2019-08-30T04:39:17Z</time>
      </trkpt>
      <trkpt lat="50.181371010839939" lon="8.268644968047738">
        <ele>360.14999999999998</ele>
        <time>2019-08-30T04:39:24Z</time>
      </trkpt>
      <trkpt lat="50.183728002011776" lon="8.267248962074518">
        <ele>360.14999999999998</ele>
        <time>2019-08-30T04:39:32Z</time>
      </trkpt>
      <trkpt lat="50.187259968370199" lon="8.265271000564098">
        <ele>356.31</ele>
        <time>2019-08-30T04:39:44Z</time>
      </trkpt>
      <trkpt lat="50.189722990617156" lon="8.263120036572218">
        <ele>354.86000000000001</ele>
        <time>2019-08-30T04:39:53Z</time>
      </trkpt>
      <trkpt lat="50.192961003631353" lon="8.260113028809428">
        <ele>354.38</ele>
        <time>2019-08-30T04:40:05Z</time>
      </trkpt>
      <trkpt lat="50.197163019329309" lon="8.256844002753496">
        <ele>353.89999999999998</ele>
        <time>2019-08-30T04:40:20Z</time>
      </trkpt>
      <trkpt lat="50.200328025966883" lon="8.254890013486147">
        <ele>354.86000000000001</ele>
        <time>2019-08-30T04:40:31Z</time>
      </trkpt>
      <trkpt lat="50.20330997183919" lon="8.253472968935967">
        <ele>365.92000000000002</ele>
        <time>2019-08-30T04:40:41Z</time>
      </trkpt>
      <trkpt lat="50.207310989499092" lon="8.252058019861579">
        <ele>374.56999999999999</ele>
        <time>2019-08-30T04:40:54Z</time>
      </trkpt>
      <trkpt lat="50.211351988837123" lon="8.251066021621227">
        <ele>367.36000000000001</ele>
        <time>2019-08-30T04:41:07Z</time>
      </trkpt>
      <trkpt lat="50.215290980413556" lon="8.250195980072022">
        <ele>364.48000000000002</ele>
        <time>2019-08-30T04:41:20Z</time>
      </trkpt>
      <trkpt lat="50.217138016596437" lon="8.250308968126774">
        <ele>362.06999999999999</ele>
        <time>2019-08-30T04:41:26Z</time>
      </trkpt>
      <trkpt lat="50.220127003267407" lon="8.250981029123068">
        <ele>354.38</ele>
        <time>2019-08-30T04:41:35Z</time>
      </trkpt>
      <trkpt lat="50.222940975800157" lon="8.251173980534077">
        <ele>341.88999999999999</ele>
        <time>2019-08-30T04:41:44Z</time>
      </trkpt>
      <trkpt lat="50.22569602355361" lon="8.250522958114743">
        <ele>330.82999999999998</ele>
        <time>2019-08-30T04:41:53Z</time>
      </trkpt>
      <trkpt lat="50.22876899689436" lon="8.249773029237986">
        <ele>328.43000000000001</ele>
        <time>2019-08-30T04:42:03Z</time>
      </trkpt>
      <trkpt lat="50.231828978285193" lon="8.248799974098802">
        <ele>327.47000000000003</ele>
        <time>2019-08-30T04:42:13Z</time>
      </trkpt>
      <trkpt lat="50.234473971650004" lon="8.24720598757267">
        <ele>322.66000000000003</ele>
        <time>2019-08-30T04:42:22Z</time>
      </trkpt>
      <trkpt lat="50.237167999148369" lon="8.245966974645853">
        <ele>317.37</ele>
        <time>2019-08-30T04:42:31Z</time>
      </trkpt>
      <trkpt lat="50.239358022809029" lon="8.245810987427831">
        <ele>313.52999999999997</ele>
        <time>2019-08-30T04:42:38Z</time>
      </trkpt>
      <trkpt lat="50.243135998025537" lon="8.245718032121658">
        <ele>301.99000000000001</ele>
        <time>2019-08-30T04:42:50Z</time>
      </trkpt>
      <trkpt lat="50.245311018079519" lon="8.246077029034495">
        <ele>292.38</ele>
        <time>2019-08-30T04:42:57Z</time>
      </trkpt>
      <trkpt lat="50.249442961066961" lon="8.247163994237781">
        <ele>272.19</ele>
        <time>2019-08-30T04:43:11Z</time>
      </trkpt>
      <trkpt lat="50.251515973359346" lon="8.247184026986361">
        <ele>259.69</ele>
        <time>2019-08-30T04:43:18Z</time>
      </trkpt>
      <trkpt lat="50.254784999415278" lon="8.246829975396395">
        <ele>239.50999999999999</ele>
        <time>2019-08-30T04:43:29Z</time>
      </trkpt>
      <trkpt lat="50.256794979795814" lon="8.247320987284184">
        <ele>234.22</ele>
        <time>2019-08-30T04:43:36Z</time>
      </trkpt>
      <trkpt lat="50.25895700789988" lon="8.24871095828712">
        <ele>239.99000000000001</ele>
        <time>2019-08-30T04:43:44Z</time>
      </trkpt>
      <trkpt lat="50.261631002649665" lon="8.250719010829926">
        <ele>254.41</ele>
        <time>2019-08-30T04:43:54Z</time>
      </trkpt>
      <trkpt lat="50.263682976365089" lon="8.251377996057272">
        <ele>263.06</ele>
        <time>2019-08-30T04:44:01Z</time>
      </trkpt>
      <trkpt lat="50.265759006142616" lon="8.251154031604528">
        <ele>269.79000000000002</ele>
        <time>2019-08-30T04:44:08Z</time>
      </trkpt>
      <trkpt lat="50.267737973481417" lon="8.2501470297575">
        <ele>276.04000000000002</ele>
        <time>2019-08-30T04:44:15Z</time>
      </trkpt>
      <trkpt lat="50.270252041518688" lon="8.248169990256429">
        <ele>277.48000000000002</ele>
        <time>2019-08-30T04:44:24Z</time>
      </trkpt>
      <trkpt lat="50.274485992267728" lon="8.244707006961107">
        <ele>277.48000000000002</ele>
        <time>2019-08-30T04:44:39Z</time>
      </trkpt>
      <trkpt lat="50.277586039155722" lon="8.242298969998956">
        <ele>289.49000000000001</ele>
        <time>2019-08-30T04:44:50Z</time>
      </trkpt>
      <trkpt lat="50.279703978449106" lon="8.241216028109193">
        <ele>298.14999999999998</ele>
        <time>2019-08-30T04:44:57Z</time>
      </trkpt>
      <trkpt lat="50.281956028193235" lon="8.240913022309542">
        <ele>300.55000000000001</ele>
        <time>2019-08-30T04:45:04Z</time>
      </trkpt>
      <trkpt lat="50.287668965756893" lon="8.240595012903214">
        <ele>293.81999999999999</ele>
        <time>2019-08-30T04:45:22Z</time>
      </trkpt>
      <trkpt lat="50.291800992563367" lon="8.240185976028442">
        <ele>298.63</ele>
        <time>2019-08-30T04:45:35Z</time>
      </trkpt>
      <trkpt lat="50.294295027852058" lon="8.239182997494936">
        <ele>293.33999999999997</ele>
        <time>2019-08-30T04:45:43Z</time>
      </trkpt>
      <trkpt lat="50.298219015821815" lon="8.237191960215569">
        <ele>287.08999999999997</ele>
        <time>2019-08-30T04:45:56Z</time>
      </trkpt>
      <trkpt lat="50.302459001541138" lon="8.235047031193972">
        <ele>284.69</ele>
        <time>2019-08-30T04:46:10Z</time>
      </trkpt>
      <trkpt lat="50.306406039744616" lon="8.233041996136308">
        <ele>284.20999999999998</ele>
        <time>2019-08-30T04:46:23Z</time>
      </trkpt>
      <trkpt lat="50.310622975230217" lon="8.230691961944103">
        <ele>273.63</ele>
        <time>2019-08-30T04:46:37Z</time>
      </trkpt>
      <trkpt lat="50.313451029360294" lon="8.228468997403979">
        <ele>273.63</ele>
        <time>2019-08-30T04:46:47Z</time>
      </trkpt>
      <trkpt lat="50.317380968481302" lon="8.225206006318331">
        <ele>274.58999999999997</ele>
        <time>2019-08-30T04:47:01Z</time>
      </trkpt>
      <trkpt lat="50.322147002443671" lon="8.221173975616694">
        <ele>277.95999999999998</ele>
        <time>2019-08-30T04:47:18Z</time>
      </trkpt>
      <trkpt lat="50.324239041656256" lon="8.218892002478242">
        <ele>272.67000000000002</ele>
        <time>2019-08-30T04:47:26Z</time>
      </trkpt>
      <trkpt lat="50.326005024835467" lon="8.216040981933475">
        <ele>266.89999999999998</ele>
        <time>2019-08-30T04:47:34Z</time>
      </trkpt>
      <trkpt lat="50.327430032193661" lon="8.212757036089897">
        <ele>263.06</ele>
        <time>2019-08-30T04:47:42Z</time>
      </trkpt>
      <trkpt lat="50.32932098954916" lon="8.207565033808351">
        <ele>256.81</ele>
        <time>2019-08-30T04:47:54Z</time>
      </trkpt>
      <trkpt lat="50.331367012113333" lon="8.201934993267059">
        <ele>246.22999999999999</ele>
        <time>2019-08-30T04:48:07Z</time>
      </trkpt>
      <trkpt lat="50.333369029685855" lon="8.196832006797195">
        <ele>235.66</ele>
        <time>2019-08-30T04:48:19Z</time>
      </trkpt>
      <trkpt lat="50.335657959803939" lon="8.191390978172422">
        <ele>214.99000000000001</ele>
        <time>2019-08-30T04:48:32Z</time>
      </trkpt>
      <trkpt lat="50.338620040565729" lon="8.184395022690296">
        <ele>200.56999999999999</ele>
        <time>2019-08-30T04:48:49Z</time>
      </trkpt>
      <trkpt lat="50.341352038085461" lon="8.178290985524654">
        <ele>205.86000000000001</ele>
        <time>2019-08-30T04:49:04Z</time>
      </trkpt>
      <trkpt lat="50.343348020687699" lon="8.175084991380572">
        <ele>203.94</ele>
        <time>2019-08-30T04:49:13Z</time>
      </trkpt>
      <trkpt lat="50.345687996596098" lon="8.171673975884914">
        <ele>201.53</ele>
        <time>2019-08-30T04:49:23Z</time>
      </trkpt>
      <trkpt lat="50.348519990220666" lon="8.167571034282446">
        <ele>185.66999999999999</ele>
        <time>2019-08-30T04:49:35Z</time>
      </trkpt>
      <trkpt lat="50.350844962522388" lon="8.16423000767827">
        <ele>171.72999999999999</ele>
        <time>2019-08-30T04:49:45Z</time>
      </trkpt>
      <trkpt lat="50.354960979893804" lon="8.158022034913302">
        <ele>163.56</ele>
        <time>2019-08-30T04:50:03Z</time>
      </trkpt>
      <trkpt lat="50.35600402392447" lon="8.155508972704411">
        <ele>155.38999999999999</ele>
        <time>2019-08-30T04:50:09Z</time>
      </trkpt>
      <trkpt lat="50.357032986357808" lon="8.151383986696601">
        <ele>150.58000000000001</ele>
        <time>2019-08-30T04:50:18Z</time>
      </trkpt>
      <trkpt lat="50.358339976519346" lon="8.145876992493868">
        <ele>171.25</ele>
        <time>2019-08-30T04:50:30Z</time>
      </trkpt>
      <trkpt lat="50.359801026061177" lon="8.139796005561948">
        <ele>188.08000000000001</ele>
        <time>2019-08-30T04:50:43Z</time>
      </trkpt>
      <trkpt lat="50.36148302257061" lon="8.133820965886116">
        <ele>185.66999999999999</ele>
        <time>2019-08-30T04:50:56Z</time>
      </trkpt>
      <trkpt lat="50.363304996863008" lon="8.129133973270655">
        <ele>181.83000000000001</ele>
        <time>2019-08-30T04:51:07Z</time>
      </trkpt>
      <trkpt lat="50.365829039365053" lon="8.122749980539084">
        <ele>176.53999999999999</ele>
        <time>2019-08-30T04:51:22Z</time>
      </trkpt>
      <trkpt lat="50.367830973118544" lon="8.117712959647179">
        <ele>180.38</ele>
        <time>2019-08-30T04:51:34Z</time>
      </trkpt>
      <trkpt lat="50.370330959558487" lon="8.111339025199413">
        <ele>183.27000000000001</ele>
        <time>2019-08-30T04:51:49Z</time>
      </trkpt>
      <trkpt lat="50.373166976496577" lon="8.104151040315628">
        <ele>187.11000000000001</ele>
        <time>2019-08-30T04:52:06Z</time>
      </trkpt>
      <trkpt lat="50.376519989222288" lon="8.095649024471641">
        <ele>187.59</ele>
        <time>2019-08-30T04:52:26Z</time>
      </trkpt>
      <trkpt lat="50.3792529925704" lon="8.088884996250272">
        <ele>186.15000000000001</ele>
        <time>2019-08-30T04:52:42Z</time>
      </trkpt>
      <trkpt lat="50.380767015740275" lon="8.086356008425355">
        <ele>186.15000000000001</ele>
        <time>2019-08-30T04:52:49Z</time>
      </trkpt>
      <trkpt lat="50.382613968104124" lon="8.084428003057838">
        <ele>186.15000000000001</ele>
        <time>2019-08-30T04:52:56Z</time>
      </trkpt>
      <trkpt lat="50.384976994246244" lon="8.082890007644892">
        <ele>182.78999999999999</ele>
        <time>2019-08-30T04:53:05Z</time>
      </trkpt>
      <trkpt lat="50.388831999152899" lon="8.080513989552856">
        <ele>174.62</ele>
        <time>2019-08-30T04:53:17Z</time>
      </trkpt>
      <trkpt lat="50.391828026622534" lon="8.078725039958954">
        <ele>167.88999999999999</ele>
        <time>2019-08-30T04:53:27Z</time>
      </trkpt>
      <trkpt lat="50.395366027951241" lon="8.076510960236192">
        <ele>165</ele>
        <time>2019-08-30T04:53:39Z</time>
      </trkpt>
      <trkpt lat="50.397010976448655" lon="8.07499903254211">
        <ele>163.56</ele>
        <time>2019-08-30T04:53:45Z</time>
      </trkpt>
      <trkpt lat="50.39865299127996" lon="8.072610022500157">
        <ele>158.75</ele>
        <time>2019-08-30T04:53:52Z</time>
      </trkpt>
      <trkpt lat="50.399882029742002" lon="8.069735029712319">
        <ele>155.38999999999999</ele>
        <time>2019-08-30T04:53:59Z</time>
      </trkpt>
      <trkpt lat="50.401612976565957" lon="8.065005037933588">
        <ele>160.68000000000001</ele>
        <time>2019-08-30T04:54:10Z</time>
      </trkpt>
      <trkpt lat="50.40314401499927" lon="8.060041023418307">
        <ele>161.16</ele>
        <time>2019-08-30T04:54:21Z</time>
      </trkpt>
      <trkpt lat="50.403474010527134" lon="8.056566976010799">
        <ele>151.06</ele>
        <time>2019-08-30T04:54:28Z</time>
      </trkpt>
      <trkpt lat="50.403827978298068" lon="8.049102975055575">
        <ele>126.06999999999999</ele>
        <time>2019-08-30T04:54:43Z</time>
      </trkpt>
      <trkpt lat="50.403943983837962" lon="8.042207015678287">
        <ele>127.03</ele>
        <time>2019-08-30T04:54:57Z</time>
      </trkpt>
      <trkpt lat="50.403964016586542" lon="8.035220028832555">
        <ele>131.36000000000001</ele>
        <time>2019-08-30T04:55:11Z</time>
      </trkpt>
      <trkpt lat="50.403995029628277" lon="8.028288027271628">
        <ele>142.41</ele>
        <time>2019-08-30T04:55:25Z</time>
      </trkpt>
      <trkpt lat="50.403990000486374" lon="8.023340022191405">
        <ele>157.78999999999999</ele>
        <time>2019-08-30T04:55:35Z</time>
      </trkpt>
      <trkpt lat="50.404094019904733" lon="8.016894003376365">
        <ele>177.02000000000001</ele>
        <time>2019-08-30T04:55:48Z</time>
      </trkpt>
      <trkpt lat="50.404643034562469" lon="8.011995032429695">
        <ele>191.91999999999999</ele>
        <time>2019-08-30T04:55:58Z</time>
      </trkpt>
      <trkpt lat="50.405582981184125" lon="8.007781030610204">
        <ele>203.94</ele>
        <time>2019-08-30T04:56:07Z</time>
      </trkpt>
      <trkpt lat="50.407302025705576" lon="8.003030000254512">
        <ele>220.28</ele>
        <time>2019-08-30T04:56:18Z</time>
      </trkpt>
      <trkpt lat="50.408523017540574" lon="8.000131035223603">
        <ele>232.78</ele>
        <time>2019-08-30T04:56:25Z</time>
      </trkpt>
      <trkpt lat="50.410615978762507" lon="7.99509895965457">
        <ele>249.12</ele>
        <time>2019-08-30T04:56:37Z</time>
      </trkpt>
      <trkpt lat="50.411590039730072" lon="7.991966977715492">
        <ele>252.96000000000001</ele>
        <time>2019-08-30T04:56:44Z</time>
      </trkpt>
      <trkpt lat="50.412307027727365" lon="7.988165030255914">
        <ele>259.69</ele>
        <time>2019-08-30T04:56:52Z</time>
      </trkpt>
      <trkpt lat="50.412548007443547" lon="7.984711015596986">
        <ele>268.82999999999998</ele>
        <time>2019-08-30T04:56:59Z</time>
      </trkpt>
      <trkpt lat="50.412401994690299" lon="7.979260012507439">
        <ele>287.56999999999999</ele>
        <time>2019-08-30T04:57:10Z</time>
      </trkpt>
      <trkpt lat="50.412371987476945" lon="7.975670965388417">
        <ele>296.69999999999999</ele>
        <time>2019-08-30T04:57:18Z</time>
      </trkpt>
      <trkpt lat="50.412566028535366" lon="7.970941979438067">
        <ele>300.06999999999999</ele>
        <time>2019-08-30T04:57:28Z</time>
      </trkpt>
      <trkpt lat="50.412765014916658" lon="7.966668969020248">
        <ele>301.02999999999997</ele>
        <time>2019-08-30T04:57:38Z</time>
      </trkpt>
      <trkpt lat="50.412941034883261" lon="7.96286903321743">
        <ele>301.99000000000001</ele>
        <time>2019-08-30T04:57:46Z</time>
      </trkpt>
      <trkpt lat="50.413246974349022" lon="7.956393007189035">
        <ele>294.77999999999997</ele>
        <time>2019-08-30T04:57:59Z</time>
      </trkpt>
      <trkpt lat="50.413566995412111" lon="7.948961025103927">
        <ele>289.00999999999999</ele>
        <time>2019-08-30T04:58:14Z</time>
      </trkpt>
      <trkpt lat="50.413385024294257" lon="7.945534000173211">
        <ele>293.81999999999999</ele>
        <time>2019-08-30T04:58:21Z</time>
      </trkpt>
      <trkpt lat="50.412679016590118" lon="7.940201014280319">
        <ele>302.47000000000003</ele>
        <time>2019-08-30T04:58:32Z</time>
      </trkpt>
      <trkpt lat="50.412797033786774" lon="7.937233988195658">
        <ele>306.31999999999999</ele>
        <time>2019-08-30T04:58:38Z</time>
      </trkpt>
      <trkpt lat="50.41341201402247" lon="7.934389002621174">
        <ele>306.80000000000001</ele>
        <time>2019-08-30T04:58:44Z</time>
      </trkpt>
      <trkpt lat="50.41451096534729" lon="7.931926986202598">
        <ele>302.47000000000003</ele>
        <time>2019-08-30T04:58:50Z</time>
      </trkpt>
      <trkpt lat="50.415956005454063" lon="7.930021025240421">
        <ele>297.67000000000002</ele>
        <time>2019-08-30T04:58:56Z</time>
      </trkpt>
      <trkpt lat="50.417642025277019" lon="7.928784023970366">
        <ele>298.14999999999998</ele>
        <time>2019-08-30T04:59:02Z</time>
      </trkpt>
      <trkpt lat="50.419487971812487" lon="7.928242972120643">
        <ele>304.88</ele>
        <time>2019-08-30T04:59:08Z</time>
      </trkpt>
      <trkpt lat="50.422999989241362" lon="7.927775010466576">
        <ele>309.68000000000001</ele>
        <time>2019-08-30T04:59:19Z</time>
      </trkpt>
      <trkpt lat="50.42615401558578" lon="7.927095992490649">
        <ele>302.47000000000003</ele>
        <time>2019-08-30T04:59:29Z</time>
      </trkpt>
      <trkpt lat="50.427875993773341" lon="7.92587298899889">
        <ele>301.50999999999999</ele>
        <time>2019-08-30T04:59:35Z</time>
      </trkpt>
      <trkpt lat="50.429623033851385" lon="7.923705009743571">
        <ele>302.94999999999999</ele>
        <time>2019-08-30T04:59:42Z</time>
      </trkpt>
      <trkpt lat="50.432662982493639" lon="7.920018984004855">
        <ele>291.89999999999998</ele>
        <time>2019-08-30T04:59:54Z</time>
      </trkpt>
      <trkpt lat="50.434743035584688" lon="7.918740995228291">
        <ele>278.44</ele>
        <time>2019-08-30T05:00:01Z</time>
      </trkpt>
      <trkpt lat="50.437832018360496" lon="7.917667021974921">
        <ele>268.82999999999998</ele>
        <time>2019-08-30T05:00:11Z</time>
      </trkpt>
      <trkpt lat="50.440932987257838" lon="7.916449969634414">
        <ele>262.10000000000002</ele>
        <time>2019-08-30T05:00:21Z</time>
      </trkpt>
      <trkpt lat="50.443243039771914" lon="7.914794962853193">
        <ele>252</ele>
        <time>2019-08-30T05:00:29Z</time>
      </trkpt>
      <trkpt lat="50.445303982123733" lon="7.912520030513406">
        <ele>247.68000000000001</ele>
        <time>2019-08-30T05:00:37Z</time>
      </trkpt>
      <trkpt lat="50.447258977219462" lon="7.909347983077169">
        <ele>253.93000000000001</ele>
        <time>2019-08-30T05:00:46Z</time>
      </trkpt>
      <trkpt lat="50.449183965101838" lon="7.905394993722439">
        <ele>268.35000000000002</ele>
        <time>2019-08-30T05:00:56Z</time>
      </trkpt>
      <trkpt lat="50.451990980654955" lon="7.899532020092011">
        <ele>286.61000000000001</ele>
        <time>2019-08-30T05:01:11Z</time>
      </trkpt>
      <trkpt lat="50.453194035217166" lon="7.896141959354281">
        <ele>294.77999999999997</ele>
        <time>2019-08-30T05:01:20Z</time>
      </trkpt>
      <trkpt lat="50.453899037092924" lon="7.892963038757443">
        <ele>296.22000000000003</ele>
        <time>2019-08-30T05:01:28Z</time>
      </trkpt>
      <trkpt lat="50.454345038160682" lon="7.88868298754096">
        <ele>290.94</ele>
        <time>2019-08-30T05:01:38Z</time>
      </trkpt>
      <trkpt lat="50.454661035910249" lon="7.884099008515477">
        <ele>276.51999999999998</ele>
        <time>2019-08-30T05:01:49Z</time>
      </trkpt>
      <trkpt lat="50.454990025609732" lon="7.879259968176484">
        <ele>258.25</ele>
        <time>2019-08-30T05:02:01Z</time>
      </trkpt>
      <trkpt lat="50.455076023936272" lon="7.874438026919961">
        <ele>241.91</ele>
        <time>2019-08-30T05:02:13Z</time>
      </trkpt>
      <trkpt lat="50.454892963171005" lon="7.869205959141254">
        <ele>236.62</ele>
        <time>2019-08-30T05:02:26Z</time>
      </trkpt>
      <trkpt lat="50.454521980136633" lon="7.864848040044308">
        <ele>239.02000000000001</ele>
        <time>2019-08-30T05:02:37Z</time>
      </trkpt>
      <trkpt lat="50.453622015193105" lon="7.861516987904906">
        <ele>244.31</ele>
        <time>2019-08-30T05:02:46Z</time>
      </trkpt>
      <trkpt lat="50.452235983684659" lon="7.85864501260221">
        <ele>254.41</ele>
        <time>2019-08-30T05:02:55Z</time>
      </trkpt>
      <trkpt lat="50.450479974970222" lon="7.856210991740227">
        <ele>261.62</ele>
        <time>2019-08-30T05:03:04Z</time>
      </trkpt>
      <trkpt lat="50.448199007660151" lon="7.852916987612844">
        <ele>263.54000000000002</ele>
        <time>2019-08-30T05:03:16Z</time>
      </trkpt>
      <trkpt lat="50.447106007486582" lon="7.850214997306466">
        <ele>266.42000000000002</ele>
        <time>2019-08-30T05:03:24Z</time>
      </trkpt>
      <trkpt lat="50.446648020297289" lon="7.848164029419422">
        <ele>268.35000000000002</ele>
        <time>2019-08-30T05:03:30Z</time>
      </trkpt>
      <trkpt lat="50.446409974247217" lon="7.84500103443861">
        <ele>270.75</ele>
        <time>2019-08-30T05:03:40Z</time>
      </trkpt>
      <trkpt lat="50.44626203365624" lon="7.840907983481884">
        <ele>265.45999999999998</ele>
        <time>2019-08-30T05:03:52Z</time>
      </trkpt>
      <trkpt lat="50.446206964552402" lon="7.839534021914005">
        <ele>261.62</ele>
        <time>2019-08-30T05:03:58Z</time>
      </trkpt>
      <trkpt lat="50.446148039773107" lon="7.838060986250639">
        <ele>257.29000000000002</ele>
        <time>2019-08-30T05:04:07Z</time>
      </trkpt>
      <trkpt lat="50.446073021739721" lon="7.83647496253252">
        <ele>252</ele>
        <time>2019-08-30T05:04:17Z</time>
      </trkpt>
      <trkpt lat="50.446021975949407" lon="7.834564978256822">
        <ele>248.16</ele>
        <time>2019-08-30T05:04:30Z</time>
      </trkpt>
      <trkpt lat="50.446033040061593" lon="7.832925980910659">
        <ele>242.38999999999999</ele>
        <time>2019-08-30T05:04:41Z</time>
      </trkpt>
      <trkpt lat="50.44609003700316" lon="7.831138959154487">
        <ele>235.66</ele>
        <time>2019-08-30T05:04:51Z</time>
      </trkpt>
      <trkpt lat="50.446216017007828" lon="7.828866960480809">
        <ele>231.33000000000001</ele>
        <time>2019-08-30T05:05:03Z</time>
      </trkpt>
      <trkpt lat="50.446249963715672" lon="7.828317023813725">
        <ele>229.88999999999999</ele>
        <time>2019-08-30T05:05:10Z</time>
      </trkpt>
      <trkpt lat="50.446276031434536" lon="7.827908992767334">
        <ele>227.97</ele>
        <time>2019-08-30T05:05:21Z</time>
      </trkpt>
      <trkpt lat="50.446289023384452" lon="7.82751495949924">
        <ele>227.97</ele>
        <time>2019-08-30T05:05:34Z</time>
      </trkpt>
      <trkpt lat="50.446301009505987" lon="7.827116986736655">
        <ele>228.44999999999999</ele>
        <time>2019-08-30T05:05:50Z</time>
      </trkpt>
      <trkpt lat="50.446302015334368" lon="7.827085973694921">
        <ele>228.93000000000001</ele>
        <time>2019-08-30T05:06:03Z</time>
      </trkpt>
      <trkpt lat="50.446310983970761" lon="7.826791014522314">
        <ele>229.41</ele>
        <time>2019-08-30T05:06:16Z</time>
      </trkpt>
      <trkpt lat="50.446322970092297" lon="7.826378960162401">
        <ele>231.33000000000001</ele>
        <time>2019-08-30T05:06:33Z</time>
      </trkpt>
      <trkpt lat="50.446337973698974" lon="7.825851989910007">
        <ele>234.69999999999999</ele>
        <time>2019-08-30T05:06:46Z</time>
      </trkpt>
      <trkpt lat="50.446344008669257" lon="7.82517003826797">
        <ele>237.58000000000001</ele>
        <time>2019-08-30T05:07:03Z</time>
      </trkpt>
      <trkpt lat="50.446344008669257" lon="7.82439898699522">
        <ele>237.58000000000001</ele>
        <time>2019-08-30T05:07:21Z</time>
      </trkpt>
      <trkpt lat="50.446311989799142" lon="7.823640005663037">
        <ele>238.53999999999999</ele>
        <time>2019-08-30T05:07:37Z</time>
      </trkpt>
      <trkpt lat="50.446259016171098" lon="7.822638032957912">
        <ele>239.99000000000001</ele>
        <time>2019-08-30T05:07:57Z</time>
      </trkpt>
      <trkpt lat="50.446201013401151" lon="7.822005031630397">
        <ele>240.94999999999999</ele>
        <time>2019-08-30T05:08:13Z</time>
      </trkpt>
      <trkpt lat="50.44617896899581" lon="7.821762962266803">
        <ele>241.91</ele>
        <time>2019-08-30T05:08:26Z</time>
      </trkpt>
      <trkpt lat="50.446159020066261" lon="7.821535980328918">
        <ele>241.91</ele>
        <time>2019-08-30T05:08:41Z</time>
      </trkpt>
      <trkpt lat="50.446120966225863" lon="7.821116968989372">
        <ele>242.38999999999999</ele>
        <time>2019-08-30T05:08:56Z</time>
      </trkpt>
      <trkpt lat="50.446087019518018" lon="7.820746991783381">
        <ele>241.43000000000001</ele>
        <time>2019-08-30T05:09:06Z</time>
      </trkpt>
      <trkpt lat="50.446019964292645" lon="7.820005025714636">
        <ele>239.99000000000001</ele>
        <time>2019-08-30T05:09:24Z</time>
      </trkpt>
      <trkpt lat="50.44596103951335" lon="7.819312009960413">
        <ele>242.87</ele>
        <time>2019-08-30T05:09:43Z</time>
      </trkpt>
      <trkpt lat="50.445914017036557" lon="7.818730976432562">
        <ele>243.83000000000001</ele>
        <time>2019-08-30T05:09:57Z</time>
      </trkpt>
      <trkpt lat="50.445846039801836" lon="7.81790996901691">
        <ele>242.87</ele>
        <time>2019-08-30T05:10:16Z</time>
      </trkpt>
      <trkpt lat="50.445759035646915" lon="7.816974967718124">
        <ele>243.34999999999999</ele>
        <time>2019-08-30T05:10:37Z</time>
      </trkpt>
      <trkpt lat="50.445642024278641" lon="7.815689016133547">
        <ele>243.34999999999999</ele>
        <time>2019-08-30T05:10:59Z</time>
      </trkpt>
      <trkpt lat="50.445568012073636" lon="7.814817968755961">
        <ele>244.78999999999999</ele>
        <time>2019-08-30T05:11:19Z</time>
      </trkpt>
      <trkpt lat="50.445560971274972" lon="7.814723001793027">
        <ele>247.68000000000001</ele>
        <time>2019-08-30T05:11:34Z</time>
      </trkpt>
      <trkpt lat="50.445538004860282" lon="7.814417984336615">
        <ele>247.68000000000001</ele>
        <time>2019-08-30T05:11:47Z</time>
      </trkpt>
      <trkpt lat="50.445529036223888" lon="7.814308013767004">
        <ele>247.19999999999999</ele>
        <time>2019-08-30T05:12:04Z</time>
      </trkpt>
      <trkpt lat="50.445510009303689" lon="7.814056975767016">
        <ele>248.63999999999999</ele>
        <time>2019-08-30T05:12:22Z</time>
      </trkpt>
      <trkpt lat="50.445470027625561" lon="7.813522964715958">
        <ele>245.75</ele>
        <time>2019-08-30T05:12:36Z</time>
      </trkpt>
      <trkpt lat="50.445432979613543" lon="7.813038993626833">
        <ele>244.78999999999999</ele>
        <time>2019-08-30T05:12:49Z</time>
      </trkpt>
      <trkpt lat="50.445391992107034" lon="7.812499031424522">
        <ele>245.75</ele>
        <time>2019-08-30T05:13:05Z</time>
      </trkpt>
      <trkpt lat="50.445357039570808" lon="7.812036015093327">
        <ele>245.27000000000001</ele>
        <time>2019-08-30T05:13:21Z</time>
      </trkpt>
      <trkpt lat="50.445316974073648" lon="7.8115089610219">
        <ele>251.03999999999999</ele>
        <time>2019-08-30T05:13:38Z</time>
      </trkpt>
      <trkpt lat="50.445305993780494" lon="7.81112096272409">
        <ele>249.59999999999999</ele>
        <time>2019-08-30T05:13:54Z</time>
      </trkpt>
      <trkpt lat="50.445301970466971" lon="7.81090403907001">
        <ele>252.47999999999999</ele>
        <time>2019-08-30T05:14:17Z</time>
      </trkpt>
      <trkpt lat="50.445291996002197" lon="7.810490978881717">
        <ele>251.03999999999999</ele>
        <time>2019-08-30T05:14:33Z</time>
      </trkpt>
      <trkpt lat="50.445281015709043" lon="7.809992004185915">
        <ele>250.56</ele>
        <time>2019-08-30T05:14:51Z</time>
      </trkpt>
      <trkpt lat="50.445277998223901" lon="7.809825036674738">
        <ele>250.56</ele>
        <time>2019-08-30T05:15:05Z</time>
      </trkpt>
      <trkpt lat="50.445264000445604" lon="7.809195974841714">
        <ele>250.56</ele>
        <time>2019-08-30T05:15:18Z</time>
      </trkpt>
      <trkpt lat="50.445266012102365" lon="7.808077996596694">
        <ele>252.47999999999999</ele>
        <time>2019-08-30T05:15:40Z</time>
      </trkpt>
      <trkpt lat="50.445310017094016" lon="7.8068239800632">
        <ele>252.47999999999999</ele>
        <time>2019-08-30T05:16:01Z</time>
      </trkpt>
      <trkpt lat="50.44538302347064" lon="7.80576903373003">
        <ele>253.93000000000001</ele>
        <time>2019-08-30T05:16:15Z</time>
      </trkpt>
      <trkpt lat="50.445400960743427" lon="7.805526964366436">
        <ele>254.41</ele>
        <time>2019-08-30T05:16:18Z</time>
      </trkpt>
      <trkpt lat="50.445430967956781" lon="7.805114993825555">
        <ele>254.41</ele>
        <time>2019-08-30T05:16:23Z</time>
      </trkpt>
      <trkpt lat="50.445477990433574" lon="7.804478975012898">
        <ele>254.41</ele>
        <time>2019-08-30T05:16:30Z</time>
      </trkpt>
      <trkpt lat="50.445567006245255" lon="7.803752012550831">
        <ele>255.37</ele>
        <time>2019-08-30T05:16:38Z</time>
      </trkpt>
      <trkpt lat="50.44557698071003" lon="7.803670037537813">
        <ele>255.37</ele>
        <time>2019-08-30T05:16:39Z</time>
      </trkpt>
      <trkpt lat="50.445690974593163" lon="7.80280401930213">
        <ele>258.73000000000002</ele>
        <time>2019-08-30T05:16:50Z</time>
      </trkpt>
      <trkpt lat="50.445702038705349" lon="7.802717015147209">
        <ele>259.20999999999998</ele>
        <time>2019-08-30T05:16:51Z</time>
      </trkpt>
      <trkpt lat="50.44574897736311" lon="7.802361035719514">
        <ele>260.17000000000002</ele>
        <time>2019-08-30T05:16:55Z</time>
      </trkpt>
      <trkpt lat="50.445760963484645" lon="7.802270008251071">
        <ele>260.64999999999998</ele>
        <time>2019-08-30T05:16:56Z</time>
      </trkpt>
      <trkpt lat="50.445811003446579" lon="7.801886033266783">
        <ele>261.62</ele>
        <time>2019-08-30T05:17:00Z</time>
      </trkpt>
      <trkpt lat="50.445823995396495" lon="7.801784025505185">
        <ele>261.62</ele>
        <time>2019-08-30T05:17:01Z</time>
      </trkpt>
      <trkpt lat="50.445975037291646" lon="7.800633022561669">
        <ele>264.98000000000002</ele>
        <time>2019-08-30T05:17:09Z</time>
      </trkpt>
      <trkpt lat="50.44613596983254" lon="7.799402978271246">
        <ele>269.31</ele>
        <time>2019-08-30T05:17:19Z</time>
      </trkpt>
      <trkpt lat="50.446325987577438" lon="7.797955004498363">
        <ele>274.11000000000001</ele>
        <time>2019-08-30T05:17:30Z</time>
      </trkpt>
      <trkpt lat="50.446434030309319" lon="7.79709099791944">
        <ele>278.44</ele>
        <time>2019-08-30T05:17:37Z</time>
      </trkpt>
      <trkpt lat="50.446465965360403" lon="7.796825962141156">
        <ele>278.44</ele>
        <time>2019-08-30T05:17:39Z</time>
      </trkpt>
      <trkpt lat="50.446546012535691" lon="7.796168988570571">
        <ele>279.88</ele>
        <time>2019-08-30T05:17:44Z</time>
      </trkpt>
      <trkpt lat="50.446746004745364" lon="7.794529991224408">
        <ele>282.76999999999998</ele>
        <time>2019-08-30T05:17:57Z</time>
      </trkpt>
      <trkpt lat="50.446775006130338" lon="7.794296974316239">
        <ele>282.27999999999997</ele>
        <time>2019-08-30T05:17:59Z</time>
      </trkpt>
      <trkpt lat="50.446790009737015" lon="7.794188009575009">
        <ele>281.31999999999999</ele>
        <time>2019-08-30T05:18:00Z</time>
      </trkpt>
      <trkpt lat="50.446805013343692" lon="7.794080972671509">
        <ele>280.36000000000001</ele>
        <time>2019-08-30T05:18:01Z</time>
      </trkpt>
      <trkpt lat="50.446883970871568" lon="7.793509997427464">
        <ele>277.95999999999998</ele>
        <time>2019-08-30T05:18:06Z</time>
      </trkpt>
      <trkpt lat="50.446900986135006" lon="7.793388962745667">
        <ele>277.95999999999998</ele>
        <time>2019-08-30T05:18:07Z</time>
      </trkpt>
      <trkpt lat="50.446952031925321" lon="7.793017979711294">
        <ele>277.48000000000002</ele>
        <time>2019-08-30T05:18:10Z</time>
      </trkpt>
      <trkpt lat="50.447006011381745" lon="7.792629981413484">
        <ele>277.48000000000002</ele>
        <time>2019-08-30T05:18:13Z</time>
      </trkpt>
      <trkpt lat="50.447100978344679" lon="7.791949035599828">
        <ele>277.48000000000002</ele>
        <time>2019-08-30T05:18:18Z</time>
      </trkpt>
      <trkpt lat="50.447140038013458" lon="7.791680982336402">
        <ele>277.48000000000002</ele>
        <time>2019-08-30T05:18:20Z</time>
      </trkpt>
      <trkpt lat="50.447197034955025" lon="7.791293989866972">
        <ele>277.48000000000002</ele>
        <time>2019-08-30T05:18:23Z</time>
      </trkpt>
      <trkpt lat="50.447233999148011" lon="7.791030965745449">
        <ele>277</ele>
        <time>2019-08-30T05:18:25Z</time>
      </trkpt>
      <trkpt lat="50.447303988039494" lon="7.790483040735126">
        <ele>277</ele>
        <time>2019-08-30T05:18:30Z</time>
      </trkpt>
      <trkpt lat="50.447434997186065" lon="7.78946396894753">
        <ele>277</ele>
        <time>2019-08-30T05:18:38Z</time>
      </trkpt>
      <trkpt lat="50.447533987462521" lon="7.788687972351909">
        <ele>278.92000000000002</ele>
        <time>2019-08-30T05:18:43Z</time>
      </trkpt>
      <trkpt lat="50.447552008554339" lon="7.788552017882466">
        <ele>279.39999999999998</ele>
        <time>2019-08-30T05:18:44Z</time>
      </trkpt>
      <trkpt lat="50.447686035186052" lon="7.787506962195039">
        <ele>282.76999999999998</ele>
        <time>2019-08-30T05:18:53Z</time>
      </trkpt>
      <trkpt lat="50.447701038792729" lon="7.787391040474176">
        <ele>283.25</ele>
        <time>2019-08-30T05:18:54Z</time>
      </trkpt>
      <trkpt lat="50.447733979672194" lon="7.787134973332286">
        <ele>284.20999999999998</ele>
        <time>2019-08-30T05:18:56Z</time>
      </trkpt>
      <trkpt lat="50.447750994935632" lon="7.786997007206082">
        <ele>285.17000000000002</ele>
        <time>2019-08-30T05:18:57Z</time>
      </trkpt>
      <trkpt lat="50.448049977421761" lon="7.785205040127039">
        <ele>290.94</ele>
        <time>2019-08-30T05:19:09Z</time>
      </trkpt>
      <trkpt lat="50.448458008468151" lon="7.783799981698394">
        <ele>294.77999999999997</ele>
        <time>2019-08-30T05:19:20Z</time>
      </trkpt>
      <trkpt lat="50.448492038995028" lon="7.783681964501739">
        <ele>294.30000000000001</ele>
        <time>2019-08-30T05:19:21Z</time>
      </trkpt>
      <trkpt lat="50.448611984029412" lon="7.783336965367198">
        <ele>294.30000000000001</ele>
        <time>2019-08-30T05:19:24Z</time>
      </trkpt>
      <trkpt lat="50.448874002322555" lon="7.782731959596276">
        <ele>296.22000000000003</ele>
        <time>2019-08-30T05:19:29Z</time>
      </trkpt>
      <trkpt lat="50.448921024799347" lon="7.782622994855046">
        <ele>297.18000000000001</ele>
        <time>2019-08-30T05:19:30Z</time>
      </trkpt>
      <trkpt lat="50.448965029790998" lon="7.782520987093449">
        <ele>297.67000000000002</ele>
        <time>2019-08-30T05:19:31Z</time>
      </trkpt>
      <trkpt lat="50.449004005640745" lon="7.782429037615657">
        <ele>298.14999999999998</ele>
        <time>2019-08-30T05:19:32Z</time>
      </trkpt>
      <trkpt lat="50.449040969833732" lon="7.782344967126846">
        <ele>299.11000000000001</ele>
        <time>2019-08-30T05:19:33Z</time>
      </trkpt>
      <trkpt lat="50.449073994532228" lon="7.782267015427351">
        <ele>299.58999999999997</ele>
        <time>2019-08-30T05:19:34Z</time>
      </trkpt>
      <trkpt lat="50.449152030050755" lon="7.782086972147226">
        <ele>300.55000000000001</ele>
        <time>2019-08-30T05:19:36Z</time>
      </trkpt>
      <trkpt lat="50.44948797672987" lon="7.781432010233402">
        <ele>303.43000000000001</ele>
        <time>2019-08-30T05:19:45Z</time>
      </trkpt>
      <trkpt lat="50.44959501363337" lon="7.781236041337252">
        <ele>303.91000000000003</ele>
        <time>2019-08-30T05:19:53Z</time>
      </trkpt>
      <trkpt lat="50.449786959215999" lon="7.780903028324246">
        <ele>303.43000000000001</ele>
        <time>2019-08-30T05:19:59Z</time>
      </trkpt>
      <trkpt lat="50.449814032763243" lon="7.780863968655467">
        <ele>303.43000000000001</ele>
        <time>2019-08-30T05:20:00Z</time>
      </trkpt>
      <trkpt lat="50.449833981692791" lon="7.780834967270494">
        <ele>303.43000000000001</ele>
        <time>2019-08-30T05:20:01Z</time>
      </trkpt>
      <trkpt lat="50.449850996956229" lon="7.780809989199042">
        <ele>303.43000000000001</ele>
        <time>2019-08-30T05:20:02Z</time>
      </trkpt>
      <trkpt lat="50.449863988906145" lon="7.780790962278843">
        <ele>303.43000000000001</ele>
        <time>2019-08-30T05:20:03Z</time>
      </trkpt>
      <trkpt lat="50.44987597502768" lon="7.780774030834436">
        <ele>303.91000000000003</ele>
        <time>2019-08-30T05:20:04Z</time>
      </trkpt>
      <trkpt lat="50.449892990291119" lon="7.780748968943954">
        <ele>303.91000000000003</ele>
        <time>2019-08-30T05:20:05Z</time>
      </trkpt>
      <trkpt lat="50.44991796836257" lon="7.780712004750967">
        <ele>304.38999999999999</ele>
        <time>2019-08-30T05:20:06Z</time>
      </trkpt>
      <trkpt lat="50.449944036081433" lon="7.780673028901219">
        <ele>304.38999999999999</ele>
        <time>2019-08-30T05:20:07Z</time>
      </trkpt>
      <trkpt lat="50.449969014152884" lon="7.780636986717582">
        <ele>304.88</ele>
        <time>2019-08-30T05:20:08Z</time>
      </trkpt>
      <trkpt lat="50.450016036629677" lon="7.78056800365448">
        <ele>306.31999999999999</ele>
        <time>2019-08-30T05:20:11Z</time>
      </trkpt>
      <trkpt lat="50.450026011094451" lon="7.780553000047803">
        <ele>306.80000000000001</ele>
        <time>2019-08-30T05:20:12Z</time>
      </trkpt>
      <trkpt lat="50.450039003044367" lon="7.780533973127604">
        <ele>307.27999999999997</ele>
        <time>2019-08-30T05:20:13Z</time>
      </trkpt>
      <trkpt lat="50.450050989165902" lon="7.780517041683197">
        <ele>307.75999999999999</ele>
        <time>2019-08-30T05:20:14Z</time>
      </trkpt>
      <trkpt lat="50.450069010257721" lon="7.780492985621095">
        <ele>307.75999999999999</ele>
        <time>2019-08-30T05:20:15Z</time>
      </trkpt>
      <trkpt lat="50.450086025521159" lon="7.780473036691546">
        <ele>308.24000000000001</ele>
        <time>2019-08-30T05:20:16Z</time>
      </trkpt>
      <trkpt lat="50.450165988877416" lon="7.780376980081201">
        <ele>309.68000000000001</ele>
        <time>2019-08-30T05:20:31Z</time>
      </trkpt>
      <trkpt lat="50.450299009680748" lon="7.780217975378037">
        <ele>309.19999999999999</ele>
        <time>2019-08-30T05:20:48Z</time>
      </trkpt>
      <trkpt lat="50.450459020212293" lon="7.780026029795408">
        <ele>310.16000000000003</ele>
        <time>2019-08-30T05:21:00Z</time>
      </trkpt>
      <trkpt lat="50.450609978288412" lon="7.779843974858522">
        <ele>310.16000000000003</ele>
        <time>2019-08-30T05:21:13Z</time>
      </trkpt>
      <trkpt lat="50.450678039342165" lon="7.779763005673885">
        <ele>310.16000000000003</ele>
        <time>2019-08-30T05:21:27Z</time>
      </trkpt>
      <trkpt lat="50.450823968276381" lon="7.779593020677567">
        <ele>310.63999999999999</ele>
        <time>2019-08-30T05:21:38Z</time>
      </trkpt>
      <trkpt lat="50.450933016836643" lon="7.77949302457273">
        <ele>309.68000000000001</ele>
        <time>2019-08-30T05:21:48Z</time>
      </trkpt>
      <trkpt lat="50.451011974364519" lon="7.779420018196106">
        <ele>309.68000000000001</ele>
        <time>2019-08-30T05:21:59Z</time>
      </trkpt>
      <trkpt lat="50.451254965737462" lon="7.779196975752711">
        <ele>312.08999999999997</ele>
        <time>2019-08-30T05:22:11Z</time>
      </trkpt>
      <trkpt lat="50.451511032879353" lon="7.778963036835194">
        <ele>313.52999999999997</ele>
        <time>2019-08-30T05:22:24Z</time>
      </trkpt>
      <trkpt lat="50.451897019520402" lon="7.778682997450233">
        <ele>314.97000000000003</ele>
        <time>2019-08-30T05:22:37Z</time>
      </trkpt>
      <trkpt lat="50.452269008383155" lon="7.778421984985471">
        <ele>316.41000000000003</ele>
        <time>2019-08-30T05:22:45Z</time>
      </trkpt>
      <trkpt lat="50.452331034466624" lon="7.77837797999382">
        <ele>316.41000000000003</ele>
        <time>2019-08-30T05:22:46Z</time>
      </trkpt>
      <trkpt lat="50.453079035505652" lon="7.777842041105032">
        <ele>318.81</ele>
        <time>2019-08-30T05:22:54Z</time>
      </trkpt>
      <trkpt lat="50.454035997390747" lon="7.777227982878685">
        <ele>322.66000000000003</ele>
        <time>2019-08-30T05:23:00Z</time>
      </trkpt>
      <trkpt lat="50.455989986658096" lon="7.776203965768218">
        <ele>328.43000000000001</ele>
        <time>2019-08-30T05:23:09Z</time>
      </trkpt>
      <trkpt lat="50.458084037527442" lon="7.774811983108521">
        <ele>334.68000000000001</ele>
        <time>2019-08-30T05:23:18Z</time>
      </trkpt>
      <trkpt lat="50.458892975002527" lon="7.773774974048138">
        <ele>336.60000000000002</ele>
        <time>2019-08-30T05:23:22Z</time>
      </trkpt>
      <trkpt lat="50.459074024111032" lon="7.773459982126951">
        <ele>337.07999999999998</ele>
        <time>2019-08-30T05:23:23Z</time>
      </trkpt>
      <trkpt lat="50.459840968251228" lon="7.771555026993156">
        <ele>337.56</ele>
        <time>2019-08-30T05:23:28Z</time>
      </trkpt>
      <trkpt lat="50.460200970992446" lon="7.768851025030017">
        <ele>335.63999999999999</ele>
        <time>2019-08-30T05:23:34Z</time>
      </trkpt>
      <trkpt lat="50.460155960172415" lon="7.767965979874134">
        <ele>335.63999999999999</ele>
        <time>2019-08-30T05:23:36Z</time>
      </trkpt>
      <trkpt lat="50.459652962163091" lon="7.765281004831195">
        <ele>332.26999999999998</ele>
        <time>2019-08-30T05:23:42Z</time>
      </trkpt>
      <trkpt lat="50.458784010261297" lon="7.761850040405989">
        <ele>328.91000000000003</ele>
        <time>2019-08-30T05:23:50Z</time>
      </trkpt>
      <trkpt lat="50.457283984869719" lon="7.755776010453701">
        <ele>326.5</ele>
        <time>2019-08-30T05:24:04Z</time>
      </trkpt>
      <trkpt lat="50.456288969144225" lon="7.751698968932033">
        <ele>329.38999999999999</ele>
        <time>2019-08-30T05:24:13Z</time>
      </trkpt>
      <trkpt lat="50.454833032563329" lon="7.745849993079901">
        <ele>343.81</ele>
        <time>2019-08-30T05:24:26Z</time>
      </trkpt>
      <trkpt lat="50.453264024108648" lon="7.739520985633135">
        <ele>367.36000000000001</ele>
        <time>2019-08-30T05:24:40Z</time>
      </trkpt>
      <trkpt lat="50.452319970354438" lon="7.734928959980607">
        <ele>384.18000000000001</ele>
        <time>2019-08-30T05:24:50Z</time>
      </trkpt>
      <trkpt lat="50.452205976471305" lon="7.731530014425516">
        <ele>394.27999999999997</ele>
        <time>2019-08-30T05:24:57Z</time>
      </trkpt>
      <trkpt lat="50.451900959014893" lon="7.727171005681157">
        <ele>399.56999999999999</ele>
        <time>2019-08-30T05:25:06Z</time>
      </trkpt>
      <trkpt lat="50.451020020991564" lon="7.722996985539794">
        <ele>401.00999999999999</ele>
        <time>2019-08-30T05:25:15Z</time>
      </trkpt>
      <trkpt lat="50.449948981404305" lon="7.718394985422492">
        <ele>393.31999999999999</ele>
        <time>2019-08-30T05:25:25Z</time>
      </trkpt>
      <trkpt lat="50.449706995859742" lon="7.715010959655047">
        <ele>384.18000000000001</ele>
        <time>2019-08-30T05:25:32Z</time>
      </trkpt>
      <trkpt lat="50.449677994474769" lon="7.710164040327072">
        <ele>370.73000000000002</ele>
        <time>2019-08-30T05:25:42Z</time>
      </trkpt>
      <trkpt lat="50.449527958407998" lon="7.704326966777444">
        <ele>352.45999999999998</ele>
        <time>2019-08-30T05:25:54Z</time>
      </trkpt>
      <trkpt lat="50.449075000360608" lon="7.698521995916963">
        <ele>331.79000000000002</ele>
        <time>2019-08-30T05:26:06Z</time>
      </trkpt>
      <trkpt lat="50.448422972112894" lon="7.694257032126188">
        <ele>316.88999999999999</ele>
        <time>2019-08-30T05:26:15Z</time>
      </trkpt>
      <trkpt lat="50.447271969169378" lon="7.690813997760415">
        <ele>306.80000000000001</ele>
        <time>2019-08-30T05:26:23Z</time>
      </trkpt>
      <trkpt lat="50.446425983682275" lon="7.688258020207286">
        <ele>300.55000000000001</ele>
        <time>2019-08-30T05:26:29Z</time>
      </trkpt>
      <trkpt lat="50.446255998685956" lon="7.687335005030036">
        <ele>298.63</ele>
        <time>2019-08-30T05:26:31Z</time>
      </trkpt>
      <trkpt lat="50.446204030886292" lon="7.686858996748924">
        <ele>297.67000000000002</ele>
        <time>2019-08-30T05:26:32Z</time>
      </trkpt>
      <trkpt lat="50.44617896899581" lon="7.686386005952954">
        <ele>296.69999999999999</ele>
        <time>2019-08-30T05:26:33Z</time>
      </trkpt>
      <trkpt lat="50.446159020066261" lon="7.68590496852994">
        <ele>295.74000000000001</ele>
        <time>2019-08-30T05:26:34Z</time>
      </trkpt>
      <trkpt lat="50.446150973439217" lon="7.685422003269196">
        <ele>294.77999999999997</ele>
        <time>2019-08-30T05:26:35Z</time>
      </trkpt>
      <trkpt lat="50.446407962590456" lon="7.68304699100554">
        <ele>289.49000000000001</ele>
        <time>2019-08-30T05:26:40Z</time>
      </trkpt>
      <trkpt lat="50.447239028289914" lon="7.679412011057138">
        <ele>282.76999999999998</ele>
        <time>2019-08-30T05:26:48Z</time>
      </trkpt>
      <trkpt lat="50.447481013834476" lon="7.676575994119048">
        <ele>280.36000000000001</ele>
        <time>2019-08-30T05:26:54Z</time>
      </trkpt>
      <trkpt lat="50.447110030800104" lon="7.673791022971273">
        <ele>282.76999999999998</ele>
        <time>2019-08-30T05:27:00Z</time>
      </trkpt>
      <trkpt lat="50.446247030049562" lon="7.671278966590762">
        <ele>286.13</ele>
        <time>2019-08-30T05:27:06Z</time>
      </trkpt>
      <trkpt lat="50.444925036281347" lon="7.66802997328341">
        <ele>292.38</ele>
        <time>2019-08-30T05:27:14Z</time>
      </trkpt>
      <trkpt lat="50.444077961146832" lon="7.664895979687572">
        <ele>297.18000000000001</ele>
        <time>2019-08-30T05:27:21Z</time>
      </trkpt>
      <trkpt lat="50.443948041647673" lon="7.662944002076984">
        <ele>299.11000000000001</ele>
        <time>2019-08-30T05:27:25Z</time>
      </trkpt>
      <trkpt lat="50.444176029413939" lon="7.659545978531241">
        <ele>301.02999999999997</ele>
        <time>2019-08-30T05:27:32Z</time>
      </trkpt>
      <trkpt lat="50.444269990548491" lon="7.656150972470641">
        <ele>298.14999999999998</ele>
        <time>2019-08-30T05:27:39Z</time>
      </trkpt>
      <trkpt lat="50.443698009476066" lon="7.653433978557587">
        <ele>297.67000000000002</ele>
        <time>2019-08-30T05:27:45Z</time>
      </trkpt>
      <trkpt lat="50.442837020382285" lon="7.651469008997083">
        <ele>298.63</ele>
        <time>2019-08-30T05:27:50Z</time>
      </trkpt>
      <trkpt lat="50.440864004194736" lon="7.648378014564514">
        <ele>301.02999999999997</ele>
        <time>2019-08-30T05:27:59Z</time>
      </trkpt>
      <trkpt lat="50.438192021101713" lon="7.644211035221815">
        <ele>299.11000000000001</ele>
        <time>2019-08-30T05:28:11Z</time>
      </trkpt>
      <trkpt lat="50.435095997527242" lon="7.639405019581318">
        <ele>287.08999999999997</ele>
        <time>2019-08-30T05:28:25Z</time>
      </trkpt>
      <trkpt lat="50.432227961719036" lon="7.634927993640304">
        <ele>270.75</ele>
        <time>2019-08-30T05:28:38Z</time>
      </trkpt>
      <trkpt lat="50.429671984165907" lon="7.630676021799445">
        <ele>254.88999999999999</ele>
        <time>2019-08-30T05:28:50Z</time>
      </trkpt>
      <trkpt lat="50.428053019568324" lon="7.627137014642358">
        <ele>242.38999999999999</ele>
        <time>2019-08-30T05:28:59Z</time>
      </trkpt>
      <trkpt lat="50.425386987626553" lon="7.620574990287423">
        <ele>227.97</ele>
        <time>2019-08-30T05:29:15Z</time>
      </trkpt>
      <trkpt lat="50.423376001417637" lon="7.616289993748069">
        <ele>222.68000000000001</ele>
        <time>2019-08-30T05:29:26Z</time>
      </trkpt>
      <trkpt lat="50.422197002917528" lon="7.614467013627291">
        <ele>219.31999999999999</ele>
        <time>2019-08-30T05:29:32Z</time>
      </trkpt>
      <trkpt lat="50.420699995011091" lon="7.612696001306176">
        <ele>216.43000000000001</ele>
        <time>2019-08-30T05:29:40Z</time>
      </trkpt>
      <trkpt lat="50.418840972706676" lon="7.611104026436806">
        <ele>211.15000000000001</ele>
        <time>2019-08-30T05:29:50Z</time>
      </trkpt>
      <trkpt lat="50.416655978187919" lon="7.609923016279936">
        <ele>205.38</ele>
        <time>2019-08-30T05:30:01Z</time>
      </trkpt>
      <trkpt lat="50.414592018350959" lon="7.609410965815187">
        <ele>197.69</ele>
        <time>2019-08-30T05:30:11Z</time>
      </trkpt>
      <trkpt lat="50.412091026082635" lon="7.609017016366124">
        <ele>189.03999999999999</ele>
        <time>2019-08-30T05:30:23Z</time>
      </trkpt>
      <trkpt lat="50.410056989639997" lon="7.608240013942123">
        <ele>180.38</ele>
        <time>2019-08-30T05:30:33Z</time>
      </trkpt>
      <trkpt lat="50.408609015867114" lon="7.606940986588597">
        <ele>171.72999999999999</ele>
        <time>2019-08-30T05:30:41Z</time>
      </trkpt>
      <trkpt lat="50.407668985426426" lon="7.605194030329585">
        <ele>163.56</ele>
        <time>2019-08-30T05:30:48Z</time>
      </trkpt>
      <trkpt lat="50.407172022387385" lon="7.603066032752395">
        <ele>156.83000000000001</ele>
        <time>2019-08-30T05:30:55Z</time>
      </trkpt>
      <trkpt lat="50.407126005738974" lon="7.600795961916447">
        <ele>154.43000000000001</ele>
        <time>2019-08-30T05:31:02Z</time>
      </trkpt>
      <trkpt lat="50.40718300268054" lon="7.600168995559216">
        <ele>153.47</ele>
        <time>2019-08-30T05:31:04Z</time>
      </trkpt>
      <trkpt lat="50.407241005450487" lon="7.599846962839365">
        <ele>152.99000000000001</ele>
        <time>2019-08-30T05:31:05Z</time>
      </trkpt>
      <trkpt lat="50.408086990937591" lon="7.596811959519982">
        <ele>147.69999999999999</ele>
        <time>2019-08-30T05:31:15Z</time>
      </trkpt>
      <trkpt lat="50.409106984734535" lon="7.594323037192226">
        <ele>140.97</ele>
        <time>2019-08-30T05:31:24Z</time>
      </trkpt>
      <trkpt lat="50.410751011222601" lon="7.59177703410387">
        <ele>130.40000000000001</ele>
        <time>2019-08-30T05:31:35Z</time>
      </trkpt>
      <trkpt lat="50.413322998210788" lon="7.587869977578521">
        <ele>112.61</ele>
        <time>2019-08-30T05:31:52Z</time>
      </trkpt>
      <trkpt lat="50.414055995643139" lon="7.585895033553243">
        <ele>107.31999999999999</ele>
        <time>2019-08-30T05:31:59Z</time>
      </trkpt>
      <trkpt lat="50.414330000057817" lon="7.583907013759017">
        <ele>101.56</ele>
        <time>2019-08-30T05:32:06Z</time>
      </trkpt>
      <trkpt lat="50.414175018668175" lon="7.581778010353446">
        <ele>97.230000000000004</ele>
        <time>2019-08-30T05:32:14Z</time>
      </trkpt>
      <trkpt lat="50.413609994575381" lon="7.579769035801292">
        <ele>89.540000000000006</ele>
        <time>2019-08-30T05:32:22Z</time>
      </trkpt>
      <trkpt lat="50.412730984389782" lon="7.57802601903677">
        <ele>85.209999999999994</ele>
        <time>2019-08-30T05:32:29Z</time>
      </trkpt>
      <trkpt lat="50.411343025043607" lon="7.576041016727686">
        <ele>83.769999999999996</ele>
        <time>2019-08-30T05:32:38Z</time>
      </trkpt>
      <trkpt lat="50.408990979194641" lon="7.572796968743205">
        <ele>85.689999999999998</ele>
        <time>2019-08-30T05:32:53Z</time>
      </trkpt>
      <trkpt lat="50.406772959977388" lon="7.569740004837513">
        <ele>85.209999999999994</ele>
        <time>2019-08-30T05:33:07Z</time>
      </trkpt>
      <trkpt lat="50.404707994312048" lon="7.566913962364197">
        <ele>82.329999999999998</ele>
        <time>2019-08-30T05:33:20Z</time>
      </trkpt>
      <trkpt lat="50.402674041688442" lon="7.564088003709912">
        <ele>78.969999999999999</ele>
        <time>2019-08-30T05:33:33Z</time>
      </trkpt>
      <trkpt lat="50.401173010468483" lon="7.561860010027885">
        <ele>77.519999999999996</ele>
        <time>2019-08-30T05:33:42Z</time>
      </trkpt>
      <trkpt lat="50.399407027289271" lon="7.559018963947892">
        <ele>73.680000000000007</ele>
        <time>2019-08-30T05:33:51Z</time>
      </trkpt>
      <trkpt lat="50.397268971428275" lon="7.554981987923384">
        <ele>71.269999999999996</ele>
        <time>2019-08-30T05:34:02Z</time>
      </trkpt>
      <trkpt lat="50.394968977198005" lon="7.549775987863541">
        <ele>72.239999999999995</ele>
        <time>2019-08-30T05:34:15Z</time>
      </trkpt>
      <trkpt lat="50.392947010695934" lon="7.544889003038406">
        <ele>81.370000000000005</ele>
        <time>2019-08-30T05:34:27Z</time>
      </trkpt>
      <trkpt lat="50.391425024718046" lon="7.542450958862901">
        <ele>88.579999999999998</ele>
        <time>2019-08-30T05:34:34Z</time>
      </trkpt>
      <trkpt lat="50.389598021283746" lon="7.540622027590871">
        <ele>94.829999999999998</ele>
        <time>2019-08-30T05:34:41Z</time>
      </trkpt>
      <trkpt lat="50.38724597543478" lon="7.53941997885704">
        <ele>103</ele>
        <time>2019-08-30T05:34:49Z</time>
      </trkpt>
      <trkpt lat="50.384250031784177" lon="7.538283979520202">
        <ele>112.61</ele>
        <time>2019-08-30T05:34:59Z</time>
      </trkpt>
      <trkpt lat="50.382261006161571" lon="7.537044966593385">
        <ele>119.81999999999999</ele>
        <time>2019-08-30T05:35:06Z</time>
      </trkpt>
      <trkpt lat="50.38047599606216" lon="7.535085026174784">
        <ele>126.06999999999999</ele>
        <time>2019-08-30T05:35:13Z</time>
      </trkpt>
      <trkpt lat="50.379033973440528" lon="7.532494012266398">
        <ele>137.13</ele>
        <time>2019-08-30T05:35:20Z</time>
      </trkpt>
      <trkpt lat="50.377730000764132" lon="7.528622997924686">
        <ele>148.18000000000001</ele>
        <time>2019-08-30T05:35:29Z</time>
      </trkpt>
      <trkpt lat="50.37615898065269" lon="7.522759018465877">
        <ele>161.16</ele>
        <time>2019-08-30T05:35:42Z</time>
      </trkpt>
      <trkpt lat="50.374736990779638" lon="7.517888965085149">
        <ele>167.41</ele>
        <time>2019-08-30T05:35:53Z</time>
      </trkpt>
      <trkpt lat="50.372917028144002" lon="7.512217015028">
        <ele>178.94</ele>
        <time>2019-08-30T05:36:06Z</time>
      </trkpt>
      <trkpt lat="50.37078701891005" lon="7.505682986229658">
        <ele>191.91999999999999</ele>
        <time>2019-08-30T05:36:21Z</time>
      </trkpt>
      <trkpt lat="50.368815008550882" lon="7.500138022005558">
        <ele>201.05000000000001</ele>
        <time>2019-08-30T05:36:34Z</time>
      </trkpt>
      <trkpt lat="50.367436017841101" lon="7.497109975665808">
        <ele>204.90000000000001</ele>
        <time>2019-08-30T05:36:42Z</time>
      </trkpt>
      <trkpt lat="50.365624018013477" lon="7.494049994274974">
        <ele>208.74000000000001</ele>
        <time>2019-08-30T05:36:52Z</time>
      </trkpt>
      <trkpt lat="50.363944033160806" lon="7.491488987579942">
        <ele>211.63</ele>
        <time>2019-08-30T05:37:01Z</time>
      </trkpt>
      <trkpt lat="50.362540986388922" lon="7.48944397084415">
        <ele>212.11000000000001</ele>
        <time>2019-08-30T05:37:10Z</time>
      </trkpt>
      <trkpt lat="50.361044984310865" lon="7.48662899248302">
        <ele>214.03</ele>
        <time>2019-08-30T05:37:21Z</time>
      </trkpt>
      <trkpt lat="50.360825965180993" lon="7.486038990318775">
        <ele>214.50999999999999</ele>
        <time>2019-08-30T05:37:23Z</time>
      </trkpt>
      <trkpt lat="50.360763017088175" lon="7.485706983134151">
        <ele>214.99000000000001</ele>
        <time>2019-08-30T05:37:24Z</time>
      </trkpt>
      <trkpt lat="50.360698979347944" lon="7.485368018969894">
        <ele>215.47</ele>
        <time>2019-08-30T05:37:25Z</time>
      </trkpt>
      <trkpt lat="50.360634019598365" lon="7.485027965158224">
        <ele>215.94999999999999</ele>
        <time>2019-08-30T05:37:26Z</time>
      </trkpt>
      <trkpt lat="50.360584985464811" lon="7.484684977680445">
        <ele>215.94999999999999</ele>
        <time>2019-08-30T05:37:27Z</time>
      </trkpt>
      <trkpt lat="50.360555984079838" lon="7.484326986595988">
        <ele>215.94999999999999</ele>
        <time>2019-08-30T05:37:28Z</time>
      </trkpt>
      <trkpt lat="50.360555984079838" lon="7.483966983854771">
        <ele>215.94999999999999</ele>
        <time>2019-08-30T05:37:29Z</time>
      </trkpt>
      <trkpt lat="50.360555984079838" lon="7.483601029962301">
        <ele>215.94999999999999</ele>
        <time>2019-08-30T05:37:30Z</time>
      </trkpt>
      <trkpt lat="50.360572999343276" lon="7.483224011957645">
        <ele>215.47</ele>
        <time>2019-08-30T05:37:31Z</time>
      </trkpt>
      <trkpt lat="50.360617004334927" lon="7.482844982296228">
        <ele>214.99000000000001</ele>
        <time>2019-08-30T05:37:32Z</time>
      </trkpt>
      <trkpt lat="50.360679030418396" lon="7.482469975948334">
        <ele>214.03</ele>
        <time>2019-08-30T05:37:33Z</time>
      </trkpt>
      <trkpt lat="50.360764022916555" lon="7.482099998742342">
        <ele>213.55000000000001</ele>
        <time>2019-08-30T05:37:34Z</time>
      </trkpt>
      <trkpt lat="50.360865024849772" lon="7.481738990172744">
        <ele>213.06999999999999</ele>
        <time>2019-08-30T05:37:35Z</time>
      </trkpt>
      <trkpt lat="50.360991004854441" lon="7.481387034058571">
        <ele>212.59</ele>
        <time>2019-08-30T05:37:36Z</time>
      </trkpt>
      <trkpt lat="50.361952995881438" lon="7.478847987949848">
        <ele>206.81999999999999</ele>
        <time>2019-08-30T05:37:43Z</time>
      </trkpt>
      <trkpt lat="50.364033970981836" lon="7.474139034748077">
        <ele>202.97999999999999</ele>
        <time>2019-08-30T05:37:56Z</time>
      </trkpt>
      <trkpt lat="50.365364011377096" lon="7.470334991812706">
        <ele>203.46000000000001</ele>
        <time>2019-08-30T05:38:05Z</time>
      </trkpt>
      <trkpt lat="50.366408983245492" lon="7.465764004737139">
        <ele>204.41999999999999</ele>
        <time>2019-08-30T05:38:15Z</time>
      </trkpt>
      <trkpt lat="50.366906030103564" lon="7.46097601018846">
        <ele>207.78</ele>
        <time>2019-08-30T05:38:25Z</time>
      </trkpt>
      <trkpt lat="50.366942994296551" lon="7.457079011946917">
        <ele>210.66999999999999</ele>
        <time>2019-08-30T05:38:33Z</time>
      </trkpt>
      <trkpt lat="50.366581985726953" lon="7.452752022072673">
        <ele>213.55000000000001</ele>
        <time>2019-08-30T05:38:42Z</time>
      </trkpt>
      <trkpt lat="50.3657609783113" lon="7.448546988889575">
        <ele>217.88</ele>
        <time>2019-08-30T05:38:51Z</time>
      </trkpt>
      <trkpt lat="50.364453988149762" lon="7.443568976595998">
        <ele>220.75999999999999</ele>
        <time>2019-08-30T05:39:02Z</time>
      </trkpt>
      <trkpt lat="50.363510018214583" lon="7.438895981758833">
        <ele>223.16</ele>
        <time>2019-08-30T05:39:12Z</time>
      </trkpt>
      <trkpt lat="50.36326602101326" lon="7.435495024546981">
        <ele>221.24000000000001</ele>
        <time>2019-08-30T05:39:19Z</time>
      </trkpt>
      <trkpt lat="50.363472970202565" lon="7.432100018486381">
        <ele>218.36000000000001</ele>
        <time>2019-08-30T05:39:26Z</time>
      </trkpt>
      <trkpt lat="50.364203033968806" lon="7.428375016897917">
        <ele>210.66999999999999</ele>
        <time>2019-08-30T05:39:34Z</time>
      </trkpt>
      <trkpt lat="50.365450009703636" lon="7.425000965595245">
        <ele>203.46000000000001</ele>
        <time>2019-08-30T05:39:42Z</time>
      </trkpt>
      <trkpt lat="50.367135023698211" lon="7.422126978635788">
        <ele>197.21000000000001</ele>
        <time>2019-08-30T05:39:50Z</time>
      </trkpt>
      <trkpt lat="50.370126022025943" lon="7.418572967872024">
        <ele>186.63</ele>
        <time>2019-08-30T05:40:02Z</time>
      </trkpt>
      <trkpt lat="50.372823989018798" lon="7.415263038128614">
        <ele>179.41999999999999</ele>
        <time>2019-08-30T05:40:13Z</time>
      </trkpt>
      <trkpt lat="50.374474972486496" lon="7.412362983450294">
        <ele>173.66</ele>
        <time>2019-08-30T05:40:21Z</time>
      </trkpt>
      <trkpt lat="50.375756984576583" lon="7.409011982381344">
        <ele>167.41</ele>
        <time>2019-08-30T05:40:29Z</time>
      </trkpt>
      <trkpt lat="50.376713024452329" lon="7.404880039393902">
        <ele>161.63999999999999</ele>
        <time>2019-08-30T05:40:38Z</time>
      </trkpt>
      <trkpt lat="50.377155002206564" lon="7.400541985407472">
        <ele>156.34999999999999</ele>
        <time>2019-08-30T05:40:47Z</time>
      </trkpt>
      <trkpt lat="50.377479968592525" lon="7.394711030647159">
        <ele>150.58000000000001</ele>
        <time>2019-08-30T05:40:59Z</time>
      </trkpt>
      <trkpt lat="50.377865033224225" lon="7.391362963244319">
        <ele>147.22</ele>
        <time>2019-08-30T05:41:06Z</time>
      </trkpt>
      <trkpt lat="50.378729039803147" lon="7.387724965810776">
        <ele>144.34</ele>
        <time>2019-08-30T05:41:14Z</time>
      </trkpt>
      <trkpt lat="50.380095038563013" lon="7.384476978331804">
        <ele>143.37</ele>
        <time>2019-08-30T05:41:22Z</time>
      </trkpt>
      <trkpt lat="50.381618030369282" lon="7.382080005481839">
        <ele>141.93000000000001</ele>
        <time>2019-08-30T05:41:29Z</time>
      </trkpt>
      <trkpt lat="50.384126985445619" lon="7.379219010472298">
        <ele>140.97</ele>
        <time>2019-08-30T05:41:39Z</time>
      </trkpt>
      <trkpt lat="50.386904999613762" lon="7.376141007989645">
        <ele>139.53</ele>
        <time>2019-08-30T05:41:50Z</time>
      </trkpt>
      <trkpt lat="50.388475013896823" lon="7.37374403513968">
        <ele>140.49000000000001</ele>
        <time>2019-08-30T05:41:57Z</time>
      </trkpt>
      <trkpt lat="50.389831960201263" lon="7.370469979941845">
        <ele>140.49000000000001</ele>
        <time>2019-08-30T05:42:05Z</time>
      </trkpt>
      <trkpt lat="50.390636958181858" lon="7.367291981354356">
        <ele>140.49000000000001</ele>
        <time>2019-08-30T05:42:12Z</time>
      </trkpt>
      <trkpt lat="50.391077008098364" lon="7.364134015515447">
        <ele>140.00999999999999</ele>
        <time>2019-08-30T05:42:19Z</time>
      </trkpt>
      <trkpt lat="50.391409015282989" lon="7.359463032335043">
        <ele>139.53</ele>
        <time>2019-08-30T05:42:30Z</time>
      </trkpt>
      <trkpt lat="50.391917964443564" lon="7.354040024802089">
        <ele>138.56999999999999</ele>
        <time>2019-08-30T05:42:42Z</time>
      </trkpt>
      <trkpt lat="50.392777025699615" lon="7.348504029214382">
        <ele>140.49000000000001</ele>
        <time>2019-08-30T05:42:54Z</time>
      </trkpt>
      <trkpt lat="50.39388201199472" lon="7.343550994992256">
        <ele>147.22</ele>
        <time>2019-08-30T05:43:05Z</time>
      </trkpt>
      <trkpt lat="50.395362004637718" lon="7.337449975311756">
        <ele>163.08000000000001</ele>
        <time>2019-08-30T05:43:19Z</time>
      </trkpt>
      <trkpt lat="50.396170020103455" lon="7.332931961864233">
        <ele>175.58000000000001</ele>
        <time>2019-08-30T05:43:29Z</time>
      </trkpt>
      <trkpt lat="50.396471014246345" lon="7.329436037689447">
        <ele>185.19</ele>
        <time>2019-08-30T05:43:37Z</time>
      </trkpt>
      <trkpt lat="50.396370012313128" lon="7.325723022222519">
        <ele>194.80000000000001</ele>
        <time>2019-08-30T05:43:45Z</time>
      </trkpt>
      <trkpt lat="50.395825020968914" lon="7.321981005370617">
        <ele>202.97999999999999</ele>
        <time>2019-08-30T05:43:53Z</time>
      </trkpt>
      <trkpt lat="50.394326001405716" lon="7.316653970628977">
        <ele>211.63</ele>
        <time>2019-08-30T05:44:05Z</time>
      </trkpt>
      <trkpt lat="50.3927640337497" lon="7.312452960759401">
        <ele>216.91</ele>
        <time>2019-08-30T05:44:15Z</time>
      </trkpt>
      <trkpt lat="50.391150014474988" lon="7.308295033872128">
        <ele>224.61000000000001</ele>
        <time>2019-08-30T05:44:25Z</time>
      </trkpt>
      <trkpt lat="50.389304989948869" lon="7.303243009373546">
        <ele>230.84999999999999</ele>
        <time>2019-08-30T05:44:37Z</time>
      </trkpt>
      <trkpt lat="50.38748100399971" lon="7.29704299941659">
        <ele>235.66</ele>
        <time>2019-08-30T05:44:51Z</time>
      </trkpt>
      <trkpt lat="50.386322038248181" lon="7.291998015716672">
        <ele>241.43000000000001</ele>
        <time>2019-08-30T05:45:02Z</time>
      </trkpt>
      <trkpt lat="50.385383013635874" lon="7.285887021571398">
        <ele>247.68000000000001</ele>
        <time>2019-08-30T05:45:15Z</time>
      </trkpt>
      <trkpt lat="50.385097023099661" lon="7.281561959534884">
        <ele>252</ele>
        <time>2019-08-30T05:45:24Z</time>
      </trkpt>
      <trkpt lat="50.385092999786139" lon="7.276251018047333">
        <ele>262.57999999999998</ele>
        <time>2019-08-30T05:45:35Z</time>
      </trkpt>
      <trkpt lat="50.385507987812161" lon="7.270988021045923">
        <ele>274.58999999999997</ele>
        <time>2019-08-30T05:45:46Z</time>
      </trkpt>
      <trkpt lat="50.38601802662015" lon="7.267718994989991">
        <ele>280.83999999999997</ele>
        <time>2019-08-30T05:45:53Z</time>
      </trkpt>
      <trkpt lat="50.387147990986705" lon="7.262691026553512">
        <ele>292.86000000000001</ele>
        <time>2019-08-30T05:46:04Z</time>
      </trkpt>
      <trkpt lat="50.388518013060093" lon="7.258358001708984">
        <ele>305.83999999999997</ele>
        <time>2019-08-30T05:46:14Z</time>
      </trkpt>
      <trkpt lat="50.390936024487019" lon="7.252723015844822">
        <ele>320.74000000000001</ele>
        <time>2019-08-30T05:46:28Z</time>
      </trkpt>
      <trkpt lat="50.393013982102275" lon="7.24913002923131">
        <ele>333.23000000000002</ele>
        <time>2019-08-30T05:46:38Z</time>
      </trkpt>
      <trkpt lat="50.395830972120166" lon="7.245326992124319">
        <ele>347.17000000000002</ele>
        <time>2019-08-30T05:46:50Z</time>
      </trkpt>
      <trkpt lat="50.398703031241894" lon="7.242430038750172">
        <ele>362.55000000000001</ele>
        <time>2019-08-30T05:47:01Z</time>
      </trkpt>
      <trkpt lat="50.401494959369302" lon="7.240242026746273">
        <ele>376.00999999999999</ele>
        <time>2019-08-30T05:47:11Z</time>
      </trkpt>
      <trkpt lat="50.405030027031898" lon="7.2383669950068">
        <ele>382.25999999999999</ele>
        <time>2019-08-30T05:47:23Z</time>
      </trkpt>
      <trkpt lat="50.408982010558248" lon="7.236966965720058">
        <ele>381.77999999999997</ele>
        <time>2019-08-30T05:47:36Z</time>
      </trkpt>
      <trkpt lat="50.41263903491199" lon="7.235775981098414">
        <ele>371.20999999999998</ele>
        <time>2019-08-30T05:47:48Z</time>
      </trkpt>
      <trkpt lat="50.416247025132179" lon="7.234395984560251">
        <ele>359.67000000000002</ele>
        <time>2019-08-30T05:48:00Z</time>
      </trkpt>
      <trkpt lat="50.419768011197448" lon="7.232550960034132">
        <ele>348.62</ele>
        <time>2019-08-30T05:48:12Z</time>
      </trkpt>
      <trkpt lat="50.42265398427844" lon="7.230576016008854">
        <ele>339.48000000000002</ele>
        <time>2019-08-30T05:48:22Z</time>
      </trkpt>
      <trkpt lat="50.425266036763787" lon="7.228700984269381">
        <ele>333.23000000000002</ele>
        <time>2019-08-30T05:48:31Z</time>
      </trkpt>
      <trkpt lat="50.428894981741905" lon="7.226253971457481">
        <ele>326.01999999999998</ele>
        <time>2019-08-30T05:48:43Z</time>
      </trkpt>
      <trkpt lat="50.431723035871983" lon="7.224854025989771">
        <ele>323.13999999999999</ele>
        <time>2019-08-30T05:48:52Z</time>
      </trkpt>
      <trkpt lat="50.434480011463165" lon="7.22420996055007">
        <ele>322.18000000000001</ele>
        <time>2019-08-30T05:49:01Z</time>
      </trkpt>
      <trkpt lat="50.437278980389237" lon="7.224236028268933">
        <ele>318.81</ele>
        <time>2019-08-30T05:49:10Z</time>
      </trkpt>
      <trkpt lat="50.440049031749368" lon="7.224922003224492">
        <ele>312.08999999999997</ele>
        <time>2019-08-30T05:49:19Z</time>
      </trkpt>
      <trkpt lat="50.443941000849009" lon="7.226715981960297">
        <ele>296.22000000000003</ele>
        <time>2019-08-30T05:49:32Z</time>
      </trkpt>
      <trkpt lat="50.448291962966323" lon="7.229253016412258">
        <ele>278.44</ele>
        <time>2019-08-30T05:49:47Z</time>
      </trkpt>
      <trkpt lat="50.452078990638256" lon="7.231414960697293">
        <ele>264.98000000000002</ele>
        <time>2019-08-30T05:50:00Z</time>
      </trkpt>
      <trkpt lat="50.45503000728786" lon="7.232864024117589">
        <ele>256.81</ele>
        <time>2019-08-30T05:50:10Z</time>
      </trkpt>
      <trkpt lat="50.458372039720416" lon="7.233848981559277">
        <ele>250.08000000000001</ele>
        <time>2019-08-30T05:50:21Z</time>
      </trkpt>
      <trkpt lat="50.46115399338305" lon="7.234098007902503">
        <ele>248.63999999999999</ele>
        <time>2019-08-30T05:50:30Z</time>
      </trkpt>
      <trkpt lat="50.464223027229309" lon="7.233654018491507">
        <ele>247.68000000000001</ele>
        <time>2019-08-30T05:50:40Z</time>
      </trkpt>
      <trkpt lat="50.466960975900292" lon="7.232605023309588">
        <ele>246.22999999999999</ele>
        <time>2019-08-30T05:50:50Z</time>
      </trkpt>
      <trkpt lat="50.469240015372634" lon="7.231178004294634">
        <ele>243.83000000000001</ele>
        <time>2019-08-30T05:50:59Z</time>
      </trkpt>
      <trkpt lat="50.471488041803241" lon="7.229268020018935">
        <ele>239.02000000000001</ele>
        <time>2019-08-30T05:51:08Z</time>
      </trkpt>
      <trkpt lat="50.474330009892583" lon="7.226367965340614">
        <ele>231.81</ele>
        <time>2019-08-30T05:51:20Z</time>
      </trkpt>
      <trkpt lat="50.476779034361243" lon="7.223817016929388">
        <ele>228.44999999999999</ele>
        <time>2019-08-30T05:51:30Z</time>
      </trkpt>
      <trkpt lat="50.478966040536761" lon="7.221551975235343">
        <ele>222.19999999999999</ele>
        <time>2019-08-30T05:51:39Z</time>
      </trkpt>
      <trkpt lat="50.481119016185403" lon="7.219838965684176">
        <ele>217.88</ele>
        <time>2019-08-30T05:51:47Z</time>
      </trkpt>
      <trkpt lat="50.483480030670762" lon="7.218764992430806">
        <ele>214.50999999999999</ele>
        <time>2019-08-30T05:51:55Z</time>
      </trkpt>
      <trkpt lat="50.485952021554112" lon="7.218606993556023">
        <ele>213.55000000000001</ele>
        <time>2019-08-30T05:52:03Z</time>
      </trkpt>
      <trkpt lat="50.488080019131303" lon="7.219199007377029">
        <ele>214.99000000000001</ele>
        <time>2019-08-30T05:52:10Z</time>
      </trkpt>
      <trkpt lat="50.490366015583277" lon="7.220649998635054">
        <ele>218.84</ele>
        <time>2019-08-30T05:52:18Z</time>
      </trkpt>
      <trkpt lat="50.493053002282977" lon="7.223059963434935">
        <ele>225.09</ele>
        <time>2019-08-30T05:52:28Z</time>
      </trkpt>
      <trkpt lat="50.495038004592061" lon="7.224362008273602">
        <ele>227.97</ele>
        <time>2019-08-30T05:52:35Z</time>
      </trkpt>
      <trkpt lat="50.497103976085782" lon="7.225052006542683">
        <ele>228.93000000000001</ele>
        <time>2019-08-30T05:52:42Z</time>
      </trkpt>
      <trkpt lat="50.499507989734411" lon="7.225157031789422">
        <ele>229.88999999999999</ele>
        <time>2019-08-30T05:52:50Z</time>
      </trkpt>
      <trkpt lat="50.501878978684545" lon="7.22446896135807">
        <ele>228.44999999999999</ele>
        <time>2019-08-30T05:52:58Z</time>
      </trkpt>
      <trkpt lat="50.504156006500125" lon="7.222967008128762">
        <ele>225.56999999999999</ele>
        <time>2019-08-30T05:53:06Z</time>
      </trkpt>
      <trkpt lat="50.506021985784173" lon="7.221010001376271">
        <ele>222.68000000000001</ele>
        <time>2019-08-30T05:53:13Z</time>
      </trkpt>
      <trkpt lat="50.507794003933668" lon="7.218289989978075">
        <ele>221.24000000000001</ele>
        <time>2019-08-30T05:53:21Z</time>
      </trkpt>
      <trkpt lat="50.509508019313216" lon="7.214821977540851">
        <ele>221.24000000000001</ele>
        <time>2019-08-30T05:53:30Z</time>
      </trkpt>
      <trkpt lat="50.511653032153845" lon="7.210042029619217">
        <ele>222.68000000000001</ele>
        <time>2019-08-30T05:53:41Z</time>
      </trkpt>
      <trkpt lat="50.513880020007491" lon="7.20538797788322">
        <ele>225.56999999999999</ele>
        <time>2019-08-30T05:53:53Z</time>
      </trkpt>
      <trkpt lat="50.516164004802704" lon="7.201420990750194">
        <ele>227.00999999999999</ele>
        <time>2019-08-30T05:54:04Z</time>
      </trkpt>
      <trkpt lat="50.518920980393887" lon="7.197468001395464">
        <ele>227.00999999999999</ele>
        <time>2019-08-30T05:54:16Z</time>
      </trkpt>
      <trkpt lat="50.521649960428476" lon="7.194266030564904">
        <ele>223.16</ele>
        <time>2019-08-30T05:54:27Z</time>
      </trkpt>
      <trkpt lat="50.524282967671752" lon="7.191274026408792">
        <ele>217.88</ele>
        <time>2019-08-30T05:54:37Z</time>
      </trkpt>
      <trkpt lat="50.525796990841627" lon="7.189412992447615">
        <ele>212.59</ele>
        <time>2019-08-30T05:54:43Z</time>
      </trkpt>
      <trkpt lat="50.528308963403106" lon="7.185798967257142">
        <ele>204.90000000000001</ele>
        <time>2019-08-30T05:54:54Z</time>
      </trkpt>
      <trkpt lat="50.530404020100832" lon="7.182185025885701">
        <ele>197.21000000000001</ele>
        <time>2019-08-30T05:55:04Z</time>
      </trkpt>
      <trkpt lat="50.532574011012912" lon="7.178031038492918">
        <ele>187.11000000000001</ele>
        <time>2019-08-30T05:55:15Z</time>
      </trkpt>
      <trkpt lat="50.535140968859196" lon="7.173774037510157">
        <ele>176.06</ele>
        <time>2019-08-30T05:55:27Z</time>
      </trkpt>
      <trkpt lat="50.53725304082036" lon="7.170936008915305">
        <ele>168.37</ele>
        <time>2019-08-30T05:55:36Z</time>
      </trkpt>
      <trkpt lat="50.539735006168485" lon="7.168019022792578">
        <ele>160.68000000000001</ele>
        <time>2019-08-30T05:55:46Z</time>
      </trkpt>
      <trkpt lat="50.542277991771698" lon="7.165320971980691">
        <ele>152.03</ele>
        <time>2019-08-30T05:55:56Z</time>
      </trkpt>
      <trkpt lat="50.546102989464998" lon="7.161239990964532">
        <ele>143.84999999999999</ele>
        <time>2019-08-30T05:56:11Z</time>
      </trkpt>
      <trkpt lat="50.550184976309538" lon="7.156871007755399">
        <ele>145.30000000000001</ele>
        <time>2019-08-30T05:56:27Z</time>
      </trkpt>
      <trkpt lat="50.554266041144729" lon="7.152527002617717">
        <ele>152.99000000000001</ele>
        <time>2019-08-30T05:56:43Z</time>
      </trkpt>
      <trkpt lat="50.556368976831436" lon="7.150472011417151">
        <ele>156.34999999999999</ele>
        <time>2019-08-30T05:56:51Z</time>
      </trkpt>
      <trkpt lat="50.559132993221283" lon="7.148418026044965">
        <ele>161.63999999999999</ele>
        <time>2019-08-30T05:57:01Z</time>
      </trkpt>
      <trkpt lat="50.561982002109289" lon="7.146921018138528">
        <ele>166.93000000000001</ele>
        <time>2019-08-30T05:57:11Z</time>
      </trkpt>
      <trkpt lat="50.564577961340547" lon="7.145366007462144">
        <ele>170.77000000000001</ele>
        <time>2019-08-30T05:57:20Z</time>
      </trkpt>
      <trkpt lat="50.567579017952085" lon="7.142867026850581">
        <ele>176.06</ele>
        <time>2019-08-30T05:57:31Z</time>
      </trkpt>
      <trkpt lat="50.569766024127603" lon="7.140165036544204">
        <ele>181.34999999999999</ele>
        <time>2019-08-30T05:57:40Z</time>
      </trkpt>
      <trkpt lat="50.571468975394964" lon="7.137319967150688">
        <ele>183.27000000000001</ele>
        <time>2019-08-30T05:57:48Z</time>
      </trkpt>
      <trkpt lat="50.573246022686362" lon="7.133367983624339">
        <ele>184.71000000000001</ele>
        <time>2019-08-30T05:57:58Z</time>
      </trkpt>
      <trkpt lat="50.574400965124369" lon="7.129390016198158">
        <ele>188.08000000000001</ele>
        <time>2019-08-30T05:58:07Z</time>
      </trkpt>
      <trkpt lat="50.575135974213481" lon="7.125819995999336">
        <ele>190.96000000000001</ele>
        <time>2019-08-30T05:58:15Z</time>
      </trkpt>
      <trkpt lat="50.575544005259871" lon="7.12193800136447">
        <ele>193.84</ele>
        <time>2019-08-30T05:58:25Z</time>
      </trkpt>
      <trkpt lat="50.575663028284907" lon="7.118333028629422">
        <ele>196.25</ele>
        <time>2019-08-30T05:58:34Z</time>
      </trkpt>
      <trkpt lat="50.575575018301606" lon="7.113607982173562">
        <ele>199.61000000000001</ele>
        <time>2019-08-30T05:58:45Z</time>
      </trkpt>
      <trkpt lat="50.575408972799778" lon="7.108795009553433">
        <ele>202.00999999999999</ele>
        <time>2019-08-30T05:58:56Z</time>
      </trkpt>
      <trkpt lat="50.575317023321986" lon="7.104591988027096">
        <ele>204.90000000000001</ele>
        <time>2019-08-30T05:59:06Z</time>
      </trkpt>
      <trkpt lat="50.575207974761724" lon="7.100956002250314">
        <ele>205.38</ele>
        <time>2019-08-30T05:59:15Z</time>
      </trkpt>
      <trkpt lat="50.57506799697876" lon="7.096098018810153">
        <ele>206.81999999999999</ele>
        <time>2019-08-30T05:59:27Z</time>
      </trkpt>
      <trkpt lat="50.5749830044806" lon="7.090397989377379">
        <ele>208.74000000000001</ele>
        <time>2019-08-30T05:59:41Z</time>
      </trkpt>
      <trkpt lat="50.575064979493618" lon="7.087516039609909">
        <ele>213.06999999999999</ele>
        <time>2019-08-30T05:59:48Z</time>
      </trkpt>
      <trkpt lat="50.575371002778411" lon="7.083645025268197">
        <ele>214.50999999999999</ele>
        <time>2019-08-30T05:59:57Z</time>
      </trkpt>
      <trkpt lat="50.576191004365683" lon="7.07815102301538">
        <ele>214.99000000000001</ele>
        <time>2019-08-30T06:00:11Z</time>
      </trkpt>
      <trkpt lat="50.577276041731238" lon="7.073593027889729">
        <ele>215.47</ele>
        <time>2019-08-30T06:00:23Z</time>
      </trkpt>
      <trkpt lat="50.57876399718225" lon="7.068861024454236">
        <ele>215.94999999999999</ele>
        <time>2019-08-30T06:00:36Z</time>
      </trkpt>
      <trkpt lat="50.579907959327102" lon="7.065689982846379">
        <ele>216.43000000000001</ele>
        <time>2019-08-30T06:00:45Z</time>
      </trkpt>
      <trkpt lat="50.581547962501645" lon="7.06124103628099">
        <ele>215.94999999999999</ele>
        <time>2019-08-30T06:00:58Z</time>
      </trkpt>
      <trkpt lat="50.582989985123277" lon="7.057381002232432">
        <ele>216.91</ele>
        <time>2019-08-30T06:01:11Z</time>
      </trkpt>
      <trkpt lat="50.583932027220726" lon="7.054854026064277">
        <ele>217.40000000000001</ele>
        <time>2019-08-30T06:01:19Z</time>
      </trkpt>
      <trkpt lat="50.585741009563208" lon="7.049929993227124">
        <ele>217.40000000000001</ele>
        <time>2019-08-30T06:01:33Z</time>
      </trkpt>
      <trkpt lat="50.587311023846269" lon="7.045734012499452">
        <ele>216.43000000000001</ele>
        <time>2019-08-30T06:01:45Z</time>
      </trkpt>
      <trkpt lat="50.58901003561914" lon="7.041195966303349">
        <ele>215.47</ele>
        <time>2019-08-30T06:01:58Z</time>
      </trkpt>
      <trkpt lat="50.590717010200024" lon="7.036650963127613">
        <ele>215.47</ele>
        <time>2019-08-30T06:02:11Z</time>
      </trkpt>
      <trkpt lat="50.592237990349531" lon="7.032373007386923">
        <ele>214.50999999999999</ele>
        <time>2019-08-30T06:02:23Z</time>
      </trkpt>
      <trkpt lat="50.593950999900699" lon="7.027777964249253">
        <ele>212.59</ele>
        <time>2019-08-30T06:02:36Z</time>
      </trkpt>
      <trkpt lat="50.595456976443529" lon="7.023716010153294">
        <ele>212.59</ele>
        <time>2019-08-30T06:02:46Z</time>
      </trkpt>
      <trkpt lat="50.597329996526241" lon="7.018670020624995">
        <ele>213.55000000000001</ele>
        <time>2019-08-30T06:02:58Z</time>
      </trkpt>
      <trkpt lat="50.598841002210975" lon="7.014675959944725">
        <ele>215.47</ele>
        <time>2019-08-30T06:03:08Z</time>
      </trkpt>
      <trkpt lat="50.600891970098019" lon="7.009537015110254">
        <ele>216.43000000000001</ele>
        <time>2019-08-30T06:03:21Z</time>
      </trkpt>
      <trkpt lat="50.603031031787395" lon="7.005014978349209">
        <ele>214.03</ele>
        <time>2019-08-30T06:03:33Z</time>
      </trkpt>
      <trkpt lat="50.60516900382936" lon="7.001104988157749">
        <ele>210.19</ele>
        <time>2019-08-30T06:03:44Z</time>
      </trkpt>
      <trkpt lat="50.60740202665329" lon="6.997289964929223">
        <ele>207.30000000000001</ele>
        <time>2019-08-30T06:03:55Z</time>
      </trkpt>
      <trkpt lat="50.611221995204687" lon="6.990694999694824">
        <ele>201.05000000000001</ele>
        <time>2019-08-30T06:04:14Z</time>
      </trkpt>
      <trkpt lat="50.613921973854303" lon="6.986332973465323">
        <ele>198.16999999999999</ele>
        <time>2019-08-30T06:04:27Z</time>
      </trkpt>
      <trkpt lat="50.617138026282191" lon="6.982172029092908">
        <ele>193.84</ele>
        <time>2019-08-30T06:04:41Z</time>
      </trkpt>
      <trkpt lat="50.620437981560826" lon="6.978778028860688">
        <ele>190.96000000000001</ele>
        <time>2019-08-30T06:04:54Z</time>
      </trkpt>
      <trkpt lat="50.622294992208481" lon="6.977228969335556">
        <ele>190</ele>
        <time>2019-08-30T06:05:01Z</time>
      </trkpt>
      <trkpt lat="50.625222958624363" lon="6.974903997033835">
        <ele>186.63</ele>
        <time>2019-08-30T06:05:12Z</time>
      </trkpt>
      <trkpt lat="50.628125024959445" lon="6.972485985606909">
        <ele>185.19</ele>
        <time>2019-08-30T06:05:23Z</time>
      </trkpt>
      <trkpt lat="50.630846964195371" lon="6.969558019191027">
        <ele>181.34999999999999</ele>
        <time>2019-08-30T06:05:34Z</time>
      </trkpt>
      <trkpt lat="50.6330990139395" lon="6.966468030586839">
        <ele>176.06</ele>
        <time>2019-08-30T06:05:44Z</time>
      </trkpt>
      <trkpt lat="50.635339999571443" lon="6.962670022621751">
        <ele>171.72999999999999</ele>
        <time>2019-08-30T06:05:55Z</time>
      </trkpt>
      <trkpt lat="50.637253001332283" lon="6.958485022187233">
        <ele>170.28999999999999</ele>
        <time>2019-08-30T06:06:06Z</time>
      </trkpt>
      <trkpt lat="50.639196010306478" lon="6.953757964074612">
        <ele>168.37</ele>
        <time>2019-08-30T06:06:18Z</time>
      </trkpt>
      <trkpt lat="50.64143599011004" lon="6.948222974315286">
        <ele>165.47999999999999</ele>
        <time>2019-08-30T06:06:32Z</time>
      </trkpt>
      <trkpt lat="50.642885975539684" lon="6.944669969379902">
        <ele>164.03999999999999</ele>
        <time>2019-08-30T06:06:41Z</time>
      </trkpt>
      <trkpt lat="50.645079016685486" lon="6.939638983458281">
        <ele>161.16</ele>
        <time>2019-08-30T06:06:54Z</time>
      </trkpt>
      <trkpt lat="50.647024037316442" lon="6.936082039028406">
        <ele>156.34999999999999</ele>
        <time>2019-08-30T06:07:04Z</time>
      </trkpt>
      <trkpt lat="50.648988001048565" lon="6.933188019320369">
        <ele>155.38999999999999</ele>
        <time>2019-08-30T06:07:13Z</time>
      </trkpt>
      <trkpt lat="50.651370976120234" lon="6.930336998775601">
        <ele>153.94999999999999</ele>
        <time>2019-08-30T06:07:23Z</time>
      </trkpt>
      <trkpt lat="50.65366099588573" lon="6.928168013691902">
        <ele>153.94999999999999</ele>
        <time>2019-08-30T06:07:32Z</time>
      </trkpt>
      <trkpt lat="50.656939996406436" lon="6.925851004198194">
        <ele>153.94999999999999</ele>
        <time>2019-08-30T06:07:44Z</time>
      </trkpt>
      <trkpt lat="50.660308012738824" lon="6.924240002408624">
        <ele>153.47</ele>
        <time>2019-08-30T06:07:56Z</time>
      </trkpt>
      <trkpt lat="50.663116034120321" lon="6.923411032184959">
        <ele>156.34999999999999</ele>
        <time>2019-08-30T06:08:06Z</time>
      </trkpt>
      <trkpt lat="50.665806960314512" lon="6.922764033079147">
        <ele>159.24000000000001</ele>
        <time>2019-08-30T06:08:15Z</time>
      </trkpt>
      <trkpt lat="50.669626006856561" lon="6.921758959069848">
        <ele>159.72</ele>
        <time>2019-08-30T06:08:28Z</time>
      </trkpt>
      <trkpt lat="50.673060994595289" lon="6.920166984200478">
        <ele>156.34999999999999</ele>
        <time>2019-08-30T06:08:40Z</time>
      </trkpt>
      <trkpt lat="50.675772037357092" lon="6.9181920401752">
        <ele>156.34999999999999</ele>
        <time>2019-08-30T06:08:50Z</time>
      </trkpt>
      <trkpt lat="50.679935999214649" lon="6.914481036365032">
        <ele>151.06</ele>
        <time>2019-08-30T06:09:06Z</time>
      </trkpt>
      <trkpt lat="50.68365597166121" lon="6.911500012502074">
        <ele>147.69999999999999</ele>
        <time>2019-08-30T06:09:20Z</time>
      </trkpt>
      <trkpt lat="50.686645964160562" lon="6.909418031573296">
        <ele>146.25999999999999</ele>
        <time>2019-08-30T06:09:31Z</time>
      </trkpt>
      <trkpt lat="50.686922986060381" lon="6.909232037141919">
        <ele>146.25999999999999</ele>
        <time>2019-08-30T06:09:32Z</time>
      </trkpt>
      <trkpt lat="50.687204031273723" lon="6.909065991640091">
        <ele>146.25999999999999</ele>
        <time>2019-08-30T06:09:33Z</time>
      </trkpt>
      <trkpt lat="50.690867006778717" lon="6.907028015702963">
        <ele>146.74000000000001</ele>
        <time>2019-08-30T06:09:46Z</time>
      </trkpt>
      <trkpt lat="50.694612041115761" lon="6.905319029465318">
        <ele>146.74000000000001</ele>
        <time>2019-08-30T06:09:59Z</time>
      </trkpt>
      <trkpt lat="50.697803031653166" lon="6.904174983501434">
        <ele>147.69999999999999</ele>
        <time>2019-08-30T06:10:10Z</time>
      </trkpt>
      <trkpt lat="50.701547982171178" lon="6.903125988319516">
        <ele>145.78</ele>
        <time>2019-08-30T06:10:23Z</time>
      </trkpt>
      <trkpt lat="50.704964026808739" lon="6.902187969535589">
        <ele>144.34</ele>
        <time>2019-08-30T06:10:35Z</time>
      </trkpt>
      <trkpt lat="50.709184985607862" lon="6.901032021269202">
        <ele>143.84999999999999</ele>
        <time>2019-08-30T06:10:50Z</time>
      </trkpt>
      <trkpt lat="50.712038017809391" lon="6.900119986385107">
        <ele>145.30000000000001</ele>
        <time>2019-08-30T06:11:00Z</time>
      </trkpt>
      <trkpt lat="50.714490981772542" lon="6.898822970688343">
        <ele>146.25999999999999</ele>
        <time>2019-08-30T06:11:09Z</time>
      </trkpt>
      <trkpt lat="50.716865994036198" lon="6.896937964484096">
        <ele>147.69999999999999</ele>
        <time>2019-08-30T06:11:18Z</time>
      </trkpt>
      <trkpt lat="50.720625026151538" lon="6.892848014831543">
        <ele>143.84999999999999</ele>
        <time>2019-08-30T06:11:33Z</time>
      </trkpt>
      <trkpt lat="50.72402598336339" lon="6.889031985774636">
        <ele>142.41</ele>
        <time>2019-08-30T06:11:47Z</time>
      </trkpt>
      <trkpt lat="50.726692015305161" lon="6.886027995496988">
        <ele>140.49000000000001</ele>
        <time>2019-08-30T06:11:58Z</time>
      </trkpt>
      <trkpt lat="50.730590019375086" lon="6.88166999258101">
        <ele>136.16</ele>
        <time>2019-08-30T06:12:14Z</time>
      </trkpt>
      <trkpt lat="50.733513040468097" lon="6.878372970968485">
        <ele>134.72</ele>
        <time>2019-08-30T06:12:26Z</time>
      </trkpt>
      <trkpt lat="50.736413011327386" lon="6.875106040388346">
        <ele>133.75999999999999</ele>
        <time>2019-08-30T06:12:38Z</time>
      </trkpt>
      <trkpt lat="50.738860024139285" lon="6.87236599624157">
        <ele>132.31999999999999</ele>
        <time>2019-08-30T06:12:49Z</time>
      </trkpt>
      <trkpt lat="50.741025991737843" lon="6.869914038106799">
        <ele>131.36000000000001</ele>
        <time>2019-08-30T06:12:59Z</time>
      </trkpt>
      <trkpt lat="50.743324980139732" lon="6.867327969521284">
        <ele>128.47</ele>
        <time>2019-08-30T06:13:10Z</time>
      </trkpt>
      <trkpt lat="50.745204035192728" lon="6.865174993872643">
        <ele>127.98999999999999</ele>
        <time>2019-08-30T06:13:19Z</time>
      </trkpt>
      <trkpt lat="50.748078022152185" lon="6.862187013030052">
        <ele>126.06999999999999</ele>
        <time>2019-08-30T06:13:31Z</time>
      </trkpt>
      <trkpt lat="50.750615978613496" lon="6.859570015221834">
        <ele>124.63</ele>
        <time>2019-08-30T06:13:42Z</time>
      </trkpt>
      <trkpt lat="50.752436025068164" lon="6.8578000087291">
        <ele>123.67</ele>
        <time>2019-08-30T06:13:51Z</time>
      </trkpt>
      <trkpt lat="50.755297020077705" lon="6.855085026472807">
        <ele>120.3</ele>
        <time>2019-08-30T06:14:05Z</time>
      </trkpt>
      <trkpt lat="50.757890967652202" lon="6.852654023095965">
        <ele>116.45999999999999</ele>
        <time>2019-08-30T06:14:17Z</time>
      </trkpt>
      <trkpt lat="50.760565968230367" lon="6.849897969514132">
        <ele>112.13</ele>
        <time>2019-08-30T06:14:29Z</time>
      </trkpt>
      <trkpt lat="50.762294987216592" lon="6.847449028864503">
        <ele>113.09</ele>
        <time>2019-08-30T06:14:37Z</time>
      </trkpt>
      <trkpt lat="50.764097012579441" lon="6.843783035874367">
        <ele>115.5</ele>
        <time>2019-08-30T06:14:47Z</time>
      </trkpt>
      <trkpt lat="50.765294032171369" lon="6.840057028457522">
        <ele>114.53</ele>
        <time>2019-08-30T06:14:56Z</time>
      </trkpt>
      <trkpt lat="50.766273038461804" lon="6.83605601079762">
        <ele>111.17</ele>
        <time>2019-08-30T06:15:05Z</time>
      </trkpt>
      <trkpt lat="50.76718901284039" lon="6.832632003352046">
        <ele>113.09</ele>
        <time>2019-08-30T06:15:13Z</time>
      </trkpt>
      <trkpt lat="50.768786016851664" lon="6.828067973256111">
        <ele>117.42</ele>
        <time>2019-08-30T06:15:24Z</time>
      </trkpt>
      <trkpt lat="50.770323006436229" lon="6.824570037424564">
        <ele>121.73999999999999</ele>
        <time>2019-08-30T06:15:33Z</time>
      </trkpt>
      <trkpt lat="50.770516963675618" lon="6.824215985834599">
        <ele>122.22</ele>
        <time>2019-08-30T06:15:34Z</time>
      </trkpt>
      <trkpt lat="50.77253901399672" lon="6.820671027526259">
        <ele>122.22</ele>
        <time>2019-08-30T06:15:44Z</time>
      </trkpt>
      <trkpt lat="50.774296028539538" lon="6.818144973367453">
        <ele>120.78</ele>
        <time>2019-08-30T06:15:52Z</time>
      </trkpt>
      <trkpt lat="50.776926018297672" lon="6.815088009461761">
        <ele>118.86</ele>
        <time>2019-08-30T06:16:03Z</time>
      </trkpt>
      <trkpt lat="50.779790030792356" lon="6.812536977231503">
        <ele>116.94</ele>
        <time>2019-08-30T06:16:14Z</time>
      </trkpt>
      <trkpt lat="50.783327026292682" lon="6.810035984963179">
        <ele>113.09</ele>
        <time>2019-08-30T06:16:27Z</time>
      </trkpt>
      <trkpt lat="50.787978982552886" lon="6.806796966120601">
        <ele>108.77</ele>
        <time>2019-08-30T06:16:44Z</time>
      </trkpt>
      <trkpt lat="50.790980961173773" lon="6.804713979363442">
        <ele>106.36</ele>
        <time>2019-08-30T06:16:55Z</time>
      </trkpt>
      <trkpt lat="50.792410997673869" lon="6.803726004436612">
        <ele>104.44</ele>
        <time>2019-08-30T06:17:01Z</time>
      </trkpt>
      <trkpt lat="50.795174008235335" lon="6.801816020160914">
        <ele>103.95999999999999</ele>
        <time>2019-08-30T06:17:14Z</time>
      </trkpt>
      <trkpt lat="50.797592019662261" lon="6.800140980631113">
        <ele>104.92</ele>
        <time>2019-08-30T06:17:23Z</time>
      </trkpt>
      <trkpt lat="50.800678990781307" lon="6.798009965568781">
        <ele>104.44</ele>
        <time>2019-08-30T06:17:35Z</time>
      </trkpt>
      <trkpt lat="50.803956985473633" lon="6.795704020187259">
        <ele>102.04000000000001</ele>
        <time>2019-08-30T06:17:47Z</time>
      </trkpt>
      <trkpt lat="50.80704303458333" lon="6.793392039835453">
        <ele>100.59999999999999</ele>
        <time>2019-08-30T06:17:58Z</time>
      </trkpt>
      <trkpt lat="50.809642011299729" lon="6.7913259845227">
        <ele>98.189999999999998</ele>
        <time>2019-08-30T06:18:07Z</time>
      </trkpt>
      <trkpt lat="50.812247022986412" lon="6.789207961410284">
        <ele>95.790000000000006</ele>
        <time>2019-08-30T06:18:17Z</time>
      </trkpt>
      <trkpt lat="50.813628025352955" lon="6.788331968709827">
        <ele>93.870000000000005</ele>
        <time>2019-08-30T06:18:23Z</time>
      </trkpt>
      <trkpt lat="50.815569022670388" lon="6.787303006276488">
        <ele>99.150000000000006</ele>
        <time>2019-08-30T06:18:31Z</time>
      </trkpt>
      <trkpt lat="50.816821027547121" lon="6.785897025838494">
        <ele>103</ele>
        <time>2019-08-30T06:18:37Z</time>
      </trkpt>
      <trkpt lat="50.818863026797771" lon="6.782794967293739">
        <ele>99.150000000000006</ele>
        <time>2019-08-30T06:18:48Z</time>
      </trkpt>
      <trkpt lat="50.821497039869428" lon="6.779825007542968">
        <ele>93.870000000000005</ele>
        <time>2019-08-30T06:18:59Z</time>
      </trkpt>
      <trkpt lat="50.824173968285322" lon="6.776776006445289">
        <ele>94.829999999999998</ele>
        <time>2019-08-30T06:19:10Z</time>
      </trkpt>
      <trkpt lat="50.82657496444881" lon="6.773860026150942">
        <ele>93.870000000000005</ele>
        <time>2019-08-30T06:19:20Z</time>
      </trkpt>
      <trkpt lat="50.83041999489069" lon="6.769207986071706">
        <ele>93.870000000000005</ele>
        <time>2019-08-30T06:19:36Z</time>
      </trkpt>
      <trkpt lat="50.832807999104261" lon="6.766299968585372">
        <ele>93.870000000000005</ele>
        <time>2019-08-30T06:19:46Z</time>
      </trkpt>
      <trkpt lat="50.834959968924522" lon="6.763670984655619">
        <ele>94.349999999999994</ele>
        <time>2019-08-30T06:19:55Z</time>
      </trkpt>
      <trkpt lat="50.837593981996179" lon="6.760505978018045">
        <ele>96.75</ele>
        <time>2019-08-30T06:20:06Z</time>
      </trkpt>
      <trkpt lat="50.840004030615091" lon="6.757563007995486">
        <ele>96.75</ele>
        <time>2019-08-30T06:20:16Z</time>
      </trkpt>
      <trkpt lat="50.841805972158909" lon="6.754993032664061">
        <ele>96.75</ele>
        <time>2019-08-30T06:20:24Z</time>
      </trkpt>
      <trkpt lat="50.843269033357501" lon="6.752555994316936">
        <ele>96.75</ele>
        <time>2019-08-30T06:20:31Z</time>
      </trkpt>
      <trkpt lat="50.845054965466261" lon="6.748664025217295">
        <ele>91.459999999999994</ele>
        <time>2019-08-30T06:20:41Z</time>
      </trkpt>
      <trkpt lat="50.846376959234476" lon="6.74493801780045">
        <ele>90.019999999999996</ele>
        <time>2019-08-30T06:20:50Z</time>
      </trkpt>
      <trkpt lat="50.847572972998023" lon="6.740572974085808">
        <ele>90.5</ele>
        <time>2019-08-30T06:21:00Z</time>
      </trkpt>
      <trkpt lat="50.849064029753208" lon="6.735321963205934">
        <ele>90.019999999999996</ele>
        <time>2019-08-30T06:21:12Z</time>
      </trkpt>
      <trkpt lat="50.850633960217237" lon="6.731264032423496">
        <ele>86.180000000000007</ele>
        <time>2019-08-30T06:21:22Z</time>
      </trkpt>
      <trkpt lat="50.852543022483587" lon="6.727566020563245">
        <ele>84.730000000000004</ele>
        <time>2019-08-30T06:21:32Z</time>
      </trkpt>
      <trkpt lat="50.85491300560534" lon="6.723888963460922">
        <ele>84.25</ele>
        <time>2019-08-30T06:21:43Z</time>
      </trkpt>
      <trkpt lat="50.857747010886669" lon="6.719632968306541">
        <ele>88.099999999999994</ele>
        <time>2019-08-30T06:21:56Z</time>
      </trkpt>
      <trkpt lat="50.860408013686538" lon="6.715710991993547">
        <ele>88.579999999999998</ele>
        <time>2019-08-30T06:22:08Z</time>
      </trkpt>
      <trkpt lat="50.862880004569888" lon="6.71288201585412">
        <ele>84.25</ele>
        <time>2019-08-30T06:22:18Z</time>
      </trkpt>
      <trkpt lat="50.86531100794673" lon="6.710981000214815">
        <ele>81.849999999999994</ele>
        <time>2019-08-30T06:22:27Z</time>
      </trkpt>
      <trkpt lat="50.867892969399691" lon="6.709653977304697">
        <ele>81.370000000000005</ele>
        <time>2019-08-30T06:22:36Z</time>
      </trkpt>
      <trkpt lat="50.871161995455623" lon="6.708683017641306">
        <ele>78</ele>
        <time>2019-08-30T06:22:47Z</time>
      </trkpt>
      <trkpt lat="50.874734027311206" lon="6.707636034116149">
        <ele>74.640000000000001</ele>
        <time>2019-08-30T06:22:59Z</time>
      </trkpt>
      <trkpt lat="50.878542009741068" lon="6.706219995394349">
        <ele>72.239999999999995</ele>
        <time>2019-08-30T06:23:12Z</time>
      </trkpt>
      <trkpt lat="50.882571022957563" lon="6.704253014177084">
        <ele>78</ele>
        <time>2019-08-30T06:23:26Z</time>
      </trkpt>
      <trkpt lat="50.886247996240854" lon="6.702037006616592">
        <ele>79.930000000000007</ele>
        <time>2019-08-30T06:23:39Z</time>
      </trkpt>
      <trkpt lat="50.887958994135261" lon="6.700864965096116">
        <ele>79.450000000000003</ele>
        <time>2019-08-30T06:23:46Z</time>
      </trkpt>
      <trkpt lat="50.889408979564905" lon="6.699802977964282">
        <ele>78</ele>
        <time>2019-08-30T06:23:53Z</time>
      </trkpt>
      <trkpt lat="50.889600003138185" lon="6.699656965211034">
        <ele>77.519999999999996</ele>
        <time>2019-08-30T06:23:54Z</time>
      </trkpt>
      <trkpt lat="50.891780974343419" lon="6.698084017261863">
        <ele>77.040000000000006</ele>
        <time>2019-08-30T06:24:05Z</time>
      </trkpt>
      <trkpt lat="50.894223041832447" lon="6.696032965555787">
        <ele>73.680000000000007</ele>
        <time>2019-08-30T06:24:18Z</time>
      </trkpt>
      <trkpt lat="50.894559994339943" lon="6.695729959756136">
        <ele>73.680000000000007</ele>
        <time>2019-08-30T06:24:20Z</time>
      </trkpt>
      <trkpt lat="50.894701983779669" lon="6.69563096947968">
        <ele>73.680000000000007</ele>
        <time>2019-08-30T06:24:21Z</time>
      </trkpt>
      <trkpt lat="50.895614018663764" lon="6.695029987022281">
        <ele>73.200000000000003</ele>
        <time>2019-08-30T06:24:27Z</time>
      </trkpt>
      <trkpt lat="50.895743016153574" lon="6.694975001737475">
        <ele>73.200000000000003</ele>
        <time>2019-08-30T06:24:28Z</time>
      </trkpt>
      <trkpt lat="50.895861033350229" lon="6.694961003959179">
        <ele>73.200000000000003</ele>
        <time>2019-08-30T06:24:29Z</time>
      </trkpt>
      <trkpt lat="50.895987013354897" lon="6.695009032264352">
        <ele>73.200000000000003</ele>
        <time>2019-08-30T06:24:30Z</time>
      </trkpt>
      <trkpt lat="50.896109975874424" lon="6.695078015327454">
        <ele>73.200000000000003</ele>
        <time>2019-08-30T06:24:31Z</time>
      </trkpt>
      <trkpt lat="50.896189017221332" lon="6.695235008373857">
        <ele>73.200000000000003</ele>
        <time>2019-08-30T06:24:32Z</time>
      </trkpt>
      <trkpt lat="50.896268980577588" lon="6.695398036390543">
        <ele>73.200000000000003</ele>
        <time>2019-08-30T06:24:33Z</time>
      </trkpt>
      <trkpt lat="50.896299993619323" lon="6.695585958659649">
        <ele>73.200000000000003</ele>
        <time>2019-08-30T06:24:34Z</time>
      </trkpt>
      <trkpt lat="50.896289013326168" lon="6.695787962526083">
        <ele>73.200000000000003</ele>
        <time>2019-08-30T06:24:35Z</time>
      </trkpt>
      <trkpt lat="50.896246014162898" lon="6.69597202911973">
        <ele>73.680000000000007</ele>
        <time>2019-08-30T06:24:36Z</time>
      </trkpt>
      <trkpt lat="50.896181976422668" lon="6.69614695943892">
        <ele>73.680000000000007</ele>
        <time>2019-08-30T06:24:37Z</time>
      </trkpt>
      <trkpt lat="50.896086003631353" lon="6.696290960535407">
        <ele>74.159999999999997</ele>
        <time>2019-08-30T06:24:38Z</time>
      </trkpt>
      <trkpt lat="50.895968992263079" lon="6.696400009095669">
        <ele>74.640000000000001</ele>
        <time>2019-08-30T06:24:39Z</time>
      </trkpt>
      <trkpt lat="50.895849969238043" lon="6.696487013250589">
        <ele>74.640000000000001</ele>
        <time>2019-08-30T06:24:40Z</time>
      </trkpt>
      <trkpt lat="50.895723989233375" lon="6.696524983271956">
        <ele>75.120000000000005</ele>
        <time>2019-08-30T06:24:41Z</time>
      </trkpt>
      <trkpt lat="50.895594991743565" lon="6.696544010192156">
        <ele>75.120000000000005</ele>
        <time>2019-08-30T06:24:42Z</time>
      </trkpt>
      <trkpt lat="50.895484015345573" lon="6.696506962180138">
        <ele>75.599999999999994</ele>
        <time>2019-08-30T06:24:43Z</time>
      </trkpt>
      <trkpt lat="50.895384019240737" lon="6.696417024359107">
        <ele>75.599999999999994</ele>
        <time>2019-08-30T06:24:44Z</time>
      </trkpt>
      <trkpt lat="50.895299026742578" lon="6.696282997727394">
        <ele>76.079999999999998</ele>
        <time>2019-08-30T06:24:45Z</time>
      </trkpt>
      <trkpt lat="50.895210010930896" lon="6.696142014116049">
        <ele>76.560000000000002</ele>
        <time>2019-08-30T06:24:46Z</time>
      </trkpt>
      <trkpt lat="50.894343992695212" lon="6.694521959871054">
        <ele>78</ele>
        <time>2019-08-30T06:24:55Z</time>
      </trkpt>
      <trkpt lat="50.893370015546679" lon="6.692345011979342">
        <ele>79.450000000000003</ele>
        <time>2019-08-30T06:25:03Z</time>
      </trkpt>
      <trkpt lat="50.892177019268274" lon="6.689127031713724">
        <ele>82.329999999999998</ele>
        <time>2019-08-30T06:25:12Z</time>
      </trkpt>
      <trkpt lat="50.891258027404547" lon="6.685765972360969">
        <ele>84.730000000000004</ele>
        <time>2019-08-30T06:25:21Z</time>
      </trkpt>
      <trkpt lat="50.890736002475023" lon="6.683223992586136">
        <ele>84.730000000000004</ele>
        <time>2019-08-30T06:25:29Z</time>
      </trkpt>
      <trkpt lat="50.890250019729137" lon="6.680427035316825">
        <ele>83.769999999999996</ele>
        <time>2019-08-30T06:25:38Z</time>
      </trkpt>
      <trkpt lat="50.889906026422977" lon="6.677248030900955">
        <ele>83.769999999999996</ele>
        <time>2019-08-30T06:25:46Z</time>
      </trkpt>
      <trkpt lat="50.889831008389592" lon="6.673673987388611">
        <ele>84.730000000000004</ele>
        <time>2019-08-30T06:25:54Z</time>
      </trkpt>
      <trkpt lat="50.890119010582566" lon="6.669341968372464">
        <ele>85.689999999999998</ele>
        <time>2019-08-30T06:26:03Z</time>
      </trkpt>
      <trkpt lat="50.890954015776515" lon="6.663342034444213">
        <ele>85.689999999999998</ele>
        <time>2019-08-30T06:26:16Z</time>
      </trkpt>
      <trkpt lat="50.891517028212547" lon="6.659630024805665">
        <ele>88.099999999999994</ele>
        <time>2019-08-30T06:26:24Z</time>
      </trkpt>
      <trkpt lat="50.89225597679615" lon="6.65508602745831">
        <ele>93.390000000000001</ele>
        <time>2019-08-30T06:26:34Z</time>
      </trkpt>
      <trkpt lat="50.892978999763727" lon="6.650302978232503">
        <ele>95.310000000000002</ele>
        <time>2019-08-30T06:26:44Z</time>
      </trkpt>
      <trkpt lat="50.893329028040171" lon="6.64591396227479">
        <ele>92.900000000000006</ele>
        <time>2019-08-30T06:26:53Z</time>
      </trkpt>
      <trkpt lat="50.893136998638511" lon="6.642486015334725">
        <ele>90.980000000000004</ele>
        <time>2019-08-30T06:27:00Z</time>
      </trkpt>
      <trkpt lat="50.892248013988137" lon="6.638296991586685">
        <ele>90.019999999999996</ele>
        <time>2019-08-30T06:27:09Z</time>
      </trkpt>
      <trkpt lat="50.890929959714413" lon="6.634971974417567">
        <ele>89.060000000000002</ele>
        <time>2019-08-30T06:27:17Z</time>
      </trkpt>
      <trkpt lat="50.889199012890458" lon="6.632230002433062">
        <ele>89.060000000000002</ele>
        <time>2019-08-30T06:27:25Z</time>
      </trkpt>
      <trkpt lat="50.887063974514604" lon="6.62949800491333">
        <ele>90.980000000000004</ele>
        <time>2019-08-30T06:27:35Z</time>
      </trkpt>
      <trkpt lat="50.886075999587774" lon="6.628234013915062">
        <ele>90.5</ele>
        <time>2019-08-30T06:27:40Z</time>
      </trkpt>
      <trkpt lat="50.884881997480989" lon="6.626495020464063">
        <ele>90.5</ele>
        <time>2019-08-30T06:27:46Z</time>
      </trkpt>
      <trkpt lat="50.882589966058731" lon="6.622586036100984">
        <ele>94.349999999999994</ele>
        <time>2019-08-30T06:27:58Z</time>
      </trkpt>
      <trkpt lat="50.881036967039108" lon="6.619118023663759">
        <ele>95.310000000000002</ele>
        <time>2019-08-30T06:28:07Z</time>
      </trkpt>
      <trkpt lat="50.878667989745736" lon="6.613311041146517">
        <ele>90.5</ele>
        <time>2019-08-30T06:28:21Z</time>
      </trkpt>
      <trkpt lat="50.876833023503423" lon="6.608801996335387">
        <ele>86.659999999999997</ele>
        <time>2019-08-30T06:28:32Z</time>
      </trkpt>
      <trkpt lat="50.875159995630383" lon="6.604673992842436">
        <ele>84.730000000000004</ele>
        <time>2019-08-30T06:28:42Z</time>
      </trkpt>
      <trkpt lat="50.873703975230455" lon="6.601070025935769">
        <ele>87.140000000000001</ele>
        <time>2019-08-30T06:28:51Z</time>
      </trkpt>
      <trkpt lat="50.871833972632885" lon="6.596460985019803">
        <ele>88.099999999999994</ele>
        <time>2019-08-30T06:29:02Z</time>
      </trkpt>
      <trkpt lat="50.869372962042689" lon="6.590205989778042">
        <ele>90.5</ele>
        <time>2019-08-30T06:29:17Z</time>
      </trkpt>
      <trkpt lat="50.868887985125184" lon="6.588948033750057">
        <ele>90.5</ele>
        <time>2019-08-30T06:29:20Z</time>
      </trkpt>
      <trkpt lat="50.867100963369012" lon="6.584313008934259">
        <ele>93.390000000000001</ele>
        <time>2019-08-30T06:29:31Z</time>
      </trkpt>
      <trkpt lat="50.864680018275976" lon="6.578034963458777">
        <ele>95.790000000000006</ele>
        <time>2019-08-30T06:29:46Z</time>
      </trkpt>
      <trkpt lat="50.863226009532809" lon="6.574268974363804">
        <ele>97.230000000000004</ele>
        <time>2019-08-30T06:29:55Z</time>
      </trkpt>
      <trkpt lat="50.861629005521536" lon="6.570120016112924">
        <ele>101.56</ele>
        <time>2019-08-30T06:30:05Z</time>
      </trkpt>
      <trkpt lat="50.86062996648252" lon="6.567523973062635">
        <ele>106.36</ele>
        <time>2019-08-30T06:30:12Z</time>
      </trkpt>
      <trkpt lat="50.859118960797787" lon="6.563595961779356">
        <ele>112.61</ele>
        <time>2019-08-30T06:30:24Z</time>
      </trkpt>
      <trkpt lat="50.857861004769802" lon="6.560329031199217">
        <ele>114.05</ele>
        <time>2019-08-30T06:30:34Z</time>
      </trkpt>
      <trkpt lat="50.855868039652705" lon="6.555164018645883">
        <ele>115.5</ele>
        <time>2019-08-30T06:30:48Z</time>
      </trkpt>
      <trkpt lat="50.854116976261139" lon="6.550649022683501">
        <ele>116.45999999999999</ele>
        <time>2019-08-30T06:30:59Z</time>
      </trkpt>
      <trkpt lat="50.851688990369439" lon="6.544390004128218">
        <ele>118.38</ele>
        <time>2019-08-30T06:31:14Z</time>
      </trkpt>
      <trkpt lat="50.848601013422012" lon="6.536430967971683">
        <ele>122.70999999999999</ele>
        <time>2019-08-30T06:31:33Z</time>
      </trkpt>
      <trkpt lat="50.846952963620424" lon="6.531714973971248">
        <ele>127.03</ele>
        <time>2019-08-30T06:31:45Z</time>
      </trkpt>
      <trkpt lat="50.846219966188073" lon="6.527972035109997">
        <ele>128.47</ele>
        <time>2019-08-30T06:31:52Z</time>
      </trkpt>
      <trkpt lat="50.846026008948684" lon="6.524066990241408">
        <ele>127.98999999999999</ele>
        <time>2019-08-30T06:32:00Z</time>
      </trkpt>
      <trkpt lat="50.846434039995074" lon="6.520304018631578">
        <ele>127.03</ele>
        <time>2019-08-30T06:32:08Z</time>
      </trkpt>
      <trkpt lat="50.847061006352305" lon="6.517677968367934">
        <ele>126.55</ele>
        <time>2019-08-30T06:32:14Z</time>
      </trkpt>
      <trkpt lat="50.848439997062087" lon="6.513888007029891">
        <ele>124.63</ele>
        <time>2019-08-30T06:32:23Z</time>
      </trkpt>
      <trkpt lat="50.850276974961162" lon="6.509351972490549">
        <ele>124.15000000000001</ele>
        <time>2019-08-30T06:32:34Z</time>
      </trkpt>
      <trkpt lat="50.851277019828558" lon="6.505789998918772">
        <ele>126.55</ele>
        <time>2019-08-30T06:32:42Z</time>
      </trkpt>
      <trkpt lat="50.851682033389807" lon="6.502405973151326">
        <ele>126.55</ele>
        <time>2019-08-30T06:32:49Z</time>
      </trkpt>
      <trkpt lat="50.851660994812846" lon="6.498463964089751">
        <ele>125.11</ele>
        <time>2019-08-30T06:32:57Z</time>
      </trkpt>
      <trkpt lat="50.851160008460283" lon="6.495112041011453">
        <ele>123.19</ele>
        <time>2019-08-30T06:33:04Z</time>
      </trkpt>
      <trkpt lat="50.850131968036294" lon="6.491525005549192">
        <ele>119.34</ele>
        <time>2019-08-30T06:33:12Z</time>
      </trkpt>
      <trkpt lat="50.848778961226344" lon="6.487142024561763">
        <ele>118.86</ele>
        <time>2019-08-30T06:33:22Z</time>
      </trkpt>
      <trkpt lat="50.847387984395027" lon="6.482740016654134">
        <ele>120.78</ele>
        <time>2019-08-30T06:33:33Z</time>
      </trkpt>
      <trkpt lat="50.846528001129627" lon="6.479994021356106">
        <ele>121.73999999999999</ele>
        <time>2019-08-30T06:33:41Z</time>
      </trkpt>
      <trkpt lat="50.845504989847541" lon="6.476727006956935">
        <ele>122.70999999999999</ele>
        <time>2019-08-30T06:33:49Z</time>
      </trkpt>
      <trkpt lat="50.844081994146109" lon="6.472180997952819">
        <ele>121.73999999999999</ele>
        <time>2019-08-30T06:34:00Z</time>
      </trkpt>
      <trkpt lat="50.842886986210942" lon="6.468385001644492">
        <ele>117.90000000000001</ele>
        <time>2019-08-30T06:34:09Z</time>
      </trkpt>
      <trkpt lat="50.841477988287807" lon="6.463828012347221">
        <ele>116.45999999999999</ele>
        <time>2019-08-30T06:34:21Z</time>
      </trkpt>
      <trkpt lat="50.840391023084521" lon="6.459740996360779">
        <ele>115.01000000000001</ele>
        <time>2019-08-30T06:34:33Z</time>
      </trkpt>
      <trkpt lat="50.839991038665175" lon="6.458007032051683">
        <ele>113.09</ele>
        <time>2019-08-30T06:34:40Z</time>
      </trkpt>
      <trkpt lat="50.839813007041812" lon="6.456596022471786">
        <ele>112.61</ele>
        <time>2019-08-30T06:34:47Z</time>
      </trkpt>
      <trkpt lat="50.839832033962011" lon="6.456240965053439">
        <ele>112.13</ele>
        <time>2019-08-30T06:34:49Z</time>
      </trkpt>
      <trkpt lat="50.839876038953662" lon="6.45606704056263">
        <ele>112.13</ele>
        <time>2019-08-30T06:34:50Z</time>
      </trkpt>
      <trkpt lat="50.839920965954661" lon="6.455889008939266">
        <ele>112.13</ele>
        <time>2019-08-30T06:34:51Z</time>
      </trkpt>
      <trkpt lat="50.839965976774693" lon="6.455711983144283">
        <ele>112.13</ele>
        <time>2019-08-30T06:34:52Z</time>
      </trkpt>
      <trkpt lat="50.840009981766343" lon="6.455540992319584">
        <ele>112.13</ele>
        <time>2019-08-30T06:34:53Z</time>
      </trkpt>
      <trkpt lat="50.840134033933282" lon="6.455050986260176">
        <ele>112.13</ele>
        <time>2019-08-30T06:34:56Z</time>
      </trkpt>
      <trkpt lat="50.840158006176353" lon="6.454893993213773">
        <ele>112.13</ele>
        <time>2019-08-30T06:34:57Z</time>
      </trkpt>
      <trkpt lat="50.840181978419423" lon="6.454735994338989">
        <ele>112.61</ele>
        <time>2019-08-30T06:34:58Z</time>
      </trkpt>
      <trkpt lat="50.840199999511242" lon="6.454585958272219">
        <ele>113.09</ele>
        <time>2019-08-30T06:34:59Z</time>
      </trkpt>
      <trkpt lat="50.840199999511242" lon="6.454425025731325">
        <ele>113.56999999999999</ele>
        <time>2019-08-30T06:35:00Z</time>
      </trkpt>
      <trkpt lat="50.840190025046468" lon="6.454278007149696">
        <ele>113.56999999999999</ele>
        <time>2019-08-30T06:35:01Z</time>
      </trkpt>
      <trkpt lat="50.840178960934281" lon="6.454117996618152">
        <ele>114.05</ele>
        <time>2019-08-30T06:35:02Z</time>
      </trkpt>
      <trkpt lat="50.840123975649476" lon="6.45332096144557">
        <ele>114.53</ele>
        <time>2019-08-30T06:35:09Z</time>
      </trkpt>
      <trkpt lat="50.840123975649476" lon="6.45332096144557">
        <ele>114.53</ele>
        <time>2019-08-30T06:35:20Z</time>
      </trkpt>
      <trkpt lat="50.840123975649476" lon="6.45332096144557">
        <ele>114.53</ele>
        <time>2019-08-30T06:35:35Z</time>
      </trkpt>
      <trkpt lat="50.840093968436122" lon="6.452951990067959">
        <ele>115.5</ele>
        <time>2019-08-30T06:36:01Z</time>
      </trkpt>
      <trkpt lat="50.84008701145649" lon="6.452872026711702">
        <ele>115.01000000000001</ele>
        <time>2019-08-30T06:36:02Z</time>
      </trkpt>
      <trkpt lat="50.840078964829445" lon="6.452780999243259">
        <ele>115.01000000000001</ele>
        <time>2019-08-30T06:36:03Z</time>
      </trkpt>
      <trkpt lat="50.840072007849813" lon="6.452704975381494">
        <ele>114.53</ele>
        <time>2019-08-30T06:36:04Z</time>
      </trkpt>
      <trkpt lat="50.840033032000065" lon="6.452700030058622">
        <ele>114.05</ele>
        <time>2019-08-30T06:36:05Z</time>
      </trkpt>
      <trkpt lat="50.839990032836795" lon="6.45271603949368">
        <ele>113.09</ele>
        <time>2019-08-30T06:36:06Z</time>
      </trkpt>
      <trkpt lat="50.8399379812181" lon="6.452733976766467">
        <ele>112.13</ele>
        <time>2019-08-30T06:36:07Z</time>
      </trkpt>
      <trkpt lat="50.839876960963011" lon="6.452756021171808">
        <ele>111.17</ele>
        <time>2019-08-30T06:36:08Z</time>
      </trkpt>
      <trkpt lat="50.839810995385051" lon="6.452778987586498">
        <ele>110.20999999999999</ele>
        <time>2019-08-30T06:36:09Z</time>
      </trkpt>
      <trkpt lat="50.838933996856213" lon="6.453030025586486">
        <ele>113.09</ele>
        <time>2019-08-30T06:36:20Z</time>
      </trkpt>
      <trkpt lat="50.838397974148393" lon="6.453203028067946">
        <ele>115.01000000000001</ele>
        <time>2019-08-30T06:36:28Z</time>
      </trkpt>
      <trkpt lat="50.838357992470264" lon="6.453218031674624">
        <ele>115.5</ele>
        <time>2019-08-30T06:36:37Z</time>
      </trkpt>
      <trkpt lat="50.838076025247574" lon="6.45332096144557">
        <ele>116.94</ele>
        <time>2019-08-30T06:36:48Z</time>
      </trkpt>
      <trkpt lat="50.837288964539766" lon="6.453597983345389">
        <ele>117.90000000000001</ele>
        <time>2019-08-30T06:36:55Z</time>
      </trkpt>
      <trkpt lat="50.835937969386578" lon="6.454778993502259">
        <ele>116.94</ele>
        <time>2019-08-30T06:37:05Z</time>
      </trkpt>
      <trkpt lat="50.834460994228721" lon="6.456639021635056">
        <ele>115.98</ele>
        <time>2019-08-30T06:37:17Z</time>
      </trkpt>
      <trkpt lat="50.833410993218422" lon="6.458344990387559">
        <ele>115.01000000000001</ele>
        <time>2019-08-30T06:37:27Z</time>
      </trkpt>
      <trkpt lat="50.833217035979033" lon="6.458716979250312">
        <ele>114.53</ele>
        <time>2019-08-30T06:37:33Z</time>
      </trkpt>
      <trkpt lat="50.83319297991693" lon="6.458768025040627">
        <ele>114.53</ele>
        <time>2019-08-30T06:37:34Z</time>
      </trkpt>
      <trkpt lat="50.833161966875196" lon="6.458836002275348">
        <ele>114.53</ele>
        <time>2019-08-30T06:37:35Z</time>
      </trkpt>
      <trkpt lat="50.83312701433897" lon="6.458910014480352">
        <ele>114.53</ele>
        <time>2019-08-30T06:37:36Z</time>
      </trkpt>
      <trkpt lat="50.833164984360337" lon="6.459058960899711">
        <ele>115.01000000000001</ele>
        <time>2019-08-30T06:37:37Z</time>
      </trkpt>
      <trkpt lat="50.833209995180368" lon="6.459116041660309">
        <ele>115.01000000000001</ele>
        <time>2019-08-30T06:37:38Z</time>
      </trkpt>
      <trkpt lat="50.833266992121935" lon="6.459187958389521">
        <ele>115.01000000000001</ele>
        <time>2019-08-30T06:37:39Z</time>
      </trkpt>
      <trkpt lat="50.833333041518927" lon="6.459272028878331">
        <ele>115.01000000000001</ele>
        <time>2019-08-30T06:37:40Z</time>
      </trkpt>
      <trkpt lat="50.83340403623879" lon="6.459362972527742">
        <ele>114.53</ele>
        <time>2019-08-30T06:37:41Z</time>
      </trkpt>
      <trkpt lat="50.833474025130272" lon="6.459483001381159">
        <ele>114.53</ele>
        <time>2019-08-30T06:37:42Z</time>
      </trkpt>
      <trkpt lat="50.833634035661817" lon="6.459780978038907">
        <ele>114.53</ele>
        <time>2019-08-30T06:37:45Z</time>
      </trkpt>
      <trkpt lat="50.833734031766653" lon="6.459970995783806">
        <ele>114.53</ele>
        <time>2019-08-30T06:37:48Z</time>
      </trkpt>
      <trkpt lat="50.833756998181343" lon="6.460013994947076">
        <ele>114.53</ele>
        <time>2019-08-30T06:37:49Z</time>
      </trkpt>
      <trkpt lat="50.833762027323246" lon="6.460024975240231">
        <ele>114.53</ele>
        <time>2019-08-30T06:37:50Z</time>
      </trkpt>
      <trkpt lat="50.833965037018061" lon="6.459930008277297">
        <ele>114.05</ele>
        <time>2019-08-30T06:37:54Z</time>
      </trkpt>
      <trkpt lat="50.834083976224065" lon="6.459840992465615">
        <ele>114.05</ele>
        <time>2019-08-30T06:37:56Z</time>
      </trkpt>
      <trkpt lat="50.834333002567291" lon="6.459631025791168">
        <ele>114.53</ele>
        <time>2019-08-30T06:38:00Z</time>
      </trkpt>
      <trkpt lat="50.834422018378973" lon="6.459031971171498">
        <ele>115.5</ele>
        <time>2019-08-30T06:38:07Z</time>
      </trkpt>
      <trkpt lat="50.834310036152601" lon="6.458602985367179">
        <ele>115.5</ele>
        <time>2019-08-30T06:38:17Z</time>
      </trkpt>
      <trkpt lat="50.834271982312202" lon="6.458542970940471">
        <ele>115.98</ele>
        <time>2019-08-30T06:38:19Z</time>
      </trkpt>
      <trkpt lat="50.834239963442087" lon="6.458516987040639">
        <ele>115.98</ele>
        <time>2019-08-30T06:38:30Z</time>
      </trkpt>
      <trkpt lat="50.834239963442087" lon="6.458516987040639">
        <ele>115.98</ele>
        <time>2019-08-30T06:38:48Z</time>
      </trkpt>
      <trkpt lat="50.834302995353937" lon="6.45847599953413">
        <ele>128.94999999999999</ele>
        <time>2019-08-30T07:02:16Z</time>
      </trkpt>
      <trkpt lat="50.834266031160951" lon="6.458379020914435">
        <ele>125.11</ele>
        <time>2019-08-30T07:03:00Z</time>
      </trkpt>
      <trkpt lat="50.834256978705525" lon="6.458354964852333">
        <ele>125.11</ele>
        <time>2019-08-30T07:03:42Z</time>
      </trkpt>
      <trkpt lat="50.834253961220384" lon="6.458359993994236">
        <ele>124.63</ele>
        <time>2019-08-30T07:04:19Z</time>
      </trkpt>
      <trkpt lat="50.834251027554274" lon="6.458365023136139">
        <ele>124.63</ele>
        <time>2019-08-30T07:05:06Z</time>
      </trkpt>
      <trkpt lat="50.834253039211035" lon="6.458354964852333">
        <ele>124.63</ele>
        <time>2019-08-30T07:05:52Z</time>
      </trkpt>
      <trkpt lat="50.834253961220384" lon="6.458354964852333">
        <ele>124.63</ele>
        <time>2019-08-30T07:06:43Z</time>
      </trkpt>
      <trkpt lat="50.834253961220384" lon="6.458354964852333">
        <ele>124.63</ele>
        <time>2019-08-30T07:07:02Z</time>
      </trkpt>
      <trkpt lat="50.834182966500521" lon="6.458038967102766">
        <ele>122.70999999999999</ele>
        <time>2019-08-30T07:07:10Z</time>
      </trkpt>
      <trkpt lat="50.833988003432751" lon="6.458204006776214">
        <ele>119.81999999999999</ele>
        <time>2019-08-30T07:07:17Z</time>
      </trkpt>
      <trkpt lat="50.833957996219397" lon="6.458279024809599">
        <ele>119.81999999999999</ele>
        <time>2019-08-30T07:07:32Z</time>
      </trkpt>
      <trkpt lat="50.833953972905874" lon="6.458285981789231">
        <ele>120.3</ele>
        <time>2019-08-30T07:08:07Z</time>
      </trkpt>
      <trkpt lat="50.833955984562635" lon="6.458285981789231">
        <ele>120.3</ele>
        <time>2019-08-30T07:08:46Z</time>
      </trkpt>
      <trkpt lat="50.833933018147945" lon="6.458321018144488">
        <ele>119.34</ele>
        <time>2019-08-30T07:09:05Z</time>
      </trkpt>
      <trkpt lat="50.833838973194361" lon="6.458515981212258">
        <ele>119.34</ele>
        <time>2019-08-30T07:09:18Z</time>
      </trkpt>
      <trkpt lat="50.833907034248114" lon="6.458755033090711">
        <ele>118.38</ele>
        <time>2019-08-30T07:09:22Z</time>
      </trkpt>
      <trkpt lat="50.8340959623456" lon="6.459096008911729">
        <ele>120.3</ele>
        <time>2019-08-30T07:09:34Z</time>
      </trkpt>
      <trkpt lat="50.83411599509418" lon="6.459126016125083">
        <ele>120.3</ele>
        <time>2019-08-30T07:09:35Z</time>
      </trkpt>
      <trkpt lat="50.834214985370636" lon="6.459085028618574">
        <ele>120.78</ele>
        <time>2019-08-30T07:09:39Z</time>
      </trkpt>
      <trkpt lat="50.834272988140583" lon="6.458957958966494">
        <ele>120.3</ele>
        <time>2019-08-30T07:09:42Z</time>
      </trkpt>
      <trkpt lat="50.834388993680477" lon="6.459112018346787">
        <ele>119.34</ele>
        <time>2019-08-30T07:09:48Z</time>
      </trkpt>
      <trkpt lat="50.834408020600677" lon="6.459244033321738">
        <ele>118.86</ele>
        <time>2019-08-30T07:09:50Z</time>
      </trkpt>
      <trkpt lat="50.834264019504189" lon="6.459621973335743">
        <ele>118.86</ele>
        <time>2019-08-30T07:09:56Z</time>
      </trkpt>
      <trkpt lat="50.833932012319565" lon="6.459874017164111">
        <ele>118.38</ele>
        <time>2019-08-30T07:10:07Z</time>
      </trkpt>
      <trkpt lat="50.833753980696201" lon="6.460008965805173">
        <ele>117.90000000000001</ele>
        <time>2019-08-30T07:10:14Z</time>
      </trkpt>
      <trkpt lat="50.833734031766653" lon="6.459972001612186">
        <ele>117.90000000000001</ele>
        <time>2019-08-30T07:10:15Z</time>
      </trkpt>
      <trkpt lat="50.833713999018073" lon="6.4599350374192">
        <ele>117.90000000000001</ele>
        <time>2019-08-30T07:10:16Z</time>
      </trkpt>
      <trkpt lat="50.833694972097874" lon="6.459896983578801">
        <ele>117.90000000000001</ele>
        <time>2019-08-30T07:10:17Z</time>
      </trkpt>
      <trkpt lat="50.833677034825087" lon="6.459863958880305">
        <ele>117.90000000000001</ele>
        <time>2019-08-30T07:10:18Z</time>
      </trkpt>
      <trkpt lat="50.833808965981007" lon="6.459645023569465">
        <ele>117.42</ele>
        <time>2019-08-30T07:10:19Z</time>
      </trkpt>
      <trkpt lat="50.833888007327914" lon="6.459518037736416">
        <ele>114.53</ele>
        <time>2019-08-30T07:10:32Z</time>
      </trkpt>
      <trkpt lat="50.834019016474485" lon="6.459864964708686">
        <ele>199.13</ele>
        <time>2019-08-30T07:14:09Z</time>
      </trkpt>
      <trkpt lat="50.834015998989344" lon="6.459494987502694">
        <ele>117.90000000000001</ele>
        <time>2019-08-30T07:14:38Z</time>
      </trkpt>
      <trkpt lat="50.833980040624738" lon="6.459591966122389">
        <ele>112.61</ele>
        <time>2019-08-30T07:15:20Z</time>
      </trkpt>
      <trkpt lat="50.834021028131247" lon="6.459672013297677">
        <ele>121.73999999999999</ele>
        <time>2019-08-30T07:15:52Z</time>
      </trkpt>
      <trkpt lat="50.833812989294529" lon="6.459443019703031">
        <ele>115.5</ele>
        <time>2019-08-30T07:15:58Z</time>
      </trkpt>
      <trkpt lat="50.83362003788352" lon="6.459754994139075">
        <ele>109.25</ele>
        <time>2019-08-30T07:16:01Z</time>
      </trkpt>
      <trkpt lat="50.833640992641449" lon="6.459793969988823">
        <ele>104.44</ele>
        <time>2019-08-30T07:16:03Z</time>
      </trkpt>
      <trkpt lat="50.833762027323246" lon="6.460024975240231">
        <ele>95.790000000000006</ele>
        <time>2019-08-30T07:16:07Z</time>
      </trkpt>
      <trkpt lat="50.833735037595034" lon="6.459973007440567">
        <ele>90.5</ele>
        <time>2019-08-30T07:16:11Z</time>
      </trkpt>
      <trkpt lat="50.833723973482847" lon="6.459952974691987">
        <ele>88.579999999999998</ele>
        <time>2019-08-30T07:16:13Z</time>
      </trkpt>
      <trkpt lat="50.833465978503227" lon="6.459467997774482">
        <ele>82.810000000000002</ele>
        <time>2019-08-30T07:16:19Z</time>
      </trkpt>
      <trkpt lat="50.833418034017086" lon="6.459369007498026">
        <ele>81.370000000000005</ele>
        <time>2019-08-30T07:16:21Z</time>
      </trkpt>
      <trkpt lat="50.83340797573328" lon="6.459268005564809">
        <ele>80.890000000000001</ele>
        <time>2019-08-30T07:16:22Z</time>
      </trkpt>
      <trkpt lat="50.833376040682197" lon="6.458953013643622">
        <ele>80.409999999999997</ele>
        <time>2019-08-30T07:16:24Z</time>
      </trkpt>
      <trkpt lat="50.833429014310241" lon="6.458607008680701">
        <ele>82.810000000000002</ele>
        <time>2019-08-30T07:16:26Z</time>
      </trkpt>
      <trkpt lat="50.833875015377998" lon="6.457821959629655">
        <ele>83.769999999999996</ele>
        <time>2019-08-30T07:16:31Z</time>
      </trkpt>
      <trkpt lat="50.835150992497802" lon="6.455917004495859">
        <ele>85.209999999999994</ele>
        <time>2019-08-30T07:16:40Z</time>
      </trkpt>
      <trkpt lat="50.836530989035964" lon="6.454380014911294">
        <ele>86.659999999999997</ele>
        <time>2019-08-30T07:16:49Z</time>
      </trkpt>
      <trkpt lat="50.837348978966475" lon="6.453754976391792">
        <ele>88.099999999999994</ele>
        <time>2019-08-30T07:16:55Z</time>
      </trkpt>
      <trkpt lat="50.837470013648272" lon="6.453680964186788">
        <ele>90.019999999999996</ele>
        <time>2019-08-30T07:17:00Z</time>
      </trkpt>
      <trkpt lat="50.837470013648272" lon="6.453680964186788">
        <ele>90.019999999999996</ele>
        <time>2019-08-30T07:17:23Z</time>
      </trkpt>
      <trkpt lat="50.83770596422255" lon="6.453478960320354">
        <ele>93.390000000000001</ele>
        <time>2019-08-30T07:17:34Z</time>
      </trkpt>
      <trkpt lat="50.838556978851557" lon="6.453147036954761">
        <ele>99.629999999999995</ele>
        <time>2019-08-30T07:17:40Z</time>
      </trkpt>
      <trkpt lat="50.839738994836807" lon="6.452802959829569">
        <ele>104.44</ele>
        <time>2019-08-30T07:17:48Z</time>
      </trkpt>
      <trkpt lat="50.84023998118937" lon="6.452664993703365">
        <ele>104.44</ele>
        <time>2019-08-30T07:17:51Z</time>
      </trkpt>
      <trkpt lat="50.840417006984353" lon="6.452642027288675">
        <ele>104.44</ele>
        <time>2019-08-30T07:17:52Z</time>
      </trkpt>
      <trkpt lat="50.840586991980672" lon="6.452614031732082">
        <ele>103.95999999999999</ele>
        <time>2019-08-30T07:17:53Z</time>
      </trkpt>
      <trkpt lat="50.84223797544837" lon="6.451778020709753">
        <ele>103.48</ele>
        <time>2019-08-30T07:18:03Z</time>
      </trkpt>
      <trkpt lat="50.843770019710064" lon="6.450489973649383">
        <ele>104.44</ele>
        <time>2019-08-30T07:18:13Z</time>
      </trkpt>
      <trkpt lat="50.845541032031178" lon="6.44880898296833">
        <ele>103.48</ele>
        <time>2019-08-30T07:18:25Z</time>
      </trkpt>
      <trkpt lat="50.847150022163987" lon="6.447256989777088">
        <ele>103.95999999999999</ele>
        <time>2019-08-30T07:18:36Z</time>
      </trkpt>
      <trkpt lat="50.848513003438711" lon="6.445952011272311">
        <ele>104.92</ele>
        <time>2019-08-30T07:18:47Z</time>
      </trkpt>
      <trkpt lat="50.848861020058393" lon="6.445612963289022">
        <ele>106.36</ele>
        <time>2019-08-30T07:18:53Z</time>
      </trkpt>
      <trkpt lat="50.848904019221663" lon="6.445569964125752">
        <ele>106.84</ele>
        <time>2019-08-30T07:18:54Z</time>
      </trkpt>
      <trkpt lat="50.848867977038026" lon="6.44541297107935">
        <ele>106.84</ele>
        <time>2019-08-30T07:18:55Z</time>
      </trkpt>
      <trkpt lat="50.848858002573252" lon="6.445385981351137">
        <ele>107.31999999999999</ele>
        <time>2019-08-30T07:18:56Z</time>
      </trkpt>
      <trkpt lat="50.848820032551885" lon="6.445295037701726">
        <ele>107.31999999999999</ele>
        <time>2019-08-30T07:18:57Z</time>
      </trkpt>
      <trkpt lat="50.848781978711486" lon="6.445200992748141">
        <ele>107.31999999999999</ele>
        <time>2019-08-30T07:18:58Z</time>
      </trkpt>
      <trkpt lat="50.848740991204977" lon="6.445099990814924">
        <ele>107.31999999999999</ele>
        <time>2019-08-30T07:18:59Z</time>
      </trkpt>
      <trkpt lat="50.848675025627017" lon="6.44494098611176">
        <ele>107.31999999999999</ele>
        <time>2019-08-30T07:19:00Z</time>
      </trkpt>
      <trkpt lat="50.848587015643716" lon="6.444881977513433">
        <ele>107.31999999999999</ele>
        <time>2019-08-30T07:19:01Z</time>
      </trkpt>
      <trkpt lat="50.848505040630698" lon="6.444876026362181">
        <ele>107.81</ele>
        <time>2019-08-30T07:19:02Z</time>
      </trkpt>
      <trkpt lat="50.848428010940552" lon="6.444922965019941">
        <ele>107.81</ele>
        <time>2019-08-30T07:19:03Z</time>
      </trkpt>
      <trkpt lat="50.848357016220689" lon="6.444979039952159">
        <ele>107.81</ele>
        <time>2019-08-30T07:19:05Z</time>
      </trkpt>
      <trkpt lat="50.848156018182635" lon="6.445137038826942">
        <ele>109.25</ele>
        <time>2019-08-30T07:19:11Z</time>
      </trkpt>
      <trkpt lat="50.847973963245749" lon="6.445278022438288">
        <ele>111.17</ele>
        <time>2019-08-30T07:19:23Z</time>
      </trkpt>
      <trkpt lat="50.847762990742922" lon="6.445256983861327">
        <ele>111.65000000000001</ele>
        <time>2019-08-30T07:19:29Z</time>
      </trkpt>
      <trkpt lat="50.847710017114878" lon="6.445204010233283">
        <ele>112.13</ele>
        <time>2019-08-30T07:19:30Z</time>
      </trkpt>
      <trkpt lat="50.847664000466466" lon="6.445123963057995">
        <ele>112.13</ele>
        <time>2019-08-30T07:19:31Z</time>
      </trkpt>
      <trkpt lat="50.847623012959957" lon="6.44502597860992">
        <ele>112.13</ele>
        <time>2019-08-30T07:19:32Z</time>
      </trkpt>
      <trkpt lat="50.847583031281829" lon="6.444908967241645">
        <ele>111.65000000000001</ele>
        <time>2019-08-30T07:19:33Z</time>
      </trkpt>
      <trkpt lat="50.847539026290178" lon="6.444777958095074">
        <ele>111.65000000000001</ele>
        <time>2019-08-30T07:19:34Z</time>
      </trkpt>
      <trkpt lat="50.847325958311558" lon="6.444185022264719">
        <ele>111.17</ele>
        <time>2019-08-30T07:19:38Z</time>
      </trkpt>
      <trkpt lat="50.847119009122252" lon="6.443846980109811">
        <ele>110.69</ele>
        <time>2019-08-30T07:19:41Z</time>
      </trkpt>
      <trkpt lat="50.847064023837447" lon="6.44371597096324">
        <ele>110.69</ele>
        <time>2019-08-30T07:19:42Z</time>
      </trkpt>
      <trkpt lat="50.846873000264168" lon="6.443267036229372">
        <ele>110.69</ele>
        <time>2019-08-30T07:19:46Z</time>
      </trkpt>
      <trkpt lat="50.846851961687207" lon="6.443199981004">
        <ele>110.69</ele>
        <time>2019-08-30T07:19:47Z</time>
      </trkpt>
      <trkpt lat="50.846718018874526" lon="6.442799996584654">
        <ele>108.77</ele>
        <time>2019-08-30T07:19:55Z</time>
      </trkpt>
      <trkpt lat="50.846722964197397" lon="6.442816006019712">
        <ele>108.77</ele>
        <time>2019-08-30T07:19:56Z</time>
      </trkpt>
      <trkpt lat="50.846722964197397" lon="6.442816006019712">
        <ele>108.77</ele>
        <time>2019-08-30T07:20:09Z</time>
      </trkpt>
      <trkpt lat="50.846722964197397" lon="6.442816006019712">
        <ele>108.77</ele>
        <time>2019-08-30T07:20:21Z</time>
      </trkpt>
      <trkpt lat="50.84676998667419" lon="6.44294198602438">
        <ele>107.81</ele>
        <time>2019-08-30T07:20:26Z</time>
      </trkpt>
      <trkpt lat="50.846917005255818" lon="6.443369966000319">
        <ele>107.31999999999999</ele>
        <time>2019-08-30T07:20:29Z</time>
      </trkpt>
      <trkpt lat="50.847354037687182" lon="6.444236990064383">
        <ele>107.81</ele>
        <time>2019-08-30T07:20:38Z</time>
      </trkpt>
      <trkpt lat="50.847596023231745" lon="6.444946015253663">
        <ele>108.77</ele>
        <time>2019-08-30T07:20:44Z</time>
      </trkpt>
      <trkpt lat="50.847681015729904" lon="6.445152964442968">
        <ele>108.77</ele>
        <time>2019-08-30T07:20:46Z</time>
      </trkpt>
      <trkpt lat="50.847809007391334" lon="6.445280034095049">
        <ele>108.77</ele>
        <time>2019-08-30T07:20:47Z</time>
      </trkpt>
      <trkpt lat="50.847885031253099" lon="6.44528397358954">
        <ele>108.77</ele>
        <time>2019-08-30T07:20:48Z</time>
      </trkpt>
      <trkpt lat="50.847969017922878" lon="6.445282967761159">
        <ele>108.29000000000001</ele>
        <time>2019-08-30T07:20:49Z</time>
      </trkpt>
      <trkpt lat="50.848039006814361" lon="6.445227982476354">
        <ele>108.29000000000001</ele>
        <time>2019-08-30T07:20:50Z</time>
      </trkpt>
      <trkpt lat="50.848112013190985" lon="6.445170985534787">
        <ele>108.29000000000001</ele>
        <time>2019-08-30T07:20:51Z</time>
      </trkpt>
      <trkpt lat="50.848542004823685" lon="6.444856999441981">
        <ele>107.81</ele>
        <time>2019-08-30T07:20:57Z</time>
      </trkpt>
      <trkpt lat="50.848607970401645" lon="6.444895975291729">
        <ele>107.31999999999999</ele>
        <time>2019-08-30T07:20:58Z</time>
      </trkpt>
      <trkpt lat="50.84866002202034" lon="6.444930005818605">
        <ele>107.31999999999999</ele>
        <time>2019-08-30T07:20:59Z</time>
      </trkpt>
      <trkpt lat="50.848675025627017" lon="6.44494098611176">
        <ele>107.31999999999999</ele>
        <time>2019-08-30T07:21:00Z</time>
      </trkpt>
      <trkpt lat="50.848714001476765" lon="6.445035031065345">
        <ele>107.31999999999999</ele>
        <time>2019-08-30T07:21:01Z</time>
      </trkpt>
      <trkpt lat="50.848745014518499" lon="6.445110971108079">
        <ele>107.31999999999999</ele>
        <time>2019-08-30T07:21:02Z</time>
      </trkpt>
      <trkpt lat="50.848779967054725" lon="6.445195963606238">
        <ele>107.31999999999999</ele>
        <time>2019-08-30T07:21:03Z</time>
      </trkpt>
      <trkpt lat="50.848817015066743" lon="6.445285985246301">
        <ele>107.31999999999999</ele>
        <time>2019-08-30T07:21:04Z</time>
      </trkpt>
      <trkpt lat="50.848867977038026" lon="6.44541297107935">
        <ele>106.84</ele>
        <time>2019-08-30T07:21:06Z</time>
      </trkpt>
      <trkpt lat="50.849037040024996" lon="6.445445995777845">
        <ele>106.84</ele>
        <time>2019-08-30T07:21:08Z</time>
      </trkpt>
      <trkpt lat="50.849091019481421" lon="6.445396961644292">
        <ele>106.84</ele>
        <time>2019-08-30T07:21:09Z</time>
      </trkpt>
      <trkpt lat="50.849824016913772" lon="6.444709980860353">
        <ele>107.81</ele>
        <time>2019-08-30T07:21:16Z</time>
      </trkpt>
      <trkpt lat="50.851382967084646" lon="6.44317701458931">
        <ele>106.84</ele>
        <time>2019-08-30T07:21:29Z</time>
      </trkpt>
      <trkpt lat="50.851636016741395" lon="6.442936034873128">
        <ele>107.31999999999999</ele>
        <time>2019-08-30T07:21:34Z</time>
      </trkpt>
      <trkpt lat="50.851722015067935" lon="6.442844001576304">
        <ele>107.31999999999999</ele>
        <time>2019-08-30T07:21:42Z</time>
      </trkpt>
      <trkpt lat="50.851755039766431" lon="6.442807037383318">
        <ele>107.31999999999999</ele>
        <time>2019-08-30T07:21:43Z</time>
      </trkpt>
      <trkpt lat="50.851758979260921" lon="6.442711986601353">
        <ele>107.81</ele>
        <time>2019-08-30T07:21:44Z</time>
      </trkpt>
      <trkpt lat="50.851727966219187" lon="6.442643003538251">
        <ele>107.81</ele>
        <time>2019-08-30T07:21:46Z</time>
      </trkpt>
      <trkpt lat="50.851642973721027" lon="6.442456003278494">
        <ele>107.81</ele>
        <time>2019-08-30T07:21:47Z</time>
      </trkpt>
      <trkpt lat="50.851594023406506" lon="6.442347038537264">
        <ele>107.81</ele>
        <time>2019-08-30T07:21:48Z</time>
      </trkpt>
      <trkpt lat="50.85154096595943" lon="6.442230027168989">
        <ele>107.31999999999999</ele>
        <time>2019-08-30T07:21:49Z</time>
      </trkpt>
      <trkpt lat="50.851485980674624" lon="6.442107986658812">
        <ele>107.31999999999999</ele>
        <time>2019-08-30T07:21:50Z</time>
      </trkpt>
      <trkpt lat="50.851420015096664" lon="6.441999021917582">
        <ele>106.84</ele>
        <time>2019-08-30T07:21:51Z</time>
      </trkpt>
      <trkpt lat="50.851337034255266" lon="6.441899025812745">
        <ele>106.84</ele>
        <time>2019-08-30T07:21:52Z</time>
      </trkpt>
      <trkpt lat="50.850442014634609" lon="6.44085799343884">
        <ele>105.40000000000001</ele>
        <time>2019-08-30T07:22:02Z</time>
      </trkpt>
      <trkpt lat="50.849919989705086" lon="6.440369999036193">
        <ele>105.40000000000001</ele>
        <time>2019-08-30T07:22:08Z</time>
      </trkpt>
      <trkpt lat="50.849871039390564" lon="6.44023597240448">
        <ele>105.40000000000001</ele>
        <time>2019-08-30T07:22:09Z</time>
      </trkpt>
      <trkpt lat="50.84982200525701" lon="6.440109992399812">
        <ele>104.92</ele>
        <time>2019-08-30T07:22:10Z</time>
      </trkpt>
      <trkpt lat="50.849770037457347" lon="6.43997797742486">
        <ele>105.40000000000001</ele>
        <time>2019-08-30T07:22:11Z</time>
      </trkpt>
      <trkpt lat="50.849717985838652" lon="6.439844034612179">
        <ele>104.92</ele>
        <time>2019-08-30T07:22:12Z</time>
      </trkpt>
      <trkpt lat="50.849687978625298" lon="6.439687963575125">
        <ele>104.92</ele>
        <time>2019-08-30T07:22:13Z</time>
      </trkpt>
      <trkpt lat="50.849664006382227" lon="6.43952501937747">
        <ele>105.40000000000001</ele>
        <time>2019-08-30T07:22:14Z</time>
      </trkpt>
      <trkpt lat="50.849491003900766" lon="6.437880992889404">
        <ele>106.36</ele>
        <time>2019-08-30T07:22:24Z</time>
      </trkpt>
      <trkpt lat="50.849480023607612" lon="6.437732968479395">
        <ele>106.36</ele>
        <time>2019-08-30T07:22:25Z</time>
      </trkpt>
      <trkpt lat="50.849443981423974" lon="6.437593996524811">
        <ele>105.88</ele>
        <time>2019-08-30T07:22:27Z</time>
      </trkpt>
      <trkpt lat="50.848910976201296" lon="6.436209976673126">
        <ele>105.40000000000001</ele>
        <time>2019-08-30T07:22:35Z</time>
      </trkpt>
      <trkpt lat="50.848461035639048" lon="6.435371031984687">
        <ele>105.40000000000001</ele>
        <time>2019-08-30T07:22:41Z</time>
      </trkpt>
      <trkpt lat="50.848361039534211" lon="6.435303976759315">
        <ele>105.40000000000001</ele>
        <time>2019-08-30T07:22:43Z</time>
      </trkpt>
      <trkpt lat="50.848260037600994" lon="6.435237005352974">
        <ele>105.40000000000001</ele>
        <time>2019-08-30T07:22:44Z</time>
      </trkpt>
      <trkpt lat="50.847165025770664" lon="6.434914972633123">
        <ele>106.36</ele>
        <time>2019-08-30T07:22:51Z</time>
      </trkpt>
      <trkpt lat="50.845959959551692" lon="6.435414031147957">
        <ele>107.31999999999999</ele>
        <time>2019-08-30T07:22:58Z</time>
      </trkpt>
      <trkpt lat="50.844464963302016" lon="6.435891967266798">
        <ele>108.29000000000001</ele>
        <time>2019-08-30T07:23:07Z</time>
      </trkpt>
      <trkpt lat="50.843279007822275" lon="6.435493994504213">
        <ele>109.25</ele>
        <time>2019-08-30T07:23:14Z</time>
      </trkpt>
      <trkpt lat="50.84215197712183" lon="6.43428398296237">
        <ele>109.73</ele>
        <time>2019-08-30T07:23:22Z</time>
      </trkpt>
      <trkpt lat="50.841384027153254" lon="6.432485980913043">
        <ele>110.69</ele>
        <time>2019-08-30T07:23:30Z</time>
      </trkpt>
      <trkpt lat="50.840092040598392" lon="6.428781012073159">
        <ele>112.13</ele>
        <time>2019-08-30T07:23:46Z</time>
      </trkpt>
      <trkpt lat="50.839933035895228" lon="6.428207019343972">
        <ele>113.56999999999999</ele>
        <time>2019-08-30T07:23:50Z</time>
      </trkpt>
      <trkpt lat="50.839985003694892" lon="6.428032005205751">
        <ele>114.05</ele>
        <time>2019-08-30T07:23:51Z</time>
      </trkpt>
      <trkpt lat="50.839990032836795" lon="6.42801096662879">
        <ele>114.05</ele>
        <time>2019-08-30T07:23:52Z</time>
      </trkpt>
      <trkpt lat="50.840009981766343" lon="6.427917005494237">
        <ele>114.05</ele>
        <time>2019-08-30T07:23:53Z</time>
      </trkpt>
      <trkpt lat="50.840007970109582" lon="6.427750959992409">
        <ele>114.53</ele>
        <time>2019-08-30T07:23:54Z</time>
      </trkpt>
      <trkpt lat="50.839977040886879" lon="6.427629003301263">
        <ele>114.53</ele>
        <time>2019-08-30T07:23:55Z</time>
      </trkpt>
      <trkpt lat="50.839940998703241" lon="6.427557002753019">
        <ele>114.53</ele>
        <time>2019-08-30T07:23:56Z</time>
      </trkpt>
      <trkpt lat="50.839853994548321" lon="6.42749497666955">
        <ele>115.01000000000001</ele>
        <time>2019-08-30T07:23:57Z</time>
      </trkpt>
      <trkpt lat="50.839814012870193" lon="6.427480978891254">
        <ele>115.01000000000001</ele>
        <time>2019-08-30T07:23:58Z</time>
      </trkpt>
      <trkpt lat="50.839750980958343" lon="6.427501011639834">
        <ele>115.5</ele>
        <time>2019-08-30T07:23:59Z</time>
      </trkpt>
      <trkpt lat="50.839719967916608" lon="6.427521966397762">
        <ele>115.98</ele>
        <time>2019-08-30T07:24:00Z</time>
      </trkpt>
      <trkpt lat="50.839685015380383" lon="6.427545016631484">
        <ele>116.45999999999999</ele>
        <time>2019-08-30T07:24:01Z</time>
      </trkpt>
      <trkpt lat="50.839634975418448" lon="6.427602013573051">
        <ele>116.45999999999999</ele>
        <time>2019-08-30T07:24:02Z</time>
      </trkpt>
      <trkpt lat="50.839595999568701" lon="6.427661022171378">
        <ele>116.45999999999999</ele>
        <time>2019-08-30T07:24:04Z</time>
      </trkpt>
      <trkpt lat="50.839591976255178" lon="6.427917005494237">
        <ele>116.45999999999999</ele>
        <time>2019-08-30T07:24:05Z</time>
      </trkpt>
      <trkpt lat="50.839616032317281" lon="6.428067041561008">
        <ele>115.98</ele>
        <time>2019-08-30T07:24:06Z</time>
      </trkpt>
      <trkpt lat="50.83970395848155" lon="6.428173994645476">
        <ele>115.98</ele>
        <time>2019-08-30T07:24:07Z</time>
      </trkpt>
      <trkpt lat="50.839767996221781" lon="6.428195033222437">
        <ele>115.98</ele>
        <time>2019-08-30T07:24:08Z</time>
      </trkpt>
      <trkpt lat="50.839849971234798" lon="6.428183969110251">
        <ele>115.5</ele>
        <time>2019-08-30T07:24:09Z</time>
      </trkpt>
      <trkpt lat="50.839907974004745" lon="6.428165026009083">
        <ele>115.5</ele>
        <time>2019-08-30T07:24:10Z</time>
      </trkpt>
      <trkpt lat="50.839967988431454" lon="6.428067041561008">
        <ele>115.01000000000001</ele>
        <time>2019-08-30T07:24:12Z</time>
      </trkpt>
      <trkpt lat="50.84006697870791" lon="6.427845004945993">
        <ele>115.01000000000001</ele>
        <time>2019-08-30T07:24:14Z</time>
      </trkpt>
      <trkpt lat="50.84013001061976" lon="6.427855985239148">
        <ele>115.01000000000001</ele>
        <time>2019-08-30T07:24:15Z</time>
      </trkpt>
      <trkpt lat="50.840249033644795" lon="6.427876017987728">
        <ele>114.53</ele>
        <time>2019-08-30T07:24:16Z</time>
      </trkpt>
      <trkpt lat="50.840354980900884" lon="6.427893033251166">
        <ele>114.05</ele>
        <time>2019-08-30T07:24:23Z</time>
      </trkpt>
      <trkpt lat="50.840354980900884" lon="6.427893033251166">
        <ele>113.56999999999999</ele>
        <time>2019-08-30T07:24:34Z</time>
      </trkpt>
      <trkpt lat="50.840413989499211" lon="6.427903007715941">
        <ele>113.56999999999999</ele>
        <time>2019-08-30T07:24:35Z</time>
      </trkpt>
      <trkpt lat="50.840363027527928" lon="6.427894961088896">
        <ele>113.56999999999999</ele>
        <time>2019-08-30T07:24:38Z</time>
      </trkpt>
      <trkpt lat="50.840331008657813" lon="6.427890015766025">
        <ele>113.56999999999999</ele>
        <time>2019-08-30T07:24:39Z</time>
      </trkpt>
      <trkpt lat="50.840042000636458" lon="6.427840981632471">
        <ele>114.05</ele>
        <time>2019-08-30T07:24:43Z</time>
      </trkpt>
      <trkpt lat="50.840006964281201" lon="6.427747020497918">
        <ele>114.05</ele>
        <time>2019-08-30T07:24:44Z</time>
      </trkpt>
      <trkpt lat="50.839988021180034" lon="6.427661022171378">
        <ele>114.05</ele>
        <time>2019-08-30T07:24:45Z</time>
      </trkpt>
      <trkpt lat="50.839985003694892" lon="6.427646018564701">
        <ele>114.05</ele>
        <time>2019-08-30T07:24:46Z</time>
      </trkpt>
      <trkpt lat="50.839927000924945" lon="6.427443008869886">
        <ele>114.05</ele>
        <time>2019-08-30T07:24:48Z</time>
      </trkpt>
      <trkpt lat="50.83993898704648" lon="6.427308982238174">
        <ele>114.05</ele>
        <time>2019-08-30T07:24:49Z</time>
      </trkpt>
      <trkpt lat="50.840118024498224" lon="6.426165020093322">
        <ele>114.53</ele>
        <time>2019-08-30T07:24:55Z</time>
      </trkpt>
      <trkpt lat="50.840177033096552" lon="6.426006015390158">
        <ele>114.53</ele>
        <time>2019-08-30T07:24:56Z</time>
      </trkpt>
      <trkpt lat="50.840244004502892" lon="6.425853967666626">
        <ele>114.53</ele>
        <time>2019-08-30T07:24:57Z</time>
      </trkpt>
      <trkpt lat="50.840309970080853" lon="6.425705021247268">
        <ele>115.01000000000001</ele>
        <time>2019-08-30T07:24:59Z</time>
      </trkpt>
      <trkpt lat="50.840371996164322" lon="6.425563031807542">
        <ele>115.5</ele>
        <time>2019-08-30T07:25:00Z</time>
      </trkpt>
      <trkpt lat="50.840499987825751" lon="6.425317022949457">
        <ele>115.5</ele>
        <time>2019-08-30T07:25:01Z</time>
      </trkpt>
      <trkpt lat="50.840577017515898" lon="6.425219038501382">
        <ele>115.98</ele>
        <time>2019-08-30T07:25:03Z</time>
      </trkpt>
      <trkpt lat="50.840652035549283" lon="6.425121976062655">
        <ele>115.98</ele>
        <time>2019-08-30T07:25:04Z</time>
      </trkpt>
      <trkpt lat="50.841697007417679" lon="6.423856979236007">
        <ele>115.98</ele>
        <time>2019-08-30T07:25:16Z</time>
      </trkpt>
      <trkpt lat="50.842686994001269" lon="6.422555018216372">
        <ele>116.94</ele>
        <time>2019-08-30T07:25:28Z</time>
      </trkpt>
      <trkpt lat="50.843278001993895" lon="6.421817997470498">
        <ele>116.45999999999999</ele>
        <time>2019-08-30T07:25:35Z</time>
      </trkpt>
      <trkpt lat="50.843444969505072" lon="6.421610964462161">
        <ele>115.98</ele>
        <time>2019-08-30T07:25:37Z</time>
      </trkpt>
      <trkpt lat="50.843532979488373" lon="6.421501999720931">
        <ele>115.5</ele>
        <time>2019-08-30T07:25:38Z</time>
      </trkpt>
      <trkpt lat="50.843617971986532" lon="6.421396974474192">
        <ele>115.01000000000001</ele>
        <time>2019-08-30T07:25:39Z</time>
      </trkpt>
      <trkpt lat="50.844665039330721" lon="6.420157961547375">
        <ele>111.17</ele>
        <time>2019-08-30T07:25:51Z</time>
      </trkpt>
      <trkpt lat="50.844759000465274" lon="6.420055031776428">
        <ele>110.69</ele>
        <time>2019-08-30T07:25:52Z</time>
      </trkpt>
      <trkpt lat="50.845556035637856" lon="6.419190019369125">
        <ele>109.73</ele>
        <time>2019-08-30T07:26:01Z</time>
      </trkpt>
      <trkpt lat="50.845817970111966" lon="6.418880978599191">
        <ele>109.73</ele>
        <time>2019-08-30T07:26:04Z</time>
      </trkpt>
      <trkpt lat="50.846644006669521" lon="6.417770041152835">
        <ele>106.84</ele>
        <time>2019-08-30T07:26:14Z</time>
      </trkpt>
      <trkpt lat="50.847305003553629" lon="6.416820036247373">
        <ele>108.29000000000001</ele>
        <time>2019-08-30T07:26:22Z</time>
      </trkpt>
      <trkpt lat="50.847470965236425" lon="6.41658098436892">
        <ele>110.20999999999999</ele>
        <time>2019-08-30T07:26:24Z</time>
      </trkpt>
      <trkpt lat="50.848206980153918" lon="6.41565503552556">
        <ele>113.56999999999999</ele>
        <time>2019-08-30T07:26:33Z</time>
      </trkpt>
      <trkpt lat="50.848891027271748" lon="6.414820030331612">
        <ele>113.56999999999999</ele>
        <time>2019-08-30T07:26:41Z</time>
      </trkpt>
      <trkpt lat="50.849017007276416" lon="6.414669994264841">
        <ele>113.56999999999999</ele>
        <time>2019-08-30T07:26:44Z</time>
      </trkpt>
      <trkpt lat="50.849137958139181" lon="6.414721040055156">
        <ele>113.56999999999999</ele>
        <time>2019-08-30T07:26:45Z</time>
      </trkpt>
      <trkpt lat="50.849147010594606" lon="6.414727997034788">
        <ele>113.56999999999999</ele>
        <time>2019-08-30T07:26:46Z</time>
      </trkpt>
      <trkpt lat="50.849247006699443" lon="6.414865041151643">
        <ele>113.56999999999999</ele>
        <time>2019-08-30T07:26:47Z</time>
      </trkpt>
      <trkpt lat="50.849279025569558" lon="6.415025973692536">
        <ele>113.56999999999999</ele>
        <time>2019-08-30T07:26:48Z</time>
      </trkpt>
      <trkpt lat="50.849314983934164" lon="6.415210962295532">
        <ele>113.56999999999999</ele>
        <time>2019-08-30T07:26:49Z</time>
      </trkpt>
      <trkpt lat="50.849355971440673" lon="6.415415983647108">
        <ele>113.56999999999999</ele>
        <time>2019-08-30T07:26:50Z</time>
      </trkpt>
      <trkpt lat="50.84973600693047" lon="6.417212979868054">
        <ele>112.13</ele>
        <time>2019-08-30T07:26:57Z</time>
      </trkpt>
      <trkpt lat="50.849811024963856" lon="6.417456977069378">
        <ele>110.69</ele>
        <time>2019-08-30T07:26:59Z</time>
      </trkpt>
      <trkpt lat="50.850974014028907" lon="6.419918993487954">
        <ele>105.40000000000001</ele>
        <time>2019-08-30T07:27:09Z</time>
      </trkpt>
      <trkpt lat="50.852194000035524" lon="6.422322001308203">
        <ele>104.44</ele>
        <time>2019-08-30T07:27:20Z</time>
      </trkpt>
      <trkpt lat="50.853218017145991" lon="6.424253024160862">
        <ele>103.48</ele>
        <time>2019-08-30T07:27:29Z</time>
      </trkpt>
      <trkpt lat="50.853369981050491" lon="6.424395013600588">
        <ele>103.48</ele>
        <time>2019-08-30T07:27:30Z</time>
      </trkpt>
      <trkpt lat="50.853526974096894" lon="6.424516970291734">
        <ele>103.48</ele>
        <time>2019-08-30T07:27:31Z</time>
      </trkpt>
      <trkpt lat="50.853690002113581" lon="6.424617972224951">
        <ele>103.48</ele>
        <time>2019-08-30T07:27:32Z</time>
      </trkpt>
      <trkpt lat="50.853861998766661" lon="6.424674969166517">
        <ele>103</ele>
        <time>2019-08-30T07:27:33Z</time>
      </trkpt>
      <trkpt lat="50.854039024561644" lon="6.424724003300071">
        <ele>103</ele>
        <time>2019-08-30T07:27:34Z</time>
      </trkpt>
      <trkpt lat="50.854212027043104" lon="6.424692990258336">
        <ele>103</ele>
        <time>2019-08-30T07:27:35Z</time>
      </trkpt>
      <trkpt lat="50.854387963190675" lon="6.424660971388221">
        <ele>103</ele>
        <time>2019-08-30T07:27:36Z</time>
      </trkpt>
      <trkpt lat="50.854562977328897" lon="6.424629958346486">
        <ele>102.52</ele>
        <time>2019-08-30T07:27:37Z</time>
      </trkpt>
      <trkpt lat="50.854734973981977" lon="6.424543038010597">
        <ele>102.52</ele>
        <time>2019-08-30T07:27:38Z</time>
      </trkpt>
      <trkpt lat="50.854896996170282" lon="6.424439018592238">
        <ele>102.52</ele>
        <time>2019-08-30T07:27:39Z</time>
      </trkpt>
      <trkpt lat="50.856125028803945" lon="6.423274017870426">
        <ele>102.52</ele>
        <time>2019-08-30T07:27:47Z</time>
      </trkpt>
      <trkpt lat="50.85755598731339" lon="6.421121964231134">
        <ele>103</ele>
        <time>2019-08-30T07:27:58Z</time>
      </trkpt>
      <trkpt lat="50.860009035095572" lon="6.417424036189914">
        <ele>100.59999999999999</ele>
        <time>2019-08-30T07:28:17Z</time>
      </trkpt>
      <trkpt lat="50.862067965790629" lon="6.414321977645159">
        <ele>99.629999999999995</ele>
        <time>2019-08-30T07:28:33Z</time>
      </trkpt>
      <trkpt lat="50.863694977015257" lon="6.411953000351787">
        <ele>99.629999999999995</ele>
        <time>2019-08-30T07:28:46Z</time>
      </trkpt>
      <trkpt lat="50.864793006330729" lon="6.410824963822961">
        <ele>98.670000000000002</ele>
        <time>2019-08-30T07:28:55Z</time>
      </trkpt>
      <trkpt lat="50.864992998540401" lon="6.410599993541837">
        <ele>98.670000000000002</ele>
        <time>2019-08-30T07:28:58Z</time>
      </trkpt>
      <trkpt lat="50.865067010745406" lon="6.410618014633656">
        <ele>98.670000000000002</ele>
        <time>2019-08-30T07:28:59Z</time>
      </trkpt>
      <trkpt lat="50.865132976323366" lon="6.410651039332151">
        <ele>98.670000000000002</ele>
        <time>2019-08-30T07:29:00Z</time>
      </trkpt>
      <trkpt lat="50.865256022661924" lon="6.410643998533487">
        <ele>98.670000000000002</ele>
        <time>2019-08-30T07:29:02Z</time>
      </trkpt>
      <trkpt lat="50.865310002118349" lon="6.410766961053014">
        <ele>98.189999999999998</ele>
        <time>2019-08-30T07:29:03Z</time>
      </trkpt>
      <trkpt lat="50.865887012332678" lon="6.412132037803531">
        <ele>98.189999999999998</ele>
        <time>2019-08-30T07:29:09Z</time>
      </trkpt>
      <trkpt lat="50.866846991702914" lon="6.414673011749983">
        <ele>98.189999999999998</ele>
        <time>2019-08-30T07:29:18Z</time>
      </trkpt>
      <trkpt lat="50.867956001311541" lon="6.416930006816983">
        <ele>99.150000000000006</ele>
        <time>2019-08-30T07:29:27Z</time>
      </trkpt>
      <trkpt lat="50.86924203671515" lon="6.418333975598216">
        <ele>100.11</ele>
        <time>2019-08-30T07:29:35Z</time>
      </trkpt>
      <trkpt lat="50.870454981923103" lon="6.419765017926693">
        <ele>101.08</ele>
        <time>2019-08-30T07:29:43Z</time>
      </trkpt>
      <trkpt lat="50.871229972690344" lon="6.421439973637462">
        <ele>100.59999999999999</ele>
        <time>2019-08-30T07:29:50Z</time>
      </trkpt>
      <trkpt lat="50.871829027310014" lon="6.422994984313846">
        <ele>100.11</ele>
        <time>2019-08-30T07:29:57Z</time>
      </trkpt>
      <trkpt lat="50.871905973181129" lon="6.423144014552236">
        <ele>100.11</ele>
        <time>2019-08-30T07:29:58Z</time>
      </trkpt>
      <trkpt lat="50.872082998976111" lon="6.423383988440037">
        <ele>99.629999999999995</ele>
        <time>2019-08-30T07:30:01Z</time>
      </trkpt>
      <trkpt lat="50.872411988675594" lon="6.423744997009635">
        <ele>98.670000000000002</ele>
        <time>2019-08-30T07:30:07Z</time>
      </trkpt>
      <trkpt lat="50.872411988675594" lon="6.423744997009635">
        <ele>98.189999999999998</ele>
        <time>2019-08-30T07:30:20Z</time>
      </trkpt>
      <trkpt lat="50.872559007257223" lon="6.423881035298109">
        <ele>99.150000000000006</ele>
        <time>2019-08-30T07:30:40Z</time>
      </trkpt>
      <trkpt lat="50.872656991705298" lon="6.423911964520812">
        <ele>102.52</ele>
        <time>2019-08-30T07:30:51Z</time>
      </trkpt>
      <trkpt lat="50.87268297560513" lon="6.423832001164556">
        <ele>103.48</ele>
        <time>2019-08-30T07:30:52Z</time>
      </trkpt>
      <trkpt lat="50.873123025521636" lon="6.422604974359274">
        <ele>104.92</ele>
        <time>2019-08-30T07:30:59Z</time>
      </trkpt>
      <trkpt lat="50.874020978808403" lon="6.420491980388761">
        <ele>104.92</ele>
        <time>2019-08-30T07:31:06Z</time>
      </trkpt>
      <trkpt lat="50.875673973932862" lon="6.417498970404267">
        <ele>102.52</ele>
        <time>2019-08-30T07:31:18Z</time>
      </trkpt>
      <trkpt lat="50.8772589918226" lon="6.415268965065479">
        <ele>102.52</ele>
        <time>2019-08-30T07:31:27Z</time>
      </trkpt>
      <trkpt lat="50.878515020012856" lon="6.413879999890924">
        <ele>104.44</ele>
        <time>2019-08-30T07:31:34Z</time>
      </trkpt>
      <trkpt lat="50.88003097102046" lon="6.412354996427894">
        <ele>102.52</ele>
        <time>2019-08-30T07:31:45Z</time>
      </trkpt>
      <trkpt lat="50.881407028064132" lon="6.410953961312771">
        <ele>100.11</ele>
        <time>2019-08-30T07:31:55Z</time>
      </trkpt>
      <trkpt lat="50.882702032104135" lon="6.409319993108511">
        <ele>98.670000000000002</ele>
        <time>2019-08-30T07:32:04Z</time>
      </trkpt>
      <trkpt lat="50.88436902500689" lon="6.406664019450545">
        <ele>99.150000000000006</ele>
        <time>2019-08-30T07:32:16Z</time>
      </trkpt>
      <trkpt lat="50.885925963521004" lon="6.403923975303769">
        <ele>101.08</ele>
        <time>2019-08-30T07:32:27Z</time>
      </trkpt>
      <trkpt lat="50.887757996097207" lon="6.401200024411082">
        <ele>96.269999999999996</ele>
        <time>2019-08-30T07:32:38Z</time>
      </trkpt>
      <trkpt lat="50.888901958242059" lon="6.399652976542711">
        <ele>90.5</ele>
        <time>2019-08-30T07:32:46Z</time>
      </trkpt>
      <trkpt lat="50.889378972351551" lon="6.399044031277299">
        <ele>89.060000000000002</ele>
        <time>2019-08-30T07:32:52Z</time>
      </trkpt>
      <trkpt lat="50.889663035050035" lon="6.398666007444263">
        <ele>88.579999999999998</ele>
        <time>2019-08-30T07:33:01Z</time>
      </trkpt>
      <trkpt lat="50.889704022556543" lon="6.398612027987838">
        <ele>88.099999999999994</ele>
        <time>2019-08-30T07:33:11Z</time>
      </trkpt>
      <trkpt lat="50.889942990615964" lon="6.398283038288355">
        <ele>88.099999999999994</ele>
        <time>2019-08-30T07:33:17Z</time>
      </trkpt>
      <trkpt lat="50.890533998608589" lon="6.397418025881052">
        <ele>88.579999999999998</ele>
        <time>2019-08-30T07:33:25Z</time>
      </trkpt>
      <trkpt lat="50.89146195910871" lon="6.39580300077796">
        <ele>89.540000000000006</ele>
        <time>2019-08-30T07:33:38Z</time>
      </trkpt>
      <trkpt lat="50.892351027578115" lon="6.393706016242504">
        <ele>88.579999999999998</ele>
        <time>2019-08-30T07:33:49Z</time>
      </trkpt>
      <trkpt lat="50.893024010583758" lon="6.391596039757133">
        <ele>88.579999999999998</ele>
        <time>2019-08-30T07:34:01Z</time>
      </trkpt>
      <trkpt lat="50.893609989434481" lon="6.389278024435043">
        <ele>88.579999999999998</ele>
        <time>2019-08-30T07:34:12Z</time>
      </trkpt>
      <trkpt lat="50.894392021000385" lon="6.386176971718669">
        <ele>88.099999999999994</ele>
        <time>2019-08-30T07:34:25Z</time>
      </trkpt>
      <trkpt lat="50.895014964044094" lon="6.38413698412478">
        <ele>89.540000000000006</ele>
        <time>2019-08-30T07:34:34Z</time>
      </trkpt>
      <trkpt lat="50.896073011681437" lon="6.381079014390707">
        <ele>88.579999999999998</ele>
        <time>2019-08-30T07:34:46Z</time>
      </trkpt>
      <trkpt lat="50.896969037130475" lon="6.378762004896998">
        <ele>89.060000000000002</ele>
        <time>2019-08-30T07:34:55Z</time>
      </trkpt>
      <trkpt lat="50.897930022329092" lon="6.376568041741848">
        <ele>87.620000000000005</ele>
        <time>2019-08-30T07:35:03Z</time>
      </trkpt>
      <trkpt lat="50.899045988917351" lon="6.374012986198068">
        <ele>87.140000000000001</ele>
        <time>2019-08-30T07:35:12Z</time>
      </trkpt>
      <trkpt lat="50.899975039064884" lon="6.371866967529059">
        <ele>91.939999999999998</ele>
        <time>2019-08-30T07:35:20Z</time>
      </trkpt>
      <trkpt lat="50.901079019531608" lon="6.369326999410987">
        <ele>97.230000000000004</ele>
        <time>2019-08-30T07:35:29Z</time>
      </trkpt>
      <trkpt lat="50.901948977261782" lon="6.367366975173354">
        <ele>97.709999999999994</ele>
        <time>2019-08-30T07:35:39Z</time>
      </trkpt>
      <trkpt lat="50.9029979724437" lon="6.365152979269624">
        <ele>98.670000000000002</ele>
        <time>2019-08-30T07:35:49Z</time>
      </trkpt>
      <trkpt lat="50.903934985399246" lon="6.36359604075551">
        <ele>99.629999999999995</ele>
        <time>2019-08-30T07:35:57Z</time>
      </trkpt>
      <trkpt lat="50.905107026919723" lon="6.362020997330546">
        <ele>97.709999999999994</ele>
        <time>2019-08-30T07:36:06Z</time>
      </trkpt>
      <trkpt lat="50.906576039269567" lon="6.360460035502911">
        <ele>91.939999999999998</ele>
        <time>2019-08-30T07:36:17Z</time>
      </trkpt>
      <trkpt lat="50.907918987795711" lon="6.359132006764412">
        <ele>85.209999999999994</ele>
        <time>2019-08-30T07:36:27Z</time>
      </trkpt>
      <trkpt lat="50.909121036529541" lon="6.357429977506399">
        <ele>79.930000000000007</ele>
        <time>2019-08-30T07:36:37Z</time>
      </trkpt>
      <trkpt lat="50.910326018929482" lon="6.355370962992311">
        <ele>79.930000000000007</ele>
        <time>2019-08-30T07:36:48Z</time>
      </trkpt>
      <trkpt lat="50.911276023834944" lon="6.353093013167381">
        <ele>80.890000000000001</ele>
        <time>2019-08-30T07:36:59Z</time>
      </trkpt>
      <trkpt lat="50.911700986325741" lon="6.351600028574467">
        <ele>85.689999999999998</ele>
        <time>2019-08-30T07:37:07Z</time>
      </trkpt>
      <trkpt lat="50.911975996568799" lon="6.35034098289907">
        <ele>87.620000000000005</ele>
        <time>2019-08-30T07:37:14Z</time>
      </trkpt>
      <trkpt lat="50.91221303679049" lon="6.348993005231023">
        <ele>84.25</ele>
        <time>2019-08-30T07:37:22Z</time>
      </trkpt>
      <trkpt lat="50.91247002594173" lon="6.346888979896903">
        <ele>80.890000000000001</ele>
        <time>2019-08-30T07:37:29Z</time>
      </trkpt>
      <trkpt lat="50.912629030644894" lon="6.34499198757112">
        <ele>79.930000000000007</ele>
        <time>2019-08-30T07:37:35Z</time>
      </trkpt>
      <trkpt lat="50.912920972332358" lon="6.341845002025366">
        <ele>80.409999999999997</ele>
        <time>2019-08-30T07:37:43Z</time>
      </trkpt>
      <trkpt lat="50.913306036964059" lon="6.33964098058641">
        <ele>81.849999999999994</ele>
        <time>2019-08-30T07:37:49Z</time>
      </trkpt>
      <trkpt lat="50.914074992761016" lon="6.337993014603853">
        <ele>81.849999999999994</ele>
        <time>2019-08-30T07:37:56Z</time>
      </trkpt>
      <trkpt lat="50.914458967745304" lon="6.337506026029587">
        <ele>82.329999999999998</ele>
        <time>2019-08-30T07:38:00Z</time>
      </trkpt>
      <trkpt lat="50.914525017142296" lon="6.337422039359808">
        <ele>82.329999999999998</ele>
        <time>2019-08-30T07:38:01Z</time>
      </trkpt>
      <trkpt lat="50.914806984364986" lon="6.337102018296719">
        <ele>82.329999999999998</ele>
        <time>2019-08-30T07:38:06Z</time>
      </trkpt>
      <trkpt lat="50.914860963821411" lon="6.337044015526772">
        <ele>82.329999999999998</ele>
        <time>2019-08-30T07:38:07Z</time>
      </trkpt>
      <trkpt lat="50.914946962147951" lon="6.337034963071346">
        <ele>82.329999999999998</ele>
        <time>2019-08-30T07:38:08Z</time>
      </trkpt>
      <trkpt lat="50.915079982951283" lon="6.337053989991546">
        <ele>82.329999999999998</ele>
        <time>2019-08-30T07:38:11Z</time>
      </trkpt>
      <trkpt lat="50.915131028741598" lon="6.33697796612978">
        <ele>82.329999999999998</ele>
        <time>2019-08-30T07:38:12Z</time>
      </trkpt>
      <trkpt lat="50.915150977671146" lon="6.336797000840306">
        <ele>82.329999999999998</ele>
        <time>2019-08-30T07:38:14Z</time>
      </trkpt>
      <trkpt lat="50.915087023749948" lon="6.33665501140058">
        <ele>82.329999999999998</ele>
        <time>2019-08-30T07:38:15Z</time>
      </trkpt>
      <trkpt lat="50.914909997954965" lon="6.336564989760518">
        <ele>82.810000000000002</ele>
        <time>2019-08-30T07:38:18Z</time>
      </trkpt>
      <trkpt lat="50.914869010448456" lon="6.336441021412611">
        <ele>82.810000000000002</ele>
        <time>2019-08-30T07:38:19Z</time>
      </trkpt>
      <trkpt lat="50.914442958310246" lon="6.335038980469108">
        <ele>84.25</ele>
        <time>2019-08-30T07:38:28Z</time>
      </trkpt>
      <trkpt lat="50.913920011371374" lon="6.333672981709242">
        <ele>84.25</ele>
        <time>2019-08-30T07:38:37Z</time>
      </trkpt>
      <trkpt lat="50.912824999541044" lon="6.331867016851902">
        <ele>87.620000000000005</ele>
        <time>2019-08-30T07:38:47Z</time>
      </trkpt>
      <trkpt lat="50.912309009581804" lon="6.330979960039258">
        <ele>90.980000000000004</ele>
        <time>2019-08-30T07:38:52Z</time>
      </trkpt>
      <trkpt lat="50.912228962406516" lon="6.330800000578165">
        <ele>91.459999999999994</ele>
        <time>2019-08-30T07:38:53Z</time>
      </trkpt>
      <trkpt lat="50.912162996828556" lon="6.330608977004886">
        <ele>91.939999999999998</ele>
        <time>2019-08-30T07:38:54Z</time>
      </trkpt>
      <trkpt lat="50.912099964916706" lon="6.330417031422257">
        <ele>92.420000000000002</ele>
        <time>2019-08-30T07:38:55Z</time>
      </trkpt>
      <trkpt lat="50.912066018208861" lon="6.330216033384204">
        <ele>92.900000000000006</ele>
        <time>2019-08-30T07:38:56Z</time>
      </trkpt>
      <trkpt lat="50.912035005167127" lon="6.330025009810925">
        <ele>93.390000000000001</ele>
        <time>2019-08-30T07:38:57Z</time>
      </trkpt>
      <trkpt lat="50.912006003782153" lon="6.329851001501083">
        <ele>94.349999999999994</ele>
        <time>2019-08-30T07:38:58Z</time>
      </trkpt>
      <trkpt lat="50.911843981593847" lon="6.328999986872077">
        <ele>97.709999999999994</ele>
        <time>2019-08-30T07:39:03Z</time>
      </trkpt>
      <trkpt lat="50.91141801327467" lon="6.32722201757133">
        <ele>100.59999999999999</ele>
        <time>2019-08-30T07:39:12Z</time>
      </trkpt>
      <trkpt lat="50.91141801327467" lon="6.327039962634444">
        <ele>101.08</ele>
        <time>2019-08-30T07:39:14Z</time>
      </trkpt>
      <trkpt lat="50.911460006609559" lon="6.326691024005413">
        <ele>101.56</ele>
        <time>2019-08-30T07:39:15Z</time>
      </trkpt>
      <trkpt lat="50.911511974409223" lon="6.326511986553669">
        <ele>102.04000000000001</ele>
        <time>2019-08-30T07:39:16Z</time>
      </trkpt>
      <trkpt lat="50.911563020199537" lon="6.326335966587067">
        <ele>102.04000000000001</ele>
        <time>2019-08-30T07:39:17Z</time>
      </trkpt>
      <trkpt lat="50.911658992990851" lon="6.326145026832819">
        <ele>102.52</ele>
        <time>2019-08-30T07:39:19Z</time>
      </trkpt>
      <trkpt lat="50.91178203932941" lon="6.326076965779066">
        <ele>102.52</ele>
        <time>2019-08-30T07:39:20Z</time>
      </trkpt>
      <trkpt lat="50.912274979054928" lon="6.325870016589761">
        <ele>101.56</ele>
        <time>2019-08-30T07:39:24Z</time>
      </trkpt>
      <trkpt lat="50.912532974034548" lon="6.325764991343021">
        <ele>101.56</ele>
        <time>2019-08-30T07:39:26Z</time>
      </trkpt>
      <trkpt lat="50.912682004272938" lon="6.325583020225167">
        <ele>101.56</ele>
        <time>2019-08-30T07:39:27Z</time>
      </trkpt>
      <trkpt lat="50.912903035059571" lon="6.325313039124012">
        <ele>101.56</ele>
        <time>2019-08-30T07:39:30Z</time>
      </trkpt>
      <trkpt lat="50.912919966503978" lon="6.325293006375432">
        <ele>101.08</ele>
        <time>2019-08-30T07:39:31Z</time>
      </trkpt>
      <trkpt lat="50.913086012005806" lon="6.325304992496967">
        <ele>101.08</ele>
        <time>2019-08-30T07:39:32Z</time>
      </trkpt>
      <trkpt lat="50.913177961483598" lon="6.325146993622184">
        <ele>101.08</ele>
        <time>2019-08-30T07:39:34Z</time>
      </trkpt>
      <trkpt lat="50.913199000060558" lon="6.325056971982122">
        <ele>101.08</ele>
        <time>2019-08-30T07:39:35Z</time>
      </trkpt>
      <trkpt lat="50.913193970918655" lon="6.324900984764099">
        <ele>101.08</ele>
        <time>2019-08-30T07:39:36Z</time>
      </trkpt>
      <trkpt lat="50.913253985345364" lon="6.324810041114688">
        <ele>101.08</ele>
        <time>2019-08-30T07:39:37Z</time>
      </trkpt>
      <trkpt lat="50.913412990048528" lon="6.324563026428223">
        <ele>101.08</ele>
        <time>2019-08-30T07:39:39Z</time>
      </trkpt>
      <trkpt lat="50.913791013881564" lon="6.3241480384022">
        <ele>101.08</ele>
        <time>2019-08-30T07:39:42Z</time>
      </trkpt>
      <trkpt lat="50.914682010188699" lon="6.322572994977236">
        <ele>100.11</ele>
        <time>2019-08-30T07:39:50Z</time>
      </trkpt>
      <trkpt lat="50.914907986298203" lon="6.322110984474421">
        <ele>99.629999999999995</ele>
        <time>2019-08-30T07:39:53Z</time>
      </trkpt>
      <trkpt lat="50.915030026808381" lon="6.321881990879774">
        <ele>99.629999999999995</ele>
        <time>2019-08-30T07:39:54Z</time>
      </trkpt>
      <trkpt lat="50.915150977671146" lon="6.321859024465084">
        <ele>99.150000000000006</ele>
        <time>2019-08-30T07:39:55Z</time>
      </trkpt>
      <trkpt lat="50.915189031511545" lon="6.321821976453066">
        <ele>99.629999999999995</ele>
        <time>2019-08-30T07:39:57Z</time>
      </trkpt>
      <trkpt lat="50.915301013737917" lon="6.321641011163592">
        <ele>99.629999999999995</ele>
        <time>2019-08-30T07:39:58Z</time>
      </trkpt>
      <trkpt lat="50.915301013737917" lon="6.321544032543898">
        <ele>99.629999999999995</ele>
        <time>2019-08-30T07:39:59Z</time>
      </trkpt>
      <trkpt lat="50.915301013737917" lon="6.321430960670114">
        <ele>99.629999999999995</ele>
        <time>2019-08-30T07:40:00Z</time>
      </trkpt>
      <trkpt lat="50.915248962119222" lon="6.321276985108852">
        <ele>99.629999999999995</ele>
        <time>2019-08-30T07:40:02Z</time>
      </trkpt>
      <trkpt lat="50.915277041494846" lon="6.321127032861114">
        <ele>99.629999999999995</ele>
        <time>2019-08-30T07:40:03Z</time>
      </trkpt>
      <trkpt lat="50.915578035637736" lon="6.31946699693799">
        <ele>97.709999999999994</ele>
        <time>2019-08-30T07:40:09Z</time>
      </trkpt>
      <trkpt lat="50.916197039186954" lon="6.31723104044795">
        <ele>98.189999999999998</ele>
        <time>2019-08-30T07:40:16Z</time>
      </trkpt>
      <trkpt lat="50.917071020230651" lon="6.315315021201968">
        <ele>99.150000000000006</ele>
        <time>2019-08-30T07:40:22Z</time>
      </trkpt>
      <trkpt lat="50.918643968179822" lon="6.313346028327942">
        <ele>98.670000000000002</ele>
        <time>2019-08-30T07:40:30Z</time>
      </trkpt>
      <trkpt lat="50.920264022424817" lon="6.31149304099381">
        <ele>99.150000000000006</ele>
        <time>2019-08-30T07:40:39Z</time>
      </trkpt>
      <trkpt lat="50.921825990080833" lon="6.309657990932465">
        <ele>99.150000000000006</ele>
        <time>2019-08-30T07:40:50Z</time>
      </trkpt>
      <trkpt lat="50.923439003527164" lon="6.307449024170637">
        <ele>93.390000000000001</ele>
        <time>2019-08-30T07:41:02Z</time>
      </trkpt>
      <trkpt lat="50.924810031428933" lon="6.304872008040547">
        <ele>91.459999999999994</ele>
        <time>2019-08-30T07:41:14Z</time>
      </trkpt>
      <trkpt lat="50.92564101330936" lon="6.302563967183232">
        <ele>91.459999999999994</ele>
        <time>2019-08-30T07:41:22Z</time>
      </trkpt>
      <trkpt lat="50.926600992679596" lon="6.300061969086528">
        <ele>89.060000000000002</ele>
        <time>2019-08-30T07:41:30Z</time>
      </trkpt>
      <trkpt lat="50.927931033074856" lon="6.297542033717036">
        <ele>91.939999999999998</ele>
        <time>2019-08-30T07:41:39Z</time>
      </trkpt>
      <trkpt lat="50.930357007309794" lon="6.292984038591385">
        <ele>92.420000000000002</ele>
        <time>2019-08-30T07:41:55Z</time>
      </trkpt>
      <trkpt lat="50.931130992248654" lon="6.29110699519515">
        <ele>91.939999999999998</ele>
        <time>2019-08-30T07:42:02Z</time>
      </trkpt>
      <trkpt lat="50.93165603466332" lon="6.289605963975191">
        <ele>91.459999999999994</ele>
        <time>2019-08-30T07:42:10Z</time>
      </trkpt>
      <trkpt lat="50.93176499940455" lon="6.289346041157842">
        <ele>90.980000000000004</ele>
        <time>2019-08-30T07:42:13Z</time>
      </trkpt>
      <trkpt lat="50.931854015216231" lon="6.289154011756182">
        <ele>90.5</ele>
        <time>2019-08-30T07:42:14Z</time>
      </trkpt>
      <trkpt lat="50.931888967752457" lon="6.289075976237655">
        <ele>90.5</ele>
        <time>2019-08-30T07:42:15Z</time>
      </trkpt>
      <trkpt lat="50.932016959413886" lon="6.289007999002934">
        <ele>90.019999999999996</ele>
        <time>2019-08-30T07:42:16Z</time>
      </trkpt>
      <trkpt lat="50.93204403296113" lon="6.288967011496425">
        <ele>90.019999999999996</ele>
        <time>2019-08-30T07:42:18Z</time>
      </trkpt>
      <trkpt lat="50.932059958577156" lon="6.288910014554858">
        <ele>89.540000000000006</ele>
        <time>2019-08-30T07:42:19Z</time>
      </trkpt>
      <trkpt lat="50.932059958577156" lon="6.288836002349854">
        <ele>90.019999999999996</ele>
        <time>2019-08-30T07:42:21Z</time>
      </trkpt>
      <trkpt lat="50.932015031576157" lon="6.288762995973229">
        <ele>90.019999999999996</ele>
        <time>2019-08-30T07:42:22Z</time>
      </trkpt>
      <trkpt lat="50.9319609683007" lon="6.288777999579907">
        <ele>90.019999999999996</ele>
        <time>2019-08-30T07:42:23Z</time>
      </trkpt>
      <trkpt lat="50.931815039366484" lon="6.288717985153198">
        <ele>90.5</ele>
        <time>2019-08-30T07:42:26Z</time>
      </trkpt>
      <trkpt lat="50.931733986362815" lon="6.28865503706038">
        <ele>90.5</ele>
        <time>2019-08-30T07:42:27Z</time>
      </trkpt>
      <trkpt lat="50.930718015879393" lon="6.287783989682794">
        <ele>92.420000000000002</ele>
        <time>2019-08-30T07:42:34Z</time>
      </trkpt>
      <trkpt lat="50.929306000471115" lon="6.287004975602031">
        <ele>94.349999999999994</ele>
        <time>2019-08-30T07:42:41Z</time>
      </trkpt>
      <trkpt lat="50.927055040374398" lon="6.285893032327294">
        <ele>96.75</ele>
        <time>2019-08-30T07:42:51Z</time>
      </trkpt>
      <trkpt lat="50.925006000325084" lon="6.284095030277968">
        <ele>94.829999999999998</ele>
        <time>2019-08-30T07:43:01Z</time>
      </trkpt>
      <trkpt lat="50.922583965584636" lon="6.281933002173901">
        <ele>98.189999999999998</ele>
        <time>2019-08-30T07:43:13Z</time>
      </trkpt>
      <trkpt lat="50.919721964746714" lon="6.279371995478869">
        <ele>102.52</ele>
        <time>2019-08-30T07:43:27Z</time>
      </trkpt>
      <trkpt lat="50.917068002745509" lon="6.276983991265297">
        <ele>104.92</ele>
        <time>2019-08-30T07:43:40Z</time>
      </trkpt>
      <trkpt lat="50.916690984740853" lon="6.27666799351573">
        <ele>105.40000000000001</ele>
        <time>2019-08-30T07:43:43Z</time>
      </trkpt>
      <trkpt lat="50.916505996137857" lon="6.276523992419243">
        <ele>105.40000000000001</ele>
        <time>2019-08-30T07:43:44Z</time>
      </trkpt>
      <trkpt lat="50.916107017546892" lon="6.276341015473008">
        <ele>105.40000000000001</ele>
        <time>2019-08-30T07:43:45Z</time>
      </trkpt>
      <trkpt lat="50.915898978710175" lon="6.276294998824596">
        <ele>105.40000000000001</ele>
        <time>2019-08-30T07:43:46Z</time>
      </trkpt>
      <trkpt lat="50.915681971237063" lon="6.276275971904397">
        <ele>105.40000000000001</ele>
        <time>2019-08-30T07:43:47Z</time>
      </trkpt>
      <trkpt lat="50.915462030097842" lon="6.276257028803229">
        <ele>104.92</ele>
        <time>2019-08-30T07:43:48Z</time>
      </trkpt>
      <trkpt lat="50.915242005139589" lon="6.276244958862662">
        <ele>104.92</ele>
        <time>2019-08-30T07:43:49Z</time>
      </trkpt>
      <trkpt lat="50.912231979891658" lon="6.276572020724416">
        <ele>102.52</ele>
        <time>2019-08-30T07:44:02Z</time>
      </trkpt>
      <trkpt lat="50.910153016448021" lon="6.276848958805203">
        <ele>101.56</ele>
        <time>2019-08-30T07:44:11Z</time>
      </trkpt>
      <trkpt lat="50.909950006753206" lon="6.276945015415549">
        <ele>102.04000000000001</ele>
        <time>2019-08-30T07:44:12Z</time>
      </trkpt>
      <trkpt lat="50.909758983179927" lon="6.27707602456212">
        <ele>102.04000000000001</ele>
        <time>2019-08-30T07:44:13Z</time>
      </trkpt>
      <trkpt lat="50.908590964972973" lon="6.27806500531733">
        <ele>108.29000000000001</ele>
        <time>2019-08-30T07:44:19Z</time>
      </trkpt>
      <trkpt lat="50.908380998298526" lon="6.278182016685605">
        <ele>109.25</ele>
        <time>2019-08-30T07:44:20Z</time>
      </trkpt>
      <trkpt lat="50.906740995123982" lon="6.278895987197757">
        <ele>112.61</ele>
        <time>2019-08-30T07:44:28Z</time>
      </trkpt>
      <trkpt lat="50.90389902703464" lon="6.2801250256598">
        <ele>113.09</ele>
        <time>2019-08-30T07:44:44Z</time>
      </trkpt>
      <trkpt lat="50.901351012289524" lon="6.281215008348227">
        <ele>115.5</ele>
        <time>2019-08-30T07:44:59Z</time>
      </trkpt>
      <trkpt lat="50.900850025936961" lon="6.281374013051391">
        <ele>115.5</ele>
        <time>2019-08-30T07:45:03Z</time>
      </trkpt>
      <trkpt lat="50.900746006518602" lon="6.281399996951222">
        <ele>115.5</ele>
        <time>2019-08-30T07:45:04Z</time>
      </trkpt>
      <trkpt lat="50.900689009577036" lon="6.281411983072758">
        <ele>115.01000000000001</ele>
        <time>2019-08-30T07:45:05Z</time>
      </trkpt>
      <trkpt lat="50.900502009317279" lon="6.281465962529182">
        <ele>114.53</ele>
        <time>2019-08-30T07:45:07Z</time>
      </trkpt>
      <trkpt lat="50.900230016559362" lon="6.28154500387609">
        <ele>111.17</ele>
        <time>2019-08-30T07:45:13Z</time>
      </trkpt>
      <trkpt lat="50.900189029052854" lon="6.281556989997625">
        <ele>110.69</ele>
        <time>2019-08-30T07:45:14Z</time>
      </trkpt>
      <trkpt lat="50.900148963555694" lon="6.28156797029078">
        <ele>110.69</ele>
        <time>2019-08-30T07:45:15Z</time>
      </trkpt>
      <trkpt lat="50.900106970220804" lon="6.281578028574586">
        <ele>110.20999999999999</ele>
        <time>2019-08-30T07:45:16Z</time>
      </trkpt>
      <trkpt lat="50.90005399659276" lon="6.281590014696121">
        <ele>109.73</ele>
        <time>2019-08-30T07:45:17Z</time>
      </trkpt>
      <trkpt lat="50.899928016588092" lon="6.281621027737856">
        <ele>109.73</ele>
        <time>2019-08-30T07:45:19Z</time>
      </trkpt>
      <trkpt lat="50.899872025474906" lon="6.281634019687772">
        <ele>109.25</ele>
        <time>2019-08-30T07:45:20Z</time>
      </trkpt>
      <trkpt lat="50.89981896802783" lon="6.281647011637688">
        <ele>109.25</ele>
        <time>2019-08-30T07:45:21Z</time>
      </trkpt>
      <trkpt lat="50.899765994399786" lon="6.281660003587604">
        <ele>109.25</ele>
        <time>2019-08-30T07:45:22Z</time>
      </trkpt>
      <trkpt lat="50.899718971922994" lon="6.281670983880758">
        <ele>109.25</ele>
        <time>2019-08-30T07:45:23Z</time>
      </trkpt>
      <trkpt lat="50.899605983868241" lon="6.281600994989276">
        <ele>108.77</ele>
        <time>2019-08-30T07:45:25Z</time>
      </trkpt>
      <trkpt lat="50.899576982483268" lon="6.281520025804639">
        <ele>108.29000000000001</ele>
        <time>2019-08-30T07:45:26Z</time>
      </trkpt>
      <trkpt lat="50.89904397726059" lon="6.280198032036424">
        <ele>107.31999999999999</ele>
        <time>2019-08-30T07:45:38Z</time>
      </trkpt>
      <trkpt lat="50.898578027263284" lon="6.279347017407417">
        <ele>106.84</ele>
        <time>2019-08-30T07:45:46Z</time>
      </trkpt>
      <trkpt lat="50.898508038371801" lon="6.279236041009426">
        <ele>106.84</ele>
        <time>2019-08-30T07:45:47Z</time>
      </trkpt>
      <trkpt lat="50.898282984271646" lon="6.278909984976053">
        <ele>107.81</ele>
        <time>2019-08-30T07:45:51Z</time>
      </trkpt>
      <trkpt lat="50.898220958188176" lon="6.27842903137207">
        <ele>108.29000000000001</ele>
        <time>2019-08-30T07:45:53Z</time>
      </trkpt>
      <trkpt lat="50.898220958188176" lon="6.27842903137207">
        <ele>108.29000000000001</ele>
        <time>2019-08-30T07:45:54Z</time>
      </trkpt>
      <trkpt lat="50.898237973451614" lon="6.278239013627172">
        <ele>109.25</ele>
        <time>2019-08-30T07:45:56Z</time>
      </trkpt>
      <trkpt lat="50.898258006200194" lon="6.277950005605817">
        <ele>109.73</ele>
        <time>2019-08-30T07:45:58Z</time>
      </trkpt>
      <trkpt lat="50.898519018664956" lon="6.277496963739395">
        <ele>111.17</ele>
        <time>2019-08-30T07:46:05Z</time>
      </trkpt>
      <trkpt lat="50.898556988686323" lon="6.277478020638228">
        <ele>111.17</ele>
        <time>2019-08-30T07:46:06Z</time>
      </trkpt>
      <trkpt lat="50.898671988397837" lon="6.277421023696661">
        <ele>111.17</ele>
        <time>2019-08-30T07:46:09Z</time>
      </trkpt>
      <trkpt lat="50.898724962025881" lon="6.277196975424886">
        <ele>111.65000000000001</ele>
        <time>2019-08-30T07:46:11Z</time>
      </trkpt>
      <trkpt lat="50.898744994774461" lon="6.277059009298682">
        <ele>111.65000000000001</ele>
        <time>2019-08-30T07:46:12Z</time>
      </trkpt>
      <trkpt lat="50.898736026138067" lon="6.277012992650271">
        <ele>111.65000000000001</ele>
        <time>2019-08-30T07:46:13Z</time>
      </trkpt>
      <trkpt lat="50.89878698810935" lon="6.276890030130744">
        <ele>112.13</ele>
        <time>2019-08-30T07:46:15Z</time>
      </trkpt>
      <trkpt lat="50.898822024464607" lon="6.276806965470314">
        <ele>111.65000000000001</ele>
        <time>2019-08-30T07:46:16Z</time>
      </trkpt>
      <trkpt lat="50.898859994485974" lon="6.276720967143774">
        <ele>111.65000000000001</ele>
        <time>2019-08-30T07:46:17Z</time>
      </trkpt>
      <trkpt lat="50.899254027754068" lon="6.275749001652002">
        <ele>111.17</ele>
        <time>2019-08-30T07:46:25Z</time>
      </trkpt>
      <trkpt lat="50.8992800116539" lon="6.275681024417281">
        <ele>111.17</ele>
        <time>2019-08-30T07:46:26Z</time>
      </trkpt>
      <trkpt lat="50.899305995553732" lon="6.275614975020289">
        <ele>110.69</ele>
        <time>2019-08-30T07:46:27Z</time>
      </trkpt>
      <trkpt lat="50.899330973625183" lon="6.275551021099091">
        <ele>110.69</ele>
        <time>2019-08-30T07:46:28Z</time>
      </trkpt>
      <trkpt lat="50.899356035515666" lon="6.275487989187241">
        <ele>110.69</ele>
        <time>2019-08-30T07:46:29Z</time>
      </trkpt>
      <trkpt lat="50.899380007758737" lon="6.275426968932152">
        <ele>110.69</ele>
        <time>2019-08-30T07:46:30Z</time>
      </trkpt>
      <trkpt lat="50.899402974173427" lon="6.275369971990585">
        <ele>110.69</ele>
        <time>2019-08-30T07:46:31Z</time>
      </trkpt>
      <trkpt lat="50.899427030235529" lon="6.275308029726148">
        <ele>110.69</ele>
        <time>2019-08-30T07:46:32Z</time>
      </trkpt>
      <trkpt lat="50.899466006085277" lon="6.275209961459041">
        <ele>110.69</ele>
        <time>2019-08-30T07:46:34Z</time>
      </trkpt>
      <trkpt lat="50.89955996721983" lon="6.275065960362554">
        <ele>110.69</ele>
        <time>2019-08-30T07:46:35Z</time>
      </trkpt>
      <trkpt lat="50.899599026888609" lon="6.274906033650041">
        <ele>110.69</ele>
        <time>2019-08-30T07:46:37Z</time>
      </trkpt>
      <trkpt lat="50.900231022387743" lon="6.273585967719555">
        <ele>109.73</ele>
        <time>2019-08-30T07:46:43Z</time>
      </trkpt>
      <trkpt lat="50.901296027004719" lon="6.271334001794457">
        <ele>109.25</ele>
        <time>2019-08-30T07:46:51Z</time>
      </trkpt>
      <trkpt lat="50.902638975530863" lon="6.268434030935168">
        <ele>109.25</ele>
        <time>2019-08-30T07:47:00Z</time>
      </trkpt>
      <trkpt lat="50.904459021985531" lon="6.264623031020165">
        <ele>111.65000000000001</ele>
        <time>2019-08-30T07:47:12Z</time>
      </trkpt>
      <trkpt lat="50.904916003346443" lon="6.263799006119371">
        <ele>111.65000000000001</ele>
        <time>2019-08-30T07:47:15Z</time>
      </trkpt>
      <trkpt lat="50.905884029343724" lon="6.262342985719442">
        <ele>112.61</ele>
        <time>2019-08-30T07:47:22Z</time>
      </trkpt>
      <trkpt lat="50.907185990363359" lon="6.260739024728537">
        <ele>112.13</ele>
        <time>2019-08-30T07:47:30Z</time>
      </trkpt>
      <trkpt lat="50.90933796018362" lon="6.25868696719408">
        <ele>108.77</ele>
        <time>2019-08-30T07:47:40Z</time>
      </trkpt>
      <trkpt lat="50.911843981593847" lon="6.256052032113075">
        <ele>106.36</ele>
        <time>2019-08-30T07:47:52Z</time>
      </trkpt>
      <trkpt lat="50.915103033185005" lon="6.252283025532961">
        <ele>105.40000000000001</ele>
        <time>2019-08-30T07:48:08Z</time>
      </trkpt>
      <trkpt lat="50.917616011574864" lon="6.249378025531769">
        <ele>103</ele>
        <time>2019-08-30T07:48:21Z</time>
      </trkpt>
      <trkpt lat="50.919597996398807" lon="6.247080964967609">
        <ele>97.709999999999994</ele>
        <time>2019-08-30T07:48:33Z</time>
      </trkpt>
      <trkpt lat="50.921677965670824" lon="6.244659014046192">
        <ele>96.75</ele>
        <time>2019-08-30T07:48:47Z</time>
      </trkpt>
      <trkpt lat="50.923570012673736" lon="6.242447029799223">
        <ele>97.230000000000004</ele>
        <time>2019-08-30T07:49:00Z</time>
      </trkpt>
      <trkpt lat="50.924771977588534" lon="6.240849019959569">
        <ele>96.75</ele>
        <time>2019-08-30T07:49:10Z</time>
      </trkpt>
      <trkpt lat="50.926124984398484" lon="6.238770978525281">
        <ele>100.59999999999999</ele>
        <time>2019-08-30T07:49:21Z</time>
      </trkpt>
      <trkpt lat="50.927337007597089" lon="6.236621020361781">
        <ele>104.44</ele>
        <time>2019-08-30T07:49:30Z</time>
      </trkpt>
      <trkpt lat="50.929232994094491" lon="6.233214028179646">
        <ele>106.36</ele>
        <time>2019-08-30T07:49:42Z</time>
      </trkpt>
      <trkpt lat="50.931569030508399" lon="6.229055011644959">
        <ele>111.65000000000001</ele>
        <time>2019-08-30T07:49:57Z</time>
      </trkpt>
      <trkpt lat="50.933239962905645" lon="6.226051021367312">
        <ele>106.84</ele>
        <time>2019-08-30T07:50:07Z</time>
      </trkpt>
      <trkpt lat="50.934010008350015" lon="6.224000975489616">
        <ele>105.40000000000001</ele>
        <time>2019-08-30T07:50:13Z</time>
      </trkpt>
      <trkpt lat="50.935238962993026" lon="6.218545027077198">
        <ele>104.44</ele>
        <time>2019-08-30T07:50:28Z</time>
      </trkpt>
      <trkpt lat="50.935514979064465" lon="6.216674018651247">
        <ele>104.92</ele>
        <time>2019-08-30T07:50:35Z</time>
      </trkpt>
      <trkpt lat="50.935514979064465" lon="6.216037999838591">
        <ele>104.44</ele>
        <time>2019-08-30T07:50:38Z</time>
      </trkpt>
      <trkpt lat="50.935434009879827" lon="6.215250017121434">
        <ele>104.44</ele>
        <time>2019-08-30T07:50:44Z</time>
      </trkpt>
      <trkpt lat="50.93541800044477" lon="6.215169969946146">
        <ele>104.44</ele>
        <time>2019-08-30T07:50:46Z</time>
      </trkpt>
      <trkpt lat="50.935410959646106" lon="6.215139962732792">
        <ele>104.44</ele>
        <time>2019-08-30T07:50:47Z</time>
      </trkpt>
      <trkpt lat="50.935406014323235" lon="6.215115990489721">
        <ele>104.92</ele>
        <time>2019-08-30T07:50:48Z</time>
      </trkpt>
      <trkpt lat="50.935400985181332" lon="6.21509101241827">
        <ele>104.92</ele>
        <time>2019-08-30T07:51:01Z</time>
      </trkpt>
      <trkpt lat="50.935256984084845" lon="6.214609974995256">
        <ele>104.92</ele>
        <time>2019-08-30T07:51:06Z</time>
      </trkpt>
      <trkpt lat="50.934703024104238" lon="6.213300973176956">
        <ele>104.92</ele>
        <time>2019-08-30T07:51:13Z</time>
      </trkpt>
      <trkpt lat="50.934104975312948" lon="6.211499031633139">
        <ele>103.95999999999999</ele>
        <time>2019-08-30T07:51:20Z</time>
      </trkpt>
      <trkpt lat="50.93406499363482" lon="6.211190996691585">
        <ele>103.95999999999999</ele>
        <time>2019-08-30T07:51:21Z</time>
      </trkpt>
      <trkpt lat="50.934030041098595" lon="6.210873993113637">
        <ele>103.48</ele>
        <time>2019-08-30T07:51:22Z</time>
      </trkpt>
      <trkpt lat="50.934011014178395" lon="6.210546009242535">
        <ele>103</ele>
        <time>2019-08-30T07:51:23Z</time>
      </trkpt>
      <trkpt lat="50.933991987258196" lon="6.21021400205791">
        <ele>103</ele>
        <time>2019-08-30T07:51:24Z</time>
      </trkpt>
      <trkpt lat="50.934017971158028" lon="6.209889035671949">
        <ele>102.52</ele>
        <time>2019-08-30T07:51:25Z</time>
      </trkpt>
      <trkpt lat="50.934077985584736" lon="6.209223009645939">
        <ele>102.04000000000001</ele>
        <time>2019-08-30T07:51:27Z</time>
      </trkpt>
      <trkpt lat="50.934140011668205" lon="6.208894019946456">
        <ele>102.04000000000001</ele>
        <time>2019-08-30T07:51:28Z</time>
      </trkpt>
      <trkpt lat="50.934686008840799" lon="6.206018021330237">
        <ele>102.52</ele>
        <time>2019-08-30T07:51:36Z</time>
      </trkpt>
      <trkpt lat="50.935499975457788" lon="6.202274998649955">
        <ele>104.92</ele>
        <time>2019-08-30T07:51:46Z</time>
      </trkpt>
      <trkpt lat="50.936010014265776" lon="6.20091101154685">
        <ele>105.88</ele>
        <time>2019-08-30T07:51:50Z</time>
      </trkpt>
      <trkpt lat="50.937198987230659" lon="6.199459014460445">
        <ele>106.36</ele>
        <time>2019-08-30T07:51:56Z</time>
      </trkpt>
      <trkpt lat="50.938545959070325" lon="6.198700033128262">
        <ele>106.84</ele>
        <time>2019-08-30T07:52:02Z</time>
      </trkpt>
      <trkpt lat="50.940385032445192" lon="6.197865027934313">
        <ele>107.81</ele>
        <time>2019-08-30T07:52:12Z</time>
      </trkpt>
      <trkpt lat="50.941449031233788" lon="6.196775967255235">
        <ele>108.29000000000001</ele>
        <time>2019-08-30T07:52:19Z</time>
      </trkpt>
      <trkpt lat="50.94240297563374" lon="6.194843016564846">
        <ele>107.31999999999999</ele>
        <time>2019-08-30T07:52:27Z</time>
      </trkpt>
      <trkpt lat="50.943509973585606" lon="6.19235903955996">
        <ele>106.36</ele>
        <time>2019-08-30T07:52:35Z</time>
      </trkpt>
      <trkpt lat="50.945917004719377" lon="6.186756994575262">
        <ele>101.56</ele>
        <time>2019-08-30T07:52:52Z</time>
      </trkpt>
      <trkpt lat="50.946846976876259" lon="6.184433028101921">
        <ele>103</ele>
        <time>2019-08-30T07:53:00Z</time>
      </trkpt>
      <trkpt lat="50.947862025350332" lon="6.181418979540467">
        <ele>104.92</ele>
        <time>2019-08-30T07:53:13Z</time>
      </trkpt>
      <trkpt lat="50.948148015886545" lon="6.178925028070808">
        <ele>106.84</ele>
        <time>2019-08-30T07:53:20Z</time>
      </trkpt>
      <trkpt lat="50.947976019233465" lon="6.176557978615165">
        <ele>109.25</ele>
        <time>2019-08-30T07:53:27Z</time>
      </trkpt>
      <trkpt lat="50.947592966258526" lon="6.174126975238323">
        <ele>109.73</ele>
        <time>2019-08-30T07:53:36Z</time>
      </trkpt>
      <trkpt lat="50.947534963488579" lon="6.173458015546203">
        <ele>109.73</ele>
        <time>2019-08-30T07:53:38Z</time>
      </trkpt>
      <trkpt lat="50.947681982070208" lon="6.170546980574727">
        <ele>109.73</ele>
        <time>2019-08-30T07:53:46Z</time>
      </trkpt>
      <trkpt lat="50.948162013664842" lon="6.168462987989187">
        <ele>109.73</ele>
        <time>2019-08-30T07:53:53Z</time>
      </trkpt>
      <trkpt lat="50.948262009769678" lon="6.168180014938116">
        <ele>110.20999999999999</ele>
        <time>2019-08-30T07:53:55Z</time>
      </trkpt>
      <trkpt lat="50.949465986341238" lon="6.165888989344239">
        <ele>110.20999999999999</ele>
        <time>2019-08-30T07:54:03Z</time>
      </trkpt>
      <trkpt lat="50.951300030574203" lon="6.163058001548052">
        <ele>111.65000000000001</ele>
        <time>2019-08-30T07:54:14Z</time>
      </trkpt>
      <trkpt lat="50.952739035710692" lon="6.160306977108121">
        <ele>114.05</ele>
        <time>2019-08-30T07:54:23Z</time>
      </trkpt>
      <trkpt lat="50.953414030373096" lon="6.158510986715555">
        <ele>113.56999999999999</ele>
        <time>2019-08-30T07:54:29Z</time>
      </trkpt>
      <trkpt lat="50.954147027805448" lon="6.155539015308023">
        <ele>113.09</ele>
        <time>2019-08-30T07:54:39Z</time>
      </trkpt>
      <trkpt lat="50.954489009454846" lon="6.152815986424685">
        <ele>112.61</ele>
        <time>2019-08-30T07:54:47Z</time>
      </trkpt>
      <trkpt lat="50.954527985304594" lon="6.149255018681288">
        <ele>113.56999999999999</ele>
        <time>2019-08-30T07:54:56Z</time>
      </trkpt>
      <trkpt lat="50.954053988680243" lon="6.144918976351619">
        <ele>112.13</ele>
        <time>2019-08-30T07:55:07Z</time>
      </trkpt>
      <trkpt lat="50.953321997076273" lon="6.139434026554227">
        <ele>109.73</ele>
        <time>2019-08-30T07:55:21Z</time>
      </trkpt>
      <trkpt lat="50.952767031267285" lon="6.135182976722717">
        <ele>107.81</ele>
        <time>2019-08-30T07:55:32Z</time>
      </trkpt>
      <trkpt lat="50.952500989660621" lon="6.132994964718819">
        <ele>107.31999999999999</ele>
        <time>2019-08-30T07:55:39Z</time>
      </trkpt>
      <trkpt lat="50.95213302411139" lon="6.129826018586755">
        <ele>105.88</ele>
        <time>2019-08-30T07:55:49Z</time>
      </trkpt>
      <trkpt lat="50.952107040211558" lon="6.129458975046873">
        <ele>105.88</ele>
        <time>2019-08-30T07:55:50Z</time>
      </trkpt>
      <trkpt lat="50.951801016926765" lon="6.125187976285815">
        <ele>103.48</ele>
        <time>2019-08-30T07:56:01Z</time>
      </trkpt>
      <trkpt lat="50.951850973069668" lon="6.121258959174156">
        <ele>102.04000000000001</ele>
        <time>2019-08-30T07:56:11Z</time>
      </trkpt>
      <trkpt lat="50.952036967501044" lon="6.118736006319523">
        <ele>99.150000000000006</ele>
        <time>2019-08-30T07:56:19Z</time>
      </trkpt>
      <trkpt lat="50.952339973300695" lon="6.116217998787761">
        <ele>93.390000000000001</ele>
        <time>2019-08-30T07:56:28Z</time>
      </trkpt>
      <trkpt lat="50.953010022640228" lon="6.112675974145532">
        <ele>87.620000000000005</ele>
        <time>2019-08-30T07:56:40Z</time>
      </trkpt>
      <trkpt lat="50.953616034239531" lon="6.11035100184381">
        <ele>84.730000000000004</ele>
        <time>2019-08-30T07:56:47Z</time>
      </trkpt>
      <trkpt lat="50.955001981928945" lon="6.106135994195938">
        <ele>84.730000000000004</ele>
        <time>2019-08-30T07:56:59Z</time>
      </trkpt>
      <trkpt lat="50.955788036808372" lon="6.104207988828421">
        <ele>88.579999999999998</ele>
        <time>2019-08-30T07:57:06Z</time>
      </trkpt>
      <trkpt lat="50.957123022526503" lon="6.10130500048399">
        <ele>95.790000000000006</ele>
        <time>2019-08-30T07:57:18Z</time>
      </trkpt>
      <trkpt lat="50.957238022238016" lon="6.101086987182498">
        <ele>96.75</ele>
        <time>2019-08-30T07:57:19Z</time>
      </trkpt>
      <trkpt lat="50.957342041656375" lon="6.100877020508051">
        <ele>97.230000000000004</ele>
        <time>2019-08-30T07:57:20Z</time>
      </trkpt>
      <trkpt lat="50.957446983084083" lon="6.100678034126759">
        <ele>98.189999999999998</ele>
        <time>2019-08-30T07:57:21Z</time>
      </trkpt>
      <trkpt lat="50.95913702622056" lon="6.097645964473486">
        <ele>104.92</ele>
        <time>2019-08-30T07:57:36Z</time>
      </trkpt>
      <trkpt lat="50.961056984961033" lon="6.094725960865617">
        <ele>108.29000000000001</ele>
        <time>2019-08-30T07:57:50Z</time>
      </trkpt>
      <trkpt lat="50.962331034243107" lon="6.093066008761525">
        <ele>107.81</ele>
        <time>2019-08-30T07:57:57Z</time>
      </trkpt>
      <trkpt lat="50.964782992377877" lon="6.090267039835453">
        <ele>105.40000000000001</ele>
        <time>2019-08-30T07:58:09Z</time>
      </trkpt>
      <trkpt lat="50.966848041862249" lon="6.088755028322339">
        <ele>103.48</ele>
        <time>2019-08-30T07:58:18Z</time>
      </trkpt>
      <trkpt lat="50.968751991167665" lon="6.088152034208179">
        <ele>100.59999999999999</ele>
        <time>2019-08-30T07:58:25Z</time>
      </trkpt>
      <trkpt lat="50.970397023484111" lon="6.088253958150744">
        <ele>100.59999999999999</ele>
        <time>2019-08-30T07:58:31Z</time>
      </trkpt>
      <trkpt lat="50.972016993910074" lon="6.088981004431844">
        <ele>101.08</ele>
        <time>2019-08-30T07:58:38Z</time>
      </trkpt>
      <trkpt lat="50.973180988803506" lon="6.089921034872532">
        <ele>101.56</ele>
        <time>2019-08-30T07:58:45Z</time>
      </trkpt>
      <trkpt lat="50.974977985024452" lon="6.091960016638041">
        <ele>101.08</ele>
        <time>2019-08-30T07:58:58Z</time>
      </trkpt>
      <trkpt lat="50.976172992959619" lon="6.093372032046318">
        <ele>97.230000000000004</ele>
        <time>2019-08-30T07:59:05Z</time>
      </trkpt>
      <trkpt lat="50.978160006925464" lon="6.09535401687026">
        <ele>97.230000000000004</ele>
        <time>2019-08-30T07:59:15Z</time>
      </trkpt>
      <trkpt lat="50.980559997260571" lon="6.096936017274857">
        <ele>98.189999999999998</ele>
        <time>2019-08-30T07:59:26Z</time>
      </trkpt>
      <trkpt lat="50.983349997550249" lon="6.097995992749929">
        <ele>96.269999999999996</ele>
        <time>2019-08-30T07:59:38Z</time>
      </trkpt>
      <trkpt lat="50.986369997262955" lon="6.098943985998631">
        <ele>91.939999999999998</ele>
        <time>2019-08-30T07:59:51Z</time>
      </trkpt>
      <trkpt lat="50.988821033388376" lon="6.100105969235301">
        <ele>88.579999999999998</ele>
        <time>2019-08-30T08:00:02Z</time>
      </trkpt>
      <trkpt lat="50.990330027416348" lon="6.101336013525724">
        <ele>87.620000000000005</ele>
        <time>2019-08-30T08:00:10Z</time>
      </trkpt>
      <trkpt lat="50.991655038669705" lon="6.102913990616798">
        <ele>85.689999999999998</ele>
        <time>2019-08-30T08:00:17Z</time>
      </trkpt>
      <trkpt lat="50.992872007191181" lon="6.105217002332211">
        <ele>84.730000000000004</ele>
        <time>2019-08-30T08:00:25Z</time>
      </trkpt>
      <trkpt lat="50.993710029870272" lon="6.107916980981827">
        <ele>85.209999999999994</ele>
        <time>2019-08-30T08:00:33Z</time>
      </trkpt>
      <trkpt lat="50.994186038151383" lon="6.110808989033103">
        <ele>85.209999999999994</ele>
        <time>2019-08-30T08:00:41Z</time>
      </trkpt>
      <trkpt lat="50.994831025600433" lon="6.114791985601187">
        <ele>88.579999999999998</ele>
        <time>2019-08-30T08:00:52Z</time>
      </trkpt>
      <trkpt lat="50.995509037747979" lon="6.116593005135655">
        <ele>89.060000000000002</ele>
        <time>2019-08-30T08:00:58Z</time>
      </trkpt>
      <trkpt lat="50.996623998507857" lon="6.118129994720221">
        <ele>88.099999999999994</ele>
        <time>2019-08-30T08:01:06Z</time>
      </trkpt>
      <trkpt lat="50.997816994786263" lon="6.118985032662749">
        <ele>87.140000000000001</ele>
        <time>2019-08-30T08:01:14Z</time>
      </trkpt>
      <trkpt lat="50.999504020437598" lon="6.119374958798289">
        <ele>88.099999999999994</ele>
        <time>2019-08-30T08:01:24Z</time>
      </trkpt>
      <trkpt lat="51.001200014725327" lon="6.119404966011643">
        <ele>87.140000000000001</ele>
        <time>2019-08-30T08:01:34Z</time>
      </trkpt>
      <trkpt lat="51.003959001973271" lon="6.119403960183263">
        <ele>87.620000000000005</ele>
        <time>2019-08-30T08:01:47Z</time>
      </trkpt>
      <trkpt lat="51.007022000849247" lon="6.119177984073758">
        <ele>81.370000000000005</ele>
        <time>2019-08-30T08:02:00Z</time>
      </trkpt>
      <trkpt lat="51.00915502756834" lon="6.118446998298168">
        <ele>78.969999999999999</ele>
        <time>2019-08-30T08:02:10Z</time>
      </trkpt>
      <trkpt lat="51.011458961293101" lon="6.117345029488206">
        <ele>77.519999999999996</ele>
        <time>2019-08-30T08:02:21Z</time>
      </trkpt>
      <trkpt lat="51.012724963948131" lon="6.11673197709024">
        <ele>77.040000000000006</ele>
        <time>2019-08-30T08:02:29Z</time>
      </trkpt>
      <trkpt lat="51.014601001515985" lon="6.115800999104977">
        <ele>73.680000000000007</ele>
        <time>2019-08-30T08:02:41Z</time>
      </trkpt>
      <trkpt lat="51.016616011038423" lon="6.114830039441586">
        <ele>69.829999999999998</ele>
        <time>2019-08-30T08:02:53Z</time>
      </trkpt>
      <trkpt lat="51.018568994477391" lon="6.113866958767176">
        <ele>73.200000000000003</ele>
        <time>2019-08-30T08:03:05Z</time>
      </trkpt>
      <trkpt lat="51.020317040383816" lon="6.113018039613962">
        <ele>74.640000000000001</ele>
        <time>2019-08-30T08:03:15Z</time>
      </trkpt>
      <trkpt lat="51.022264994680882" lon="6.112227961421013">
        <ele>73.680000000000007</ele>
        <time>2019-08-30T08:03:28Z</time>
      </trkpt>
      <trkpt lat="51.023394037038088" lon="6.111757988110185">
        <ele>69.829999999999998</ele>
        <time>2019-08-30T08:03:38Z</time>
      </trkpt>
      <trkpt lat="51.023469977080822" lon="6.111734015867114">
        <ele>69.349999999999994</ele>
        <time>2019-08-30T08:03:39Z</time>
      </trkpt>
      <trkpt lat="51.024060985073447" lon="6.111650029197335">
        <ele>70.790000000000006</ele>
        <time>2019-08-30T08:03:46Z</time>
      </trkpt>
      <trkpt lat="51.024133991450071" lon="6.111679030582309">
        <ele>71.760000000000005</ele>
        <time>2019-08-30T08:03:48Z</time>
      </trkpt>
      <trkpt lat="51.024305988103151" lon="6.111746001988649">
        <ele>72.239999999999995</ele>
        <time>2019-08-30T08:03:50Z</time>
      </trkpt>
      <trkpt lat="51.024387963116169" lon="6.111989999189973">
        <ele>72.239999999999995</ele>
        <time>2019-08-30T08:03:51Z</time>
      </trkpt>
      <trkpt lat="51.024435991421342" lon="6.11213400028646">
        <ele>71.760000000000005</ele>
        <time>2019-08-30T08:03:52Z</time>
      </trkpt>
      <trkpt lat="51.024487037211657" lon="6.112286970019341">
        <ele>71.760000000000005</ele>
        <time>2019-08-30T08:03:53Z</time>
      </trkpt>
      <trkpt lat="51.024542022496462" lon="6.112463995814323">
        <ele>71.760000000000005</ele>
        <time>2019-08-30T08:03:54Z</time>
      </trkpt>
      <trkpt lat="51.024542022496462" lon="6.112644961103797">
        <ele>71.269999999999996</ele>
        <time>2019-08-30T08:03:55Z</time>
      </trkpt>
      <trkpt lat="51.024516960605979" lon="6.112837996333838">
        <ele>71.269999999999996</ele>
        <time>2019-08-30T08:03:56Z</time>
      </trkpt>
      <trkpt lat="51.024469016119838" lon="6.112998006865382">
        <ele>71.269999999999996</ele>
        <time>2019-08-30T08:03:57Z</time>
      </trkpt>
      <trkpt lat="51.024406990036368" lon="6.113189030438662">
        <ele>70.790000000000006</ele>
        <time>2019-08-30T08:03:59Z</time>
      </trkpt>
      <trkpt lat="51.024214960634708" lon="6.113363960757852">
        <ele>71.269999999999996</ele>
        <time>2019-08-30T08:04:00Z</time>
      </trkpt>
      <trkpt lat="51.024090992286801" lon="6.113390028476715">
        <ele>71.269999999999996</ele>
        <time>2019-08-30T08:04:01Z</time>
      </trkpt>
      <trkpt lat="51.023981021717191" lon="6.113379970192909">
        <ele>71.760000000000005</ele>
        <time>2019-08-30T08:04:02Z</time>
      </trkpt>
      <trkpt lat="51.023877002298832" lon="6.113319033756852">
        <ele>72.239999999999995</ele>
        <time>2019-08-30T08:04:03Z</time>
      </trkpt>
      <trkpt lat="51.023784969002008" lon="6.113235969096422">
        <ele>72.719999999999999</ele>
        <time>2019-08-30T08:04:04Z</time>
      </trkpt>
      <trkpt lat="51.023709028959274" lon="6.113128010183573">
        <ele>72.719999999999999</ele>
        <time>2019-08-30T08:04:05Z</time>
      </trkpt>
      <trkpt lat="51.02365798316896" lon="6.112976968288422">
        <ele>73.200000000000003</ele>
        <time>2019-08-30T08:04:06Z</time>
      </trkpt>
      <trkpt lat="51.023605009540915" lon="6.112817041575909">
        <ele>73.680000000000007</ele>
        <time>2019-08-30T08:04:07Z</time>
      </trkpt>
      <trkpt lat="51.02355002425611" lon="6.112653007730842">
        <ele>74.159999999999997</ele>
        <time>2019-08-30T08:04:08Z</time>
      </trkpt>
      <trkpt lat="51.023494033142924" lon="6.112485034391284">
        <ele>74.159999999999997</ele>
        <time>2019-08-30T08:04:09Z</time>
      </trkpt>
      <trkpt lat="51.023241989314556" lon="6.110510006546974">
        <ele>77.040000000000006</ele>
        <time>2019-08-30T08:04:17Z</time>
      </trkpt>
      <trkpt lat="51.02286396548152" lon="6.107309963554144">
        <ele>77.519999999999996</ele>
        <time>2019-08-30T08:04:27Z</time>
      </trkpt>
      <trkpt lat="51.022542016580701" lon="6.10250998288393">
        <ele>76.079999999999998</ele>
        <time>2019-08-30T08:04:40Z</time>
      </trkpt>
      <trkpt lat="51.022478984668851" lon="6.096872985363007">
        <ele>72.719999999999999</ele>
        <time>2019-08-30T08:04:55Z</time>
      </trkpt>
      <trkpt lat="51.022994974628091" lon="6.093588033691049">
        <ele>71.269999999999996</ele>
        <time>2019-08-30T08:05:04Z</time>
      </trkpt>
      <trkpt lat="51.023757979273796" lon="6.088475994765759">
        <ele>68.870000000000005</ele>
        <time>2019-08-30T08:05:18Z</time>
      </trkpt>
      <trkpt lat="51.023710034787655" lon="6.085107978433371">
        <ele>68.390000000000001</ele>
        <time>2019-08-30T08:05:27Z</time>
      </trkpt>
      <trkpt lat="51.023187004029751" lon="6.081842975690961">
        <ele>71.269999999999996</ele>
        <time>2019-08-30T08:05:36Z</time>
      </trkpt>
      <trkpt lat="51.022360967472196" lon="6.078199027106166">
        <ele>75.599999999999994</ele>
        <time>2019-08-30T08:05:46Z</time>
      </trkpt>
      <trkpt lat="51.021596034988761" lon="6.074530016630888">
        <ele>77.040000000000006</ele>
        <time>2019-08-30T08:05:57Z</time>
      </trkpt>
      <trkpt lat="51.020851973444223" lon="6.070036981254816">
        <ele>76.079999999999998</ele>
        <time>2019-08-30T08:06:11Z</time>
      </trkpt>
      <trkpt lat="51.020268006250262" lon="6.065996987745166">
        <ele>76.079999999999998</ele>
        <time>2019-08-30T08:06:24Z</time>
      </trkpt>
      <trkpt lat="51.01977095939219" lon="6.061723977327347">
        <ele>78.480000000000004</ele>
        <time>2019-08-30T08:06:38Z</time>
      </trkpt>
      <trkpt lat="51.0194699652493" lon="6.059040008112788">
        <ele>79.930000000000007</ele>
        <time>2019-08-30T08:06:46Z</time>
      </trkpt>
      <trkpt lat="51.019310960546136" lon="6.057949019595981">
        <ele>79.930000000000007</ele>
        <time>2019-08-30T08:06:49Z</time>
      </trkpt>
      <trkpt lat="51.019242983311415" lon="6.057590022683144">
        <ele>79.450000000000003</ele>
        <time>2019-08-30T08:06:50Z</time>
      </trkpt>
      <trkpt lat="51.018400015309453" lon="6.053689001128078">
        <ele>78</ele>
        <time>2019-08-30T08:07:01Z</time>
      </trkpt>
      <trkpt lat="51.017229985445738" lon="6.049971040338278">
        <ele>76.079999999999998</ele>
        <time>2019-08-30T08:07:12Z</time>
      </trkpt>
      <trkpt lat="51.015658965334296" lon="6.045979997143149">
        <ele>70.790000000000006</ele>
        <time>2019-08-30T08:07:24Z</time>
      </trkpt>
      <trkpt lat="51.013521999120712" lon="6.041623000055552">
        <ele>62.619999999999997</ele>
        <time>2019-08-30T08:07:38Z</time>
      </trkpt>
      <trkpt lat="51.013204995542765" lon="6.041002990677953">
        <ele>61.18</ele>
        <time>2019-08-30T08:07:40Z</time>
      </trkpt>
      <trkpt lat="51.011524004861712" lon="6.037249993532896">
        <ele>60.219999999999999</ele>
        <time>2019-08-30T08:07:52Z</time>
      </trkpt>
      <trkpt lat="51.010432010516524" lon="6.033324999734759">
        <ele>64.549999999999997</ele>
        <time>2019-08-30T08:08:03Z</time>
      </trkpt>
      <trkpt lat="51.009921971708536" lon="6.029482986778021">
        <ele>67.909999999999997</ele>
        <time>2019-08-30T08:08:13Z</time>
      </trkpt>
      <trkpt lat="51.009901016950607" lon="6.025552963837981">
        <ele>69.829999999999998</ele>
        <time>2019-08-30T08:08:23Z</time>
      </trkpt>
      <trkpt lat="51.010382976382971" lon="6.021318007260561">
        <ele>71.269999999999996</ele>
        <time>2019-08-30T08:08:34Z</time>
      </trkpt>
      <trkpt lat="51.011555017903447" lon="6.014086017385125">
        <ele>76.079999999999998</ele>
        <time>2019-08-30T08:08:53Z</time>
      </trkpt>
      <trkpt lat="51.012595966458321" lon="6.007207995280623">
        <ele>76.560000000000002</ele>
        <time>2019-08-30T08:09:11Z</time>
      </trkpt>
      <trkpt lat="51.013632975518703" lon="5.999928982928395">
        <ele>70.310000000000002</ele>
        <time>2019-08-30T08:09:30Z</time>
      </trkpt>
      <trkpt lat="51.014536041766405" lon="5.993847995996475">
        <ele>70.790000000000006</ele>
        <time>2019-08-30T08:09:46Z</time>
      </trkpt>
      <trkpt lat="51.015292005613446" lon="5.988495983183384">
        <ele>72.719999999999999</ele>
        <time>2019-08-30T08:10:00Z</time>
      </trkpt>
      <trkpt lat="51.015660976991057" lon="5.984233031049371">
        <ele>72.719999999999999</ele>
        <time>2019-08-30T08:10:11Z</time>
      </trkpt>
      <trkpt lat="51.015641028061509" lon="5.979944011196494">
        <ele>74.159999999999997</ele>
        <time>2019-08-30T08:10:22Z</time>
      </trkpt>
      <trkpt lat="51.015221010893583" lon="5.974878994747996">
        <ele>74.159999999999997</ele>
        <time>2019-08-30T08:10:35Z</time>
      </trkpt>
      <trkpt lat="51.014275029301643" lon="5.968760959804058">
        <ele>68.870000000000005</ele>
        <time>2019-08-30T08:10:51Z</time>
      </trkpt>
      <trkpt lat="51.013301974162459" lon="5.961861982941628">
        <ele>63.579999999999998</ele>
        <time>2019-08-30T08:11:09Z</time>
      </trkpt>
      <trkpt lat="51.012900983914733" lon="5.956433024257422">
        <ele>62.140000000000001</ele>
        <time>2019-08-30T08:11:23Z</time>
      </trkpt>
      <trkpt lat="51.012801993638277" lon="5.95215599052608">
        <ele>65.030000000000001</ele>
        <time>2019-08-30T08:11:35Z</time>
      </trkpt>
      <trkpt lat="51.012848010286689" lon="5.947073958814144">
        <ele>69.829999999999998</ele>
        <time>2019-08-30T08:11:48Z</time>
      </trkpt>
      <trkpt lat="51.013101981952786" lon="5.94117502681911">
        <ele>68.870000000000005</ele>
        <time>2019-08-30T08:12:03Z</time>
      </trkpt>
      <trkpt lat="51.013567009940743" lon="5.936138005927205">
        <ele>64.069999999999993</ele>
        <time>2019-08-30T08:12:16Z</time>
      </trkpt>
      <trkpt lat="51.014291038736701" lon="5.931191006675363">
        <ele>59.740000000000002</ele>
        <time>2019-08-30T08:12:28Z</time>
      </trkpt>
      <trkpt lat="51.015246994793415" lon="5.92630603350699">
        <ele>55.890000000000001</ele>
        <time>2019-08-30T08:12:41Z</time>
      </trkpt>
      <trkpt lat="51.016220971941948" lon="5.922280959784985">
        <ele>52.530000000000001</ele>
        <time>2019-08-30T08:12:52Z</time>
      </trkpt>
      <trkpt lat="51.016726987436414" lon="5.920544983819127">
        <ele>51.090000000000003</ele>
        <time>2019-08-30T08:12:58Z</time>
      </trkpt>
      <trkpt lat="51.01734003983438" lon="5.918808002024889">
        <ele>50.609999999999999</ele>
        <time>2019-08-30T08:13:07Z</time>
      </trkpt>
      <trkpt lat="51.01742796599865" lon="5.918665006756783">
        <ele>50.609999999999999</ele>
        <time>2019-08-30T08:13:08Z</time>
      </trkpt>
      <trkpt lat="51.017616977915168" lon="5.918516982346773">
        <ele>50.609999999999999</ele>
        <time>2019-08-30T08:13:09Z</time>
      </trkpt>
      <trkpt lat="51.017734995111823" lon="5.918490998446941">
        <ele>50.130000000000003</ele>
        <time>2019-08-30T08:13:10Z</time>
      </trkpt>
      <trkpt lat="51.017971029505134" lon="5.918440958485007">
        <ele>50.609999999999999</ele>
        <time>2019-08-30T08:13:12Z</time>
      </trkpt>
      <trkpt lat="51.018085023388267" lon="5.918416986241937">
        <ele>50.609999999999999</ele>
        <time>2019-08-30T08:13:13Z</time>
      </trkpt>
      <trkpt lat="51.018188958987594" lon="5.918323025107384">
        <ele>51.090000000000003</ele>
        <time>2019-08-30T08:13:14Z</time>
      </trkpt>
      <trkpt lat="51.018284009769559" lon="5.918223029002547">
        <ele>51.57</ele>
        <time>2019-08-30T08:13:15Z</time>
      </trkpt>
      <trkpt lat="51.018373025581241" lon="5.918128984048963">
        <ele>52.049999999999997</ele>
        <time>2019-08-30T08:13:16Z</time>
      </trkpt>
      <trkpt lat="51.018783990293741" lon="5.917666973546147">
        <ele>53.490000000000002</ele>
        <time>2019-08-30T08:13:22Z</time>
      </trkpt>
      <trkpt lat="51.018820032477379" lon="5.917626991868019">
        <ele>53.490000000000002</ele>
        <time>2019-08-30T08:13:23Z</time>
      </trkpt>
      <trkpt lat="51.0188880097121" lon="5.917554991319776">
        <ele>53.009999999999998</ele>
        <time>2019-08-30T08:13:31Z</time>
      </trkpt>
      <trkpt lat="51.0188880097121" lon="5.917554991319776">
        <ele>53.009999999999998</ele>
        <time>2019-08-30T08:14:11Z</time>
      </trkpt>
      <trkpt lat="51.018922962248325" lon="5.917518027126789">
        <ele>53.009999999999998</ele>
        <time>2019-08-30T08:14:19Z</time>
      </trkpt>
      <trkpt lat="51.018963027745485" lon="5.917474022135139">
        <ele>52.530000000000001</ele>
        <time>2019-08-30T08:14:20Z</time>
      </trkpt>
      <trkpt lat="51.019022036343813" lon="5.917321974411607">
        <ele>52.049999999999997</ele>
        <time>2019-08-30T08:14:22Z</time>
      </trkpt>
      <trkpt lat="51.018984988331795" lon="5.917237987741828">
        <ele>52.049999999999997</ele>
        <time>2019-08-30T08:14:23Z</time>
      </trkpt>
      <trkpt lat="51.018747026100755" lon="5.916668018326163">
        <ele>52.530000000000001</ele>
        <time>2019-08-30T08:14:27Z</time>
      </trkpt>
      <trkpt lat="51.018130034208298" lon="5.914891976863146">
        <ele>53.969999999999999</ele>
        <time>2019-08-30T08:14:35Z</time>
      </trkpt>
      <trkpt lat="51.017784029245377" lon="5.913642989471555">
        <ele>51.090000000000003</ele>
        <time>2019-08-30T08:14:41Z</time>
      </trkpt>
      <trkpt lat="51.017714040353894" lon="5.91339698061347">
        <ele>50.130000000000003</ele>
        <time>2019-08-30T08:14:44Z</time>
      </trkpt>
      <trkpt lat="51.017458979040384" lon="5.912503972649574">
        <ele>48.200000000000003</ele>
        <time>2019-08-30T08:14:50Z</time>
      </trkpt>
      <trkpt lat="51.016621962189674" lon="5.910557024180889">
        <ele>48.200000000000003</ele>
        <time>2019-08-30T08:14:58Z</time>
      </trkpt>
      <trkpt lat="51.01579399779439" lon="5.908892964944243">
        <ele>48.68</ele>
        <time>2019-08-30T08:15:06Z</time>
      </trkpt>
      <trkpt lat="51.01557900197804" lon="5.908460961654782">
        <ele>48.68</ele>
        <time>2019-08-30T08:15:09Z</time>
      </trkpt>
      <trkpt lat="51.015574978664517" lon="5.908301034942269">
        <ele>48.68</ele>
        <time>2019-08-30T08:15:10Z</time>
      </trkpt>
      <trkpt lat="51.015581013634801" lon="5.908185029402375">
        <ele>48.200000000000003</ele>
        <time>2019-08-30T08:15:11Z</time>
      </trkpt>
      <trkpt lat="51.015614960342646" lon="5.907971039414406">
        <ele>47.719999999999999</ele>
        <time>2019-08-30T08:15:12Z</time>
      </trkpt>
      <trkpt lat="51.015672963112593" lon="5.907873976975679">
        <ele>47.719999999999999</ele>
        <time>2019-08-30T08:15:13Z</time>
      </trkpt>
      <trkpt lat="51.015755021944642" lon="5.907765012234449">
        <ele>47.240000000000002</ele>
        <time>2019-08-30T08:15:15Z</time>
      </trkpt>
      <trkpt lat="51.016805022954941" lon="5.906794974580407">
        <ele>47.240000000000002</ele>
        <time>2019-08-30T08:15:22Z</time>
      </trkpt>
      <trkpt lat="51.017817975953221" lon="5.905255973339081">
        <ele>47.240000000000002</ele>
        <time>2019-08-30T08:15:29Z</time>
      </trkpt>
      <trkpt lat="51.018465980887413" lon="5.903567019850016">
        <ele>48.200000000000003</ele>
        <time>2019-08-30T08:15:37Z</time>
      </trkpt>
      <trkpt lat="51.018639989197254" lon="5.902925971895456">
        <ele>48.68</ele>
        <time>2019-08-30T08:15:41Z</time>
      </trkpt>
      <trkpt lat="51.01867301389575" lon="5.90280401520431">
        <ele>48.68</ele>
        <time>2019-08-30T08:15:42Z</time>
      </trkpt>
      <trkpt lat="51.018835036084056" lon="5.902683986350894">
        <ele>48.68</ele>
        <time>2019-08-30T08:15:43Z</time>
      </trkpt>
      <trkpt lat="51.018928997218609" lon="5.90254602022469">
        <ele>48.200000000000003</ele>
        <time>2019-08-30T08:15:45Z</time>
      </trkpt>
      <trkpt lat="51.019018013030291" lon="5.902566974982619">
        <ele>48.200000000000003</ele>
        <time>2019-08-30T08:15:46Z</time>
      </trkpt>
      <trkpt lat="51.019982015714049" lon="5.902819018810988">
        <ele>48.200000000000003</ele>
        <time>2019-08-30T08:15:53Z</time>
      </trkpt>
      <trkpt lat="51.022115964442492" lon="5.903330985456705">
        <ele>47.240000000000002</ele>
        <time>2019-08-30T08:16:02Z</time>
      </trkpt>
      <trkpt lat="51.024791970849037" lon="5.904032969847322">
        <ele>46.280000000000001</ele>
        <time>2019-08-30T08:16:14Z</time>
      </trkpt>
      <trkpt lat="51.028902037069201" lon="5.90540299192071">
        <ele>43.399999999999999</ele>
        <time>2019-08-30T08:16:31Z</time>
      </trkpt>
      <trkpt lat="51.031333040446043" lon="5.906879967078567">
        <ele>41.950000000000003</ele>
        <time>2019-08-30T08:16:42Z</time>
      </trkpt>
      <trkpt lat="51.032329984009266" lon="5.907681025564671">
        <ele>40.990000000000002</ele>
        <time>2019-08-30T08:16:48Z</time>
      </trkpt>
      <trkpt lat="51.032873969525099" lon="5.908203972503543">
        <ele>40.030000000000001</ele>
        <time>2019-08-30T08:16:55Z</time>
      </trkpt>
      <trkpt lat="51.032910011708736" lon="5.908240014687181">
        <ele>40.030000000000001</ele>
        <time>2019-08-30T08:16:57Z</time>
      </trkpt>
      <trkpt lat="51.033010007813573" lon="5.908189974725246">
        <ele>40.030000000000001</ele>
        <time>2019-08-30T08:16:58Z</time>
      </trkpt>
      <trkpt lat="51.033035991713405" lon="5.908103976398706">
        <ele>40.030000000000001</ele>
        <time>2019-08-30T08:16:59Z</time>
      </trkpt>
      <trkpt lat="51.033097011968493" lon="5.907902978360653">
        <ele>39.549999999999997</ele>
        <time>2019-08-30T08:17:01Z</time>
      </trkpt>
      <trkpt lat="51.033130036666989" lon="5.907795019447804">
        <ele>39.549999999999997</ele>
        <time>2019-08-30T08:17:02Z</time>
      </trkpt>
      <trkpt lat="51.033447962254286" lon="5.906636975705624">
        <ele>38.590000000000003</ele>
        <time>2019-08-30T08:17:13Z</time>
      </trkpt>
      <trkpt lat="51.033469000831246" lon="5.906512001529336">
        <ele>38.590000000000003</ele>
        <time>2019-08-30T08:17:14Z</time>
      </trkpt>
      <trkpt lat="51.033490961417556" lon="5.906385015696287">
        <ele>38.590000000000003</ele>
        <time>2019-08-30T08:17:15Z</time>
      </trkpt>
      <trkpt lat="51.033543013036251" lon="5.905537018552423">
        <ele>38.109999999999999</ele>
        <time>2019-08-30T08:17:21Z</time>
      </trkpt>
      <trkpt lat="51.033516023308039" lon="5.905066961422563">
        <ele>38.109999999999999</ele>
        <time>2019-08-30T08:17:24Z</time>
      </trkpt>
      <trkpt lat="51.033531026914716" lon="5.904344022274017">
        <ele>39.07</ele>
        <time>2019-08-30T08:17:28Z</time>
      </trkpt>
      <trkpt lat="51.033503031358123" lon="5.904203038662672">
        <ele>39.07</ele>
        <time>2019-08-30T08:17:29Z</time>
      </trkpt>
      <trkpt lat="51.033289963379502" lon="5.903023034334183">
        <ele>40.030000000000001</ele>
        <time>2019-08-30T08:17:37Z</time>
      </trkpt>
      <trkpt lat="51.033265991136432" lon="5.902853971347213">
        <ele>40.509999999999998</ele>
        <time>2019-08-30T08:17:38Z</time>
      </trkpt>
      <trkpt lat="51.033260961994529" lon="5.902683986350894">
        <ele>40.509999999999998</ele>
        <time>2019-08-30T08:17:39Z</time>
      </trkpt>
      <trkpt lat="51.033447040244937" lon="5.900634024292231">
        <ele>41.469999999999999</ele>
        <time>2019-08-30T08:17:48Z</time>
      </trkpt>
      <trkpt lat="51.033793967217207" lon="5.897463988512754">
        <ele>40.509999999999998</ele>
        <time>2019-08-30T08:18:00Z</time>
      </trkpt>
      <trkpt lat="51.034306017681956" lon="5.892560994252563">
        <ele>39.549999999999997</ele>
        <time>2019-08-30T08:18:16Z</time>
      </trkpt>
      <trkpt lat="51.034714970737696" lon="5.888610016554594">
        <ele>38.109999999999999</ele>
        <time>2019-08-30T08:18:29Z</time>
      </trkpt>
      <trkpt lat="51.034927032887936" lon="5.886685028672218">
        <ele>37.149999999999999</ele>
        <time>2019-08-30T08:18:37Z</time>
      </trkpt>
      <trkpt lat="51.035115038976073" lon="5.884579997509718">
        <ele>34.259999999999998</ele>
        <time>2019-08-30T08:18:46Z</time>
      </trkpt>
      <trkpt lat="51.035082014277577" lon="5.884402971714735">
        <ele>34.259999999999998</ele>
        <time>2019-08-30T08:18:47Z</time>
      </trkpt>
      <trkpt lat="51.035019988194108" lon="5.884076999500394">
        <ele>34.259999999999998</ele>
        <time>2019-08-30T08:18:51Z</time>
      </trkpt>
      <trkpt lat="51.035014037042856" lon="5.884041963145137">
        <ele>34.740000000000002</ele>
        <time>2019-08-30T08:18:58Z</time>
      </trkpt>
      <trkpt lat="51.035037003457546" lon="5.88389502838254">
        <ele>34.740000000000002</ele>
        <time>2019-08-30T08:19:00Z</time>
      </trkpt>
      <trkpt lat="51.035167006775737" lon="5.883793020620942">
        <ele>34.740000000000002</ele>
        <time>2019-08-30T08:19:01Z</time>
      </trkpt>
      <trkpt lat="51.035907967016101" lon="5.883193966001272">
        <ele>36.189999999999998</ele>
        <time>2019-08-30T08:19:07Z</time>
      </trkpt>
      <trkpt lat="51.037094006314874" lon="5.881720008328557">
        <ele>37.630000000000003</ele>
        <time>2019-08-30T08:19:15Z</time>
      </trkpt>
      <trkpt lat="51.038293037563562" lon="5.879525039345026">
        <ele>35.710000000000001</ele>
        <time>2019-08-30T08:19:25Z</time>
      </trkpt>
      <trkpt lat="51.039760038256645" lon="5.876467991620302">
        <ele>34.259999999999998</ele>
        <time>2019-08-30T08:19:38Z</time>
      </trkpt>
      <trkpt lat="51.041242964565754" lon="5.873692994937301">
        <ele>32.82</ele>
        <time>2019-08-30T08:19:51Z</time>
      </trkpt>
      <trkpt lat="51.042460016906261" lon="5.871989037841559">
        <ele>33.299999999999997</ele>
        <time>2019-08-30T08:20:00Z</time>
      </trkpt>
      <trkpt lat="51.04393900372088" lon="5.870385998860002">
        <ele>33.780000000000001</ele>
        <time>2019-08-30T08:20:10Z</time>
      </trkpt>
      <trkpt lat="51.045813029631972" lon="5.868908017873764">
        <ele>33.780000000000001</ele>
        <time>2019-08-30T08:20:21Z</time>
      </trkpt>
      <trkpt lat="51.047542970627546" lon="5.868034958839417">
        <ele>32.340000000000003</ele>
        <time>2019-08-30T08:20:31Z</time>
      </trkpt>
      <trkpt lat="51.048938976600766" lon="5.867522992193699">
        <ele>32.82</ele>
        <time>2019-08-30T08:20:40Z</time>
      </trkpt>
      <trkpt lat="51.04976300150156" lon="5.867349989712238">
        <ele>32.340000000000003</ele>
        <time>2019-08-30T08:20:47Z</time>
      </trkpt>
      <trkpt lat="51.049831984564662" lon="5.867335991933942">
        <ele>32.340000000000003</ele>
        <time>2019-08-30T08:20:48Z</time>
      </trkpt>
      <trkpt lat="51.049889987334609" lon="5.867324005812407">
        <ele>32.340000000000003</ele>
        <time>2019-08-30T08:20:49Z</time>
      </trkpt>
      <trkpt lat="51.049940027296543" lon="5.867314031347632">
        <ele>31.859999999999999</ele>
        <time>2019-08-30T08:20:50Z</time>
      </trkpt>
      <trkpt lat="51.04997799731791" lon="5.867305984720588">
        <ele>31.859999999999999</ele>
        <time>2019-08-30T08:20:51Z</time>
      </trkpt>
      <trkpt lat="51.050010016188025" lon="5.867299027740955">
        <ele>31.379999999999999</ele>
        <time>2019-08-30T08:20:52Z</time>
      </trkpt>
      <trkpt lat="51.050034994259477" lon="5.867293998599052">
        <ele>31.379999999999999</ele>
        <time>2019-08-30T08:20:53Z</time>
      </trkpt>
      <trkpt lat="51.050055027008057" lon="5.86728997528553">
        <ele>30.899999999999999</ele>
        <time>2019-08-30T08:20:54Z</time>
      </trkpt>
      <trkpt lat="51.050071036443114" lon="5.86728704161942">
        <ele>30.899999999999999</ele>
        <time>2019-08-30T08:20:55Z</time>
      </trkpt>
      <trkpt lat="51.050130967050791" lon="5.867129964753985">
        <ele>29.940000000000001</ele>
        <time>2019-08-30T08:21:07Z</time>
      </trkpt>
      <trkpt lat="51.05008402839303" lon="5.867070034146309">
        <ele>32.340000000000003</ele>
        <time>2019-08-30T08:36:05Z</time>
      </trkpt>
      <trkpt lat="51.050086040049791" lon="5.867079002782702">
        <ele>32.82</ele>
        <time>2019-08-30T08:36:58Z</time>
      </trkpt>
      <trkpt lat="51.05008302256465" lon="5.867084031924605">
        <ele>32.82</ele>
        <time>2019-08-30T08:37:51Z</time>
      </trkpt>
      <trkpt lat="51.050082016736269" lon="5.867085959762335">
        <ele>32.340000000000003</ele>
        <time>2019-08-30T08:38:35Z</time>
      </trkpt>
      <trkpt lat="51.050082016736269" lon="5.867085959762335">
        <ele>32.340000000000003</ele>
        <time>2019-08-30T08:38:38Z</time>
      </trkpt>
      <trkpt lat="51.050119986757636" lon="5.867205988615751">
        <ele>32.340000000000003</ele>
        <time>2019-08-30T08:38:54Z</time>
      </trkpt>
      <trkpt lat="51.05014999397099" lon="5.867270026355982">
        <ele>31.859999999999999</ele>
        <time>2019-08-30T08:39:04Z</time>
      </trkpt>
      <trkpt lat="51.050189975649118" lon="5.867261979728937">
        <ele>32.340000000000003</ele>
        <time>2019-08-30T08:39:05Z</time>
      </trkpt>
      <trkpt lat="51.050252001732588" lon="5.867249993607402">
        <ele>32.340000000000003</ele>
        <time>2019-08-30T08:39:06Z</time>
      </trkpt>
      <trkpt lat="51.051078960299492" lon="5.866932990029454">
        <ele>30.420000000000002</ele>
        <time>2019-08-30T08:39:17Z</time>
      </trkpt>
      <trkpt lat="51.051942966878414" lon="5.866404008120298">
        <ele>29.940000000000001</ele>
        <time>2019-08-30T08:39:32Z</time>
      </trkpt>
      <trkpt lat="51.052695997059345" lon="5.86585097014904">
        <ele>30.899999999999999</ele>
        <time>2019-08-30T08:39:39Z</time>
      </trkpt>
      <trkpt lat="51.05337199755013" lon="5.865307990461588">
        <ele>31.859999999999999</ele>
        <time>2019-08-30T08:39:46Z</time>
      </trkpt>
      <trkpt lat="51.053489008918405" lon="5.865254011005163">
        <ele>31.859999999999999</ele>
        <time>2019-08-30T08:39:47Z</time>
      </trkpt>
      <trkpt lat="51.053755972534418" lon="5.865164995193481">
        <ele>31.859999999999999</ele>
        <time>2019-08-30T08:39:49Z</time>
      </trkpt>
      <trkpt lat="51.053899973630905" lon="5.865074973553419">
        <ele>31.859999999999999</ele>
        <time>2019-08-30T08:39:50Z</time>
      </trkpt>
      <trkpt lat="51.054025031626225" lon="5.864919992163777">
        <ele>31.859999999999999</ele>
        <time>2019-08-30T08:39:51Z</time>
      </trkpt>
      <trkpt lat="51.054439013823867" lon="5.864406013861299">
        <ele>31.859999999999999</ele>
        <time>2019-08-30T08:39:54Z</time>
      </trkpt>
      <trkpt lat="51.055194977670908" lon="5.863738982006908">
        <ele>32.340000000000003</ele>
        <time>2019-08-30T08:40:00Z</time>
      </trkpt>
      <trkpt lat="51.055672997608781" lon="5.863324999809265">
        <ele>32.82</ele>
        <time>2019-08-30T08:40:06Z</time>
      </trkpt>
      <trkpt lat="51.055770982056856" lon="5.863240007311106">
        <ele>32.82</ele>
        <time>2019-08-30T08:40:08Z</time>
      </trkpt>
      <trkpt lat="51.055803000926971" lon="5.863211005926132">
        <ele>33.299999999999997</ele>
        <time>2019-08-30T08:40:09Z</time>
      </trkpt>
      <trkpt lat="51.055832002311945" lon="5.863186027854681">
        <ele>33.299999999999997</ele>
        <time>2019-08-30T08:40:10Z</time>
      </trkpt>
      <trkpt lat="51.055861003696918" lon="5.863159960135818">
        <ele>33.299999999999997</ele>
        <time>2019-08-30T08:40:11Z</time>
      </trkpt>
      <trkpt lat="51.055898973718286" lon="5.863126013427973">
        <ele>33.299999999999997</ele>
        <time>2019-08-30T08:40:12Z</time>
      </trkpt>
      <trkpt lat="51.055943984538317" lon="5.863093994557858">
        <ele>33.299999999999997</ele>
        <time>2019-08-30T08:40:13Z</time>
      </trkpt>
      <trkpt lat="51.056019002571702" lon="5.863089971244335">
        <ele>33.780000000000001</ele>
        <time>2019-08-30T08:40:14Z</time>
      </trkpt>
      <trkpt lat="51.056103995069861" lon="5.863086031749845">
        <ele>33.780000000000001</ele>
        <time>2019-08-30T08:40:15Z</time>
      </trkpt>
      <trkpt lat="51.057035978883505" lon="5.863036997616291">
        <ele>33.780000000000001</ele>
        <time>2019-08-30T08:40:23Z</time>
      </trkpt>
      <trkpt lat="51.058164015412331" lon="5.862959967926145">
        <ele>33.780000000000001</ele>
        <time>2019-08-30T08:40:33Z</time>
      </trkpt>
      <trkpt lat="51.058997008949518" lon="5.862661991268396">
        <ele>34.259999999999998</ele>
        <time>2019-08-30T08:40:44Z</time>
      </trkpt>
      <trkpt lat="51.059097005054355" lon="5.862553026527166">
        <ele>34.259999999999998</ele>
        <time>2019-08-30T08:40:46Z</time>
      </trkpt>
      <trkpt lat="51.059453990310431" lon="5.862136026844382">
        <ele>34.740000000000002</ele>
        <time>2019-08-30T08:40:54Z</time>
      </trkpt>
      <trkpt lat="51.059555998072028" lon="5.861997976899147">
        <ele>34.740000000000002</ele>
        <time>2019-08-30T08:40:56Z</time>
      </trkpt>
      <trkpt lat="51.059609977528453" lon="5.861921031028032">
        <ele>34.740000000000002</ele>
        <time>2019-08-30T08:40:57Z</time>
      </trkpt>
      <trkpt lat="51.060147006064653" lon="5.861132964491844">
        <ele>32.82</ele>
        <time>2019-08-30T08:41:06Z</time>
      </trkpt>
      <trkpt lat="51.060207020491362" lon="5.861044032499194">
        <ele>32.340000000000003</ele>
        <time>2019-08-30T08:41:07Z</time>
      </trkpt>
      <trkpt lat="51.060601975768805" lon="5.860465010628104">
        <ele>28.98</ele>
        <time>2019-08-30T08:41:13Z</time>
      </trkpt>
      <trkpt lat="51.061495989561081" lon="5.859410986304283">
        <ele>24.170000000000002</ele>
        <time>2019-08-30T08:41:25Z</time>
      </trkpt>
      <trkpt lat="51.062090015038848" lon="5.859069004654884">
        <ele>25.129999999999999</ele>
        <time>2019-08-30T08:41:32Z</time>
      </trkpt>
      <trkpt lat="51.062305010855198" lon="5.858945958316326">
        <ele>26.57</ele>
        <time>2019-08-30T08:41:35Z</time>
      </trkpt>
      <trkpt lat="51.062435014173388" lon="5.858883010223508">
        <ele>26.57</ele>
        <time>2019-08-30T08:41:37Z</time>
      </trkpt>
      <trkpt lat="51.062497962266207" lon="5.858855014666915">
        <ele>27.050000000000001</ele>
        <time>2019-08-30T08:41:38Z</time>
      </trkpt>
      <trkpt lat="51.063327016308904" lon="5.85848000831902">
        <ele>31.859999999999999</ele>
        <time>2019-08-30T08:41:50Z</time>
      </trkpt>
      <trkpt lat="51.063581993803382" lon="5.858275992795825">
        <ele>33.299999999999997</ele>
        <time>2019-08-30T08:41:54Z</time>
      </trkpt>
      <trkpt lat="51.063745021820068" lon="5.858046999201179">
        <ele>33.780000000000001</ele>
        <time>2019-08-30T08:41:57Z</time>
      </trkpt>
      <trkpt lat="51.063804030418396" lon="5.857966030016542">
        <ele>33.780000000000001</ele>
        <time>2019-08-30T08:41:58Z</time>
      </trkpt>
      <trkpt lat="51.064457986503839" lon="5.857073022052646">
        <ele>33.780000000000001</ele>
        <time>2019-08-30T08:42:10Z</time>
      </trkpt>
      <trkpt lat="51.06454499065876" lon="5.856975959613919">
        <ele>33.780000000000001</ele>
        <time>2019-08-30T08:42:12Z</time>
      </trkpt>
      <trkpt lat="51.064582038670778" lon="5.856942012906075">
        <ele>34.259999999999998</ele>
        <time>2019-08-30T08:42:13Z</time>
      </trkpt>
      <trkpt lat="51.064650015905499" lon="5.856878980994225">
        <ele>34.740000000000002</ele>
        <time>2019-08-30T08:42:21Z</time>
      </trkpt>
      <trkpt lat="51.064847996458411" lon="5.856692986562848">
        <ele>34.740000000000002</ele>
        <time>2019-08-30T08:42:30Z</time>
      </trkpt>
      <trkpt lat="51.065157037228346" lon="5.856403978541493">
        <ele>35.229999999999997</ele>
        <time>2019-08-30T08:42:41Z</time>
      </trkpt>
      <trkpt lat="51.065144967287779" lon="5.856317980214953">
        <ele>35.229999999999997</ele>
        <time>2019-08-30T08:42:42Z</time>
      </trkpt>
      <trkpt lat="51.065130969509482" lon="5.856253020465374">
        <ele>35.229999999999997</ele>
        <time>2019-08-30T08:42:43Z</time>
      </trkpt>
      <trkpt lat="51.065114038065076" lon="5.856167022138834">
        <ele>35.710000000000001</ele>
        <time>2019-08-30T08:42:44Z</time>
      </trkpt>
      <trkpt lat="51.064984034746885" lon="5.854930020868778">
        <ele>32.82</ele>
        <time>2019-08-30T08:42:55Z</time>
      </trkpt>
      <trkpt lat="51.064979005604982" lon="5.854841005057097">
        <ele>32.340000000000003</ele>
        <time>2019-08-30T08:42:56Z</time>
      </trkpt>
      <trkpt lat="51.06497498229146" lon="5.854761963710189">
        <ele>31.859999999999999</ele>
        <time>2019-08-30T08:42:57Z</time>
      </trkpt>
      <trkpt lat="51.064969031140208" lon="5.854661967605352">
        <ele>30.899999999999999</ele>
        <time>2019-08-30T08:43:00Z</time>
      </trkpt>
      <trkpt lat="51.064967019483447" lon="5.854503968730569">
        <ele>30.420000000000002</ele>
        <time>2019-08-30T08:43:01Z</time>
      </trkpt>
      <trkpt lat="51.065005995333195" lon="5.854457030072808">
        <ele>30.420000000000002</ele>
        <time>2019-08-30T08:43:02Z</time>
      </trkpt>
      <trkpt lat="51.065046982839704" lon="5.854405984282494">
        <ele>29.940000000000001</ele>
        <time>2019-08-30T08:43:03Z</time>
      </trkpt>
      <trkpt lat="51.065088976174593" lon="5.854356028139591">
        <ele>29.460000000000001</ele>
        <time>2019-08-30T08:43:04Z</time>
      </trkpt>
      <trkpt lat="51.065212022513151" lon="5.854205992072821">
        <ele>28.98</ele>
        <time>2019-08-30T08:43:07Z</time>
      </trkpt>
      <trkpt lat="51.065342025831342" lon="5.854046987369657">
        <ele>28.98</ele>
        <time>2019-08-30T08:43:15Z</time>
      </trkpt>
      <trkpt lat="51.065374966710806" lon="5.854007005691528">
        <ele>29.460000000000001</ele>
        <time>2019-08-30T08:43:23Z</time>
      </trkpt>
      <trkpt lat="51.065374966710806" lon="5.853899968788028">
        <ele>29.460000000000001</ele>
        <time>2019-08-30T08:43:24Z</time>
      </trkpt>
      <trkpt lat="51.065338002517819" lon="5.853855041787028">
        <ele>29.460000000000001</ele>
        <time>2019-08-30T08:43:25Z</time>
      </trkpt>
      <trkpt lat="51.065287962555885" lon="5.85379402153194">
        <ele>29.460000000000001</ele>
        <time>2019-08-30T08:43:26Z</time>
      </trkpt>
      <trkpt lat="51.065230965614319" lon="5.853725038468838">
        <ele>29.460000000000001</ele>
        <time>2019-08-30T08:43:27Z</time>
      </trkpt>
      <trkpt lat="51.065170029178262" lon="5.853651026263833">
        <ele>28.98</ele>
        <time>2019-08-30T08:43:28Z</time>
      </trkpt>
      <trkpt lat="51.064955033361912" lon="5.853417003527284">
        <ele>28.98</ele>
        <time>2019-08-30T08:43:31Z</time>
      </trkpt>
      <trkpt lat="51.064871968701482" lon="5.853354977443814">
        <ele>29.460000000000001</ele>
        <time>2019-08-30T08:43:32Z</time>
      </trkpt>
      <trkpt lat="51.064725033938885" lon="5.853245006874204">
        <ele>29.940000000000001</ele>
        <time>2019-08-30T08:43:34Z</time>
      </trkpt>
      <trkpt lat="51.064553037285805" lon="5.853116009384394">
        <ele>30.420000000000002</ele>
        <time>2019-08-30T08:43:37Z</time>
      </trkpt>
      <trkpt lat="51.064410964027047" lon="5.853008972480893">
        <ele>30.899999999999999</ele>
        <time>2019-08-30T08:43:40Z</time>
      </trkpt>
      <trkpt lat="51.064380034804344" lon="5.852954993024468">
        <ele>31.379999999999999</ele>
        <time>2019-08-30T08:43:41Z</time>
      </trkpt>
      <trkpt lat="51.06435002759099" lon="5.852902019396424">
        <ele>31.379999999999999</ele>
        <time>2019-08-30T08:43:42Z</time>
      </trkpt>
      <trkpt lat="51.064324965700507" lon="5.852859020233154">
        <ele>31.859999999999999</ele>
        <time>2019-08-30T08:43:43Z</time>
      </trkpt>
      <trkpt lat="51.064324965700507" lon="5.852859020233154">
        <ele>31.859999999999999</ele>
        <time>2019-08-30T08:43:44Z</time>
      </trkpt>
      <trkpt lat="51.064314991235733" lon="5.852747038006783">
        <ele>31.859999999999999</ele>
        <time>2019-08-30T08:43:45Z</time>
      </trkpt>
      <trkpt lat="51.064309040084481" lon="5.85267998278141">
        <ele>32.340000000000003</ele>
        <time>2019-08-30T08:43:46Z</time>
      </trkpt>
      <trkpt lat="51.064304010942578" lon="5.852622985839844">
        <ele>32.340000000000003</ele>
        <time>2019-08-30T08:43:47Z</time>
      </trkpt>
      <trkpt lat="51.064312979578972" lon="5.852585015818477">
        <ele>32.340000000000003</ele>
        <time>2019-08-30T08:43:48Z</time>
      </trkpt>
      <trkpt lat="51.064324965700507" lon="5.852536987513304">
        <ele>32.340000000000003</ele>
        <time>2019-08-30T08:43:49Z</time>
      </trkpt>
      <trkpt lat="51.064353967085481" lon="5.852492982521653">
        <ele>32.340000000000003</ele>
        <time>2019-08-30T08:43:50Z</time>
      </trkpt>
      <trkpt lat="51.064410964027047" lon="5.852407990023494">
        <ele>32.340000000000003</ele>
        <time>2019-08-30T08:43:51Z</time>
      </trkpt>
      <trkpt lat="51.06482301838696" lon="5.852082017809153">
        <ele>31.859999999999999</ele>
        <time>2019-08-30T08:43:58Z</time>
      </trkpt>
      <trkpt lat="51.064895018935204" lon="5.852068020030856">
        <ele>31.859999999999999</ele>
        <time>2019-08-30T08:43:59Z</time>
      </trkpt>
      <trkpt lat="51.064970036968589" lon="5.85205402225256">
        <ele>31.379999999999999</ele>
        <time>2019-08-30T08:44:00Z</time>
      </trkpt>
      <trkpt lat="51.065420983359218" lon="5.851972969248891">
        <ele>31.859999999999999</ele>
        <time>2019-08-30T08:44:06Z</time>
      </trkpt>
      <trkpt lat="51.065504970028996" lon="5.851936005055904">
        <ele>31.859999999999999</ele>
        <time>2019-08-30T08:44:07Z</time>
      </trkpt>
      <trkpt lat="51.065765982493758" lon="5.85168999619782">
        <ele>29.940000000000001</ele>
        <time>2019-08-30T08:44:11Z</time>
      </trkpt>
      <trkpt lat="51.06583203189075" lon="5.85162797011435">
        <ele>29.460000000000001</ele>
        <time>2019-08-30T08:44:12Z</time>
      </trkpt>
      <trkpt lat="51.066101007163525" lon="5.851373998448253">
        <ele>28.98</ele>
        <time>2019-08-30T08:44:16Z</time>
      </trkpt>
      <trkpt lat="51.067050006240606" lon="5.850456012412906">
        <ele>28.02</ele>
        <time>2019-08-30T08:44:30Z</time>
      </trkpt>
      <trkpt lat="51.067255027592182" lon="5.85025099106133">
        <ele>27.530000000000001</ele>
        <time>2019-08-30T08:44:33Z</time>
      </trkpt>
      <trkpt lat="51.068061031401157" lon="5.849433001130819">
        <ele>28.02</ele>
        <time>2019-08-30T08:44:46Z</time>
      </trkpt>
      <trkpt lat="51.068284995853901" lon="5.849123038351536">
        <ele>28.5</ele>
        <time>2019-08-30T08:44:54Z</time>
      </trkpt>
      <trkpt lat="51.068337969481945" lon="5.849016001448035">
        <ele>29.460000000000001</ele>
        <time>2019-08-30T08:45:01Z</time>
      </trkpt>
      <trkpt lat="51.068551959469914" lon="5.848910976201296">
        <ele>30.420000000000002</ele>
        <time>2019-08-30T08:45:09Z</time>
      </trkpt>
      <trkpt lat="51.068592024967074" lon="5.848810980096459">
        <ele>30.420000000000002</ele>
        <time>2019-08-30T08:45:10Z</time>
      </trkpt>
      <trkpt lat="51.068617003038526" lon="5.848738979548216">
        <ele>30.899999999999999</ele>
        <time>2019-08-30T08:45:11Z</time>
      </trkpt>
      <trkpt lat="51.068600993603468" lon="5.848643006756902">
        <ele>30.899999999999999</ele>
        <time>2019-08-30T08:45:12Z</time>
      </trkpt>
      <trkpt lat="51.068658996373415" lon="5.848475033417344">
        <ele>30.899999999999999</ele>
        <time>2019-08-30T08:45:13Z</time>
      </trkpt>
      <trkpt lat="51.068704007193446" lon="5.848378976806998">
        <ele>30.899999999999999</ele>
        <time>2019-08-30T08:45:14Z</time>
      </trkpt>
      <trkpt lat="51.068753963336349" lon="5.84827302955091">
        <ele>30.899999999999999</ele>
        <time>2019-08-30T08:45:15Z</time>
      </trkpt>
      <trkpt lat="51.068806014955044" lon="5.848161969333887">
        <ele>30.899999999999999</ele>
        <time>2019-08-30T08:45:16Z</time>
      </trkpt>
      <trkpt lat="51.069317981600761" lon="5.846958998590708">
        <ele>29.940000000000001</ele>
        <time>2019-08-30T08:45:24Z</time>
      </trkpt>
      <trkpt lat="51.070232028141618" lon="5.845016995444894">
        <ele>28.5</ele>
        <time>2019-08-30T08:45:36Z</time>
      </trkpt>
      <trkpt lat="51.070814989507198" lon="5.844394974410534">
        <ele>28.5</ele>
        <time>2019-08-30T08:45:41Z</time>
      </trkpt>
      <trkpt lat="51.070935018360615" lon="5.844295984134078">
        <ele>28.5</ele>
        <time>2019-08-30T08:45:42Z</time>
      </trkpt>
      <trkpt lat="51.072092978283763" lon="5.84335302002728">
        <ele>25.129999999999999</ele>
        <time>2019-08-30T08:45:52Z</time>
      </trkpt>
      <trkpt lat="51.073596021160483" lon="5.842110989615321">
        <ele>26.09</ele>
        <time>2019-08-30T08:46:05Z</time>
      </trkpt>
      <trkpt lat="51.074712993577123" lon="5.841244971379638">
        <ele>26.57</ele>
        <time>2019-08-30T08:46:12Z</time>
      </trkpt>
      <trkpt lat="51.076671006157994" lon="5.83985198289156">
        <ele>27.530000000000001</ele>
        <time>2019-08-30T08:46:23Z</time>
      </trkpt>
      <trkpt lat="51.077121030539274" lon="5.839311014860869">
        <ele>27.530000000000001</ele>
        <time>2019-08-30T08:46:26Z</time>
      </trkpt>
      <trkpt lat="51.077253967523575" lon="5.839091995730996">
        <ele>28.02</ele>
        <time>2019-08-30T08:46:27Z</time>
      </trkpt>
      <trkpt lat="51.077354969456792" lon="5.838850010186434">
        <ele>28.02</ele>
        <time>2019-08-30T08:46:28Z</time>
      </trkpt>
      <trkpt lat="51.077451026067138" lon="5.838588997721672">
        <ele>28.5</ele>
        <time>2019-08-30T08:46:29Z</time>
      </trkpt>
      <trkpt lat="51.077538030222058" lon="5.83832697942853">
        <ele>28.5</ele>
        <time>2019-08-30T08:46:30Z</time>
      </trkpt>
      <trkpt lat="51.077605001628399" lon="5.838044006377459">
        <ele>28.98</ele>
        <time>2019-08-30T08:46:31Z</time>
      </trkpt>
      <trkpt lat="51.07767297886312" lon="5.837759021669626">
        <ele>29.460000000000001</ele>
        <time>2019-08-30T08:46:32Z</time>
      </trkpt>
      <trkpt lat="51.07833799906075" lon="5.834454959258437">
        <ele>29.460000000000001</ele>
        <time>2019-08-30T08:46:44Z</time>
      </trkpt>
      <trkpt lat="51.078389966860414" lon="5.832798024639487">
        <ele>30.899999999999999</ele>
        <time>2019-08-30T08:46:51Z</time>
      </trkpt>
      <trkpt lat="51.078378986567259" lon="5.832108026370406">
        <ele>32.340000000000003</ele>
        <time>2019-08-30T08:46:57Z</time>
      </trkpt>
      <trkpt lat="51.078370017930865" lon="5.831884983927012">
        <ele>33.299999999999997</ele>
        <time>2019-08-30T08:47:07Z</time>
      </trkpt>
      <trkpt lat="51.078362977132201" lon="5.83170996978879">
        <ele>34.740000000000002</ele>
        <time>2019-08-30T08:47:26Z</time>
      </trkpt>
      <trkpt lat="51.07835803180933" lon="5.831594970077276">
        <ele>35.229999999999997</ele>
        <time>2019-08-30T08:47:27Z</time>
      </trkpt>
      <trkpt lat="51.07835803180933" lon="5.831506038084626">
        <ele>35.229999999999997</ele>
        <time>2019-08-30T08:47:28Z</time>
      </trkpt>
      <trkpt lat="51.078308997675776" lon="5.831401012837887">
        <ele>35.229999999999997</ele>
        <time>2019-08-30T08:47:29Z</time>
      </trkpt>
      <trkpt lat="51.078243032097816" lon="5.831401012837887">
        <ele>35.710000000000001</ele>
        <time>2019-08-30T08:47:30Z</time>
      </trkpt>
      <trkpt lat="51.078149992972612" lon="5.831401012837887">
        <ele>36.189999999999998</ele>
        <time>2019-08-30T08:47:31Z</time>
      </trkpt>
      <trkpt lat="51.078031975775957" lon="5.831401012837887">
        <ele>36.189999999999998</ele>
        <time>2019-08-30T08:47:32Z</time>
      </trkpt>
      <trkpt lat="51.077904989942908" lon="5.831383997574449">
        <ele>36.189999999999998</ele>
        <time>2019-08-30T08:47:33Z</time>
      </trkpt>
      <trkpt lat="51.076590036973357" lon="5.831157015636563">
        <ele>35.229999999999997</ele>
        <time>2019-08-30T08:47:41Z</time>
      </trkpt>
      <trkpt lat="51.075421012938023" lon="5.830370960757136">
        <ele>33.780000000000001</ele>
        <time>2019-08-30T08:47:48Z</time>
      </trkpt>
      <trkpt lat="51.074539991095662" lon="5.829268991947174">
        <ele>32.340000000000003</ele>
        <time>2019-08-30T08:47:55Z</time>
      </trkpt>
      <trkpt lat="51.073968010023236" lon="5.82844203338027">
        <ele>32.340000000000003</ele>
        <time>2019-08-30T08:48:02Z</time>
      </trkpt>
      <trkpt lat="51.073929034173489" lon="5.828384030610323">
        <ele>32.340000000000003</ele>
        <time>2019-08-30T08:48:03Z</time>
      </trkpt>
      <trkpt lat="51.073991982266307" lon="5.828189989551902">
        <ele>32.340000000000003</ele>
        <time>2019-08-30T08:48:04Z</time>
      </trkpt>
      <trkpt lat="51.074042022228241" lon="5.828114971518517">
        <ele>32.82</ele>
        <time>2019-08-30T08:48:05Z</time>
      </trkpt>
      <trkpt lat="51.074108993634582" lon="5.828016987070441">
        <ele>32.82</ele>
        <time>2019-08-30T08:48:06Z</time>
      </trkpt>
      <trkpt lat="51.07418904080987" lon="5.827897964045405">
        <ele>32.82</ele>
        <time>2019-08-30T08:48:07Z</time>
      </trkpt>
      <trkpt lat="51.075010970234871" lon="5.82668099552393">
        <ele>31.859999999999999</ele>
        <time>2019-08-30T08:48:14Z</time>
      </trkpt>
      <trkpt lat="51.075428975746036" lon="5.826168023049831">
        <ele>31.379999999999999</ele>
        <time>2019-08-30T08:48:17Z</time>
      </trkpt>
      <trkpt lat="51.075598960742354" lon="5.82603701390326">
        <ele>31.859999999999999</ele>
        <time>2019-08-30T08:48:18Z</time>
      </trkpt>
      <trkpt lat="51.075773974880576" lon="5.825940035283566">
        <ele>31.859999999999999</ele>
        <time>2019-08-30T08:48:19Z</time>
      </trkpt>
      <trkpt lat="51.075969021767378" lon="5.82588697783649">
        <ele>31.859999999999999</ele>
        <time>2019-08-30T08:48:20Z</time>
      </trkpt>
      <trkpt lat="51.076162979006767" lon="5.82588697783649">
        <ele>31.859999999999999</ele>
        <time>2019-08-30T08:48:21Z</time>
      </trkpt>
      <trkpt lat="51.076360959559679" lon="5.82588697783649">
        <ele>31.859999999999999</ele>
        <time>2019-08-30T08:48:22Z</time>
      </trkpt>
      <trkpt lat="51.076570004224777" lon="5.825943974778056">
        <ele>31.859999999999999</ele>
        <time>2019-08-30T08:48:23Z</time>
      </trkpt>
      <trkpt lat="51.076779970899224" lon="5.826027961447835">
        <ele>31.379999999999999</ele>
        <time>2019-08-30T08:48:24Z</time>
      </trkpt>
      <trkpt lat="51.079047024250031" lon="5.827099001035094">
        <ele>30.420000000000002</ele>
        <time>2019-08-30T08:48:34Z</time>
      </trkpt>
      <trkpt lat="51.081960992887616" lon="5.829039998352528">
        <ele>30.420000000000002</ele>
        <time>2019-08-30T08:48:47Z</time>
      </trkpt>
      <trkpt lat="51.084765996783972" lon="5.831333035603166">
        <ele>30.899999999999999</ele>
        <time>2019-08-30T08:49:00Z</time>
      </trkpt>
      <trkpt lat="51.088208025321364" lon="5.834334008395672">
        <ele>30.899999999999999</ele>
        <time>2019-08-30T08:49:16Z</time>
      </trkpt>
      <trkpt lat="51.091320980340242" lon="5.837048990651965">
        <ele>31.379999999999999</ele>
        <time>2019-08-30T08:49:30Z</time>
      </trkpt>
      <trkpt lat="51.093194000422955" lon="5.838679019361734">
        <ele>32.340000000000003</ele>
        <time>2019-08-30T08:49:39Z</time>
      </trkpt>
      <trkpt lat="51.096263034269214" lon="5.841357037425041">
        <ele>33.299999999999997</ele>
        <time>2019-08-30T08:49:53Z</time>
      </trkpt>
      <trkpt lat="51.099446984007955" lon="5.844224989414215">
        <ele>31.379999999999999</ele>
        <time>2019-08-30T08:50:07Z</time>
      </trkpt>
      <trkpt lat="51.10184102319181" lon="5.84687702357769">
        <ele>31.859999999999999</ele>
        <time>2019-08-30T08:50:18Z</time>
      </trkpt>
      <trkpt lat="51.103924009948969" lon="5.850145965814591">
        <ele>32.82</ele>
        <time>2019-08-30T08:50:29Z</time>
      </trkpt>
      <trkpt lat="51.106707975268364" lon="5.855276025831699">
        <ele>32.82</ele>
        <time>2019-08-30T08:50:45Z</time>
      </trkpt>
      <trkpt lat="51.108923982828856" lon="5.8592339605093">
        <ele>31.859999999999999</ele>
        <time>2019-08-30T08:50:58Z</time>
      </trkpt>
      <trkpt lat="51.111206961795688" lon="5.862736003473401">
        <ele>29.940000000000001</ele>
        <time>2019-08-30T08:51:11Z</time>
      </trkpt>
      <trkpt lat="51.114010037854314" lon="5.866849003359675">
        <ele>27.050000000000001</ele>
        <time>2019-08-30T08:51:26Z</time>
      </trkpt>
      <trkpt lat="51.116287987679243" lon="5.870612980797887">
        <ele>28.02</ele>
        <time>2019-08-30T08:51:39Z</time>
      </trkpt>
      <trkpt lat="51.118544982746243" lon="5.874933013692498">
        <ele>27.530000000000001</ele>
        <time>2019-08-30T08:51:53Z</time>
      </trkpt>
      <trkpt lat="51.121682999655604" lon="5.881250035017729">
        <ele>29.940000000000001</ele>
        <time>2019-08-30T08:52:13Z</time>
      </trkpt>
      <trkpt lat="51.124034961685538" lon="5.885984972119331">
        <ele>28.98</ele>
        <time>2019-08-30T08:52:28Z</time>
      </trkpt>
      <trkpt lat="51.126052988693118" lon="5.889544012024999">
        <ele>30.420000000000002</ele>
        <time>2019-08-30T08:52:40Z</time>
      </trkpt>
      <trkpt lat="51.128022987395525" lon="5.892051961272955">
        <ele>33.299999999999997</ele>
        <time>2019-08-30T08:52:50Z</time>
      </trkpt>
      <trkpt lat="51.130401017144322" lon="5.894343992695212">
        <ele>32.340000000000003</ele>
        <time>2019-08-30T08:53:01Z</time>
      </trkpt>
      <trkpt lat="51.133236028254032" lon="5.89610100723803">
        <ele>31.859999999999999</ele>
        <time>2019-08-30T08:53:13Z</time>
      </trkpt>
      <trkpt lat="51.134958006441593" lon="5.896820006892085">
        <ele>30.899999999999999</ele>
        <time>2019-08-30T08:53:20Z</time>
      </trkpt>
      <trkpt lat="51.136953989043832" lon="5.897202976047993">
        <ele>30.420000000000002</ele>
        <time>2019-08-30T08:53:28Z</time>
      </trkpt>
      <trkpt lat="51.140462988987565" lon="5.897526014596224">
        <ele>32.82</ele>
        <time>2019-08-30T08:53:42Z</time>
      </trkpt>
      <trkpt lat="51.144751003012061" lon="5.897657023742795">
        <ele>34.740000000000002</ele>
        <time>2019-08-30T08:53:59Z</time>
      </trkpt>
      <trkpt lat="51.147485012188554" lon="5.897794989868999">
        <ele>36.670000000000002</ele>
        <time>2019-08-30T08:54:10Z</time>
      </trkpt>
      <trkpt lat="51.150011988356709" lon="5.897864978760481">
        <ele>34.740000000000002</ele>
        <time>2019-08-30T08:54:21Z</time>
      </trkpt>
      <trkpt lat="51.152511974796653" lon="5.897598015144467">
        <ele>32.340000000000003</ele>
        <time>2019-08-30T08:54:31Z</time>
      </trkpt>
      <trkpt lat="51.154645001515746" lon="5.896678017452359">
        <ele>29.940000000000001</ele>
        <time>2019-08-30T08:54:40Z</time>
      </trkpt>
      <trkpt lat="51.156649030745029" lon="5.894973976537585">
        <ele>30.899999999999999</ele>
        <time>2019-08-30T08:54:49Z</time>
      </trkpt>
      <trkpt lat="51.15864803083241" lon="5.892516989260912">
        <ele>32.340000000000003</ele>
        <time>2019-08-30T08:54:59Z</time>
      </trkpt>
      <trkpt lat="51.161965001374483" lon="5.888156974688172">
        <ele>33.780000000000001</ele>
        <time>2019-08-30T08:55:16Z</time>
      </trkpt>
      <trkpt lat="51.164589039981365" lon="5.884353015571833">
        <ele>29.940000000000001</ele>
        <time>2019-08-30T08:55:30Z</time>
      </trkpt>
      <trkpt lat="51.16612502373755" lon="5.881164036691189">
        <ele>27.530000000000001</ele>
        <time>2019-08-30T08:55:40Z</time>
      </trkpt>
      <trkpt lat="51.167428996413946" lon="5.877255974337459">
        <ele>25.609999999999999</ele>
        <time>2019-08-30T08:55:51Z</time>
      </trkpt>
      <trkpt lat="51.168537000194192" lon="5.873258979991078">
        <ele>25.129999999999999</ele>
        <time>2019-08-30T08:56:02Z</time>
      </trkpt>
      <trkpt lat="51.169652966782451" lon="5.86919903755188">
        <ele>23.690000000000001</ele>
        <time>2019-08-30T08:56:13Z</time>
      </trkpt>
      <trkpt lat="51.170901032164693" lon="5.864569963887334">
        <ele>24.170000000000002</ele>
        <time>2019-08-30T08:56:25Z</time>
      </trkpt>
      <trkpt lat="51.172451013699174" lon="5.85905802436173">
        <ele>24.170000000000002</ele>
        <time>2019-08-30T08:56:38Z</time>
      </trkpt>
      <trkpt lat="51.173661025241017" lon="5.855378033593297">
        <ele>25.609999999999999</ele>
        <time>2019-08-30T08:56:47Z</time>
      </trkpt>
      <trkpt lat="51.17506398819387" lon="5.852246973663569">
        <ele>25.129999999999999</ele>
        <time>2019-08-30T08:56:56Z</time>
      </trkpt>
      <trkpt lat="51.176910018548369" lon="5.849282965064049">
        <ele>25.609999999999999</ele>
        <time>2019-08-30T08:57:06Z</time>
      </trkpt>
      <trkpt lat="51.179181011393666" lon="5.846731010824442">
        <ele>28.02</ele>
        <time>2019-08-30T08:57:17Z</time>
      </trkpt>
      <trkpt lat="51.181410010904074" lon="5.845071980729699">
        <ele>31.379999999999999</ele>
        <time>2019-08-30T08:57:27Z</time>
      </trkpt>
      <trkpt lat="51.183868004009128" lon="5.843614032492042">
        <ele>29.940000000000001</ele>
        <time>2019-08-30T08:57:38Z</time>
      </trkpt>
      <trkpt lat="51.187080033123493" lon="5.841402970254421">
        <ele>29.940000000000001</ele>
        <time>2019-08-30T08:57:52Z</time>
      </trkpt>
      <trkpt lat="51.190020991489291" lon="5.83882100880146">
        <ele>29.940000000000001</ele>
        <time>2019-08-30T08:58:05Z</time>
      </trkpt>
      <trkpt lat="51.192520977929235" lon="5.836501987650991">
        <ele>28.98</ele>
        <time>2019-08-30T08:58:17Z</time>
      </trkpt>
      <trkpt lat="51.194373965263367" lon="5.834768023341894">
        <ele>28.5</ele>
        <time>2019-08-30T08:58:27Z</time>
      </trkpt>
      <trkpt lat="51.197033040225506" lon="5.832273988053203">
        <ele>27.530000000000001</ele>
        <time>2019-08-30T08:58:41Z</time>
      </trkpt>
      <trkpt lat="51.199196996167302" lon="5.830242969095707">
        <ele>28.5</ele>
        <time>2019-08-30T08:58:51Z</time>
      </trkpt>
      <trkpt lat="51.201547030359507" lon="5.828038025647402">
        <ele>29.940000000000001</ele>
        <time>2019-08-30T08:59:01Z</time>
      </trkpt>
      <trkpt lat="51.204580022022128" lon="5.825192034244537">
        <ele>29.940000000000001</ele>
        <time>2019-08-30T08:59:15Z</time>
      </trkpt>
      <trkpt lat="51.207603961229324" lon="5.822371020913124">
        <ele>30.899999999999999</ele>
        <time>2019-08-30T08:59:29Z</time>
      </trkpt>
      <trkpt lat="51.210954040288925" lon="5.819240966811776">
        <ele>30.899999999999999</ele>
        <time>2019-08-30T08:59:44Z</time>
      </trkpt>
      <trkpt lat="51.212923033162951" lon="5.81740097142756">
        <ele>29.940000000000001</ele>
        <time>2019-08-30T08:59:53Z</time>
      </trkpt>
      <trkpt lat="51.216372018679976" lon="5.81417796202004">
        <ele>30.420000000000002</ele>
        <time>2019-08-30T09:00:08Z</time>
      </trkpt>
      <trkpt lat="51.219622017815709" lon="5.811137007549405">
        <ele>32.340000000000003</ele>
        <time>2019-08-30T09:00:21Z</time>
      </trkpt>
      <trkpt lat="51.222666995599866" lon="5.808280035853386">
        <ele>31.379999999999999</ele>
        <time>2019-08-30T09:00:34Z</time>
      </trkpt>
      <trkpt lat="51.225507035851479" lon="5.805620960891247">
        <ele>31.859999999999999</ele>
        <time>2019-08-30T09:00:46Z</time>
      </trkpt>
      <trkpt lat="51.228095032274723" lon="5.802935985848308">
        <ele>30.899999999999999</ele>
        <time>2019-08-30T09:00:57Z</time>
      </trkpt>
      <trkpt lat="51.230788975954056" lon="5.799665031954646">
        <ele>30.899999999999999</ele>
        <time>2019-08-30T09:01:08Z</time>
      </trkpt>
      <trkpt lat="51.235161982476711" lon="5.794072961434722">
        <ele>29.940000000000001</ele>
        <time>2019-08-30T09:01:26Z</time>
      </trkpt>
      <trkpt lat="51.237641014158726" lon="5.79108003526926">
        <ele>28.98</ele>
        <time>2019-08-30T09:01:36Z</time>
      </trkpt>
      <trkpt lat="51.241875970736146" lon="5.786794032901526">
        <ele>28.5</ele>
        <time>2019-08-30T09:01:52Z</time>
      </trkpt>
      <trkpt lat="51.245190007612109" lon="5.783994980156422">
        <ele>28.02</ele>
        <time>2019-08-30T09:02:04Z</time>
      </trkpt>
      <trkpt lat="51.247803987935185" lon="5.781281003728509">
        <ele>29.940000000000001</ele>
        <time>2019-08-30T09:02:14Z</time>
      </trkpt>
      <trkpt lat="51.249904995784163" lon="5.778314983472228">
        <ele>31.379999999999999</ele>
        <time>2019-08-30T09:02:23Z</time>
      </trkpt>
      <trkpt lat="51.251826966181397" lon="5.774405999109149">
        <ele>31.379999999999999</ele>
        <time>2019-08-30T09:02:33Z</time>
      </trkpt>
      <trkpt lat="51.253797970712185" lon="5.769317010417581">
        <ele>30.899999999999999</ele>
        <time>2019-08-30T09:02:45Z</time>
      </trkpt>
      <trkpt lat="51.256740018725395" lon="5.761685958132148">
        <ele>30.420000000000002</ele>
        <time>2019-08-30T09:03:03Z</time>
      </trkpt>
      <trkpt lat="51.257600001990795" lon="5.759457964450121">
        <ele>30.420000000000002</ele>
        <time>2019-08-30T09:03:09Z</time>
      </trkpt>
      <trkpt lat="51.25881495885551" lon="5.756276026368141">
        <ele>30.420000000000002</ele>
        <time>2019-08-30T09:03:18Z</time>
      </trkpt>
      <trkpt lat="51.259926985949278" lon="5.753357028588653">
        <ele>30.420000000000002</ele>
        <time>2019-08-30T09:03:26Z</time>
      </trkpt>
      <trkpt lat="51.261297008022666" lon="5.749924974516034">
        <ele>29.940000000000001</ele>
        <time>2019-08-30T09:03:35Z</time>
      </trkpt>
      <trkpt lat="51.262553036212921" lon="5.747306970879436">
        <ele>30.899999999999999</ele>
        <time>2019-08-30T09:03:43Z</time>
      </trkpt>
      <trkpt lat="51.264190021902323" lon="5.744934976100922">
        <ele>32.340000000000003</ele>
        <time>2019-08-30T09:03:52Z</time>
      </trkpt>
      <trkpt lat="51.266512982547283" lon="5.742634981870651">
        <ele>36.189999999999998</ele>
        <time>2019-08-30T09:04:02Z</time>
      </trkpt>
      <trkpt lat="51.268799984827638" lon="5.741115007549524">
        <ele>39.07</ele>
        <time>2019-08-30T09:04:10Z</time>
      </trkpt>
      <trkpt lat="51.273180032148957" lon="5.738417040556669">
        <ele>38.590000000000003</ele>
        <time>2019-08-30T09:04:25Z</time>
      </trkpt>
      <trkpt lat="51.276811994612217" lon="5.735600972548127">
        <ele>40.030000000000001</ele>
        <time>2019-08-30T09:04:38Z</time>
      </trkpt>
      <trkpt lat="51.278576971963048" lon="5.733727030456066">
        <ele>39.07</ele>
        <time>2019-08-30T09:04:45Z</time>
      </trkpt>
      <trkpt lat="51.280326023697853" lon="5.730894031003118">
        <ele>35.229999999999997</ele>
        <time>2019-08-30T09:04:53Z</time>
      </trkpt>
      <trkpt lat="51.281626978889108" lon="5.727530959993601">
        <ele>32.82</ele>
        <time>2019-08-30T09:05:01Z</time>
      </trkpt>
      <trkpt lat="51.282389983534813" lon="5.724295964464545">
        <ele>32.82</ele>
        <time>2019-08-30T09:05:08Z</time>
      </trkpt>
      <trkpt lat="51.282943021506071" lon="5.719394981861115">
        <ele>33.299999999999997</ele>
        <time>2019-08-30T09:05:18Z</time>
      </trkpt>
      <trkpt lat="51.28332800231874" lon="5.712444959208369">
        <ele>33.780000000000001</ele>
        <time>2019-08-30T09:05:32Z</time>
      </trkpt>
      <trkpt lat="51.283201016485691" lon="5.704977018758655">
        <ele>33.780000000000001</ele>
        <time>2019-08-30T09:05:47Z</time>
      </trkpt>
      <trkpt lat="51.282607996836305" lon="5.698051974177361">
        <ele>33.780000000000001</ele>
        <time>2019-08-30T09:06:01Z</time>
      </trkpt>
      <trkpt lat="51.281625973060727" lon="5.691785998642445">
        <ele>33.299999999999997</ele>
        <time>2019-08-30T09:06:14Z</time>
      </trkpt>
      <trkpt lat="51.280376985669136" lon="5.686133997514844">
        <ele>32.82</ele>
        <time>2019-08-30T09:06:26Z</time>
      </trkpt>
      <trkpt lat="51.278681997209787" lon="5.68026096560061">
        <ele>32.82</ele>
        <time>2019-08-30T09:06:39Z</time>
      </trkpt>
      <trkpt lat="51.277099996805191" lon="5.675371969118714">
        <ele>34.740000000000002</ele>
        <time>2019-08-30T09:06:50Z</time>
      </trkpt>
      <trkpt lat="51.276489961892366" lon="5.672035971656442">
        <ele>34.740000000000002</ele>
        <time>2019-08-30T09:06:57Z</time>
      </trkpt>
      <trkpt lat="51.276333974674344" lon="5.668598972260952">
        <ele>33.780000000000001</ele>
        <time>2019-08-30T09:07:04Z</time>
      </trkpt>
      <trkpt lat="51.276598004624248" lon="5.664658974856138">
        <ele>33.780000000000001</ele>
        <time>2019-08-30T09:07:12Z</time>
      </trkpt>
      <trkpt lat="51.276679979637265" lon="5.664177015423775">
        <ele>33.780000000000001</ele>
        <time>2019-08-30T09:07:13Z</time>
      </trkpt>
      <trkpt lat="51.277448013424873" lon="5.660913018509746">
        <ele>35.229999999999997</ele>
        <time>2019-08-30T09:07:20Z</time>
      </trkpt>
      <trkpt lat="51.278785010799766" lon="5.65755195915699">
        <ele>36.189999999999998</ele>
        <time>2019-08-30T09:07:28Z</time>
      </trkpt>
      <trkpt lat="51.280644033104181" lon="5.654254015535116">
        <ele>37.149999999999999</ele>
        <time>2019-08-30T09:07:37Z</time>
      </trkpt>
      <trkpt lat="51.282706987112761" lon="5.651117004454136">
        <ele>38.590000000000003</ele>
        <time>2019-08-30T09:07:47Z</time>
      </trkpt>
      <trkpt lat="51.284240959212184" lon="5.649099983274937">
        <ele>40.990000000000002</ele>
        <time>2019-08-30T09:07:54Z</time>
      </trkpt>
      <trkpt lat="51.286225039511919" lon="5.646919012069702">
        <ele>40.509999999999998</ele>
        <time>2019-08-30T09:08:03Z</time>
      </trkpt>
      <trkpt lat="51.288852011784911" lon="5.644712978973985">
        <ele>41.469999999999999</ele>
        <time>2019-08-30T09:08:14Z</time>
      </trkpt>
      <trkpt lat="51.290122959762812" lon="5.643102983012795">
        <ele>44.359999999999999</ele>
        <time>2019-08-30T09:08:20Z</time>
      </trkpt>
      <trkpt lat="51.291324002668262" lon="5.640793014317751">
        <ele>46.759999999999998</ele>
        <time>2019-08-30T09:08:28Z</time>
      </trkpt>
      <trkpt lat="51.292868033051491" lon="5.637647034600377">
        <ele>43.880000000000003</ele>
        <time>2019-08-30T09:08:39Z</time>
      </trkpt>
      <trkpt lat="51.294404016807675" lon="5.634522009640932">
        <ele>37.630000000000003</ele>
        <time>2019-08-30T09:08:50Z</time>
      </trkpt>
      <trkpt lat="51.296067992225289" lon="5.631090961396694">
        <ele>34.740000000000002</ele>
        <time>2019-08-30T09:09:01Z</time>
      </trkpt>
      <trkpt lat="51.297704977914691" lon="5.627753036096692">
        <ele>40.030000000000001</ele>
        <time>2019-08-30T09:09:10Z</time>
      </trkpt>
      <trkpt lat="51.300010001286864" lon="5.623060008510947">
        <ele>37.149999999999999</ele>
        <time>2019-08-30T09:09:22Z</time>
      </trkpt>
      <trkpt lat="51.301625026389956" lon="5.619720993563533">
        <ele>36.670000000000002</ele>
        <time>2019-08-30T09:09:31Z</time>
      </trkpt>
      <trkpt lat="51.303973970934749" lon="5.615133997052908">
        <ele>34.259999999999998</ele>
        <time>2019-08-30T09:09:44Z</time>
      </trkpt>
      <trkpt lat="51.30558698438108" lon="5.613078000023961">
        <ele>34.740000000000002</ele>
        <time>2019-08-30T09:09:51Z</time>
      </trkpt>
      <trkpt lat="51.308042965829372" lon="5.610621012747288">
        <ele>37.630000000000003</ele>
        <time>2019-08-30T09:10:01Z</time>
      </trkpt>
      <trkpt lat="51.310663986951113" lon="5.607945006340742">
        <ele>40.030000000000001</ele>
        <time>2019-08-30T09:10:12Z</time>
      </trkpt>
      <trkpt lat="51.313266986981034" lon="5.6051030382514">
        <ele>39.549999999999997</ele>
        <time>2019-08-30T09:10:23Z</time>
      </trkpt>
      <trkpt lat="51.315974006429315" lon="5.602283030748367">
        <ele>34.259999999999998</ele>
        <time>2019-08-30T09:10:34Z</time>
      </trkpt>
      <trkpt lat="51.318383971229196" lon="5.599523959681392">
        <ele>33.780000000000001</ele>
        <time>2019-08-30T09:10:44Z</time>
      </trkpt>
      <trkpt lat="51.320743979886174" lon="5.596599010750651">
        <ele>32.82</ele>
        <time>2019-08-30T09:10:54Z</time>
      </trkpt>
      <trkpt lat="51.323490981012583" lon="5.593221019953489">
        <ele>32.82</ele>
        <time>2019-08-30T09:11:06Z</time>
      </trkpt>
      <trkpt lat="51.325100976973772" lon="5.591208022087812">
        <ele>32.82</ele>
        <time>2019-08-30T09:11:15Z</time>
      </trkpt>
      <trkpt lat="51.327099977061152" lon="5.58875497430563">
        <ele>32.340000000000003</ele>
        <time>2019-08-30T09:11:26Z</time>
      </trkpt>
      <trkpt lat="51.329699959605932" lon="5.585569012910128">
        <ele>32.340000000000003</ele>
        <time>2019-08-30T09:11:41Z</time>
      </trkpt>
      <trkpt lat="51.331643974408507" lon="5.583154018968344">
        <ele>32.340000000000003</ele>
        <time>2019-08-30T09:11:51Z</time>
      </trkpt>
      <trkpt lat="51.33343099616468" lon="5.580522017553449">
        <ele>26.09</ele>
        <time>2019-08-30T09:12:01Z</time>
      </trkpt>
      <trkpt lat="51.334692975506186" lon="5.577577035874128">
        <ele>26.57</ele>
        <time>2019-08-30T09:12:10Z</time>
      </trkpt>
      <trkpt lat="51.335998037829995" lon="5.573893021792173">
        <ele>24.170000000000002</ele>
        <time>2019-08-30T09:12:20Z</time>
      </trkpt>
      <trkpt lat="51.336792977526784" lon="5.571648012846708">
        <ele>24.170000000000002</ele>
        <time>2019-08-30T09:12:27Z</time>
      </trkpt>
      <trkpt lat="51.338355029001832" lon="5.567329991608858">
        <ele>25.129999999999999</ele>
        <time>2019-08-30T09:12:42Z</time>
      </trkpt>
      <trkpt lat="51.339367982000113" lon="5.564751969650388">
        <ele>26.09</ele>
        <time>2019-08-30T09:12:50Z</time>
      </trkpt>
      <trkpt lat="51.341089960187674" lon="5.560407964512706">
        <ele>25.129999999999999</ele>
        <time>2019-08-30T09:13:03Z</time>
      </trkpt>
      <trkpt lat="51.342887962237" lon="5.555934961885214">
        <ele>25.609999999999999</ele>
        <time>2019-08-30T09:13:16Z</time>
      </trkpt>
      <trkpt lat="51.344420006498694" lon="5.552085991948843">
        <ele>27.050000000000001</ele>
        <time>2019-08-30T09:13:27Z</time>
      </trkpt>
      <trkpt lat="51.345749041065574" lon="5.548719987273216">
        <ele>27.530000000000001</ele>
        <time>2019-08-30T09:13:37Z</time>
      </trkpt>
      <trkpt lat="51.347347972914577" lon="5.545407962054014">
        <ele>28.02</ele>
        <time>2019-08-30T09:13:47Z</time>
      </trkpt>
      <trkpt lat="51.348968027159572" lon="5.543367974460125">
        <ele>29.460000000000001</ele>
        <time>2019-08-30T09:13:55Z</time>
      </trkpt>
      <trkpt lat="51.350750019773841" lon="5.541818998754025">
        <ele>29.460000000000001</ele>
        <time>2019-08-30T09:14:03Z</time>
      </trkpt>
      <trkpt lat="51.353669017553329" lon="5.539358993992209">
        <ele>23.210000000000001</ele>
        <time>2019-08-30T09:14:16Z</time>
      </trkpt>
      <trkpt lat="51.355380015447736" lon="5.537793003022671">
        <ele>21.289999999999999</ele>
        <time>2019-08-30T09:14:25Z</time>
      </trkpt>
      <trkpt lat="51.357171982526779" lon="5.536087034270167">
        <ele>21.289999999999999</ele>
        <time>2019-08-30T09:14:36Z</time>
      </trkpt>
      <trkpt lat="51.358636971563101" lon="5.534707959741354">
        <ele>22.25</ele>
        <time>2019-08-30T09:14:44Z</time>
      </trkpt>
      <trkpt lat="51.361083984375" lon="5.532403020188212">
        <ele>22.25</ele>
        <time>2019-08-30T09:14:56Z</time>
      </trkpt>
      <trkpt lat="51.36374699883163" lon="5.52990403957665">
        <ele>21.77</ele>
        <time>2019-08-30T09:15:09Z</time>
      </trkpt>
      <trkpt lat="51.365652959793806" lon="5.528117017820478">
        <ele>20.809999999999999</ele>
        <time>2019-08-30T09:15:18Z</time>
      </trkpt>
      <trkpt lat="51.367867039516568" lon="5.526007041335106">
        <ele>23.690000000000001</ele>
        <time>2019-08-30T09:15:29Z</time>
      </trkpt>
      <trkpt lat="51.369667975232005" lon="5.524321021512151">
        <ele>25.609999999999999</ele>
        <time>2019-08-30T09:15:38Z</time>
      </trkpt>
      <trkpt lat="51.372135020792484" lon="5.521981967613101">
        <ele>25.129999999999999</ele>
        <time>2019-08-30T09:15:50Z</time>
      </trkpt>
      <trkpt lat="51.373808970674872" lon="5.52040901966393">
        <ele>25.609999999999999</ele>
        <time>2019-08-30T09:15:59Z</time>
      </trkpt>
      <trkpt lat="51.376087004318833" lon="5.518271969631314">
        <ele>26.57</ele>
        <time>2019-08-30T09:16:12Z</time>
      </trkpt>
      <trkpt lat="51.378299994394183" lon="5.516141960397363">
        <ele>27.050000000000001</ele>
        <time>2019-08-30T09:16:24Z</time>
      </trkpt>
      <trkpt lat="51.380504015833139" lon="5.514064002782106">
        <ele>26.09</ele>
        <time>2019-08-30T09:16:35Z</time>
      </trkpt>
      <trkpt lat="51.382648022845387" lon="5.512414025142789">
        <ele>25.129999999999999</ele>
        <time>2019-08-30T09:16:44Z</time>
      </trkpt>
      <trkpt lat="51.385374991223216" lon="5.511025981977582">
        <ele>23.210000000000001</ele>
        <time>2019-08-30T09:16:55Z</time>
      </trkpt>
      <trkpt lat="51.387701975181699" lon="5.510023003444076">
        <ele>21.289999999999999</ele>
        <time>2019-08-30T09:17:05Z</time>
      </trkpt>
      <trkpt lat="51.39051997102797" lon="5.508812991902232">
        <ele>23.690000000000001</ele>
        <time>2019-08-30T09:17:17Z</time>
      </trkpt>
      <trkpt lat="51.392678981646895" lon="5.507899029180408">
        <ele>25.129999999999999</ele>
        <time>2019-08-30T09:17:27Z</time>
      </trkpt>
      <trkpt lat="51.394885014742613" lon="5.506949024274945">
        <ele>28.98</ele>
        <time>2019-08-30T09:17:38Z</time>
      </trkpt>
      <trkpt lat="51.396998008713126" lon="5.506077976897359">
        <ele>28.5</ele>
        <time>2019-08-30T09:17:47Z</time>
      </trkpt>
      <trkpt lat="51.400191010907292" lon="5.504539981484413">
        <ele>27.530000000000001</ele>
        <time>2019-08-30T09:17:59Z</time>
      </trkpt>
      <trkpt lat="51.40179899521172" lon="5.503027969971299">
        <ele>26.09</ele>
        <time>2019-08-30T09:18:06Z</time>
      </trkpt>
      <trkpt lat="51.401999993249774" lon="5.502775004133582">
        <ele>25.609999999999999</ele>
        <time>2019-08-30T09:18:07Z</time>
      </trkpt>
      <trkpt lat="51.403412008658051" lon="5.500447014346719">
        <ele>28.02</ele>
        <time>2019-08-30T09:18:15Z</time>
      </trkpt>
      <trkpt lat="51.404325971379876" lon="5.497917020693421">
        <ele>29.940000000000001</ele>
        <time>2019-08-30T09:18:22Z</time>
      </trkpt>
      <trkpt lat="51.404899964109063" lon="5.494998022913933">
        <ele>29.460000000000001</ele>
        <time>2019-08-30T09:18:29Z</time>
      </trkpt>
      <trkpt lat="51.405090987682343" lon="5.491651967167854">
        <ele>26.57</ele>
        <time>2019-08-30T09:18:37Z</time>
      </trkpt>
      <trkpt lat="51.405198024585843" lon="5.487765027210116">
        <ele>24.649999999999999</ele>
        <time>2019-08-30T09:18:47Z</time>
      </trkpt>
      <trkpt lat="51.405285028740764" lon="5.484350994229317">
        <ele>26.09</ele>
        <time>2019-08-30T09:18:58Z</time>
      </trkpt>
      <trkpt lat="51.405434980988503" lon="5.480019981041551">
        <ele>27.530000000000001</ele>
        <time>2019-08-30T09:19:14Z</time>
      </trkpt>
      <trkpt lat="51.405534977093339" lon="5.476507963612676">
        <ele>27.050000000000001</ele>
        <time>2019-08-30T09:19:27Z</time>
      </trkpt>
      <trkpt lat="51.405574036762118" lon="5.47539702616632">
        <ele>26.09</ele>
        <time>2019-08-30T09:19:34Z</time>
      </trkpt>
      <trkpt lat="51.405618963763118" lon="5.474122976884246">
        <ele>25.129999999999999</ele>
        <time>2019-08-30T09:19:47Z</time>
      </trkpt>
      <trkpt lat="51.405656011775136" lon="5.472984965890646">
        <ele>27.530000000000001</ele>
        <time>2019-08-30T09:19:59Z</time>
      </trkpt>
      <trkpt lat="51.405684007331729" lon="5.471268016844988">
        <ele>28.02</ele>
        <time>2019-08-30T09:20:15Z</time>
      </trkpt>
      <trkpt lat="51.405710997059941" lon="5.469644023105502">
        <ele>27.530000000000001</ele>
        <time>2019-08-30T09:20:26Z</time>
      </trkpt>
      <trkpt lat="51.405747039243579" lon="5.467402031645179">
        <ele>27.050000000000001</ele>
        <time>2019-08-30T09:20:37Z</time>
      </trkpt>
      <trkpt lat="51.405734969303012" lon="5.46416100114584">
        <ele>28.02</ele>
        <time>2019-08-30T09:20:52Z</time>
      </trkpt>
      <trkpt lat="51.405689958482981" lon="5.461375024169684">
        <ele>28.98</ele>
        <time>2019-08-30T09:21:06Z</time>
      </trkpt>
      <trkpt lat="51.405646959319711" lon="5.458824997767806">
        <ele>27.050000000000001</ele>
        <time>2019-08-30T09:21:19Z</time>
      </trkpt>
      <trkpt lat="51.405603038147092" lon="5.456407992169261">
        <ele>24.649999999999999</ele>
        <time>2019-08-30T09:21:31Z</time>
      </trkpt>
      <trkpt lat="51.405548974871635" lon="5.454097017645836">
        <ele>23.690000000000001</ele>
        <time>2019-08-30T09:21:40Z</time>
      </trkpt>
      <trkpt lat="51.405499018728733" lon="5.450573014095426">
        <ele>24.649999999999999</ele>
        <time>2019-08-30T09:21:54Z</time>
      </trkpt>
      <trkpt lat="51.405459037050605" lon="5.448510982096195">
        <ele>25.609999999999999</ele>
        <time>2019-08-30T09:22:05Z</time>
      </trkpt>
      <trkpt lat="51.405459037050605" lon="5.448185009881854">
        <ele>28.02</ele>
        <time>2019-08-30T09:22:13Z</time>
      </trkpt>
      <trkpt lat="51.405459037050605" lon="5.447806986048818">
        <ele>28.5</ele>
        <time>2019-08-30T09:22:25Z</time>
      </trkpt>
      <trkpt lat="51.405459037050605" lon="5.447278004139662">
        <ele>26.57</ele>
        <time>2019-08-30T09:22:33Z</time>
      </trkpt>
      <trkpt lat="51.405440010130405" lon="5.446522040292621">
        <ele>25.129999999999999</ele>
        <time>2019-08-30T09:22:44Z</time>
      </trkpt>
      <trkpt lat="51.405429029837251" lon="5.446051983162761">
        <ele>24.649999999999999</ele>
        <time>2019-08-30T09:22:53Z</time>
      </trkpt>
      <trkpt lat="51.405397010967135" lon="5.44516702182591">
        <ele>22.73</ele>
        <time>2019-08-30T09:23:00Z</time>
      </trkpt>
      <trkpt lat="51.405331967398524" lon="5.443399026989937">
        <ele>21.289999999999999</ele>
        <time>2019-08-30T09:23:09Z</time>
      </trkpt>
      <trkpt lat="51.405207999050617" lon="5.440871967002749">
        <ele>21.289999999999999</ele>
        <time>2019-08-30T09:23:21Z</time>
      </trkpt>
      <trkpt lat="51.4049999602139" lon="5.43792899698019">
        <ele>28.98</ele>
        <time>2019-08-30T09:23:34Z</time>
      </trkpt>
      <trkpt lat="51.405052011832595" lon="5.435501011088491">
        <ele>31.379999999999999</ele>
        <time>2019-08-30T09:23:43Z</time>
      </trkpt>
      <trkpt lat="51.40545099042356" lon="5.433897972106934">
        <ele>29.940000000000001</ele>
        <time>2019-08-30T09:23:49Z</time>
      </trkpt>
      <trkpt lat="51.405736980959773" lon="5.433172015473247">
        <ele>28.98</ele>
        <time>2019-08-30T09:23:55Z</time>
      </trkpt>
      <trkpt lat="51.405905960127711" lon="5.432871021330357">
        <ele>28.02</ele>
        <time>2019-08-30T09:24:04Z</time>
      </trkpt>
      <trkpt lat="51.406089020892978" lon="5.432568015530706">
        <ele>27.530000000000001</ele>
        <time>2019-08-30T09:24:12Z</time>
      </trkpt>
      <trkpt lat="51.406134031713009" lon="5.432501966133714">
        <ele>27.530000000000001</ele>
        <time>2019-08-30T09:24:13Z</time>
      </trkpt>
      <trkpt lat="51.406480958685279" lon="5.431988993659616">
        <ele>26.57</ele>
        <time>2019-08-30T09:24:21Z</time>
      </trkpt>
      <trkpt lat="51.407366003841162" lon="5.431149965152144">
        <ele>26.57</ele>
        <time>2019-08-30T09:24:30Z</time>
      </trkpt>
      <trkpt lat="51.408291030675173" lon="5.430721985176206">
        <ele>26.09</ele>
        <time>2019-08-30T09:24:39Z</time>
      </trkpt>
      <trkpt lat="51.408859994262457" lon="5.430628024041653">
        <ele>27.530000000000001</ele>
        <time>2019-08-30T09:24:46Z</time>
      </trkpt>
      <trkpt lat="51.408983040601015" lon="5.430606985464692">
        <ele>28.02</ele>
        <time>2019-08-30T09:24:48Z</time>
      </trkpt>
      <trkpt lat="51.409721989184618" lon="5.430484022945166">
        <ele>28.5</ele>
        <time>2019-08-30T09:25:00Z</time>
      </trkpt>
      <trkpt lat="51.410729996860027" lon="5.43034496717155">
        <ele>28.02</ele>
        <time>2019-08-30T09:25:09Z</time>
      </trkpt>
      <trkpt lat="51.412581978365779" lon="5.429913969710469">
        <ele>26.09</ele>
        <time>2019-08-30T09:25:21Z</time>
      </trkpt>
      <trkpt lat="51.414595982059836" lon="5.429566036909819">
        <ele>26.09</ele>
        <time>2019-08-30T09:25:32Z</time>
      </trkpt>
      <trkpt lat="51.41769896261394" lon="5.429129004478455">
        <ele>25.609999999999999</ele>
        <time>2019-08-30T09:25:49Z</time>
      </trkpt>
      <trkpt lat="51.420216970145702" lon="5.428819041699171">
        <ele>25.609999999999999</ele>
        <time>2019-08-30T09:26:02Z</time>
      </trkpt>
      <trkpt lat="51.422786023467779" lon="5.428499020636082">
        <ele>29.460000000000001</ele>
        <time>2019-08-30T09:26:16Z</time>
      </trkpt>
      <trkpt lat="51.42530201934278" lon="5.428180005401373">
        <ele>28.98</ele>
        <time>2019-08-30T09:26:29Z</time>
      </trkpt>
      <trkpt lat="51.428028987720609" lon="5.427838023751974">
        <ele>30.420000000000002</ele>
        <time>2019-08-30T09:26:43Z</time>
      </trkpt>
      <trkpt lat="51.430746987462044" lon="5.427444996312261">
        <ele>28.98</ele>
        <time>2019-08-30T09:26:57Z</time>
      </trkpt>
      <trkpt lat="51.433071959763765" lon="5.42688399553299">
        <ele>29.460000000000001</ele>
        <time>2019-08-30T09:27:07Z</time>
      </trkpt>
      <trkpt lat="51.435043970122933" lon="5.426376974210143">
        <ele>27.530000000000001</ele>
        <time>2019-08-30T09:27:16Z</time>
      </trkpt>
      <trkpt lat="51.437243968248367" lon="5.426150998100638">
        <ele>27.050000000000001</ele>
        <time>2019-08-30T09:27:27Z</time>
      </trkpt>
      <trkpt lat="51.439634989947081" lon="5.426551988348365">
        <ele>26.57</ele>
        <time>2019-08-30T09:27:39Z</time>
      </trkpt>
      <trkpt lat="51.442676028236747" lon="5.427148025482893">
        <ele>27.050000000000001</ele>
        <time>2019-08-30T09:27:53Z</time>
      </trkpt>
      <trkpt lat="51.445107031613588" lon="5.427677007392049">
        <ele>26.57</ele>
        <time>2019-08-30T09:28:04Z</time>
      </trkpt>
      <trkpt lat="51.446966975927353" lon="5.427707014605403">
        <ele>25.129999999999999</ele>
        <time>2019-08-30T09:28:11Z</time>
      </trkpt>
      <trkpt lat="51.448718961328268" lon="5.426890030503273">
        <ele>25.609999999999999</ele>
        <time>2019-08-30T09:28:18Z</time>
      </trkpt>
      <trkpt lat="51.450416967272758" lon="5.425266036763787">
        <ele>25.609999999999999</ele>
        <time>2019-08-30T09:28:26Z</time>
      </trkpt>
      <trkpt lat="51.451698979362845" lon="5.423106020316482">
        <ele>24.649999999999999</ele>
        <time>2019-08-30T09:28:33Z</time>
      </trkpt>
      <trkpt lat="51.452922988682985" lon="5.419724006205797">
        <ele>22.25</ele>
        <time>2019-08-30T09:28:42Z</time>
      </trkpt>
      <trkpt lat="51.454424019902945" lon="5.41627099737525">
        <ele>21.289999999999999</ele>
        <time>2019-08-30T09:28:52Z</time>
      </trkpt>
      <trkpt lat="51.456383960321546" lon="5.413027033209801">
        <ele>21.289999999999999</ele>
        <time>2019-08-30T09:29:03Z</time>
      </trkpt>
      <trkpt lat="51.458535008132458" lon="5.41038597933948">
        <ele>22.25</ele>
        <time>2019-08-30T09:29:14Z</time>
      </trkpt>
      <trkpt lat="51.460758978500962" lon="5.408438025042415">
        <ele>24.170000000000002</ele>
        <time>2019-08-30T09:29:24Z</time>
      </trkpt>
      <trkpt lat="51.462809024378657" lon="5.40713899768889">
        <ele>24.649999999999999</ele>
        <time>2019-08-30T09:29:34Z</time>
      </trkpt>
      <trkpt lat="51.465316973626614" lon="5.406050020828843">
        <ele>24.170000000000002</ele>
        <time>2019-08-30T09:29:46Z</time>
      </trkpt>
      <trkpt lat="51.468065986409783" lon="5.405233958736062">
        <ele>26.57</ele>
        <time>2019-08-30T09:29:57Z</time>
      </trkpt>
      <trkpt lat="51.471109036356211" lon="5.404875967651606">
        <ele>24.170000000000002</ele>
        <time>2019-08-30T09:30:09Z</time>
      </trkpt>
      <trkpt lat="51.474124006927013" lon="5.404650997370482">
        <ele>27.050000000000001</ele>
        <time>2019-08-30T09:30:21Z</time>
      </trkpt>
      <trkpt lat="51.476574037224054" lon="5.404286971315742">
        <ele>23.690000000000001</ele>
        <time>2019-08-30T09:30:31Z</time>
      </trkpt>
      <trkpt lat="51.479516001418233" lon="5.403969967737794">
        <ele>19.84</ele>
        <time>2019-08-30T09:30:42Z</time>
      </trkpt>
      <trkpt lat="51.480957018211484" lon="5.404591988772154">
        <ele>19.359999999999999</ele>
        <time>2019-08-30T09:30:48Z</time>
      </trkpt>
      <trkpt lat="51.482183961197734" lon="5.405885986983776">
        <ele>20.32</ele>
        <time>2019-08-30T09:30:54Z</time>
      </trkpt>
      <trkpt lat="51.483075963333249" lon="5.407807035371661">
        <ele>22.73</ele>
        <time>2019-08-30T09:31:01Z</time>
      </trkpt>
      <trkpt lat="51.48369899019599" lon="5.410478012636304">
        <ele>26.09</ele>
        <time>2019-08-30T09:31:10Z</time>
      </trkpt>
      <trkpt lat="51.484459983184934" lon="5.414238972589374">
        <ele>25.129999999999999</ele>
        <time>2019-08-30T09:31:22Z</time>
      </trkpt>
      <trkpt lat="51.485528005287051" lon="5.418049972504377">
        <ele>22.73</ele>
        <time>2019-08-30T09:31:34Z</time>
      </trkpt>
      <trkpt lat="51.486808005720377" lon="5.422130031511188">
        <ele>20.809999999999999</ele>
        <time>2019-08-30T09:31:46Z</time>
      </trkpt>
      <trkpt lat="51.487836968153715" lon="5.426080003380776">
        <ele>24.649999999999999</ele>
        <time>2019-08-30T09:31:58Z</time>
      </trkpt>
      <trkpt lat="51.48859603330493" lon="5.42855903506279">
        <ele>28.5</ele>
        <time>2019-08-30T09:32:06Z</time>
      </trkpt>
      <trkpt lat="51.488755960017443" lon="5.428799008950591">
        <ele>28.98</ele>
        <time>2019-08-30T09:32:07Z</time>
      </trkpt>
      <trkpt lat="51.488923011347651" lon="5.429043006151915">
        <ele>29.460000000000001</ele>
        <time>2019-08-30T09:32:08Z</time>
      </trkpt>
      <trkpt lat="51.489111017435789" lon="5.429253978654742">
        <ele>29.460000000000001</ele>
        <time>2019-08-30T09:32:09Z</time>
      </trkpt>
      <trkpt lat="51.48930698633194" lon="5.429459000006318">
        <ele>29.940000000000001</ele>
        <time>2019-08-30T09:32:10Z</time>
      </trkpt>
      <trkpt lat="51.489520976319909" lon="5.429611969739199">
        <ele>30.420000000000002</ele>
        <time>2019-08-30T09:32:11Z</time>
      </trkpt>
      <trkpt lat="51.489742007106543" lon="5.429767034947872">
        <ele>30.420000000000002</ele>
        <time>2019-08-30T09:32:12Z</time>
      </trkpt>
      <trkpt lat="51.489978963509202" lon="5.429869964718819">
        <ele>30.899999999999999</ele>
        <time>2019-08-30T09:32:13Z</time>
      </trkpt>
      <trkpt lat="51.490220027044415" lon="5.429934002459049">
        <ele>30.899999999999999</ele>
        <time>2019-08-30T09:32:14Z</time>
      </trkpt>
      <trkpt lat="51.490464024245739" lon="5.429998962208629">
        <ele>30.899999999999999</ele>
        <time>2019-08-30T09:32:15Z</time>
      </trkpt>
      <trkpt lat="51.490711960941553" lon="5.43004497885704">
        <ele>30.899999999999999</ele>
        <time>2019-08-30T09:32:16Z</time>
      </trkpt>
      <trkpt lat="51.490958975628018" lon="5.430053025484085">
        <ele>30.420000000000002</ele>
        <time>2019-08-30T09:32:17Z</time>
      </trkpt>
      <trkpt lat="51.492548016831279" lon="5.42972001247108">
        <ele>27.530000000000001</ele>
        <time>2019-08-30T09:32:24Z</time>
      </trkpt>
      <trkpt lat="51.494173016399145" lon="5.428772019222379">
        <ele>23.690000000000001</ele>
        <time>2019-08-30T09:32:31Z</time>
      </trkpt>
      <trkpt lat="51.495661977678537" lon="5.427121035754681">
        <ele>21.289999999999999</ele>
        <time>2019-08-30T09:32:38Z</time>
      </trkpt>
      <trkpt lat="51.49777396582067" lon="5.424010008573532">
        <ele>19.359999999999999</ele>
        <time>2019-08-30T09:32:49Z</time>
      </trkpt>
      <trkpt lat="51.500038001686335" lon="5.421071983873844">
        <ele>20.809999999999999</ele>
        <time>2019-08-30T09:32:59Z</time>
      </trkpt>
      <trkpt lat="51.502719037234783" lon="5.417915023863316">
        <ele>23.210000000000001</ele>
        <time>2019-08-30T09:33:10Z</time>
      </trkpt>
      <trkpt lat="51.505591012537479" lon="5.414176024496555">
        <ele>23.210000000000001</ele>
        <time>2019-08-30T09:33:22Z</time>
      </trkpt>
      <trkpt lat="51.509508965536952" lon="5.408571967855096">
        <ele>16.960000000000001</ele>
        <time>2019-08-30T09:33:39Z</time>
      </trkpt>
      <trkpt lat="51.511683985590935" lon="5.405834019184113">
        <ele>12.15</ele>
        <time>2019-08-30T09:33:48Z</time>
      </trkpt>
      <trkpt lat="51.514752013608813" lon="5.402573961764574">
        <ele>9.75</ele>
        <time>2019-08-30T09:34:00Z</time>
      </trkpt>
      <trkpt lat="51.516316998749971" lon="5.401018029078841">
        <ele>9.27</ele>
        <time>2019-08-30T09:34:06Z</time>
      </trkpt>
      <trkpt lat="51.516575999557972" lon="5.400755004957318">
        <ele>10.23</ele>
        <time>2019-08-30T09:34:07Z</time>
      </trkpt>
      <trkpt lat="51.519965976476669" lon="5.397333009168506">
        <ele>11.67</ele>
        <time>2019-08-30T09:34:20Z</time>
      </trkpt>
      <trkpt lat="51.523074992001057" lon="5.394194992259145">
        <ele>17.920000000000002</ele>
        <time>2019-08-30T09:34:32Z</time>
      </trkpt>
      <trkpt lat="51.52690895833075" lon="5.390028012916446">
        <ele>16.48</ele>
        <time>2019-08-30T09:34:47Z</time>
      </trkpt>
      <trkpt lat="51.530991028994322" lon="5.385629022493959">
        <ele>11.67</ele>
        <time>2019-08-30T09:35:03Z</time>
      </trkpt>
      <trkpt lat="51.533604003489017" lon="5.382986040785909">
        <ele>13.119999999999999</ele>
        <time>2019-08-30T09:35:13Z</time>
      </trkpt>
      <trkpt lat="51.536039030179381" lon="5.380555037409067">
        <ele>12.630000000000001</ele>
        <time>2019-08-30T09:35:23Z</time>
      </trkpt>
      <trkpt lat="51.539242006838322" lon="5.37734099663794">
        <ele>12.15</ele>
        <time>2019-08-30T09:35:37Z</time>
      </trkpt>
      <trkpt lat="51.541201025247574" lon="5.375381978228688">
        <ele>12.630000000000001</ele>
        <time>2019-08-30T09:35:45Z</time>
      </trkpt>
      <trkpt lat="51.544163022190332" lon="5.372416963800788">
        <ele>12.15</ele>
        <time>2019-08-30T09:35:57Z</time>
      </trkpt>
      <trkpt lat="51.547433976083994" lon="5.369127988815308">
        <ele>11.19</ele>
        <time>2019-08-30T09:36:10Z</time>
      </trkpt>
      <trkpt lat="51.550757987424731" lon="5.36580397747457">
        <ele>10.710000000000001</ele>
        <time>2019-08-30T09:36:23Z</time>
      </trkpt>
      <trkpt lat="51.554180989041924" lon="5.362376030534506">
        <ele>11.19</ele>
        <time>2019-08-30T09:36:36Z</time>
      </trkpt>
      <trkpt lat="51.557650007307529" lon="5.359223010018468">
        <ele>10.710000000000001</ele>
        <time>2019-08-30T09:36:49Z</time>
      </trkpt>
      <trkpt lat="51.560259964317083" lon="5.357735976576805">
        <ele>10.23</ele>
        <time>2019-08-30T09:36:58Z</time>
      </trkpt>
      <trkpt lat="51.562987016513944" lon="5.356898037716746">
        <ele>10.23</ele>
        <time>2019-08-30T09:37:07Z</time>
      </trkpt>
      <trkpt lat="51.566674970090389" lon="5.356611041352153">
        <ele>9.75</ele>
        <time>2019-08-30T09:37:19Z</time>
      </trkpt>
      <trkpt lat="51.571293985471129" lon="5.35649998113513">
        <ele>9.27</ele>
        <time>2019-08-30T09:37:34Z</time>
      </trkpt>
      <trkpt lat="51.576523035764694" lon="5.356379030272365">
        <ele>13.119999999999999</ele>
        <time>2019-08-30T09:37:51Z</time>
      </trkpt>
      <trkpt lat="51.579884011298418" lon="5.356283979490399">
        <ele>16</ele>
        <time>2019-08-30T09:38:02Z</time>
      </trkpt>
      <trkpt lat="51.582462033256888" lon="5.355857005342841">
        <ele>15.039999999999999</ele>
        <time>2019-08-30T09:38:11Z</time>
      </trkpt>
      <trkpt lat="51.585074001923203" lon="5.354684963822365">
        <ele>13.119999999999999</ele>
        <time>2019-08-30T09:38:20Z</time>
      </trkpt>
      <trkpt lat="51.587583040818572" lon="5.352788977324963">
        <ele>9.75</ele>
        <time>2019-08-30T09:38:29Z</time>
      </trkpt>
      <trkpt lat="51.589607018977404" lon="5.350538017228246">
        <ele>9.75</ele>
        <time>2019-08-30T09:38:37Z</time>
      </trkpt>
      <trkpt lat="51.59224396571517" lon="5.347129013389349">
        <ele>11.19</ele>
        <time>2019-08-30T09:38:48Z</time>
      </trkpt>
      <trkpt lat="51.594653008505702" lon="5.344036007300019">
        <ele>12.630000000000001</ele>
        <time>2019-08-30T09:38:58Z</time>
      </trkpt>
      <trkpt lat="51.597555996850133" lon="5.340374037623406">
        <ele>11.67</ele>
        <time>2019-08-30T09:39:10Z</time>
      </trkpt>
      <trkpt lat="51.600252036005259" lon="5.337063018232584">
        <ele>10.710000000000001</ele>
        <time>2019-08-30T09:39:21Z</time>
      </trkpt>
      <trkpt lat="51.603878969326615" lon="5.332539975643158">
        <ele>8.310000000000001</ele>
        <time>2019-08-30T09:39:36Z</time>
      </trkpt>
      <trkpt lat="51.606575008481741" lon="5.328506017103791">
        <ele>9.27</ele>
        <time>2019-08-30T09:39:48Z</time>
      </trkpt>
      <trkpt lat="51.60872002132237" lon="5.324948988854885">
        <ele>11.19</ele>
        <time>2019-08-30T09:39:58Z</time>
      </trkpt>
      <trkpt lat="51.610905015841126" lon="5.321448035538197">
        <ele>12.15</ele>
        <time>2019-08-30T09:40:08Z</time>
      </trkpt>
      <trkpt lat="51.612974004819989" lon="5.3193290065974">
        <ele>10.23</ele>
        <time>2019-08-30T09:40:16Z</time>
      </trkpt>
      <trkpt lat="51.61497401073575" lon="5.318092005327344">
        <ele>9.27</ele>
        <time>2019-08-30T09:40:23Z</time>
      </trkpt>
      <trkpt lat="51.618591975420713" lon="5.316803036257625">
        <ele>8.310000000000001</ele>
        <time>2019-08-30T09:40:35Z</time>
      </trkpt>
      <trkpt lat="51.62189100869" lon="5.315645998343825">
        <ele>7.35</ele>
        <time>2019-08-30T09:40:46Z</time>
      </trkpt>
      <trkpt lat="51.62550101056695" lon="5.314412014558911">
        <ele>7.83</ele>
        <time>2019-08-30T09:40:58Z</time>
      </trkpt>
      <trkpt lat="51.629998991265893" lon="5.3129050321877">
        <ele>9.75</ele>
        <time>2019-08-30T09:41:13Z</time>
      </trkpt>
      <trkpt lat="51.63203302770853" lon="5.312254009768367">
        <ele>8.789999999999999</ele>
        <time>2019-08-30T09:41:21Z</time>
      </trkpt>
      <trkpt lat="51.634652959182858" lon="5.311511037871242">
        <ele>11.19</ele>
        <time>2019-08-30T09:41:31Z</time>
      </trkpt>
      <trkpt lat="51.637272974476218" lon="5.31099496409297">
        <ele>11.67</ele>
        <time>2019-08-30T09:41:40Z</time>
      </trkpt>
      <trkpt lat="51.640135981142521" lon="5.310680978000164">
        <ele>9.27</ele>
        <time>2019-08-30T09:41:51Z</time>
      </trkpt>
      <trkpt lat="51.643113987520337" lon="5.309824012219906">
        <ele>7.83</ele>
        <time>2019-08-30T09:42:03Z</time>
      </trkpt>
      <trkpt lat="51.646253010258079" lon="5.30813598074019">
        <ele>7.83</ele>
        <time>2019-08-30T09:42:16Z</time>
      </trkpt>
      <trkpt lat="51.64986502379179" lon="5.306080989539623">
        <ele>4.46</ele>
        <time>2019-08-30T09:42:31Z</time>
      </trkpt>
      <trkpt lat="51.651983968913555" lon="5.30489101074636">
        <ele>3.02</ele>
        <time>2019-08-30T09:42:40Z</time>
      </trkpt>
      <trkpt lat="51.654640026390553" lon="5.303555019199848">
        <ele>2.06</ele>
        <time>2019-08-30T09:42:51Z</time>
      </trkpt>
      <trkpt lat="51.657153004780412" lon="5.302869966253638">
        <ele>2.06</ele>
        <time>2019-08-30T09:43:01Z</time>
      </trkpt>
      <trkpt lat="51.660449020564556" lon="5.302577018737793">
        <ele>3.02</ele>
        <time>2019-08-30T09:43:14Z</time>
      </trkpt>
      <trkpt lat="51.663213958963752" lon="5.302939033135772">
        <ele>8.310000000000001</ele>
        <time>2019-08-30T09:43:25Z</time>
      </trkpt>
      <trkpt lat="51.665118997916579" lon="5.304100010544062">
        <ele>10.710000000000001</ele>
        <time>2019-08-30T09:43:33Z</time>
      </trkpt>
      <trkpt lat="51.666589016094804" lon="5.305695002898574">
        <ele>10.23</ele>
        <time>2019-08-30T09:43:40Z</time>
      </trkpt>
      <trkpt lat="51.667954009026289" lon="5.308117959648371">
        <ele>9.75</ele>
        <time>2019-08-30T09:43:48Z</time>
      </trkpt>
      <trkpt lat="51.668929997831583" lon="5.310983983799815">
        <ele>8.310000000000001</ele>
        <time>2019-08-30T09:43:56Z</time>
      </trkpt>
      <trkpt lat="51.669882014393806" lon="5.315635018050671">
        <ele>3.02</ele>
        <time>2019-08-30T09:44:08Z</time>
      </trkpt>
      <trkpt lat="51.670996975153685" lon="5.320611018687487">
        <ele>2.06</ele>
        <time>2019-08-30T09:44:21Z</time>
      </trkpt>
      <trkpt lat="51.672822972759604" lon="5.325523987412453">
        <ele>2.06</ele>
        <time>2019-08-30T09:44:35Z</time>
      </trkpt>
      <trkpt lat="51.674140021204948" lon="5.328986970707774">
        <ele>2.06</ele>
        <time>2019-08-30T09:44:45Z</time>
      </trkpt>
      <trkpt lat="51.675212988629937" lon="5.332705015316606">
        <ele>2.54</ele>
        <time>2019-08-30T09:44:55Z</time>
      </trkpt>
      <trkpt lat="51.675858981907368" lon="5.336680971086025">
        <ele>3.02</ele>
        <time>2019-08-30T09:45:05Z</time>
      </trkpt>
      <trkpt lat="51.676649982109666" lon="5.340982982888818">
        <ele>3.02</ele>
        <time>2019-08-30T09:45:16Z</time>
      </trkpt>
      <trkpt lat="51.67779503390193" lon="5.343665024265647">
        <ele>3.98</ele>
        <time>2019-08-30T09:45:24Z</time>
      </trkpt>
      <trkpt lat="51.679355995729566" lon="5.345718003809452">
        <ele>7.35</ele>
        <time>2019-08-30T09:45:32Z</time>
      </trkpt>
      <trkpt lat="51.681209988892078" lon="5.347035974264145">
        <ele>10.710000000000001</ele>
        <time>2019-08-30T09:45:40Z</time>
      </trkpt>
      <trkpt lat="51.683712992817163" lon="5.34781901165843">
        <ele>11.67</ele>
        <time>2019-08-30T09:45:50Z</time>
      </trkpt>
      <trkpt lat="51.687146974727511" lon="5.348919974640012">
        <ele>8.789999999999999</ele>
        <time>2019-08-30T09:46:03Z</time>
      </trkpt>
      <trkpt lat="51.693002991378307" lon="5.350847980007529">
        <ele>5.91</ele>
        <time>2019-08-30T09:46:23Z</time>
      </trkpt>
      <trkpt lat="51.696508973836899" lon="5.351941986009479">
        <ele>7.83</ele>
        <time>2019-08-30T09:46:35Z</time>
      </trkpt>
      <trkpt lat="51.699205012992024" lon="5.351853976026177">
        <ele>9.75</ele>
        <time>2019-08-30T09:46:44Z</time>
      </trkpt>
      <trkpt lat="51.701843971386552" lon="5.351031962782145">
        <ele>10.23</ele>
        <time>2019-08-30T09:46:53Z</time>
      </trkpt>
      <trkpt lat="51.704705972224474" lon="5.349543001502752">
        <ele>8.310000000000001</ele>
        <time>2019-08-30T09:47:03Z</time>
      </trkpt>
      <trkpt lat="51.70735901221633" lon="5.347347026690841">
        <ele>2.06</ele>
        <time>2019-08-30T09:47:13Z</time>
      </trkpt>
      <trkpt lat="51.709124995395541" lon="5.345560004934669">
        <ele>-0.82</ele>
        <time>2019-08-30T09:47:20Z</time>
      </trkpt>
      <trkpt lat="51.712616980075836" lon="5.341853024438024">
        <ele>2.54</ele>
        <time>2019-08-30T09:47:34Z</time>
      </trkpt>
      <trkpt lat="51.715621976181865" lon="5.338686006143689">
        <ele>3.02</ele>
        <time>2019-08-30T09:47:46Z</time>
      </trkpt>
      <trkpt lat="51.717273965477943" lon="5.336650041863322">
        <ele>3.98</ele>
        <time>2019-08-30T09:47:53Z</time>
      </trkpt>
      <trkpt lat="51.719459965825081" lon="5.333289988338947">
        <ele>4.94</ele>
        <time>2019-08-30T09:48:03Z</time>
      </trkpt>
      <trkpt lat="51.721590980887413" lon="5.329206995666027">
        <ele>8.310000000000001</ele>
        <time>2019-08-30T09:48:14Z</time>
      </trkpt>
      <trkpt lat="51.72412097454071" lon="5.324456971138716">
        <ele>9.75</ele>
        <time>2019-08-30T09:48:27Z</time>
      </trkpt>
      <trkpt lat="51.726170014590025" lon="5.320960963144898">
        <ele>11.19</ele>
        <time>2019-08-30T09:48:37Z</time>
      </trkpt>
      <trkpt lat="51.728694979101419" lon="5.317000010982156">
        <ele>13.119999999999999</ele>
        <time>2019-08-30T09:48:49Z</time>
      </trkpt>
      <trkpt lat="51.731276018545032" lon="5.313354972749949">
        <ele>11.19</ele>
        <time>2019-08-30T09:49:02Z</time>
      </trkpt>
      <trkpt lat="51.732353009283543" lon="5.312009006738663">
        <ele>11.19</ele>
        <time>2019-08-30T09:49:08Z</time>
      </trkpt>
      <trkpt lat="51.733361016958952" lon="5.31071400269866">
        <ele>11.67</ele>
        <time>2019-08-30T09:49:17Z</time>
      </trkpt>
      <trkpt lat="51.734513025730848" lon="5.30929503031075">
        <ele>12.630000000000001</ele>
        <time>2019-08-30T09:49:25Z</time>
      </trkpt>
      <trkpt lat="51.736051021143794" lon="5.30749199911952">
        <ele>16.48</ele>
        <time>2019-08-30T09:49:34Z</time>
      </trkpt>
      <trkpt lat="51.737876012921333" lon="5.305485036224127">
        <ele>21.289999999999999</ele>
        <time>2019-08-30T09:49:42Z</time>
      </trkpt>
      <trkpt lat="51.741450978443027" lon="5.3015820030123">
        <ele>18.879999999999999</ele>
        <time>2019-08-30T09:49:57Z</time>
      </trkpt>
      <trkpt lat="51.744566028937697" lon="5.298241982236505">
        <ele>11.19</ele>
        <time>2019-08-30T09:50:10Z</time>
      </trkpt>
      <trkpt lat="51.748681962490082" lon="5.293782977387309">
        <ele>9.75</ele>
        <time>2019-08-30T09:50:27Z</time>
      </trkpt>
      <trkpt lat="51.751902960240841" lon="5.290232989937067">
        <ele>10.23</ele>
        <time>2019-08-30T09:50:40Z</time>
      </trkpt>
      <trkpt lat="51.754471007734537" lon="5.287340981885791">
        <ele>10.23</ele>
        <time>2019-08-30T09:50:51Z</time>
      </trkpt>
      <trkpt lat="51.755310036242008" lon="5.286397011950612">
        <ele>9.75</ele>
        <time>2019-08-30T09:50:56Z</time>
      </trkpt>
      <trkpt lat="51.757042994722724" lon="5.284337997436523">
        <ele>9.27</ele>
        <time>2019-08-30T09:51:06Z</time>
      </trkpt>
      <trkpt lat="51.759208040311933" lon="5.281883021816611">
        <ele>8.310000000000001</ele>
        <time>2019-08-30T09:51:17Z</time>
      </trkpt>
      <trkpt lat="51.761782038956881" lon="5.278737964108586">
        <ele>7.35</ele>
        <time>2019-08-30T09:51:29Z</time>
      </trkpt>
      <trkpt lat="51.764241037890315" lon="5.275342036038637">
        <ele>6.39</ele>
        <time>2019-08-30T09:51:41Z</time>
      </trkpt>
      <trkpt lat="51.765857990831137" lon="5.272380039095879">
        <ele>8.310000000000001</ele>
        <time>2019-08-30T09:51:50Z</time>
      </trkpt>
      <trkpt lat="51.767721036449075" lon="5.268096970394254">
        <ele>8.789999999999999</ele>
        <time>2019-08-30T09:52:02Z</time>
      </trkpt>
      <trkpt lat="51.769425999373198" lon="5.264816964045167">
        <ele>7.83</ele>
        <time>2019-08-30T09:52:12Z</time>
      </trkpt>
      <trkpt lat="51.771066002547741" lon="5.262606991454959">
        <ele>4.94</ele>
        <time>2019-08-30T09:52:20Z</time>
      </trkpt>
      <trkpt lat="51.773221995681524" lon="5.260644033551216">
        <ele>-0.82</ele>
        <time>2019-08-30T09:52:29Z</time>
      </trkpt>
      <trkpt lat="51.775545962154865" lon="5.259365038946271">
        <ele>-4.67</ele>
        <time>2019-08-30T09:52:38Z</time>
      </trkpt>
      <trkpt lat="51.778055001050234" lon="5.258738994598389">
        <ele>-5.15</ele>
        <time>2019-08-30T09:52:47Z</time>
      </trkpt>
      <trkpt lat="51.782148974016309" lon="5.258314032107592">
        <ele>-2.27</ele>
        <time>2019-08-30T09:53:01Z</time>
      </trkpt>
      <trkpt lat="51.786642009392381" lon="5.257919998839498">
        <ele>-0.82</ele>
        <time>2019-08-30T09:53:16Z</time>
      </trkpt>
      <trkpt lat="51.790231978520751" lon="5.258072968572378">
        <ele>-2.75</ele>
        <time>2019-08-30T09:53:28Z</time>
      </trkpt>
      <trkpt lat="51.795000024139881" lon="5.258377986028791">
        <ele>0.62</ele>
        <time>2019-08-30T09:53:44Z</time>
      </trkpt>
      <trkpt lat="51.79978801868856" lon="5.25865500792861">
        <ele>2.06</ele>
        <time>2019-08-30T09:54:00Z</time>
      </trkpt>
      <trkpt lat="51.805473966524005" lon="5.259005036205053">
        <ele>6.87</ele>
        <time>2019-08-30T09:54:19Z</time>
      </trkpt>
      <trkpt lat="51.808764031156898" lon="5.259295972064138">
        <ele>8.310000000000001</ele>
        <time>2019-08-30T09:54:30Z</time>
      </trkpt>
      <trkpt lat="51.811403995379806" lon="5.260204989463091">
        <ele>9.27</ele>
        <time>2019-08-30T09:54:39Z</time>
      </trkpt>
      <trkpt lat="51.813451023772359" lon="5.260678986087441">
        <ele>14.08</ele>
        <time>2019-08-30T09:54:46Z</time>
      </trkpt>
      <trkpt lat="51.81555999442935" lon="5.260657025501132">
        <ele>20.32</ele>
        <time>2019-08-30T09:54:54Z</time>
      </trkpt>
      <trkpt lat="51.817438965663314" lon="5.260368017479777">
        <ele>24.170000000000002</ele>
        <time>2019-08-30T09:55:02Z</time>
      </trkpt>
      <trkpt lat="51.820290992036462" lon="5.259849010035396">
        <ele>27.530000000000001</ele>
        <time>2019-08-30T09:55:13Z</time>
      </trkpt>
      <trkpt lat="51.823146035894752" lon="5.259282980114222">
        <ele>21.77</ele>
        <time>2019-08-30T09:55:23Z</time>
      </trkpt>
      <trkpt lat="51.825429014861584" lon="5.258181011304259">
        <ele>17.920000000000002</ele>
        <time>2019-08-30T09:55:31Z</time>
      </trkpt>
      <trkpt lat="51.828095968812704" lon="5.256066005676985">
        <ele>14.08</ele>
        <time>2019-08-30T09:55:41Z</time>
      </trkpt>
      <trkpt lat="51.830952018499374" lon="5.253580017015338">
        <ele>11.19</ele>
        <time>2019-08-30T09:55:52Z</time>
      </trkpt>
      <trkpt lat="51.832642983645201" lon="5.252049984410405">
        <ele>8.310000000000001</ele>
        <time>2019-08-30T09:56:00Z</time>
      </trkpt>
      <trkpt lat="51.835760967805982" lon="5.249249003827572">
        <ele>5.91</ele>
        <time>2019-08-30T09:56:15Z</time>
      </trkpt>
      <trkpt lat="51.837427960708737" lon="5.247703967615962">
        <ele>5.91</ele>
        <time>2019-08-30T09:56:24Z</time>
      </trkpt>
      <trkpt lat="51.839655032381415" lon="5.245467005297542">
        <ele>9.27</ele>
        <time>2019-08-30T09:56:38Z</time>
      </trkpt>
      <trkpt lat="51.841742964461446" lon="5.243369014933705">
        <ele>10.710000000000001</ele>
        <time>2019-08-30T09:56:51Z</time>
      </trkpt>
      <trkpt lat="51.843486987054348" lon="5.241590961813927">
        <ele>6.87</ele>
        <time>2019-08-30T09:57:02Z</time>
      </trkpt>
      <trkpt lat="51.84475801885128" lon="5.240294029936194">
        <ele>5.42</ele>
        <time>2019-08-30T09:57:10Z</time>
      </trkpt>
      <trkpt lat="51.846507992595434" lon="5.238533997908235">
        <ele>5.91</ele>
        <time>2019-08-30T09:57:21Z</time>
      </trkpt>
      <trkpt lat="51.848322004079819" lon="5.23667698726058">
        <ele>8.310000000000001</ele>
        <time>2019-08-30T09:57:32Z</time>
      </trkpt>
      <trkpt lat="51.85000098310411" lon="5.234975041821599">
        <ele>7.35</ele>
        <time>2019-08-30T09:57:40Z</time>
      </trkpt>
      <trkpt lat="51.85223400592804" lon="5.232739001512528">
        <ele>6.87</ele>
        <time>2019-08-30T09:57:49Z</time>
      </trkpt>
      <trkpt lat="51.854172991588712" lon="5.230936976149678">
        <ele>5.91</ele>
        <time>2019-08-30T09:57:57Z</time>
      </trkpt>
      <trkpt lat="51.857003979384899" lon="5.228561963886023">
        <ele>3.98</ele>
        <time>2019-08-30T09:58:08Z</time>
      </trkpt>
      <trkpt lat="51.86070098541677" lon="5.225391006097198">
        <ele>4.46</ele>
        <time>2019-08-30T09:58:22Z</time>
      </trkpt>
      <trkpt lat="51.864659003913403" lon="5.222032964229584">
        <ele>4.94</ele>
        <time>2019-08-30T09:58:37Z</time>
      </trkpt>
      <trkpt lat="51.868110001087189" lon="5.219194013625383">
        <ele>2.54</ele>
        <time>2019-08-30T09:58:50Z</time>
      </trkpt>
      <trkpt lat="51.871487991884351" lon="5.216188011690974">
        <ele>2.54</ele>
        <time>2019-08-30T09:59:03Z</time>
      </trkpt>
      <trkpt lat="51.873980015516281" lon="5.213524997234345">
        <ele>3.5</ele>
        <time>2019-08-30T09:59:13Z</time>
      </trkpt>
      <trkpt lat="51.876962967216969" lon="5.21033501252532">
        <ele>3.5</ele>
        <time>2019-08-30T09:59:25Z</time>
      </trkpt>
      <trkpt lat="51.878463998436928" lon="5.208944035694003">
        <ele>2.54</ele>
        <time>2019-08-30T09:59:31Z</time>
      </trkpt>
      <trkpt lat="51.878739008679986" lon="5.208713030442596">
        <ele>2.54</ele>
        <time>2019-08-30T09:59:32Z</time>
      </trkpt>
      <trkpt lat="51.881667980924249" lon="5.206422004848719">
        <ele>2.54</ele>
        <time>2019-08-30T09:59:43Z</time>
      </trkpt>
      <trkpt lat="51.885118978098035" lon="5.203528990969062">
        <ele>5.91</ele>
        <time>2019-08-30T09:59:56Z</time>
      </trkpt>
      <trkpt lat="51.888810032978654" lon="5.200297012925148">
        <ele>6.87</ele>
        <time>2019-08-30T10:00:10Z</time>
      </trkpt>
      <trkpt lat="51.891985014081001" lon="5.197521010413766">
        <ele>3.5</ele>
        <time>2019-08-30T10:00:22Z</time>
      </trkpt>
      <trkpt lat="51.895858040079474" lon="5.193931963294745">
        <ele>2.54</ele>
        <time>2019-08-30T10:00:37Z</time>
      </trkpt>
      <trkpt lat="51.898590959608555" lon="5.191066022962332">
        <ele>6.39</ele>
        <time>2019-08-30T10:00:48Z</time>
      </trkpt>
      <trkpt lat="51.901669967919588" lon="5.18803202547133">
        <ele>4.94</ele>
        <time>2019-08-30T10:01:00Z</time>
      </trkpt>
      <trkpt lat="51.904306998476386" lon="5.185739994049072">
        <ele>0.14</ele>
        <time>2019-08-30T10:01:10Z</time>
      </trkpt>
      <trkpt lat="51.907545011490583" lon="5.183314019814134">
        <ele>-0.34</ele>
        <time>2019-08-30T10:01:22Z</time>
      </trkpt>
      <trkpt lat="51.912148017436266" lon="5.179898981004953">
        <ele>0.14</ele>
        <time>2019-08-30T10:01:39Z</time>
      </trkpt>
      <trkpt lat="51.91595901735127" lon="5.177086014300585">
        <ele>-0.34</ele>
        <time>2019-08-30T10:01:53Z</time>
      </trkpt>
      <trkpt lat="51.918913973495364" lon="5.17477797344327">
        <ele>1.1</ele>
        <time>2019-08-30T10:02:04Z</time>
      </trkpt>
      <trkpt lat="51.92176197655499" lon="5.172090986743569">
        <ele>2.06</ele>
        <time>2019-08-30T10:02:15Z</time>
      </trkpt>
      <trkpt lat="51.926834033802152" lon="5.166911976411939">
        <ele>3.02</ele>
        <time>2019-08-30T10:02:35Z</time>
      </trkpt>
      <trkpt lat="51.929888986051083" lon="5.163802038878202">
        <ele>2.54</ele>
        <time>2019-08-30T10:02:47Z</time>
      </trkpt>
      <trkpt lat="51.932922983542085" lon="5.160728981718421">
        <ele>3.5</ele>
        <time>2019-08-30T10:02:59Z</time>
      </trkpt>
      <trkpt lat="51.93583401851356" lon="5.157403964549303">
        <ele>5.91</ele>
        <time>2019-08-30T10:03:11Z</time>
      </trkpt>
      <trkpt lat="51.937946006655693" lon="5.153963025659323">
        <ele>9.27</ele>
        <time>2019-08-30T10:03:21Z</time>
      </trkpt>
      <trkpt lat="51.940631987527013" lon="5.149368988350034">
        <ele>6.39</ele>
        <time>2019-08-30T10:03:34Z</time>
      </trkpt>
      <trkpt lat="51.943517038598657" lon="5.144498012959957">
        <ele>6.87</ele>
        <time>2019-08-30T10:03:48Z</time>
      </trkpt>
      <trkpt lat="51.946817999705672" lon="5.138857997953892">
        <ele>5.91</ele>
        <time>2019-08-30T10:04:04Z</time>
      </trkpt>
      <trkpt lat="51.949080023914576" lon="5.135042974725366">
        <ele>2.06</ele>
        <time>2019-08-30T10:04:15Z</time>
      </trkpt>
      <trkpt lat="51.951067037880421" lon="5.131773026660085">
        <ele>2.06</ele>
        <time>2019-08-30T10:04:25Z</time>
      </trkpt>
      <trkpt lat="51.953300982713699" lon="5.128040984272957">
        <ele>2.06</ele>
        <time>2019-08-30T10:04:36Z</time>
      </trkpt>
      <trkpt lat="51.955702984705567" lon="5.124171981588006">
        <ele>1.58</ele>
        <time>2019-08-30T10:04:47Z</time>
      </trkpt>
      <trkpt lat="51.957973977550864" lon="5.121579961851239">
        <ele>1.58</ele>
        <time>2019-08-30T10:04:56Z</time>
      </trkpt>
      <trkpt lat="51.960759032517672" lon="5.118769006803632">
        <ele>2.06</ele>
        <time>2019-08-30T10:05:07Z</time>
      </trkpt>
      <trkpt lat="51.963532017543912" lon="5.115978000685573">
        <ele>2.54</ele>
        <time>2019-08-30T10:05:18Z</time>
      </trkpt>
      <trkpt lat="51.967084016650915" lon="5.112359030172229">
        <ele>2.54</ele>
        <time>2019-08-30T10:05:32Z</time>
      </trkpt>
      <trkpt lat="51.970870960503817" lon="5.108478041365743">
        <ele>2.54</ele>
        <time>2019-08-30T10:05:47Z</time>
      </trkpt>
      <trkpt lat="51.973657021299005" lon="5.105602964758873">
        <ele>1.1</ele>
        <time>2019-08-30T10:05:58Z</time>
      </trkpt>
      <trkpt lat="51.974891005083919" lon="5.104278037324548">
        <ele>3.5</ele>
        <time>2019-08-30T10:06:03Z</time>
      </trkpt>
      <trkpt lat="51.976327998563647" lon="5.102538038045168">
        <ele>3.02</ele>
        <time>2019-08-30T10:06:09Z</time>
      </trkpt>
      <trkpt lat="51.976562021300197" lon="5.102237965911627">
        <ele>3.02</ele>
        <time>2019-08-30T10:06:10Z</time>
      </trkpt>
      <trkpt lat="51.979351015761495" lon="5.098686972633004">
        <ele>2.54</ele>
        <time>2019-08-30T10:06:22Z</time>
      </trkpt>
      <trkpt lat="51.981023959815502" lon="5.096214981749654">
        <ele>6.39</ele>
        <time>2019-08-30T10:06:30Z</time>
      </trkpt>
      <trkpt lat="51.982798995450139" lon="5.09291997179389">
        <ele>9.75</ele>
        <time>2019-08-30T10:06:41Z</time>
      </trkpt>
      <trkpt lat="51.985257994383574" lon="5.088317971676588">
        <ele>6.39</ele>
        <time>2019-08-30T10:06:56Z</time>
      </trkpt>
      <trkpt lat="51.987169990316033" lon="5.085160005837679">
        <ele>6.39</ele>
        <time>2019-08-30T10:07:07Z</time>
      </trkpt>
      <trkpt lat="51.989071005955338" lon="5.083226971328259">
        <ele>8.310000000000001</ele>
        <time>2019-08-30T10:07:16Z</time>
      </trkpt>
      <trkpt lat="51.992034008726478" lon="5.081199975684285">
        <ele>12.15</ele>
        <time>2019-08-30T10:07:29Z</time>
      </trkpt>
      <trkpt lat="51.995277972891927" lon="5.079227965325117">
        <ele>19.359999999999999</ele>
        <time>2019-08-30T10:07:43Z</time>
      </trkpt>
      <trkpt lat="51.998384976759553" lon="5.07749299518764">
        <ele>28.02</ele>
        <time>2019-08-30T10:07:56Z</time>
      </trkpt>
      <trkpt lat="52.001527016982436" lon="5.07588199339807">
        <ele>25.609999999999999</ele>
        <time>2019-08-30T10:08:09Z</time>
      </trkpt>
      <trkpt lat="52.003951985388994" lon="5.074943974614143">
        <ele>18.879999999999999</ele>
        <time>2019-08-30T10:08:19Z</time>
      </trkpt>
      <trkpt lat="52.007088996469975" lon="5.07355903275311">
        <ele>13.6</ele>
        <time>2019-08-30T10:08:32Z</time>
      </trkpt>
      <trkpt lat="52.010373026132584" lon="5.071738986298442">
        <ele>11.67</ele>
        <time>2019-08-30T10:08:46Z</time>
      </trkpt>
      <trkpt lat="52.013174006715417" lon="5.070093031972647">
        <ele>10.23</ele>
        <time>2019-08-30T10:08:58Z</time>
      </trkpt>
      <trkpt lat="52.01597398146987" lon="5.06838203407824">
        <ele>14.08</ele>
        <time>2019-08-30T10:09:10Z</time>
      </trkpt>
      <trkpt lat="52.018990041688085" lon="5.066638011485338">
        <ele>14.56</ele>
        <time>2019-08-30T10:09:23Z</time>
      </trkpt>
      <trkpt lat="52.021878026425838" lon="5.065233036875725">
        <ele>14.08</ele>
        <time>2019-08-30T10:09:35Z</time>
      </trkpt>
      <trkpt lat="52.024547997862101" lon="5.064225029200316">
        <ele>10.23</ele>
        <time>2019-08-30T10:09:46Z</time>
      </trkpt>
      <trkpt lat="52.027020994573832" lon="5.063819009810686">
        <ele>8.789999999999999</ele>
        <time>2019-08-30T10:09:56Z</time>
      </trkpt>
      <trkpt lat="52.031252011656761" lon="5.063960999250412">
        <ele>7.83</ele>
        <time>2019-08-30T10:10:13Z</time>
      </trkpt>
      <trkpt lat="52.035000985488296" lon="5.064072981476784">
        <ele>8.789999999999999</ele>
        <time>2019-08-30T10:10:28Z</time>
      </trkpt>
      <trkpt lat="52.037861980497837" lon="5.064203990623355">
        <ele>9.27</ele>
        <time>2019-08-30T10:10:40Z</time>
      </trkpt>
      <trkpt lat="52.039578007534146" lon="5.064283031970263">
        <ele>11.67</ele>
        <time>2019-08-30T10:10:47Z</time>
      </trkpt>
      <trkpt lat="52.042821971699595" lon="5.064413035288453">
        <ele>8.789999999999999</ele>
        <time>2019-08-30T10:11:00Z</time>
      </trkpt>
      <trkpt lat="52.048035012558103" lon="5.064624007791281">
        <ele>2.06</ele>
        <time>2019-08-30T10:11:21Z</time>
      </trkpt>
      <trkpt lat="52.052022032439709" lon="5.064907986670733">
        <ele>3.5</ele>
        <time>2019-08-30T10:11:37Z</time>
      </trkpt>
      <trkpt lat="52.053872002288699" lon="5.065337978303433">
        <ele>2.54</ele>
        <time>2019-08-30T10:11:44Z</time>
      </trkpt>
      <trkpt lat="52.056740960106254" lon="5.066447993740439">
        <ele>3.5</ele>
        <time>2019-08-30T10:11:55Z</time>
      </trkpt>
      <trkpt lat="52.059859028086066" lon="5.067748026922345">
        <ele>2.54</ele>
        <time>2019-08-30T10:12:08Z</time>
      </trkpt>
      <trkpt lat="52.063464000821114" lon="5.069249980151653">
        <ele>4.94</ele>
        <time>2019-08-30T10:12:23Z</time>
      </trkpt>
      <trkpt lat="52.067099986597896" lon="5.070752017199993">
        <ele>7.83</ele>
        <time>2019-08-30T10:12:38Z</time>
      </trkpt>
      <trkpt lat="52.069512968882918" lon="5.071748960763216">
        <ele>3.98</ele>
        <time>2019-08-30T10:12:48Z</time>
      </trkpt>
      <trkpt lat="52.07364097237587" lon="5.073318975046277">
        <ele>2.06</ele>
        <time>2019-08-30T10:13:05Z</time>
      </trkpt>
      <trkpt lat="52.076535997912288" lon="5.074550025165081">
        <ele>3.5</ele>
        <time>2019-08-30T10:13:17Z</time>
      </trkpt>
      <trkpt lat="52.079490032047033" lon="5.075575970113277">
        <ele>2.54</ele>
        <time>2019-08-30T10:13:29Z</time>
      </trkpt>
      <trkpt lat="52.082433002069592" lon="5.076028006151319">
        <ele>6.39</ele>
        <time>2019-08-30T10:13:41Z</time>
      </trkpt>
      <trkpt lat="52.085459036752582" lon="5.075767999514937">
        <ele>5.91</ele>
        <time>2019-08-30T10:13:53Z</time>
      </trkpt>
      <trkpt lat="52.093415977433324" lon="5.071744015440345">
        <ele>5.42</ele>
        <time>2019-08-30T10:14:27Z</time>
      </trkpt>
      <trkpt lat="52.098094001412392" lon="5.068175001069903">
        <ele>5.42</ele>
        <time>2019-08-30T10:14:48Z</time>
      </trkpt>
      <trkpt lat="52.098315032199025" lon="5.067998981103301">
        <ele>5.42</ele>
        <time>2019-08-30T10:14:50Z</time>
      </trkpt>
      <trkpt lat="52.100494997575879" lon="5.066048009321094">
        <ele>7.35</ele>
        <time>2019-08-30T10:15:02Z</time>
      </trkpt>
      <trkpt lat="52.103218026459217" lon="5.063191037625074">
        <ele>7.83</ele>
        <time>2019-08-30T10:15:16Z</time>
      </trkpt>
      <trkpt lat="52.105497987940907" lon="5.060270028188825">
        <ele>7.35</ele>
        <time>2019-08-30T10:15:28Z</time>
      </trkpt>
      <trkpt lat="52.107593966647983" lon="5.057110972702503">
        <ele>5.91</ele>
        <time>2019-08-30T10:15:40Z</time>
      </trkpt>
      <trkpt lat="52.109404038637877" lon="5.053843036293984">
        <ele>4.94</ele>
        <time>2019-08-30T10:15:51Z</time>
      </trkpt>
      <trkpt lat="52.110804989933968" lon="5.05093501880765">
        <ele>0.62</ele>
        <time>2019-08-30T10:16:00Z</time>
      </trkpt>
      <trkpt lat="52.112487992271781" lon="5.046923020854592">
        <ele>1.58</ele>
        <time>2019-08-30T10:16:12Z</time>
      </trkpt>
      <trkpt lat="52.11426998488605" lon="5.042527969926596">
        <ele>1.58</ele>
        <time>2019-08-30T10:16:25Z</time>
      </trkpt>
      <trkpt lat="52.115895990282297" lon="5.038461992517114">
        <ele>1.58</ele>
        <time>2019-08-30T10:16:37Z</time>
      </trkpt>
      <trkpt lat="52.118074027821422" lon="5.033052982762456">
        <ele>0.62</ele>
        <time>2019-08-30T10:16:53Z</time>
      </trkpt>
      <trkpt lat="52.119847973808646" lon="5.029180040583015">
        <ele>-0.34</ele>
        <time>2019-08-30T10:17:05Z</time>
      </trkpt>
      <trkpt lat="52.12191503494978" lon="5.025655031204224">
        <ele>0.62</ele>
        <time>2019-08-30T10:17:17Z</time>
      </trkpt>
      <trkpt lat="52.124718027189374" lon="5.021023023873568">
        <ele>2.06</ele>
        <time>2019-08-30T10:17:33Z</time>
      </trkpt>
      <trkpt lat="52.127563012763858" lon="5.01647500321269">
        <ele>2.54</ele>
        <time>2019-08-30T10:17:49Z</time>
      </trkpt>
      <trkpt lat="52.129640970379114" lon="5.013606967404485">
        <ele>2.54</ele>
        <time>2019-08-30T10:18:00Z</time>
      </trkpt>
      <trkpt lat="52.13218797929585" lon="5.011059958487749">
        <ele>4.46</ele>
        <time>2019-08-30T10:18:12Z</time>
      </trkpt>
      <trkpt lat="52.134704980999231" lon="5.009227003902197">
        <ele>7.83</ele>
        <time>2019-08-30T10:18:23Z</time>
      </trkpt>
      <trkpt lat="52.138144997879863" lon="5.006845034658909">
        <ele>6.87</ele>
        <time>2019-08-30T10:18:38Z</time>
      </trkpt>
      <trkpt lat="52.141129039227962" lon="5.004790965467691">
        <ele>6.39</ele>
        <time>2019-08-30T10:18:51Z</time>
      </trkpt>
      <trkpt lat="52.145275985822082" lon="5.001945979893208">
        <ele>6.39</ele>
        <time>2019-08-30T10:19:09Z</time>
      </trkpt>
      <trkpt lat="52.148935021832585" lon="4.999399976804853">
        <ele>5.42</ele>
        <time>2019-08-30T10:19:25Z</time>
      </trkpt>
      <trkpt lat="52.151920991018414" lon="4.99733098782599">
        <ele>5.42</ele>
        <time>2019-08-30T10:19:38Z</time>
      </trkpt>
      <trkpt lat="52.155596036463976" lon="4.994786996394396">
        <ele>4.94</ele>
        <time>2019-08-30T10:19:54Z</time>
      </trkpt>
      <trkpt lat="52.158462982624769" lon="4.992807023227215">
        <ele>7.35</ele>
        <time>2019-08-30T10:20:07Z</time>
      </trkpt>
      <trkpt lat="52.160694999620318" lon="4.991232985630631">
        <ele>11.67</ele>
        <time>2019-08-30T10:20:18Z</time>
      </trkpt>
      <trkpt lat="52.163718016818166" lon="4.989200960844755">
        <ele>12.630000000000001</ele>
        <time>2019-08-30T10:20:33Z</time>
      </trkpt>
      <trkpt lat="52.166286986321211" lon="4.988088011741638">
        <ele>9.75</ele>
        <time>2019-08-30T10:20:45Z</time>
      </trkpt>
      <trkpt lat="52.168824020773172" lon="4.987665982916951">
        <ele>9.75</ele>
        <time>2019-08-30T10:20:57Z</time>
      </trkpt>
      <trkpt lat="52.170931985601783" lon="4.987532962113619">
        <ele>9.27</ele>
        <time>2019-08-30T10:21:06Z</time>
      </trkpt>
      <trkpt lat="52.173304986208677" lon="4.98734001070261">
        <ele>7.83</ele>
        <time>2019-08-30T10:21:16Z</time>
      </trkpt>
      <trkpt lat="52.176810968667269" lon="4.987048991024494">
        <ele>4.46</ele>
        <time>2019-08-30T10:21:31Z</time>
      </trkpt>
      <trkpt lat="52.180229024961591" lon="4.986763000488281">
        <ele>-0.34</ele>
        <time>2019-08-30T10:21:45Z</time>
      </trkpt>
      <trkpt lat="52.183385984972119" lon="4.986668033525348">
        <ele>0.14</ele>
        <time>2019-08-30T10:21:58Z</time>
      </trkpt>
      <trkpt lat="52.187287006527185" lon="4.986807005479932">
        <ele>2.06</ele>
        <time>2019-08-30T10:22:14Z</time>
      </trkpt>
      <trkpt lat="52.190137021243572" lon="4.986899960786104">
        <ele>0.14</ele>
        <time>2019-08-30T10:22:26Z</time>
      </trkpt>
      <trkpt lat="52.193764038383961" lon="4.987015966325998">
        <ele>-2.27</ele>
        <time>2019-08-30T10:22:41Z</time>
      </trkpt>
      <trkpt lat="52.197991032153368" lon="4.987048991024494">
        <ele>-1.3</ele>
        <time>2019-08-30T10:22:58Z</time>
      </trkpt>
      <trkpt lat="52.201485028490424" lon="4.986980007961392">
        <ele>-1.79</ele>
        <time>2019-08-30T10:23:12Z</time>
      </trkpt>
      <trkpt lat="52.204031031578779" lon="4.986929967999458">
        <ele>-0.82</ele>
        <time>2019-08-30T10:23:23Z</time>
      </trkpt>
      <trkpt lat="52.207255968824029" lon="4.986944971606135">
        <ele>-0.82</ele>
        <time>2019-08-30T10:23:37Z</time>
      </trkpt>
      <trkpt lat="52.210661033168435" lon="4.98697598464787">
        <ele>-1.3</ele>
        <time>2019-08-30T10:23:52Z</time>
      </trkpt>
      <trkpt lat="52.213447010144591" lon="4.987024012953043">
        <ele>-1.3</ele>
        <time>2019-08-30T10:24:04Z</time>
      </trkpt>
      <trkpt lat="52.216708995401859" lon="4.987112022936344">
        <ele>0.14</ele>
        <time>2019-08-30T10:24:18Z</time>
      </trkpt>
      <trkpt lat="52.219767970964313" lon="4.987154016271234">
        <ele>3.98</ele>
        <time>2019-08-30T10:24:31Z</time>
      </trkpt>
      <trkpt lat="52.222109958529472" lon="4.986644983291626">
        <ele>6.87</ele>
        <time>2019-08-30T10:24:41Z</time>
      </trkpt>
      <trkpt lat="52.224891996011138" lon="4.985340004786849">
        <ele>8.310000000000001</ele>
        <time>2019-08-30T10:24:52Z</time>
      </trkpt>
      <trkpt lat="52.226729979738593" lon="4.984062016010284">
        <ele>8.310000000000001</ele>
        <time>2019-08-30T10:25:00Z</time>
      </trkpt>
      <trkpt lat="52.229330968111753" lon="4.981627995148301">
        <ele>4.46</ele>
        <time>2019-08-30T10:25:12Z</time>
      </trkpt>
      <trkpt lat="52.232419028878212" lon="4.979055002331734">
        <ele>1.58</ele>
        <time>2019-08-30T10:25:26Z</time>
      </trkpt>
      <trkpt lat="52.235200982540846" lon="4.977231016382575">
        <ele>1.1</ele>
        <time>2019-08-30T10:25:38Z</time>
      </trkpt>
      <trkpt lat="52.238513007760048" lon="4.975376017391682">
        <ele>1.1</ele>
        <time>2019-08-30T10:25:52Z</time>
      </trkpt>
      <trkpt lat="52.242759028449655" lon="4.973030006513">
        <ele>1.58</ele>
        <time>2019-08-30T10:26:10Z</time>
      </trkpt>
      <trkpt lat="52.247248962521553" lon="4.970613000914455">
        <ele>0.62</ele>
        <time>2019-08-30T10:26:29Z</time>
      </trkpt>
      <trkpt lat="52.250619996339083" lon="4.969199979677796">
        <ele>-1.3</ele>
        <time>2019-08-30T10:26:43Z</time>
      </trkpt>
      <trkpt lat="52.253914000466466" lon="4.967924002557993">
        <ele>-0.82</ele>
        <time>2019-08-30T10:26:57Z</time>
      </trkpt>
      <trkpt lat="52.256935006007552" lon="4.966775011271238">
        <ele>-2.75</ele>
        <time>2019-08-30T10:27:10Z</time>
      </trkpt>
      <trkpt lat="52.260076962411404" lon="4.965519988909364">
        <ele>-0.34</ele>
        <time>2019-08-30T10:27:24Z</time>
      </trkpt>
      <trkpt lat="52.262620031833649" lon="4.964199000969529">
        <ele>0.14</ele>
        <time>2019-08-30T10:27:35Z</time>
      </trkpt>
      <trkpt lat="52.265110965818167" lon="4.962624041363597">
        <ele>-1.3</ele>
        <time>2019-08-30T10:27:46Z</time>
      </trkpt>
      <trkpt lat="52.267491007223725" lon="4.961200039833784">
        <ele>-1.79</ele>
        <time>2019-08-30T10:27:56Z</time>
      </trkpt>
      <trkpt lat="52.27053296752274" lon="4.959695991128683">
        <ele>-3.23</ele>
        <time>2019-08-30T10:28:08Z</time>
      </trkpt>
      <trkpt lat="52.273033959791064" lon="4.958396041765809">
        <ele>-4.67</ele>
        <time>2019-08-30T10:28:18Z</time>
      </trkpt>
      <trkpt lat="52.27603199891746" lon="4.956403998658061">
        <ele>0.62</ele>
        <time>2019-08-30T10:28:31Z</time>
      </trkpt>
      <trkpt lat="52.278311960399151" lon="4.954566014930606">
        <ele>4.94</ele>
        <time>2019-08-30T10:28:42Z</time>
      </trkpt>
      <trkpt lat="52.280343985185027" lon="4.95307101868093">
        <ele>1.1</ele>
        <time>2019-08-30T10:28:57Z</time>
      </trkpt>
      <trkpt lat="52.282266961410642" lon="4.952136017382145">
        <ele>0.14</ele>
        <time>2019-08-30T10:28:59Z</time>
      </trkpt>
      <trkpt lat="52.282510036602616" lon="4.952102992683649">
        <ele>-0.82</ele>
        <time>2019-08-30T10:29:00Z</time>
      </trkpt>
      <trkpt lat="52.282753027975559" lon="4.952090000733733">
        <ele>-0.82</ele>
        <time>2019-08-30T10:29:01Z</time>
      </trkpt>
      <trkpt lat="52.282985961064696" lon="4.952152026817203">
        <ele>-1.3</ele>
        <time>2019-08-30T10:29:02Z</time>
      </trkpt>
      <trkpt lat="52.28322702459991" lon="4.952235007658601">
        <ele>-1.79</ele>
        <time>2019-08-30T10:29:03Z</time>
      </trkpt>
      <trkpt lat="52.283457024022937" lon="4.952341038733721">
        <ele>-1.79</ele>
        <time>2019-08-30T10:29:04Z</time>
      </trkpt>
      <trkpt lat="52.283683000132442" lon="4.952479004859924">
        <ele>-1.79</ele>
        <time>2019-08-30T10:29:05Z</time>
      </trkpt>
      <trkpt lat="52.283900007605553" lon="4.952611019834876">
        <ele>-1.79</ele>
        <time>2019-08-30T10:29:06Z</time>
      </trkpt>
      <trkpt lat="52.284298986196518" lon="4.952853005379438">
        <ele>-0.82</ele>
        <time>2019-08-30T10:29:08Z</time>
      </trkpt>
      <trkpt lat="52.284482968971133" lon="4.952948978170753">
        <ele>-0.34</ele>
        <time>2019-08-30T10:29:09Z</time>
      </trkpt>
      <trkpt lat="52.284672986716032" lon="4.952970016747713">
        <ele>-0.34</ele>
        <time>2019-08-30T10:29:10Z</time>
      </trkpt>
      <trkpt lat="52.28486199863255" lon="4.952977979555726">
        <ele>0.14</ele>
        <time>2019-08-30T10:29:11Z</time>
      </trkpt>
      <trkpt lat="52.285038018599153" lon="4.952901033684611">
        <ele>0.62</ele>
        <time>2019-08-30T10:29:12Z</time>
      </trkpt>
      <trkpt lat="52.285210015252233" lon="4.95281302370131">
        <ele>1.58</ele>
        <time>2019-08-30T10:29:13Z</time>
      </trkpt>
      <trkpt lat="52.285366002470255" lon="4.952676985412836">
        <ele>2.06</ele>
        <time>2019-08-30T10:29:14Z</time>
      </trkpt>
      <trkpt lat="52.285521989688277" lon="4.952540025115013">
        <ele>2.54</ele>
        <time>2019-08-30T10:29:15Z</time>
      </trkpt>
      <trkpt lat="52.285646041855216" lon="4.952324023470283">
        <ele>3.02</ele>
        <time>2019-08-30T10:29:16Z</time>
      </trkpt>
      <trkpt lat="52.285767998546362" lon="4.952111961320043">
        <ele>3.5</ele>
        <time>2019-08-30T10:29:17Z</time>
      </trkpt>
      <trkpt lat="52.285851985216141" lon="4.951852960512042">
        <ele>3.5</ele>
        <time>2019-08-30T10:29:18Z</time>
      </trkpt>
      <trkpt lat="52.285932032391429" lon="4.951587002724409">
        <ele>3.5</ele>
        <time>2019-08-30T10:29:19Z</time>
      </trkpt>
      <trkpt lat="52.286011995747685" lon="4.951318027451634">
        <ele>3.5</ele>
        <time>2019-08-30T10:29:20Z</time>
      </trkpt>
      <trkpt lat="52.286046026274562" lon="4.951012004166842">
        <ele>3.5</ele>
        <time>2019-08-30T10:29:21Z</time>
      </trkpt>
      <trkpt lat="52.286058012396097" lon="4.950690977275372">
        <ele>3.5</ele>
        <time>2019-08-30T10:29:22Z</time>
      </trkpt>
      <trkpt lat="52.286060024052858" lon="4.95036399923265">
        <ele>3.5</ele>
        <time>2019-08-30T10:29:23Z</time>
      </trkpt>
      <trkpt lat="52.286060024052858" lon="4.950026962906122">
        <ele>3.5</ele>
        <time>2019-08-30T10:29:24Z</time>
      </trkpt>
      <trkpt lat="52.285991962999105" lon="4.945859983563423">
        <ele>3.98</ele>
        <time>2019-08-30T10:29:35Z</time>
      </trkpt>
      <trkpt lat="52.285994980484247" lon="4.94181496091187">
        <ele>3.02</ele>
        <time>2019-08-30T10:29:45Z</time>
      </trkpt>
      <trkpt lat="52.286147028207779" lon="4.936951026320458">
        <ele>0.62</ele>
        <time>2019-08-30T10:29:57Z</time>
      </trkpt>
      <trkpt lat="52.286605015397072" lon="4.929297007620335">
        <ele>1.58</ele>
        <time>2019-08-30T10:30:16Z</time>
      </trkpt>
      <trkpt lat="52.287264000624418" lon="4.922908991575241">
        <ele>3.5</ele>
        <time>2019-08-30T10:30:32Z</time>
      </trkpt>
      <trkpt lat="52.288238983601332" lon="4.916147980839014">
        <ele>6.39</ele>
        <time>2019-08-30T10:30:54Z</time>
      </trkpt>
      <trkpt lat="52.289990969002247" lon="4.907659962773323">
        <ele>5.42</ele>
        <time>2019-08-30T10:31:11Z</time>
      </trkpt>
      <trkpt lat="52.291425028815866" lon="4.902033023536205">
        <ele>3.5</ele>
        <time>2019-08-30T10:31:26Z</time>
      </trkpt>
      <trkpt lat="52.292984984815121" lon="4.896955015137792">
        <ele>5.91</ele>
        <time>2019-08-30T10:31:40Z</time>
      </trkpt>
      <trkpt lat="52.294455002993345" lon="4.892239021137357">
        <ele>7.83</ele>
        <time>2019-08-30T10:31:53Z</time>
      </trkpt>
      <trkpt lat="52.295572981238365" lon="4.887314988300204">
        <ele>9.75</ele>
        <time>2019-08-30T10:32:06Z</time>
      </trkpt>
      <trkpt lat="52.296359036117792" lon="4.882210996001959">
        <ele>7.83</ele>
        <time>2019-08-30T10:32:19Z</time>
      </trkpt>
      <trkpt lat="52.297047022730112" lon="4.877037014812231">
        <ele>5.91</ele>
        <time>2019-08-30T10:32:32Z</time>
      </trkpt>
      <trkpt lat="52.297668037936091" lon="4.87308100797236">
        <ele>4.46</ele>
        <time>2019-08-30T10:32:42Z</time>
      </trkpt>
      <trkpt lat="52.298401035368443" lon="4.869635039940476">
        <ele>1.1</ele>
        <time>2019-08-30T10:32:51Z</time>
      </trkpt>
      <trkpt lat="52.299474002793431" lon="4.865076960995793">
        <ele>1.1</ele>
        <time>2019-08-30T10:33:03Z</time>
      </trkpt>
      <trkpt lat="52.300705974921584" lon="4.859736012294889">
        <ele>3.02</ele>
        <time>2019-08-30T10:33:17Z</time>
      </trkpt>
      <trkpt lat="52.301391027867794" lon="4.856833023950458">
        <ele>5.91</ele>
        <time>2019-08-30T10:33:25Z</time>
      </trkpt>
      <trkpt lat="52.302367016673088" lon="4.853194020688534">
        <ele>4.46</ele>
        <time>2019-08-30T10:33:35Z</time>
      </trkpt>
      <trkpt lat="52.303506033495069" lon="4.849991966038942">
        <ele>0.62</ele>
        <time>2019-08-30T10:33:44Z</time>
      </trkpt>
      <trkpt lat="52.304212041199207" lon="4.847076991572976">
        <ele>0.14</ele>
        <time>2019-08-30T10:33:52Z</time>
      </trkpt>
      <trkpt lat="52.304659970104694" lon="4.843551982194185">
        <ele>2.06</ele>
        <time>2019-08-30T10:34:01Z</time>
      </trkpt>
      <trkpt lat="52.305382993072271" lon="4.837981034070253">
        <ele>5.91</ele>
        <time>2019-08-30T10:34:15Z</time>
      </trkpt>
      <trkpt lat="52.306490996852517" lon="4.832171034067869">
        <ele>4.46</ele>
        <time>2019-08-30T10:34:30Z</time>
      </trkpt>
      <trkpt lat="52.307692961767316" lon="4.827271979302168">
        <ele>1.1</ele>
        <time>2019-08-30T10:34:43Z</time>
      </trkpt>
      <trkpt lat="52.309224000200629" lon="4.822638966143131">
        <ele>-0.34</ele>
        <time>2019-08-30T10:34:56Z</time>
      </trkpt>
      <trkpt lat="52.310993000864983" lon="4.818764012306929">
        <ele>2.54</ele>
        <time>2019-08-30T10:35:08Z</time>
      </trkpt>
      <trkpt lat="52.312871972098947" lon="4.815524993464351">
        <ele>6.87</ele>
        <time>2019-08-30T10:35:19Z</time>
      </trkpt>
      <trkpt lat="52.314817998558283" lon="4.81290296651423">
        <ele>6.39</ele>
        <time>2019-08-30T10:35:29Z</time>
      </trkpt>
      <trkpt lat="52.317772032693028" lon="4.809907022863627">
        <ele>-0.82</ele>
        <time>2019-08-30T10:35:43Z</time>
      </trkpt>
      <trkpt lat="52.32125798240304" lon="4.806833965703845">
        <ele>-2.27</ele>
        <time>2019-08-30T10:35:59Z</time>
      </trkpt>
      <trkpt lat="52.323489999398589" lon="4.804232977330685">
        <ele>-2.27</ele>
        <time>2019-08-30T10:36:10Z</time>
      </trkpt>
      <trkpt lat="52.325175013393164" lon="4.801304005086422">
        <ele>-3.71</ele>
        <time>2019-08-30T10:36:20Z</time>
      </trkpt>
      <trkpt lat="52.326498012989759" lon="4.797899024561048">
        <ele>-0.34</ele>
        <time>2019-08-30T10:36:30Z</time>
      </trkpt>
      <trkpt lat="52.32742203399539" lon="4.794136974960566">
        <ele>4.94</ele>
        <time>2019-08-30T10:36:40Z</time>
      </trkpt>
      <trkpt lat="52.327893013134599" lon="4.790138974785805">
        <ele>6.39</ele>
        <time>2019-08-30T10:36:50Z</time>
      </trkpt>
      <trkpt lat="52.327908016741276" lon="4.786471975967288">
        <ele>7.35</ele>
        <time>2019-08-30T10:36:59Z</time>
      </trkpt>
      <trkpt lat="52.327484982088208" lon="4.782026968896389">
        <ele>6.39</ele>
        <time>2019-08-30T10:37:10Z</time>
      </trkpt>
      <trkpt lat="52.327349027618766" lon="4.777979012578726">
        <ele>2.06</ele>
        <time>2019-08-30T10:37:20Z</time>
      </trkpt>
      <trkpt lat="52.327768038958311" lon="4.77483001537621">
        <ele>-2.75</ele>
        <time>2019-08-30T10:37:28Z</time>
      </trkpt>
      <trkpt lat="52.328688958659768" lon="4.771966002881527">
        <ele>-6.11</ele>
        <time>2019-08-30T10:37:36Z</time>
      </trkpt>
      <trkpt lat="52.330104997381568" lon="4.76913602091372">
        <ele>-7.07</ele>
        <time>2019-08-30T10:37:45Z</time>
      </trkpt>
      <trkpt lat="52.331579038873315" lon="4.766368987038732">
        <ele>-11.880000000000001</ele>
        <time>2019-08-30T10:37:54Z</time>
      </trkpt>
      <trkpt lat="52.334597026929259" lon="4.76097397506237">
        <ele>-9.48</ele>
        <time>2019-08-30T10:38:12Z</time>
      </trkpt>
      <trkpt lat="52.336395028978586" lon="4.758784035220742">
        <ele>-6.59</ele>
        <time>2019-08-30T10:38:21Z</time>
      </trkpt>
      <trkpt lat="52.338710026815534" lon="4.757129028439522">
        <ele>-4.67</ele>
        <time>2019-08-30T10:38:31Z</time>
      </trkpt>
      <trkpt lat="52.34111001715064" lon="4.756410028785467">
        <ele>-4.67</ele>
        <time>2019-08-30T10:38:40Z</time>
      </trkpt>
      <trkpt lat="52.343183029443026" lon="4.756210958585143">
        <ele>-3.23</ele>
        <time>2019-08-30T10:38:48Z</time>
      </trkpt>
      <trkpt lat="52.343417974188924" lon="4.756170976907015">
        <ele>-3.23</ele>
        <time>2019-08-30T10:38:49Z</time>
      </trkpt>
      <trkpt lat="52.345845960080624" lon="4.755435967817903">
        <ele>-0.34</ele>
        <time>2019-08-30T10:38:59Z</time>
      </trkpt>
      <trkpt lat="52.348162969574332" lon="4.753995034843683">
        <ele>1.58</ele>
        <time>2019-08-30T10:39:09Z</time>
      </trkpt>
      <trkpt lat="52.350295996293426" lon="4.751821020618081">
        <ele>1.1</ele>
        <time>2019-08-30T10:39:19Z</time>
      </trkpt>
      <trkpt lat="52.352130962535739" lon="4.749078964814544">
        <ele>0.62</ele>
        <time>2019-08-30T10:39:29Z</time>
      </trkpt>
      <trkpt lat="52.354605970904231" lon="4.74449397996068">
        <ele>1.1</ele>
        <time>2019-08-30T10:39:44Z</time>
      </trkpt>
      <trkpt lat="52.356411013752222" lon="4.741135016083717">
        <ele>-0.34</ele>
        <time>2019-08-30T10:39:55Z</time>
      </trkpt>
      <trkpt lat="52.358228964731097" lon="4.737760964781046">
        <ele>0.14</ele>
        <time>2019-08-30T10:40:06Z</time>
      </trkpt>
      <trkpt lat="52.360999016091228" lon="4.732557982206345">
        <ele>4.46</ele>
        <time>2019-08-30T10:40:23Z</time>
      </trkpt>
      <trkpt lat="52.363467989489436" lon="4.727951036766172">
        <ele>1.58</ele>
        <time>2019-08-30T10:40:38Z</time>
      </trkpt>
      <trkpt lat="52.365762032568455" lon="4.723699986934662">
        <ele>-1.79</ele>
        <time>2019-08-30T10:40:52Z</time>
      </trkpt>
      <trkpt lat="52.368382969871163" lon="4.718822976574302">
        <ele>-0.82</ele>
        <time>2019-08-30T10:41:08Z</time>
      </trkpt>
      <trkpt lat="52.37084599211812" lon="4.714248972013593">
        <ele>2.06</ele>
        <time>2019-08-30T10:41:23Z</time>
      </trkpt>
      <trkpt lat="52.373040961101651" lon="4.710360020399094">
        <ele>4.94</ele>
        <time>2019-08-30T10:41:36Z</time>
      </trkpt>
      <trkpt lat="52.374379970133305" lon="4.709294009953737">
        <ele>3.98</ele>
        <time>2019-08-30T10:41:42Z</time>
      </trkpt>
      <trkpt lat="52.376118041574955" lon="4.708854965865612">
        <ele>4.46</ele>
        <time>2019-08-30T10:41:49Z</time>
      </trkpt>
      <trkpt lat="52.380104977637529" lon="4.708222970366478">
        <ele>5.91</ele>
        <time>2019-08-30T10:42:05Z</time>
      </trkpt>
      <trkpt lat="52.38328498788178" lon="4.707717038691044">
        <ele>14.08</ele>
        <time>2019-08-30T10:42:16Z</time>
      </trkpt>
      <trkpt lat="52.387731000781059" lon="4.70700197853148">
        <ele>13.119999999999999</ele>
        <time>2019-08-30T10:42:31Z</time>
      </trkpt>
      <trkpt lat="52.391456002369523" lon="4.706419017165899">
        <ele>3.5</ele>
        <time>2019-08-30T10:42:44Z</time>
      </trkpt>
      <trkpt lat="52.394682029262185" lon="4.705913001671433">
        <ele>0.62</ele>
        <time>2019-08-30T10:42:57Z</time>
      </trkpt>
      <trkpt lat="52.399065010249615" lon="4.705210011452436">
        <ele>0.14</ele>
        <time>2019-08-30T10:43:15Z</time>
      </trkpt>
      <trkpt lat="52.402721028774977" lon="4.704521019011736">
        <ele>0.14</ele>
        <time>2019-08-30T10:43:30Z</time>
      </trkpt>
      <trkpt lat="52.405841024592519" lon="4.703273037448525">
        <ele>1.58</ele>
        <time>2019-08-30T10:43:43Z</time>
      </trkpt>
      <trkpt lat="52.408445030450821" lon="4.701911984011531">
        <ele>2.54</ele>
        <time>2019-08-30T10:43:54Z</time>
      </trkpt>
      <trkpt lat="52.411941960453987" lon="4.700072994455695">
        <ele>1.1</ele>
        <time>2019-08-30T10:44:09Z</time>
      </trkpt>
      <trkpt lat="52.415649024769664" lon="4.697982966899872">
        <ele>3.98</ele>
        <time>2019-08-30T10:44:25Z</time>
      </trkpt>
      <trkpt lat="52.418041974306107" lon="4.695967035368085">
        <ele>6.39</ele>
        <time>2019-08-30T10:44:36Z</time>
      </trkpt>
      <trkpt lat="52.420237027108669" lon="4.693363029509783">
        <ele>9.75</ele>
        <time>2019-08-30T10:44:47Z</time>
      </trkpt>
      <trkpt lat="52.422351026907563" lon="4.689939022064209">
        <ele>7.83</ele>
        <time>2019-08-30T10:44:59Z</time>
      </trkpt>
      <trkpt lat="52.424842966720462" lon="4.685495020821691">
        <ele>2.54</ele>
        <time>2019-08-30T10:45:14Z</time>
      </trkpt>
      <trkpt lat="52.42683500982821" lon="4.682515002787113">
        <ele>3.02</ele>
        <time>2019-08-30T10:45:25Z</time>
      </trkpt>
      <trkpt lat="52.429462987929583" lon="4.679526016116142">
        <ele>4.46</ele>
        <time>2019-08-30T10:45:38Z</time>
      </trkpt>
      <trkpt lat="52.431527031585574" lon="4.677345966920257">
        <ele>3.5</ele>
        <time>2019-08-30T10:45:48Z</time>
      </trkpt>
      <trkpt lat="52.43441803380847" lon="4.674336025491357">
        <ele>-1.3</ele>
        <time>2019-08-30T10:46:02Z</time>
      </trkpt>
      <trkpt lat="52.43658903054893" lon="4.672223031520844">
        <ele>-0.34</ele>
        <time>2019-08-30T10:46:13Z</time>
      </trkpt>
      <trkpt lat="52.438602028414607" lon="4.670628039166331">
        <ele>1.1</ele>
        <time>2019-08-30T10:46:24Z</time>
      </trkpt>
      <trkpt lat="52.440105993300676" lon="4.670168962329626">
        <ele>1.1</ele>
        <time>2019-08-30T10:46:31Z</time>
      </trkpt>
      <trkpt lat="52.441730992868543" lon="4.669348960742354">
        <ele>2.54</ele>
        <time>2019-08-30T10:46:39Z</time>
      </trkpt>
      <trkpt lat="52.442923989146948" lon="4.667925965040922">
        <ele>2.54</ele>
        <time>2019-08-30T10:46:46Z</time>
      </trkpt>
      <trkpt lat="52.443190030753613" lon="4.6674470230937">
        <ele>1.1</ele>
        <time>2019-08-30T10:46:48Z</time>
      </trkpt>
      <trkpt lat="52.443303018808365" lon="4.667179975658655">
        <ele>0.14</ele>
        <time>2019-08-30T10:46:49Z</time>
      </trkpt>
      <trkpt lat="52.443413995206356" lon="4.666900020092726">
        <ele>-0.82</ele>
        <time>2019-08-30T10:46:50Z</time>
      </trkpt>
      <trkpt lat="52.444708999246359" lon="4.663867028430104">
        <ele>-0.34</ele>
        <time>2019-08-30T10:47:01Z</time>
      </trkpt>
      <trkpt lat="52.446061000227928" lon="4.662235993891954">
        <ele>1.58</ele>
        <time>2019-08-30T10:47:09Z</time>
      </trkpt>
      <trkpt lat="52.446890976279974" lon="4.661500984802842">
        <ele>3.02</ele>
        <time>2019-08-30T10:47:15Z</time>
      </trkpt>
      <trkpt lat="52.447630008682609" lon="4.660846022889018">
        <ele>3.02</ele>
        <time>2019-08-30T10:47:25Z</time>
      </trkpt>
      <trkpt lat="52.447716007009149" lon="4.660778967663646">
        <ele>3.02</ele>
        <time>2019-08-30T10:47:32Z</time>
      </trkpt>
      <trkpt lat="52.447919016703963" lon="4.660631027072668">
        <ele>3.02</ele>
        <time>2019-08-30T10:47:38Z</time>
      </trkpt>
      <trkpt lat="52.448027981445193" lon="4.660551985725761">
        <ele>3.5</ele>
        <time>2019-08-30T10:47:40Z</time>
      </trkpt>
      <trkpt lat="52.448133006691933" lon="4.660475961863995">
        <ele>3.98</ele>
        <time>2019-08-30T10:47:45Z</time>
      </trkpt>
      <trkpt lat="52.448133006691933" lon="4.660475961863995">
        <ele>4.46</ele>
        <time>2019-08-30T10:47:46Z</time>
      </trkpt>
      <trkpt lat="52.448158990591764" lon="4.660457018762827">
        <ele>4.46</ele>
        <time>2019-08-30T10:47:47Z</time>
      </trkpt>
      <trkpt lat="52.448180029168725" lon="4.66044201515615">
        <ele>4.94</ele>
        <time>2019-08-30T10:47:48Z</time>
      </trkpt>
      <trkpt lat="52.448211964219809" lon="4.660418964922428">
        <ele>4.94</ele>
        <time>2019-08-30T10:47:49Z</time>
      </trkpt>
      <trkpt lat="52.448253035545349" lon="4.660389041528106">
        <ele>5.42</ele>
        <time>2019-08-30T10:47:50Z</time>
      </trkpt>
      <trkpt lat="52.448843037709594" lon="4.659988973289728">
        <ele>6.87</ele>
        <time>2019-08-30T10:48:00Z</time>
      </trkpt>
      <trkpt lat="52.449902007356286" lon="4.659420009702444">
        <ele>8.789999999999999</ele>
        <time>2019-08-30T10:48:11Z</time>
      </trkpt>
      <trkpt lat="52.450454039499164" lon="4.659155979752541">
        <ele>9.75</ele>
        <time>2019-08-30T10:48:20Z</time>
      </trkpt>
      <trkpt lat="52.450829967856407" lon="4.659009966999292">
        <ele>9.75</ele>
        <time>2019-08-30T10:48:31Z</time>
      </trkpt>
      <trkpt lat="52.450860980898142" lon="4.659004015848041">
        <ele>9.75</ele>
        <time>2019-08-30T10:48:32Z</time>
      </trkpt>
      <trkpt lat="52.450891993939877" lon="4.658996975049377">
        <ele>9.27</ele>
        <time>2019-08-30T10:48:33Z</time>
      </trkpt>
      <trkpt lat="52.45092099532485" lon="4.658991023898125">
        <ele>9.27</ele>
        <time>2019-08-30T10:48:34Z</time>
      </trkpt>
      <trkpt lat="52.450947985053062" lon="4.658984988927841">
        <ele>8.789999999999999</ele>
        <time>2019-08-30T10:48:35Z</time>
      </trkpt>
      <trkpt lat="52.450981009751558" lon="4.658978031948209">
        <ele>8.789999999999999</ele>
        <time>2019-08-30T10:48:36Z</time>
      </trkpt>
      <trkpt lat="52.451015962287784" lon="4.658969985321164">
        <ele>8.310000000000001</ele>
        <time>2019-08-30T10:48:37Z</time>
      </trkpt>
      <trkpt lat="52.451141020283103" lon="4.658967973664403">
        <ele>7.83</ele>
        <time>2019-08-30T10:48:40Z</time>
      </trkpt>
      <trkpt lat="52.451184019446373" lon="4.658980965614319">
        <ele>7.83</ele>
        <time>2019-08-30T10:48:41Z</time>
      </trkpt>
      <trkpt lat="52.451504962518811" lon="4.659072998911142">
        <ele>6.39</ele>
        <time>2019-08-30T10:48:48Z</time>
      </trkpt>
      <trkpt lat="52.451544022187591" lon="4.659083979204297">
        <ele>5.91</ele>
        <time>2019-08-30T10:48:49Z</time>
      </trkpt>
      <trkpt lat="52.451573023572564" lon="4.659092025831342">
        <ele>5.91</ele>
        <time>2019-08-30T10:48:50Z</time>
      </trkpt>
      <trkpt lat="52.451599007472396" lon="4.659099988639355">
        <ele>5.91</ele>
        <time>2019-08-30T10:48:51Z</time>
      </trkpt>
      <trkpt lat="52.451625997200608" lon="4.659108035266399">
        <ele>5.42</ele>
        <time>2019-08-30T10:48:52Z</time>
      </trkpt>
      <trkpt lat="52.45165198110044" lon="4.659114992246032">
        <ele>5.42</ele>
        <time>2019-08-30T10:48:53Z</time>
      </trkpt>
      <trkpt lat="52.451680982485414" lon="4.659123960882425">
        <ele>5.42</ele>
        <time>2019-08-30T10:48:54Z</time>
      </trkpt>
      <trkpt lat="52.451707972213626" lon="4.659131001681089">
        <ele>4.94</ele>
        <time>2019-08-30T10:48:55Z</time>
      </trkpt>
      <trkpt lat="52.451724987477064" lon="4.659136030822992">
        <ele>4.94</ele>
        <time>2019-08-30T10:48:56Z</time>
      </trkpt>
      <trkpt lat="52.451724987477064" lon="4.659136030822992">
        <ele>4.94</ele>
        <time>2019-08-30T10:49:08Z</time>
      </trkpt>
      <trkpt lat="52.451975019648671" lon="4.659208031371236">
        <ele>4.94</ele>
        <time>2019-08-30T10:49:16Z</time>
      </trkpt>
      <trkpt lat="52.452052971348166" lon="4.659230997785926">
        <ele>4.94</ele>
        <time>2019-08-30T10:49:26Z</time>
      </trkpt>
      <trkpt lat="52.452412974089384" lon="4.659334011375904">
        <ele>3.98</ele>
        <time>2019-08-30T10:49:38Z</time>
      </trkpt>
      <trkpt lat="52.452931981533766" lon="4.659463008865714">
        <ele>3.5</ele>
        <time>2019-08-30T10:49:52Z</time>
      </trkpt>
      <trkpt lat="52.453574035316706" lon="4.659499973058701">
        <ele>2.54</ele>
        <time>2019-08-30T10:50:02Z</time>
      </trkpt>
      <trkpt lat="52.453624997287989" lon="4.659497039392591">
        <ele>2.54</ele>
        <time>2019-08-30T10:50:03Z</time>
      </trkpt>
      <trkpt lat="52.453850973397493" lon="4.659429984167218">
        <ele>3.02</ele>
        <time>2019-08-30T10:50:07Z</time>
      </trkpt>
      <trkpt lat="52.453906964510679" lon="4.659396959468722">
        <ele>3.02</ele>
        <time>2019-08-30T10:50:08Z</time>
      </trkpt>
      <trkpt lat="52.454073010012507" lon="4.659296041354537">
        <ele>3.02</ele>
        <time>2019-08-30T10:50:11Z</time>
      </trkpt>
      <trkpt lat="52.454129001125693" lon="4.659262010827661">
        <ele>3.5</ele>
        <time>2019-08-30T10:50:12Z</time>
      </trkpt>
      <trkpt lat="52.454308960586786" lon="4.65915204025805">
        <ele>3.5</ele>
        <time>2019-08-30T10:50:15Z</time>
      </trkpt>
      <trkpt lat="52.454785974696279" lon="4.658812992274761">
        <ele>5.42</ele>
        <time>2019-08-30T10:50:26Z</time>
      </trkpt>
      <trkpt lat="52.454994013532996" lon="4.658663040027022">
        <ele>5.91</ele>
        <time>2019-08-30T10:50:36Z</time>
      </trkpt>
      <trkpt lat="52.455052016302943" lon="4.658620962873101">
        <ele>6.87</ele>
        <time>2019-08-30T10:50:52Z</time>
      </trkpt>
      <trkpt lat="52.455361979082227" lon="4.658418959006667">
        <ele>7.83</ele>
        <time>2019-08-30T10:51:05Z</time>
      </trkpt>
      <trkpt lat="52.455769004300237" lon="4.658160964027047">
        <ele>7.35</ele>
        <time>2019-08-30T10:51:15Z</time>
      </trkpt>
      <trkpt lat="52.455896995961666" lon="4.65807999484241">
        <ele>7.35</ele>
        <time>2019-08-30T10:51:17Z</time>
      </trkpt>
      <trkpt lat="52.455959022045135" lon="4.658041018992662">
        <ele>7.35</ele>
        <time>2019-08-30T10:51:18Z</time>
      </trkpt>
      <trkpt lat="52.456168988719583" lon="4.65790799818933">
        <ele>7.83</ele>
        <time>2019-08-30T10:51:22Z</time>
      </trkpt>
      <trkpt lat="52.456253981217742" lon="4.657854018732905">
        <ele>8.310000000000001</ele>
        <time>2019-08-30T10:51:24Z</time>
      </trkpt>
      <trkpt lat="52.456299997866154" lon="4.657825017347932">
        <ele>8.310000000000001</ele>
        <time>2019-08-30T10:51:25Z</time>
      </trkpt>
      <trkpt lat="52.456474006175995" lon="4.65771596878767">
        <ele>8.310000000000001</ele>
        <time>2019-08-30T10:51:29Z</time>
      </trkpt>
      <trkpt lat="52.456854041665792" lon="4.657525029033423">
        <ele>7.83</ele>
        <time>2019-08-30T10:51:40Z</time>
      </trkpt>
      <trkpt lat="52.456917995586991" lon="4.657496027648449">
        <ele>8.310000000000001</ele>
        <time>2019-08-30T10:51:51Z</time>
      </trkpt>
      <trkpt lat="52.457160986959934" lon="4.657402988523245">
        <ele>8.789999999999999</ele>
        <time>2019-08-30T10:52:06Z</time>
      </trkpt>
      <trkpt lat="52.457225024700165" lon="4.657382033765316">
        <ele>8.310000000000001</ele>
        <time>2019-08-30T10:52:15Z</time>
      </trkpt>
      <trkpt lat="52.457540016621351" lon="4.657277008518577">
        <ele>7.35</ele>
        <time>2019-08-30T10:52:23Z</time>
      </trkpt>
      <trkpt lat="52.457587039098144" lon="4.657260999083519">
        <ele>7.35</ele>
        <time>2019-08-30T10:52:31Z</time>
      </trkpt>
      <trkpt lat="52.457604976370931" lon="4.657254964113236">
        <ele>7.35</ele>
        <time>2019-08-30T10:53:08Z</time>
      </trkpt>
      <trkpt lat="52.457993980497122" lon="4.657120015472174">
        <ele>6.87</ele>
        <time>2019-08-30T10:53:15Z</time>
      </trkpt>
      <trkpt lat="52.458271002396941" lon="4.657024964690208">
        <ele>6.39</ele>
        <time>2019-08-30T10:53:19Z</time>
      </trkpt>
      <trkpt lat="52.458330010995269" lon="4.656991017982364">
        <ele>6.39</ele>
        <time>2019-08-30T10:53:20Z</time>
      </trkpt>
      <trkpt lat="52.458361024037004" lon="4.656836036592722">
        <ele>6.39</ele>
        <time>2019-08-30T10:53:21Z</time>
      </trkpt>
      <trkpt lat="52.458339985460043" lon="4.656740985810757">
        <ele>5.91</ele>
        <time>2019-08-30T10:53:22Z</time>
      </trkpt>
      <trkpt lat="52.458316013216972" lon="4.656615005806088">
        <ele>5.91</ele>
        <time>2019-08-30T10:53:23Z</time>
      </trkpt>
      <trkpt lat="52.458296986296773" lon="4.656481985002756">
        <ele>5.91</ele>
        <time>2019-08-30T10:53:24Z</time>
      </trkpt>
      <trkpt lat="52.458276031538844" lon="4.656333960592747">
        <ele>5.91</ele>
        <time>2019-08-30T10:53:25Z</time>
      </trkpt>
      <trkpt lat="52.458254992961884" lon="4.656175961717963">
        <ele>5.91</ele>
        <time>2019-08-30T10:53:26Z</time>
      </trkpt>
      <trkpt lat="52.458013007417321" lon="4.654283998534083">
        <ele>2.06</ele>
        <time>2019-08-30T10:53:36Z</time>
      </trkpt>
      <trkpt lat="52.457893984392285" lon="4.653311027213931">
        <ele>1.1</ele>
        <time>2019-08-30T10:53:40Z</time>
      </trkpt>
      <trkpt lat="52.457893984392285" lon="4.65305102057755">
        <ele>1.1</ele>
        <time>2019-08-30T10:53:41Z</time>
      </trkpt>
      <trkpt lat="52.457910999655724" lon="4.652786990627646">
        <ele>1.1</ele>
        <time>2019-08-30T10:53:42Z</time>
      </trkpt>
      <trkpt lat="52.457938995212317" lon="4.652534024789929">
        <ele>1.1</ele>
        <time>2019-08-30T10:53:43Z</time>
      </trkpt>
      <trkpt lat="52.457969002425671" lon="4.652280975133181">
        <ele>1.58</ele>
        <time>2019-08-30T10:53:44Z</time>
      </trkpt>
      <trkpt lat="52.458000015467405" lon="4.652043012902141">
        <ele>1.58</ele>
        <time>2019-08-30T10:53:45Z</time>
      </trkpt>
      <trkpt lat="52.458038991317153" lon="4.651821982115507">
        <ele>1.1</ele>
        <time>2019-08-30T10:53:46Z</time>
      </trkpt>
      <trkpt lat="52.4580969940871" lon="4.651637999340892">
        <ele>1.58</ele>
        <time>2019-08-30T10:53:47Z</time>
      </trkpt>
      <trkpt lat="52.458149967715144" lon="4.651471031829715">
        <ele>1.58</ele>
        <time>2019-08-30T10:53:48Z</time>
      </trkpt>
      <trkpt lat="52.458364041522145" lon="4.650949006900191">
        <ele>1.58</ele>
        <time>2019-08-30T10:53:54Z</time>
      </trkpt>
      <trkpt lat="52.458388013765216" lon="4.650897039100528">
        <ele>1.58</ele>
        <time>2019-08-30T10:53:55Z</time>
      </trkpt>
      <trkpt lat="52.458417015150189" lon="4.650833001360297">
        <ele>2.06</ele>
        <time>2019-08-30T10:53:56Z</time>
      </trkpt>
      <trkpt lat="52.458867039531469" lon="4.650051975622773">
        <ele>1.58</ele>
        <time>2019-08-30T10:54:04Z</time>
      </trkpt>
      <trkpt lat="52.459649993106723" lon="4.648403003811836">
        <ele>1.1</ele>
        <time>2019-08-30T10:54:14Z</time>
      </trkpt>
      <trkpt lat="52.460501007735729" lon="4.646795019507408">
        <ele>1.1</ele>
        <time>2019-08-30T10:54:23Z</time>
      </trkpt>
      <trkpt lat="52.460602009668946" lon="4.646640038117766">
        <ele>1.1</ele>
        <time>2019-08-30T10:54:24Z</time>
      </trkpt>
      <trkpt lat="52.460710974410176" lon="4.646500982344151">
        <ele>1.1</ele>
        <time>2019-08-30T10:54:25Z</time>
      </trkpt>
      <trkpt lat="52.460938040167093" lon="4.646266037598252">
        <ele>0.62</ele>
        <time>2019-08-30T10:54:27Z</time>
      </trkpt>
      <trkpt lat="52.461652010679245" lon="4.645736971870065">
        <ele>0.14</ele>
        <time>2019-08-30T10:54:33Z</time>
      </trkpt>
      <trkpt lat="52.461754018440843" lon="4.645594982430339">
        <ele>0.14</ele>
        <time>2019-08-30T10:54:34Z</time>
      </trkpt>
      <trkpt lat="52.461857032030821" lon="4.645450981333852">
        <ele>0.62</ele>
        <time>2019-08-30T10:54:35Z</time>
      </trkpt>
      <trkpt lat="52.461961973458529" lon="4.645304968580604">
        <ele>0.62</ele>
        <time>2019-08-30T10:54:36Z</time>
      </trkpt>
      <trkpt lat="52.462042020633817" lon="4.645116040483117">
        <ele>0.62</ele>
        <time>2019-08-30T10:54:37Z</time>
      </trkpt>
      <trkpt lat="52.462112009525299" lon="4.644914036616683">
        <ele>1.1</ele>
        <time>2019-08-30T10:54:38Z</time>
      </trkpt>
      <trkpt lat="52.462181998416781" lon="4.644710021093488">
        <ele>1.1</ele>
        <time>2019-08-30T10:54:39Z</time>
      </trkpt>
      <trkpt lat="52.462250981479883" lon="4.644507011398673">
        <ele>1.58</ele>
        <time>2019-08-30T10:54:40Z</time>
      </trkpt>
      <trkpt lat="52.462296998128295" lon="4.644287992268801">
        <ele>1.58</ele>
        <time>2019-08-30T10:54:41Z</time>
      </trkpt>
      <trkpt lat="52.462333962321281" lon="4.644057992845774">
        <ele>1.58</ele>
        <time>2019-08-30T10:54:42Z</time>
      </trkpt>
      <trkpt lat="52.4623710103333" lon="4.643825981765986">
        <ele>1.58</ele>
        <time>2019-08-30T10:54:43Z</time>
      </trkpt>
      <trkpt lat="52.462376961484551" lon="4.643580978736281">
        <ele>1.58</ele>
        <time>2019-08-30T10:54:44Z</time>
      </trkpt>
      <trkpt lat="52.462376039475203" lon="4.643337987363339">
        <ele>1.58</ele>
        <time>2019-08-30T10:54:45Z</time>
      </trkpt>
      <trkpt lat="52.462360030040145" lon="4.640596015378833">
        <ele>1.1</ele>
        <time>2019-08-30T10:54:57Z</time>
      </trkpt>
      <trkpt lat="52.462357012555003" lon="4.637014009058476">
        <ele>3.98</ele>
        <time>2019-08-30T10:55:14Z</time>
      </trkpt>
      <trkpt lat="52.462377967312932" lon="4.634493989869952">
        <ele>6.39</ele>
        <time>2019-08-30T10:55:27Z</time>
      </trkpt>
      <trkpt lat="52.462290963158011" lon="4.633900970220566">
        <ele>6.87</ele>
        <time>2019-08-30T10:55:34Z</time>
      </trkpt>
      <trkpt lat="52.462164983153343" lon="4.633237039670348">
        <ele>5.91</ele>
        <time>2019-08-30T10:55:42Z</time>
      </trkpt>
      <trkpt lat="52.462100023403764" lon="4.632803024724126">
        <ele>5.42</ele>
        <time>2019-08-30T10:55:47Z</time>
      </trkpt>
      <trkpt lat="52.462128018960357" lon="4.632471017539501">
        <ele>4.94</ele>
        <time>2019-08-30T10:55:50Z</time>
      </trkpt>
      <trkpt lat="52.462137993425131" lon="4.632356017827988">
        <ele>5.42</ele>
        <time>2019-08-30T10:55:51Z</time>
      </trkpt>
      <trkpt lat="52.462151991203427" lon="4.632273036986589">
        <ele>5.42</ele>
        <time>2019-08-30T10:55:52Z</time>
      </trkpt>
      <trkpt lat="52.462188033387065" lon="4.632166000083089">
        <ele>5.42</ele>
        <time>2019-08-30T10:55:53Z</time>
      </trkpt>
      <trkpt lat="52.462227009236813" lon="4.632049994543195">
        <ele>5.42</ele>
        <time>2019-08-30T10:55:54Z</time>
      </trkpt>
      <trkpt lat="52.462266990914941" lon="4.631929965689778">
        <ele>5.42</ele>
        <time>2019-08-30T10:55:55Z</time>
      </trkpt>
      <trkpt lat="52.46230898424983" lon="4.63182301260531">
        <ele>5.42</ele>
        <time>2019-08-30T10:55:56Z</time>
      </trkpt>
      <trkpt lat="52.462961012497544" lon="4.630661029368639">
        <ele>6.87</ele>
        <time>2019-08-30T10:56:06Z</time>
      </trkpt>
      <trkpt lat="52.463478008285165" lon="4.629209032282233">
        <ele>10.23</ele>
        <time>2019-08-30T10:56:14Z</time>
      </trkpt>
      <trkpt lat="52.463560989126563" lon="4.628526996821165">
        <ele>10.710000000000001</ele>
        <time>2019-08-30T10:56:17Z</time>
      </trkpt>
      <trkpt lat="52.463579010218382" lon="4.628296997398138">
        <ele>11.19</ele>
        <time>2019-08-30T10:56:18Z</time>
      </trkpt>
      <trkpt lat="52.463558977469802" lon="4.625274986028671">
        <ele>12.630000000000001</ele>
        <time>2019-08-30T10:56:30Z</time>
      </trkpt>
      <trkpt lat="52.463527964428067" lon="4.620792008936405">
        <ele>14.08</ele>
        <time>2019-08-30T10:56:46Z</time>
      </trkpt>
      <trkpt lat="52.463497035205364" lon="4.616203000769019">
        <ele>15.039999999999999</ele>
        <time>2019-08-30T10:57:01Z</time>
      </trkpt>
      <trkpt lat="52.463482031598687" lon="4.614047007635236">
        <ele>11.67</ele>
        <time>2019-08-30T10:57:10Z</time>
      </trkpt>
      <trkpt lat="52.463458981364965" lon="4.610591987147927">
        <ele>10.710000000000001</ele>
        <time>2019-08-30T10:57:24Z</time>
      </trkpt>
      <trkpt lat="52.463372983038425" lon="4.607305023819208">
        <ele>10.710000000000001</ele>
        <time>2019-08-30T10:57:39Z</time>
      </trkpt>
      <trkpt lat="52.463178019970655" lon="4.606226021423936">
        <ele>9.27</ele>
        <time>2019-08-30T10:57:46Z</time>
      </trkpt>
      <trkpt lat="52.463179025799036" lon="4.606076991185546">
        <ele>9.27</ele>
        <time>2019-08-30T10:57:47Z</time>
      </trkpt>
      <trkpt lat="52.463220013305545" lon="4.606008008122444">
        <ele>8.789999999999999</ele>
        <time>2019-08-30T10:57:48Z</time>
      </trkpt>
      <trkpt lat="52.463268963620067" lon="4.605923015624285">
        <ele>8.789999999999999</ele>
        <time>2019-08-30T10:57:49Z</time>
      </trkpt>
      <trkpt lat="52.463326966390014" lon="4.605825031176209">
        <ele>8.789999999999999</ele>
        <time>2019-08-30T10:57:50Z</time>
      </trkpt>
      <trkpt lat="52.46338002383709" lon="4.605692010372877">
        <ele>8.789999999999999</ele>
        <time>2019-08-30T10:57:51Z</time>
      </trkpt>
      <trkpt lat="52.463409025222063" lon="4.605556977912784">
        <ele>8.789999999999999</ele>
        <time>2019-08-30T10:57:52Z</time>
      </trkpt>
      <trkpt lat="52.463429979979992" lon="4.605394033715129">
        <ele>8.789999999999999</ele>
        <time>2019-08-30T10:57:53Z</time>
      </trkpt>
      <trkpt lat="52.463429979979992" lon="4.605232011526823">
        <ele>8.789999999999999</ele>
        <time>2019-08-30T10:57:54Z</time>
      </trkpt>
      <trkpt lat="52.463429979979992" lon="4.605056997388601">
        <ele>8.789999999999999</ele>
        <time>2019-08-30T10:57:55Z</time>
      </trkpt>
      <trkpt lat="52.463400978595018" lon="4.602771000936627">
        <ele>8.789999999999999</ele>
        <time>2019-08-30T10:58:06Z</time>
      </trkpt>
      <trkpt lat="52.463300982490182" lon="4.600635040551424">
        <ele>8.789999999999999</ele>
        <time>2019-08-30T10:58:17Z</time>
      </trkpt>
      <trkpt lat="52.463365020230412" lon="4.596889000386">
        <ele>9.75</ele>
        <time>2019-08-30T10:58:36Z</time>
      </trkpt>
      <trkpt lat="52.4634899944067" lon="4.594017025083304">
        <ele>9.27</ele>
        <time>2019-08-30T10:58:50Z</time>
      </trkpt>
      <trkpt lat="52.463494017720222" lon="4.591844016686082">
        <ele>7.35</ele>
        <time>2019-08-30T10:59:01Z</time>
      </trkpt>
      <trkpt lat="52.463485971093178" lon="4.589598001912236">
        <ele>6.87</ele>
        <time>2019-08-30T10:59:14Z</time>
      </trkpt>
      <trkpt lat="52.463437020778656" lon="4.587784996256232">
        <ele>8.310000000000001</ele>
        <time>2019-08-30T10:59:26Z</time>
      </trkpt>
      <trkpt lat="52.463411036878824" lon="4.587116958573461">
        <ele>7.83</ele>
        <time>2019-08-30T10:59:32Z</time>
      </trkpt>
      <trkpt lat="52.463408019393682" lon="4.58704998716712">
        <ele>7.83</ele>
        <time>2019-08-30T10:59:33Z</time>
      </trkpt>
      <trkpt lat="52.463379018008709" lon="4.587015034630895">
        <ele>8.310000000000001</ele>
        <time>2019-08-30T10:59:34Z</time>
      </trkpt>
      <trkpt lat="52.463345993310213" lon="4.586974969133735">
        <ele>8.310000000000001</ele>
        <time>2019-08-30T10:59:35Z</time>
      </trkpt>
      <trkpt lat="52.463300982490182" lon="4.58692098967731">
        <ele>8.310000000000001</ele>
        <time>2019-08-30T10:59:36Z</time>
      </trkpt>
      <trkpt lat="52.463272986933589" lon="4.586925012990832">
        <ele>8.310000000000001</ele>
        <time>2019-08-30T10:59:37Z</time>
      </trkpt>
      <trkpt lat="52.463221019133925" lon="4.586931969970465">
        <ele>8.310000000000001</ele>
        <time>2019-08-30T10:59:38Z</time>
      </trkpt>
      <trkpt lat="52.463164022192359" lon="4.586940016597509">
        <ele>7.83</ele>
        <time>2019-08-30T10:59:39Z</time>
      </trkpt>
      <trkpt lat="52.462493972852826" lon="4.587036995217204">
        <ele>7.83</ele>
        <time>2019-08-30T10:59:51Z</time>
      </trkpt>
      <trkpt lat="52.462464971467853" lon="4.587044036015868">
        <ele>7.83</ele>
        <time>2019-08-30T10:59:59Z</time>
      </trkpt>
      <trkpt lat="52.462443010881543" lon="4.58704998716712">
        <ele>7.83</ele>
        <time>2019-08-30T11:00:00Z</time>
      </trkpt>
      <trkpt lat="52.462413003668189" lon="4.587119976058602">
        <ele>7.83</ele>
        <time>2019-08-30T11:00:01Z</time>
      </trkpt>
      <trkpt lat="52.462384002283216" lon="4.587189964950085">
        <ele>7.83</ele>
        <time>2019-08-30T11:00:02Z</time>
      </trkpt>
      <trkpt lat="52.462240001186728" lon="4.587532030418515">
        <ele>7.83</ele>
        <time>2019-08-30T11:00:06Z</time>
      </trkpt>
      <trkpt lat="52.462208988144994" lon="4.587606964632869">
        <ele>7.83</ele>
        <time>2019-08-30T11:00:07Z</time>
      </trkpt>
      <trkpt lat="52.462068004533648" lon="4.587942995131016">
        <ele>6.39</ele>
        <time>2019-08-30T11:00:16Z</time>
      </trkpt>
      <trkpt lat="52.462068004533648" lon="4.587942995131016">
        <ele>6.39</ele>
        <time>2019-08-30T11:00:35Z</time>
      </trkpt>
      <trkpt lat="52.462068004533648" lon="4.587942995131016">
        <ele>6.39</ele>
        <time>2019-08-30T11:01:12Z</time>
      </trkpt>
      <trkpt lat="52.462010001763701" lon="4.58812496624887">
        <ele>5.42</ele>
        <time>2019-08-30T11:01:51Z</time>
      </trkpt>
      <trkpt lat="52.461930038407445" lon="4.588390002027154">
        <ele>5.91</ele>
        <time>2019-08-30T11:01:54Z</time>
      </trkpt>
      <trkpt lat="52.461910005658865" lon="4.588454039767385">
        <ele>5.91</ele>
        <time>2019-08-30T11:01:55Z</time>
      </trkpt>
      <trkpt lat="52.461883015930653" lon="4.588544983416796">
        <ele>5.42</ele>
        <time>2019-08-30T11:02:03Z</time>
      </trkpt>
    </trkseg>
  </trk>

</gpx>